<?xml version='1.0' encoding='UTF-8'?><gpx version="1.1" creator="JPX - https://github.com/jenetics/jpx" xmlns="http://www.topografix.com/GPX/1/1"><trk><trkseg><trkpt lat="44.6867817" lon="10.0969233"><ele>145.0</ele><time>2026-04-26T09:37:44.938Z</time></trkpt><trkpt lat="44.68668" lon="10.0969117"><ele>145.0</ele><time>2026-04-26T09:37:46.937Z</time></trkpt><trkpt lat="44.6866133" lon="10.09682"><ele>145.0</ele><time>2026-04-26T09:37:49.938Z</time></trkpt><trkpt lat="44.6865083" lon="10.0967533"><ele>145.0</ele><time>2026-04-26T09:37:51.938Z</time></trkpt><trkpt lat="44.68641" lon="10.0967317"><ele>145.0</ele><time>2026-04-26T09:37:52.938Z</time></trkpt><trkpt lat="44.6862883" lon="10.0967133"><ele>145.0</ele><time>2026-04-26T09:37:53.938Z</time></trkpt><trkpt lat="44.6861567" lon="10.0966867"><ele>145.0</ele><time>2026-04-26T09:37:54.937Z</time></trkpt><trkpt lat="44.68601" lon="10.096655"><ele>145.0</ele><time>2026-04-26T09:37:55.938Z</time></trkpt><trkpt lat="44.6858483" lon="10.0966217"><ele>145.0</ele><time>2026-04-26T09:37:56.938Z</time></trkpt><trkpt lat="44.6856717" lon="10.096585"><ele>145.0</ele><time>2026-04-26T09:37:57.937Z</time></trkpt><trkpt lat="44.6855083" lon="10.09656"><ele>145.0</ele><time>2026-04-26T09:37:58.937Z</time></trkpt><trkpt lat="44.6853533" lon="10.0965233"><ele>145.0</ele><time>2026-04-26T09:37:59.938Z</time></trkpt><trkpt lat="44.6851967" lon="10.0965"><ele>145.0</ele><time>2026-04-26T09:38:00.938Z</time></trkpt><trkpt lat="44.6850383" lon="10.09647"><ele>145.0</ele><time>2026-04-26T09:38:01.937Z</time></trkpt><trkpt lat="44.6848733" lon="10.0964283"><ele>145.0</ele><time>2026-04-26T09:38:02.938Z</time></trkpt><trkpt lat="44.684705" lon="10.0963917"><ele>145.0</ele><time>2026-04-26T09:38:03.938Z</time></trkpt><trkpt lat="44.684535" lon="10.0963533"><ele>145.0</ele><time>2026-04-26T09:38:04.938Z</time></trkpt><trkpt lat="44.6843667" lon="10.096315"><ele>145.0</ele><time>2026-04-26T09:38:05.938Z</time></trkpt><trkpt lat="44.6841967" lon="10.096275"><ele>145.33333333333334</ele><time>2026-04-26T09:38:06.938Z</time></trkpt><trkpt lat="44.684015" lon="10.0962367"><ele>145.66666666666666</ele><time>2026-04-26T09:38:07.937Z</time></trkpt><trkpt lat="44.6838433" lon="10.0962"><ele>146.0</ele><time>2026-04-26T09:38:08.938Z</time></trkpt><trkpt lat="44.6836617" lon="10.09616"><ele>146.0</ele><time>2026-04-26T09:38:09.938Z</time></trkpt><trkpt lat="44.6834933" lon="10.0961217"><ele>146.0</ele><time>2026-04-26T09:38:10.937Z</time></trkpt><trkpt lat="44.683325" lon="10.09609"><ele>146.0</ele><time>2026-04-26T09:38:11.938Z</time></trkpt><trkpt lat="44.6831617" lon="10.096055"><ele>146.0</ele><time>2026-04-26T09:38:12.938Z</time></trkpt><trkpt lat="44.6830033" lon="10.0960067"><ele>146.0</ele><time>2026-04-26T09:38:13.938Z</time></trkpt><trkpt lat="44.68284" lon="10.0959683"><ele>146.0</ele><time>2026-04-26T09:38:14.938Z</time></trkpt><trkpt lat="44.6826817" lon="10.0959367"><ele>147.0</ele><time>2026-04-26T09:38:15.938Z</time></trkpt><trkpt lat="44.6825167" lon="10.0959"><ele>148.0</ele><time>2026-04-26T09:38:16.938Z</time></trkpt><trkpt lat="44.6823483" lon="10.0958533"><ele>149.0</ele><time>2026-04-26T09:38:17.938Z</time></trkpt><trkpt lat="44.6821817" lon="10.0958117"><ele>149.0</ele><time>2026-04-26T09:38:18.938Z</time></trkpt><trkpt lat="44.6820167" lon="10.0957667"><ele>149.0</ele><time>2026-04-26T09:38:19.938Z</time></trkpt><trkpt lat="44.68185" lon="10.09572"><ele>149.0</ele><time>2026-04-26T09:38:20.938Z</time></trkpt><trkpt lat="44.6816817" lon="10.0956717"><ele>148.0</ele><time>2026-04-26T09:38:21.938Z</time></trkpt><trkpt lat="44.6815167" lon="10.095625"><ele>147.0</ele><time>2026-04-26T09:38:22.938Z</time></trkpt><trkpt lat="44.6813567" lon="10.09557"><ele>146.0</ele><time>2026-04-26T09:38:23.938Z</time></trkpt><trkpt lat="44.6811983" lon="10.0955017"><ele>145.66666666666666</ele><time>2026-04-26T09:38:24.938Z</time></trkpt><trkpt lat="44.6810467" lon="10.0954267"><ele>145.33333333333334</ele><time>2026-04-26T09:38:25.937Z</time></trkpt><trkpt lat="44.6808917" lon="10.0953583"><ele>145.0</ele><time>2026-04-26T09:38:26.937Z</time></trkpt><trkpt lat="44.6807483" lon="10.09529"><ele>145.0</ele><time>2026-04-26T09:38:27.938Z</time></trkpt><trkpt lat="44.68062" lon="10.0952233"><ele>145.0</ele><time>2026-04-26T09:38:28.938Z</time></trkpt><trkpt lat="44.6804933" lon="10.09515"><ele>145.0</ele><time>2026-04-26T09:38:29.938Z</time></trkpt><trkpt lat="44.6803717" lon="10.09508"><ele>145.0</ele><time>2026-04-26T09:38:30.938Z</time></trkpt><trkpt lat="44.68025" lon="10.0950117"><ele>145.5</ele><time>2026-04-26T09:38:31.937Z</time></trkpt><trkpt lat="44.6801317" lon="10.09494"><ele>146.0</ele><time>2026-04-26T09:38:32.937Z</time></trkpt><trkpt lat="44.68001" lon="10.094865"><ele>146.5</ele><time>2026-04-26T09:38:33.938Z</time></trkpt><trkpt lat="44.6799" lon="10.09479"><ele>147.0</ele><time>2026-04-26T09:38:34.937Z</time></trkpt><trkpt lat="44.6797967" lon="10.094715"><ele>147.2</ele><time>2026-04-26T09:38:35.938Z</time></trkpt><trkpt lat="44.6796933" lon="10.0946433"><ele>147.39999999999998</ele><time>2026-04-26T09:38:36.938Z</time></trkpt><trkpt lat="44.6796017" lon="10.0945767"><ele>147.60000000000002</ele><time>2026-04-26T09:38:37.938Z</time></trkpt><trkpt lat="44.6795167" lon="10.09451"><ele>147.8</ele><time>2026-04-26T09:38:38.938Z</time></trkpt><trkpt lat="44.6794417" lon="10.0944467"><ele>148.0</ele><time>2026-04-26T09:38:39.938Z</time></trkpt><trkpt lat="44.6793833" lon="10.0943767"><ele>148.0</ele><time>2026-04-26T09:38:40.938Z</time></trkpt><trkpt lat="44.6793317" lon="10.0942867"><ele>148.0</ele><time>2026-04-26T09:38:41.938Z</time></trkpt><trkpt lat="44.6792833" lon="10.09418"><ele>148.0</ele><time>2026-04-26T09:38:42.938Z</time></trkpt><trkpt lat="44.679235" lon="10.0940667"><ele>148.0</ele><time>2026-04-26T09:38:43.938Z</time></trkpt><trkpt lat="44.679205" lon="10.0939483"><ele>148.0</ele><time>2026-04-26T09:38:44.938Z</time></trkpt><trkpt lat="44.6791933" lon="10.093845"><ele>148.0</ele><time>2026-04-26T09:38:45.938Z</time></trkpt><trkpt lat="44.6792067" lon="10.0937483"><ele>148.0</ele><time>2026-04-26T09:38:46.938Z</time></trkpt><trkpt lat="44.6792867" lon="10.0936183"><ele>148.0</ele><time>2026-04-26T09:38:48.937Z</time></trkpt><trkpt lat="44.6793333" lon="10.0935517"><ele>148.0</ele><time>2026-04-26T09:38:49.938Z</time></trkpt><trkpt lat="44.6793817" lon="10.0934767"><ele>148.0</ele><time>2026-04-26T09:38:50.938Z</time></trkpt><trkpt lat="44.6794317" lon="10.0933883"><ele>148.0</ele><time>2026-04-26T09:38:51.937Z</time></trkpt><trkpt lat="44.6794817" lon="10.0932933"><ele>148.0</ele><time>2026-04-26T09:38:52.938Z</time></trkpt><trkpt lat="44.6795367" lon="10.0931967"><ele>147.33333333333334</ele><time>2026-04-26T09:38:53.938Z</time></trkpt><trkpt lat="44.67958" lon="10.0931033"><ele>146.66666666666669</ele><time>2026-04-26T09:38:54.938Z</time></trkpt><trkpt lat="44.6796183" lon="10.0930133"><ele>146.0</ele><time>2026-04-26T09:38:55.937Z</time></trkpt><trkpt lat="44.6796633" lon="10.0929117"><ele>145.33333333333334</ele><time>2026-04-26T09:38:56.938Z</time></trkpt><trkpt lat="44.6796967" lon="10.0927983"><ele>144.66666666666666</ele><time>2026-04-26T09:38:57.937Z</time></trkpt><trkpt lat="44.679725" lon="10.09267"><ele>144.0</ele><time>2026-04-26T09:38:58.938Z</time></trkpt><trkpt lat="44.6797533" lon="10.0925433"><ele>144.0</ele><time>2026-04-26T09:38:59.938Z</time></trkpt><trkpt lat="44.6797867" lon="10.09243"><ele>144.0</ele><time>2026-04-26T09:39:00.938Z</time></trkpt><trkpt lat="44.679835" lon="10.092325"><ele>144.0</ele><time>2026-04-26T09:39:01.938Z</time></trkpt><trkpt lat="44.6798967" lon="10.0922283"><ele>144.0</ele><time>2026-04-26T09:39:02.938Z</time></trkpt><trkpt lat="44.679965" lon="10.0921283"><ele>144.0</ele><time>2026-04-26T09:39:03.938Z</time></trkpt><trkpt lat="44.68003" lon="10.0920433"><ele>144.0</ele><time>2026-04-26T09:39:04.938Z</time></trkpt><trkpt lat="44.6800917" lon="10.0919617"><ele>144.0</ele><time>2026-04-26T09:39:05.938Z</time></trkpt><trkpt lat="44.680145" lon="10.091885"><ele>144.0</ele><time>2026-04-26T09:39:06.938Z</time></trkpt><trkpt lat="44.6801867" lon="10.0918067"><ele>144.0</ele><time>2026-04-26T09:39:07.938Z</time></trkpt><trkpt lat="44.6802033" lon="10.09165"><ele>144.0</ele><time>2026-04-26T09:39:09.938Z</time></trkpt><trkpt lat="44.6801417" lon="10.0915033"><ele>144.4</ele><time>2026-04-26T09:39:11.938Z</time></trkpt><trkpt lat="44.68008" lon="10.09141"><ele>144.8</ele><time>2026-04-26T09:39:12.938Z</time></trkpt><trkpt lat="44.680015" lon="10.0913033"><ele>145.2</ele><time>2026-04-26T09:39:13.938Z</time></trkpt><trkpt lat="44.6799483" lon="10.09118"><ele>145.6</ele><time>2026-04-26T09:39:14.938Z</time></trkpt><trkpt lat="44.6798983" lon="10.0910517"><ele>146.0</ele><time>2026-04-26T09:39:15.938Z</time></trkpt><trkpt lat="44.6798433" lon="10.0909383"><ele>146.0</ele><time>2026-04-26T09:39:16.938Z</time></trkpt><trkpt lat="44.6797867" lon="10.090835"><ele>146.0</ele><time>2026-04-26T09:39:17.938Z</time></trkpt><trkpt lat="44.679735" lon="10.09075"><ele>146.0</ele><time>2026-04-26T09:39:18.937Z</time></trkpt><trkpt lat="44.67968" lon="10.0906667"><ele>146.0</ele><time>2026-04-26T09:39:19.938Z</time></trkpt><trkpt lat="44.6796317" lon="10.09058"><ele>146.0</ele><time>2026-04-26T09:39:20.937Z</time></trkpt><trkpt lat="44.6795933" lon="10.0904833"><ele>146.0</ele><time>2026-04-26T09:39:21.938Z</time></trkpt><trkpt lat="44.6795533" lon="10.0903717"><ele>146.2</ele><time>2026-04-26T09:39:22.938Z</time></trkpt><trkpt lat="44.679505" lon="10.0902567"><ele>146.39999999999998</ele><time>2026-04-26T09:39:23.937Z</time></trkpt><trkpt lat="44.679445" lon="10.0901533"><ele>146.6</ele><time>2026-04-26T09:39:24.938Z</time></trkpt><trkpt lat="44.6793667" lon="10.0900533"><ele>146.79999999999998</ele><time>2026-04-26T09:39:25.938Z</time></trkpt><trkpt lat="44.6792867" lon="10.08995"><ele>147.0</ele><time>2026-04-26T09:39:26.938Z</time></trkpt><trkpt lat="44.6792133" lon="10.0898433"><ele>147.0</ele><time>2026-04-26T09:39:27.938Z</time></trkpt><trkpt lat="44.6791517" lon="10.08973"><ele>147.0</ele><time>2026-04-26T09:39:28.938Z</time></trkpt><trkpt lat="44.6790917" lon="10.0896283"><ele>147.0</ele><time>2026-04-26T09:39:29.937Z</time></trkpt><trkpt lat="44.6790217" lon="10.0895367"><ele>147.0</ele><time>2026-04-26T09:39:30.938Z</time></trkpt><trkpt lat="44.6789367" lon="10.08946"><ele>147.0</ele><time>2026-04-26T09:39:31.938Z</time></trkpt><trkpt lat="44.6788533" lon="10.0894067"><ele>147.0</ele><time>2026-04-26T09:39:32.938Z</time></trkpt><trkpt lat="44.67878" lon="10.089365"><ele>147.0</ele><time>2026-04-26T09:39:33.938Z</time></trkpt><trkpt lat="44.6787183" lon="10.0893217"><ele>147.0</ele><time>2026-04-26T09:39:34.938Z</time></trkpt><trkpt lat="44.67865" lon="10.089265"><ele>147.0</ele><time>2026-04-26T09:39:36.938Z</time></trkpt><trkpt lat="44.6786433" lon="10.0893583"><ele>147.0</ele><time>2026-04-26T09:39:41.938Z</time></trkpt><trkpt lat="44.6787283" lon="10.089375"><ele>147.0</ele><time>2026-04-26T09:39:43.938Z</time></trkpt><trkpt lat="44.6787933" lon="10.0894167"><ele>147.0</ele><time>2026-04-26T09:39:45.938Z</time></trkpt><trkpt lat="44.6787733" lon="10.0895133"><ele>147.0</ele><time>2026-04-26T09:39:47.937Z</time></trkpt><trkpt lat="44.67873" lon="10.08959"><ele>147.0</ele><time>2026-04-26T09:39:48.937Z</time></trkpt><trkpt lat="44.6786667" lon="10.0896633"><ele>147.0</ele><time>2026-04-26T09:39:49.937Z</time></trkpt><trkpt lat="44.6785767" lon="10.08974"><ele>147.0</ele><time>2026-04-26T09:39:50.937Z</time></trkpt><trkpt lat="44.67848" lon="10.0898133"><ele>147.0</ele><time>2026-04-26T09:39:51.937Z</time></trkpt><trkpt lat="44.6784033" lon="10.0898717"><ele>147.0</ele><time>2026-04-26T09:39:52.937Z</time></trkpt><trkpt lat="44.6783417" lon="10.0899133"><ele>147.0</ele><time>2026-04-26T09:39:53.936Z</time></trkpt><trkpt lat="44.67826" lon="10.089955"><ele>147.0</ele><time>2026-04-26T09:39:55.937Z</time></trkpt><trkpt lat="44.6783483" lon="10.0899583"><ele>147.0</ele><time>2026-04-26T09:40:02.937Z</time></trkpt><trkpt lat="44.6784083" lon="10.0899"><ele>147.0</ele><time>2026-04-26T09:40:03.937Z</time></trkpt><trkpt lat="44.6784833" lon="10.0898367"><ele>147.0</ele><time>2026-04-26T09:40:04.937Z</time></trkpt><trkpt lat="44.6785533" lon="10.0897767"><ele>147.0</ele><time>2026-04-26T09:40:05.937Z</time></trkpt><trkpt lat="44.6786167" lon="10.0897167"><ele>147.0</ele><time>2026-04-26T09:40:06.937Z</time></trkpt><trkpt lat="44.6786783" lon="10.0896617"><ele>147.0</ele><time>2026-04-26T09:40:07.937Z</time></trkpt><trkpt lat="44.678735" lon="10.0896067"><ele>147.0</ele><time>2026-04-26T09:40:08.937Z</time></trkpt><trkpt lat="44.6787933" lon="10.089475"><ele>147.0</ele><time>2026-04-26T09:40:10.937Z</time></trkpt><trkpt lat="44.678765" lon="10.08937"><ele>147.0</ele><time>2026-04-26T09:40:12.937Z</time></trkpt><trkpt lat="44.678665" lon="10.08928"><ele>147.0</ele><time>2026-04-26T09:40:14.937Z</time></trkpt><trkpt lat="44.678595" lon="10.089235"><ele>147.0</ele><time>2026-04-26T09:40:15.937Z</time></trkpt><trkpt lat="44.6785283" lon="10.0891833"><ele>147.0</ele><time>2026-04-26T09:40:16.937Z</time></trkpt><trkpt lat="44.6784633" lon="10.089125"><ele>147.0</ele><time>2026-04-26T09:40:18.937Z</time></trkpt><trkpt lat="44.678495" lon="10.089"><ele>147.0</ele><time>2026-04-26T09:40:24.937Z</time></trkpt><trkpt lat="44.6785167" lon="10.08888"><ele>147.0</ele><time>2026-04-26T09:40:26.936Z</time></trkpt><trkpt lat="44.67851" lon="10.0887817"><ele>147.0</ele><time>2026-04-26T09:40:28.936Z</time></trkpt><trkpt lat="44.67852" lon="10.0886883"><ele>147.0</ele><time>2026-04-26T09:40:31.937Z</time></trkpt><trkpt lat="44.678565" lon="10.0886233"><ele>147.0</ele><time>2026-04-26T09:40:33.937Z</time></trkpt><trkpt lat="44.6786433" lon="10.08853"><ele>147.0</ele><time>2026-04-26T09:40:35.937Z</time></trkpt><trkpt lat="44.678715" lon="10.0884533"><ele>147.0</ele><time>2026-04-26T09:40:37.937Z</time></trkpt><trkpt lat="44.6787533" lon="10.0883217"><ele>147.0</ele><time>2026-04-26T09:40:39.936Z</time></trkpt><trkpt lat="44.6787517" lon="10.088155"><ele>146.79999999999998</ele><time>2026-04-26T09:40:41.936Z</time></trkpt><trkpt lat="44.6787233" lon="10.0880067"><ele>146.6</ele><time>2026-04-26T09:40:43.937Z</time></trkpt><trkpt lat="44.6786583" lon="10.0878683"><ele>146.39999999999998</ele><time>2026-04-26T09:40:45.937Z</time></trkpt><trkpt lat="44.6786" lon="10.087765"><ele>146.2</ele><time>2026-04-26T09:40:47.937Z</time></trkpt><trkpt lat="44.6785367" lon="10.08763"><ele>146.0</ele><time>2026-04-26T09:40:49.937Z</time></trkpt><trkpt lat="44.6784967" lon="10.0875483"><ele>146.0</ele><time>2026-04-26T09:40:50.937Z</time></trkpt><trkpt lat="44.6784583" lon="10.0874767"><ele>146.0</ele><time>2026-04-26T09:40:51.937Z</time></trkpt><trkpt lat="44.67838" lon="10.0873183"><ele>146.0</ele><time>2026-04-26T09:40:53.937Z</time></trkpt><trkpt lat="44.6783367" lon="10.08722"><ele>146.0</ele><time>2026-04-26T09:40:54.937Z</time></trkpt><trkpt lat="44.6782883" lon="10.087135"><ele>146.0</ele><time>2026-04-26T09:40:55.937Z</time></trkpt><trkpt lat="44.6782433" lon="10.0870517"><ele>146.0</ele><time>2026-04-26T09:40:56.937Z</time></trkpt><trkpt lat="44.678205" lon="10.0869633"><ele>146.0</ele><time>2026-04-26T09:40:57.937Z</time></trkpt><trkpt lat="44.6781717" lon="10.0868767"><ele>146.0</ele><time>2026-04-26T09:40:58.937Z</time></trkpt><trkpt lat="44.6781417" lon="10.08679"><ele>146.0</ele><time>2026-04-26T09:40:59.937Z</time></trkpt><trkpt lat="44.6781033" lon="10.0867083"><ele>146.0</ele><time>2026-04-26T09:41:00.937Z</time></trkpt><trkpt lat="44.6780467" lon="10.0865633"><ele>146.0</ele><time>2026-04-26T09:41:02.937Z</time></trkpt><trkpt lat="44.6780233" lon="10.0864067"><ele>146.0</ele><time>2026-04-26T09:41:04.936Z</time></trkpt><trkpt lat="44.678015" lon="10.086315"><ele>146.0</ele><time>2026-04-26T09:41:05.936Z</time></trkpt><trkpt lat="44.678015" lon="10.08615"><ele>146.0</ele><time>2026-04-26T09:41:07.937Z</time></trkpt><trkpt lat="44.6780183" lon="10.08605"><ele>146.0</ele><time>2026-04-26T09:41:08.937Z</time></trkpt><trkpt lat="44.6780183" lon="10.085955"><ele>146.0</ele><time>2026-04-26T09:41:09.937Z</time></trkpt><trkpt lat="44.6780167" lon="10.085845"><ele>146.0</ele><time>2026-04-26T09:41:10.937Z</time></trkpt><trkpt lat="44.678015" lon="10.0857267"><ele>146.0</ele><time>2026-04-26T09:41:11.937Z</time></trkpt><trkpt lat="44.6780067" lon="10.085605"><ele>146.0</ele><time>2026-04-26T09:41:12.937Z</time></trkpt><trkpt lat="44.6780017" lon="10.0854967"><ele>146.0</ele><time>2026-04-26T09:41:13.937Z</time></trkpt><trkpt lat="44.678" lon="10.0853433"><ele>146.0</ele><time>2026-04-26T09:41:15.937Z</time></trkpt><trkpt lat="44.678" lon="10.0852267"><ele>146.0</ele><time>2026-04-26T09:41:17.937Z</time></trkpt><trkpt lat="44.6779517" lon="10.0850933"><ele>146.0</ele><time>2026-04-26T09:41:19.936Z</time></trkpt><trkpt lat="44.6779017" lon="10.0850167"><ele>146.0</ele><time>2026-04-26T09:41:20.937Z</time></trkpt><trkpt lat="44.677855" lon="10.08493"><ele>146.0</ele><time>2026-04-26T09:41:21.937Z</time></trkpt><trkpt lat="44.6778133" lon="10.084855"><ele>146.0</ele><time>2026-04-26T09:41:22.937Z</time></trkpt><trkpt lat="44.67777" lon="10.084785"><ele>146.0</ele><time>2026-04-26T09:41:23.937Z</time></trkpt><trkpt lat="44.677695" lon="10.084665"><ele>146.0</ele><time>2026-04-26T09:41:25.937Z</time></trkpt><trkpt lat="44.6776483" lon="10.084595"><ele>146.0</ele><time>2026-04-26T09:41:26.936Z</time></trkpt><trkpt lat="44.6776" lon="10.08452"><ele>146.4</ele><time>2026-04-26T09:41:27.937Z</time></trkpt><trkpt lat="44.67753" lon="10.0843683"><ele>146.8</ele><time>2026-04-26T09:41:29.937Z</time></trkpt><trkpt lat="44.67749" lon="10.0842667"><ele>147.20000000000002</ele><time>2026-04-26T09:41:30.937Z</time></trkpt><trkpt lat="44.6774433" lon="10.0841583"><ele>147.6</ele><time>2026-04-26T09:41:31.937Z</time></trkpt><trkpt lat="44.6773967" lon="10.0840417"><ele>148.0</ele><time>2026-04-26T09:41:32.937Z</time></trkpt><trkpt lat="44.6773533" lon="10.0839233"><ele>148.0</ele><time>2026-04-26T09:41:33.937Z</time></trkpt><trkpt lat="44.6773133" lon="10.0837967"><ele>148.0</ele><time>2026-04-26T09:41:34.937Z</time></trkpt><trkpt lat="44.6772783" lon="10.0836783"><ele>148.0</ele><time>2026-04-26T09:41:35.936Z</time></trkpt><trkpt lat="44.6772483" lon="10.0835767"><ele>148.0</ele><time>2026-04-26T09:41:36.937Z</time></trkpt><trkpt lat="44.6772233" lon="10.0834883"><ele>148.0</ele><time>2026-04-26T09:41:37.937Z</time></trkpt><trkpt lat="44.6771967" lon="10.08334"><ele>148.0</ele><time>2026-04-26T09:41:39.937Z</time></trkpt><trkpt lat="44.6771683" lon="10.0832233"><ele>148.0</ele><time>2026-04-26T09:41:41.937Z</time></trkpt><trkpt lat="44.67713" lon="10.0831317"><ele>148.0</ele><time>2026-04-26T09:41:43.937Z</time></trkpt><trkpt lat="44.677045" lon="10.0830967"><ele>148.0</ele><time>2026-04-26T09:42:02.937Z</time></trkpt><trkpt lat="44.6770883" lon="10.0831867"><ele>148.0</ele><time>2026-04-26T09:42:04.937Z</time></trkpt><trkpt lat="44.6771417" lon="10.08333"><ele>148.0</ele><time>2026-04-26T09:42:06.937Z</time></trkpt><trkpt lat="44.6771717" lon="10.083415"><ele>148.0</ele><time>2026-04-26T09:42:07.937Z</time></trkpt><trkpt lat="44.677205" lon="10.0835267"><ele>148.0</ele><time>2026-04-26T09:42:08.936Z</time></trkpt><trkpt lat="44.6772433" lon="10.08365"><ele>148.0</ele><time>2026-04-26T09:42:09.937Z</time></trkpt><trkpt lat="44.6772817" lon="10.083775"><ele>148.0</ele><time>2026-04-26T09:42:10.937Z</time></trkpt><trkpt lat="44.677335" lon="10.08391"><ele>148.0</ele><time>2026-04-26T09:42:11.937Z</time></trkpt><trkpt lat="44.6773933" lon="10.0840417"><ele>148.0</ele><time>2026-04-26T09:42:12.937Z</time></trkpt><trkpt lat="44.6774483" lon="10.0841667"><ele>148.0</ele><time>2026-04-26T09:42:13.936Z</time></trkpt><trkpt lat="44.6774933" lon="10.0842867"><ele>148.0</ele><time>2026-04-26T09:42:14.937Z</time></trkpt><trkpt lat="44.6775433" lon="10.0843833"><ele>148.0</ele><time>2026-04-26T09:42:15.936Z</time></trkpt><trkpt lat="44.6775867" lon="10.0844717"><ele>148.0</ele><time>2026-04-26T09:42:16.937Z</time></trkpt><trkpt lat="44.6776283" lon="10.0845583"><ele>148.0</ele><time>2026-04-26T09:42:17.936Z</time></trkpt><trkpt lat="44.6776817" lon="10.0846333"><ele>148.0</ele><time>2026-04-26T09:42:18.937Z</time></trkpt><trkpt lat="44.6777333" lon="10.08472"><ele>147.66666666666669</ele><time>2026-04-26T09:42:19.937Z</time></trkpt><trkpt lat="44.6777933" lon="10.084815"><ele>147.33333333333334</ele><time>2026-04-26T09:42:20.937Z</time></trkpt><trkpt lat="44.677855" lon="10.084905"><ele>147.0</ele><time>2026-04-26T09:42:21.937Z</time></trkpt><trkpt lat="44.6779067" lon="10.0849867"><ele>146.66666666666666</ele><time>2026-04-26T09:42:22.937Z</time></trkpt><trkpt lat="44.67795" lon="10.08506"><ele>146.33333333333331</ele><time>2026-04-26T09:42:23.937Z</time></trkpt><trkpt lat="44.6780033" lon="10.0851733"><ele>146.0</ele><time>2026-04-26T09:42:25.937Z</time></trkpt><trkpt lat="44.6780017" lon="10.0852833"><ele>146.0</ele><time>2026-04-26T09:42:28.937Z</time></trkpt><trkpt lat="44.6779683" lon="10.085435"><ele>146.0</ele><time>2026-04-26T09:42:31.936Z</time></trkpt><trkpt lat="44.6779567" lon="10.0855333"><ele>146.0</ele><time>2026-04-26T09:42:32.937Z</time></trkpt><trkpt lat="44.6779467" lon="10.0856483"><ele>146.0</ele><time>2026-04-26T09:42:33.936Z</time></trkpt><trkpt lat="44.6779467" lon="10.085765"><ele>146.0</ele><time>2026-04-26T09:42:34.937Z</time></trkpt><trkpt lat="44.6779433" lon="10.0858783"><ele>146.0</ele><time>2026-04-26T09:42:35.936Z</time></trkpt><trkpt lat="44.6779433" lon="10.0860117"><ele>146.0</ele><time>2026-04-26T09:42:36.937Z</time></trkpt><trkpt lat="44.6779433" lon="10.0861383"><ele>146.0</ele><time>2026-04-26T09:42:37.937Z</time></trkpt><trkpt lat="44.6779483" lon="10.086255"><ele>146.0</ele><time>2026-04-26T09:42:38.936Z</time></trkpt><trkpt lat="44.67795" lon="10.0863667"><ele>146.0</ele><time>2026-04-26T09:42:39.937Z</time></trkpt><trkpt lat="44.6779717" lon="10.0864683"><ele>146.0</ele><time>2026-04-26T09:42:40.936Z</time></trkpt><trkpt lat="44.6779983" lon="10.0865633"><ele>146.0</ele><time>2026-04-26T09:42:41.937Z</time></trkpt><trkpt lat="44.6780267" lon="10.0866683"><ele>146.0</ele><time>2026-04-26T09:42:42.937Z</time></trkpt><trkpt lat="44.678075" lon="10.086775"><ele>146.0</ele><time>2026-04-26T09:42:43.937Z</time></trkpt><trkpt lat="44.67812" lon="10.08688"><ele>146.0</ele><time>2026-04-26T09:42:44.937Z</time></trkpt><trkpt lat="44.6781583" lon="10.0869833"><ele>146.0</ele><time>2026-04-26T09:42:45.937Z</time></trkpt><trkpt lat="44.6782033" lon="10.0870867"><ele>146.0</ele><time>2026-04-26T09:42:46.936Z</time></trkpt><trkpt lat="44.67826" lon="10.087185"><ele>146.0</ele><time>2026-04-26T09:42:47.937Z</time></trkpt><trkpt lat="44.67832" lon="10.0872833"><ele>146.0</ele><time>2026-04-26T09:42:48.937Z</time></trkpt><trkpt lat="44.67838" lon="10.0873717"><ele>146.0</ele><time>2026-04-26T09:42:49.937Z</time></trkpt><trkpt lat="44.6784383" lon="10.0874533"><ele>146.0</ele><time>2026-04-26T09:42:50.936Z</time></trkpt><trkpt lat="44.6784917" lon="10.087535"><ele>146.0</ele><time>2026-04-26T09:42:51.937Z</time></trkpt><trkpt lat="44.678535" lon="10.0876167"><ele>146.0</ele><time>2026-04-26T09:42:52.937Z</time></trkpt><trkpt lat="44.6785733" lon="10.0877"><ele>146.0</ele><time>2026-04-26T09:42:53.936Z</time></trkpt><trkpt lat="44.6786183" lon="10.0877883"><ele>146.14285714285714</ele><time>2026-04-26T09:42:54.937Z</time></trkpt><trkpt lat="44.678665" lon="10.0878767"><ele>146.28571428571428</ele><time>2026-04-26T09:42:55.937Z</time></trkpt><trkpt lat="44.6787067" lon="10.0879667"><ele>146.42857142857144</ele><time>2026-04-26T09:42:56.937Z</time></trkpt><trkpt lat="44.6787383" lon="10.0880633"><ele>146.57142857142856</ele><time>2026-04-26T09:42:57.937Z</time></trkpt><trkpt lat="44.6787517" lon="10.0881583"><ele>146.71428571428572</ele><time>2026-04-26T09:42:58.937Z</time></trkpt><trkpt lat="44.678755" lon="10.0882483"><ele>146.85714285714286</ele><time>2026-04-26T09:42:59.937Z</time></trkpt><trkpt lat="44.6787533" lon="10.0883417"><ele>147.0</ele><time>2026-04-26T09:43:00.937Z</time></trkpt><trkpt lat="44.67871" lon="10.0884883"><ele>147.0</ele><time>2026-04-26T09:43:02.937Z</time></trkpt><trkpt lat="44.6786117" lon="10.0886"><ele>147.0</ele><time>2026-04-26T09:43:04.937Z</time></trkpt><trkpt lat="44.6785267" lon="10.0886817"><ele>147.0</ele><time>2026-04-26T09:43:06.937Z</time></trkpt><trkpt lat="44.6785067" lon="10.0887867"><ele>147.0</ele><time>2026-04-26T09:43:08.937Z</time></trkpt><trkpt lat="44.6785183" lon="10.0888967"><ele>147.0</ele><time>2026-04-26T09:43:10.937Z</time></trkpt><trkpt lat="44.6785033" lon="10.0890283"><ele>147.0</ele><time>2026-04-26T09:43:12.937Z</time></trkpt><trkpt lat="44.6784717" lon="10.0891133"><ele>147.0</ele><time>2026-04-26T09:43:14.936Z</time></trkpt><trkpt lat="44.6784333" lon="10.089195"><ele>147.0</ele><time>2026-04-26T09:43:17.937Z</time></trkpt><trkpt lat="44.6783583" lon="10.0892617"><ele>147.0</ele><time>2026-04-26T09:43:19.937Z</time></trkpt><trkpt lat="44.6782867" lon="10.0893283"><ele>147.0</ele><time>2026-04-26T09:43:22.937Z</time></trkpt><trkpt lat="44.6782217" lon="10.08936"><ele>147.0</ele><time>2026-04-26T09:43:30.937Z</time></trkpt><trkpt lat="44.6783017" lon="10.0893117"><ele>147.0</ele><time>2026-04-26T09:43:35.937Z</time></trkpt><trkpt lat="44.6783733" lon="10.08928"><ele>147.0</ele><time>2026-04-26T09:43:37.936Z</time></trkpt><trkpt lat="44.6784567" lon="10.089215"><ele>147.0</ele><time>2026-04-26T09:43:39.937Z</time></trkpt><trkpt lat="44.67853" lon="10.089215"><ele>147.0</ele><time>2026-04-26T09:43:41.937Z</time></trkpt><trkpt lat="44.6786467" lon="10.0893083"><ele>147.0</ele><time>2026-04-26T09:43:43.937Z</time></trkpt><trkpt lat="44.6787133" lon="10.0893483"><ele>147.0</ele><time>2026-04-26T09:43:44.937Z</time></trkpt><trkpt lat="44.6788117" lon="10.0894133"><ele>147.0</ele><time>2026-04-26T09:43:46.937Z</time></trkpt><trkpt lat="44.6787733" lon="10.0895433"><ele>147.0</ele><time>2026-04-26T09:43:49.937Z</time></trkpt><trkpt lat="44.6786633" lon="10.0896633"><ele>147.0</ele><time>2026-04-26T09:43:51.937Z</time></trkpt><trkpt lat="44.6785867" lon="10.08973"><ele>147.0</ele><time>2026-04-26T09:43:52.937Z</time></trkpt><trkpt lat="44.678515" lon="10.0897917"><ele>147.0</ele><time>2026-04-26T09:43:53.937Z</time></trkpt><trkpt lat="44.6784533" lon="10.0898417"><ele>147.0</ele><time>2026-04-26T09:43:54.937Z</time></trkpt><trkpt lat="44.6783617" lon="10.089915"><ele>147.0</ele><time>2026-04-26T09:43:56.936Z</time></trkpt><trkpt lat="44.67829" lon="10.0899533"><ele>147.0</ele><time>2026-04-26T09:43:58.937Z</time></trkpt><trkpt lat="44.678225" lon="10.0899417"><ele>147.0</ele><time>2026-04-26T09:44:01.936Z</time></trkpt><trkpt lat="44.6783167" lon="10.0899333"><ele>147.0</ele><time>2026-04-26T09:44:21.935Z</time></trkpt><trkpt lat="44.6784067" lon="10.0898933"><ele>147.0</ele><time>2026-04-26T09:44:22.936Z</time></trkpt><trkpt lat="44.6785033" lon="10.0898283"><ele>147.0</ele><time>2026-04-26T09:44:23.936Z</time></trkpt><trkpt lat="44.6785917" lon="10.0897583"><ele>147.0</ele><time>2026-04-26T09:44:24.936Z</time></trkpt><trkpt lat="44.678665" lon="10.0896883"><ele>147.0</ele><time>2026-04-26T09:44:25.936Z</time></trkpt><trkpt lat="44.67873" lon="10.0896167"><ele>147.0</ele><time>2026-04-26T09:44:26.935Z</time></trkpt><trkpt lat="44.67878" lon="10.0895383"><ele>147.0</ele><time>2026-04-26T09:44:27.936Z</time></trkpt><trkpt lat="44.6788733" lon="10.0894383"><ele>147.0</ele><time>2026-04-26T09:44:29.936Z</time></trkpt><trkpt lat="44.6789633" lon="10.089465"><ele>147.0</ele><time>2026-04-26T09:44:31.936Z</time></trkpt><trkpt lat="44.67902" lon="10.08953"><ele>147.0</ele><time>2026-04-26T09:44:32.936Z</time></trkpt><trkpt lat="44.679075" lon="10.0896167"><ele>147.0</ele><time>2026-04-26T09:44:33.936Z</time></trkpt><trkpt lat="44.6791333" lon="10.089725"><ele>147.0</ele><time>2026-04-26T09:44:34.935Z</time></trkpt><trkpt lat="44.6792" lon="10.0898433"><ele>147.0</ele><time>2026-04-26T09:44:35.936Z</time></trkpt><trkpt lat="44.6792767" lon="10.0899683"><ele>147.0</ele><time>2026-04-26T09:44:36.936Z</time></trkpt><trkpt lat="44.679365" lon="10.0900883"><ele>147.0</ele><time>2026-04-26T09:44:37.936Z</time></trkpt><trkpt lat="44.67945" lon="10.0902017"><ele>147.0</ele><time>2026-04-26T09:44:38.936Z</time></trkpt><trkpt lat="44.6795167" lon="10.0903233"><ele>147.0</ele><time>2026-04-26T09:44:39.936Z</time></trkpt><trkpt lat="44.6795683" lon="10.0904567"><ele>147.0</ele><time>2026-04-26T09:44:40.935Z</time></trkpt><trkpt lat="44.6796267" lon="10.090595"><ele>147.0</ele><time>2026-04-26T09:44:41.936Z</time></trkpt><trkpt lat="44.679705" lon="10.0907133"><ele>147.0</ele><time>2026-04-26T09:44:42.936Z</time></trkpt><trkpt lat="44.6797917" lon="10.09084"><ele>146.75</ele><time>2026-04-26T09:44:43.936Z</time></trkpt><trkpt lat="44.6798633" lon="10.0909767"><ele>146.5</ele><time>2026-04-26T09:44:44.936Z</time></trkpt><trkpt lat="44.6799317" lon="10.0911367"><ele>146.25</ele><time>2026-04-26T09:44:45.936Z</time></trkpt><trkpt lat="44.679995" lon="10.0912967"><ele>146.0</ele><time>2026-04-26T09:44:46.935Z</time></trkpt><trkpt lat="44.6800617" lon="10.091435"><ele>146.0</ele><time>2026-04-26T09:44:47.936Z</time></trkpt><trkpt lat="44.6801267" lon="10.09155"><ele>146.0</ele><time>2026-04-26T09:44:48.936Z</time></trkpt><trkpt lat="44.68017" lon="10.0916533"><ele>146.0</ele><time>2026-04-26T09:44:49.936Z</time></trkpt><trkpt lat="44.6801867" lon="10.091745"><ele>146.0</ele><time>2026-04-26T09:44:50.936Z</time></trkpt><trkpt lat="44.680145" lon="10.0919183"><ele>146.0</ele><time>2026-04-26T09:44:52.936Z</time></trkpt><trkpt lat="44.6800867" lon="10.091995"><ele>145.6</ele><time>2026-04-26T09:44:53.936Z</time></trkpt><trkpt lat="44.680005" lon="10.0920833"><ele>145.2</ele><time>2026-04-26T09:44:54.936Z</time></trkpt><trkpt lat="44.6799183" lon="10.0921867"><ele>144.8</ele><time>2026-04-26T09:44:55.936Z</time></trkpt><trkpt lat="44.6798467" lon="10.0922933"><ele>144.4</ele><time>2026-04-26T09:44:56.936Z</time></trkpt><trkpt lat="44.6797883" lon="10.0924"><ele>144.0</ele><time>2026-04-26T09:44:57.936Z</time></trkpt><trkpt lat="44.6797517" lon="10.0924967"><ele>144.0</ele><time>2026-04-26T09:44:58.936Z</time></trkpt><trkpt lat="44.679725" lon="10.0926133"><ele>144.0</ele><time>2026-04-26T09:44:59.936Z</time></trkpt><trkpt lat="44.6796933" lon="10.092745"><ele>144.0</ele><time>2026-04-26T09:45:00.936Z</time></trkpt><trkpt lat="44.6796467" lon="10.0928667"><ele>144.0</ele><time>2026-04-26T09:45:01.936Z</time></trkpt><trkpt lat="44.679605" lon="10.0929633"><ele>144.0</ele><time>2026-04-26T09:45:02.936Z</time></trkpt><trkpt lat="44.6795467" lon="10.0930617"><ele>144.0</ele><time>2026-04-26T09:45:04.936Z</time></trkpt><trkpt lat="44.6794917" lon="10.093135"><ele>144.0</ele><time>2026-04-26T09:45:06.936Z</time></trkpt><trkpt lat="44.67944" lon="10.0932433"><ele>144.0</ele><time>2026-04-26T09:45:08.935Z</time></trkpt><trkpt lat="44.67938" lon="10.0933467"><ele>144.0</ele><time>2026-04-26T09:45:10.936Z</time></trkpt><trkpt lat="44.6793267" lon="10.0934433"><ele>144.0</ele><time>2026-04-26T09:45:12.935Z</time></trkpt><trkpt lat="44.6792533" lon="10.093575"><ele>144.6</ele><time>2026-04-26T09:45:14.936Z</time></trkpt><trkpt lat="44.6791917" lon="10.0936417"><ele>145.2</ele><time>2026-04-26T09:45:16.936Z</time></trkpt><trkpt lat="44.6791133" lon="10.093565"><ele>145.79999999999998</ele><time>2026-04-26T09:45:19.936Z</time></trkpt><trkpt lat="44.6790767" lon="10.093465"><ele>146.4</ele><time>2026-04-26T09:45:20.936Z</time></trkpt><trkpt lat="44.6790333" lon="10.0933233"><ele>147.0</ele><time>2026-04-26T09:45:21.935Z</time></trkpt><trkpt lat="44.6789817" lon="10.0931567"><ele>147.0</ele><time>2026-04-26T09:45:22.935Z</time></trkpt><trkpt lat="44.6789117" lon="10.0929733"><ele>147.0</ele><time>2026-04-26T09:45:23.936Z</time></trkpt><trkpt lat="44.6788433" lon="10.0927783"><ele>147.0</ele><time>2026-04-26T09:45:24.936Z</time></trkpt><trkpt lat="44.6787683" lon="10.0925717"><ele>147.0</ele><time>2026-04-26T09:45:25.935Z</time></trkpt><trkpt lat="44.67869" lon="10.09236"><ele>147.0</ele><time>2026-04-26T09:45:26.936Z</time></trkpt><trkpt lat="44.6786067" lon="10.09214"><ele>147.0</ele><time>2026-04-26T09:45:27.936Z</time></trkpt><trkpt lat="44.6785267" lon="10.091915"><ele>147.66666666666666</ele><time>2026-04-26T09:45:28.936Z</time></trkpt><trkpt lat="44.6784433" lon="10.09169"><ele>148.33333333333331</ele><time>2026-04-26T09:45:29.936Z</time></trkpt><trkpt lat="44.6783617" lon="10.091465"><ele>149.0</ele><time>2026-04-26T09:45:30.936Z</time></trkpt><trkpt lat="44.67828" lon="10.091245"><ele>149.0</ele><time>2026-04-26T09:45:31.936Z</time></trkpt><trkpt lat="44.6781867" lon="10.0910183"><ele>149.0</ele><time>2026-04-26T09:45:32.936Z</time></trkpt><trkpt lat="44.678105" lon="10.0907967"><ele>149.0</ele><time>2026-04-26T09:45:33.936Z</time></trkpt><trkpt lat="44.67802" lon="10.090575"><ele>148.0</ele><time>2026-04-26T09:45:34.935Z</time></trkpt><trkpt lat="44.67794" lon="10.0903333"><ele>147.0</ele><time>2026-04-26T09:45:35.936Z</time></trkpt><trkpt lat="44.67785" lon="10.0900817"><ele>146.0</ele><time>2026-04-26T09:45:36.936Z</time></trkpt><trkpt lat="44.6777617" lon="10.0898333"><ele>147.33333333333331</ele><time>2026-04-26T09:45:37.936Z</time></trkpt><trkpt lat="44.677675" lon="10.0895867"><ele>148.66666666666666</ele><time>2026-04-26T09:45:38.936Z</time></trkpt><trkpt lat="44.67757" lon="10.0893433"><ele>150.0</ele><time>2026-04-26T09:45:39.936Z</time></trkpt><trkpt lat="44.6774783" lon="10.0890883"><ele>150.0</ele><time>2026-04-26T09:45:40.936Z</time></trkpt><trkpt lat="44.677385" lon="10.08884"><ele>150.0</ele><time>2026-04-26T09:45:41.936Z</time></trkpt><trkpt lat="44.6772967" lon="10.0885733"><ele>150.0</ele><time>2026-04-26T09:45:42.936Z</time></trkpt><trkpt lat="44.6771933" lon="10.0883117"><ele>149.0</ele><time>2026-04-26T09:45:43.935Z</time></trkpt><trkpt lat="44.6770983" lon="10.0880467"><ele>148.0</ele><time>2026-04-26T09:45:44.936Z</time></trkpt><trkpt lat="44.67699" lon="10.0877767"><ele>147.0</ele><time>2026-04-26T09:45:45.936Z</time></trkpt><trkpt lat="44.6768933" lon="10.0875033"><ele>147.66666666666666</ele><time>2026-04-26T09:45:46.935Z</time></trkpt><trkpt lat="44.6767933" lon="10.087225"><ele>148.33333333333331</ele><time>2026-04-26T09:45:47.936Z</time></trkpt><trkpt lat="44.67669" lon="10.0869417"><ele>149.0</ele><time>2026-04-26T09:45:48.936Z</time></trkpt><trkpt lat="44.6765883" lon="10.086655"><ele>148.0</ele><time>2026-04-26T09:45:49.936Z</time></trkpt><trkpt lat="44.6764867" lon="10.086365"><ele>147.0</ele><time>2026-04-26T09:45:50.936Z</time></trkpt><trkpt lat="44.6763867" lon="10.0860717"><ele>147.0</ele><time>2026-04-26T09:45:51.935Z</time></trkpt><trkpt lat="44.676285" lon="10.0857767"><ele>147.0</ele><time>2026-04-26T09:45:52.936Z</time></trkpt><trkpt lat="44.67618" lon="10.0854833"><ele>150.5</ele><time>2026-04-26T09:45:53.936Z</time></trkpt><trkpt lat="44.6760733" lon="10.08519"><ele>154.0</ele><time>2026-04-26T09:45:54.936Z</time></trkpt><trkpt lat="44.675965" lon="10.0848967"><ele>154.0</ele><time>2026-04-26T09:45:55.936Z</time></trkpt><trkpt lat="44.67586" lon="10.0846033"><ele>154.0</ele><time>2026-04-26T09:45:56.936Z</time></trkpt><trkpt lat="44.6757533" lon="10.0843133"><ele>152.0</ele><time>2026-04-26T09:45:57.936Z</time></trkpt><trkpt lat="44.6756467" lon="10.08402"><ele>150.0</ele><time>2026-04-26T09:45:58.936Z</time></trkpt><trkpt lat="44.67554" lon="10.0837167"><ele>150.0</ele><time>2026-04-26T09:45:59.936Z</time></trkpt><trkpt lat="44.675425" lon="10.0834367"><ele>150.0</ele><time>2026-04-26T09:46:00.936Z</time></trkpt><trkpt lat="44.675305" lon="10.08316"><ele>155.0</ele><time>2026-04-26T09:46:01.936Z</time></trkpt><trkpt lat="44.6751783" lon="10.0828933"><ele>160.0</ele><time>2026-04-26T09:46:02.936Z</time></trkpt><trkpt lat="44.6750467" lon="10.0826333"><ele>158.0</ele><time>2026-04-26T09:46:03.936Z</time></trkpt><trkpt lat="44.6749167" lon="10.0823767"><ele>156.0</ele><time>2026-04-26T09:46:04.936Z</time></trkpt><trkpt lat="44.6747833" lon="10.0821183"><ele>156.0</ele><time>2026-04-26T09:46:05.936Z</time></trkpt><trkpt lat="44.6746517" lon="10.0818617"><ele>156.0</ele><time>2026-04-26T09:46:06.936Z</time></trkpt><trkpt lat="44.6745183" lon="10.08161"><ele>156.0</ele><time>2026-04-26T09:46:07.936Z</time></trkpt><trkpt lat="44.6743883" lon="10.0813617"><ele>156.66666666666666</ele><time>2026-04-26T09:46:08.936Z</time></trkpt><trkpt lat="44.674255" lon="10.0811217"><ele>157.33333333333331</ele><time>2026-04-26T09:46:09.936Z</time></trkpt><trkpt lat="44.6741233" lon="10.0808817"><ele>158.0</ele><time>2026-04-26T09:46:10.936Z</time></trkpt><trkpt lat="44.6739767" lon="10.0806483"><ele>156.66666666666666</ele><time>2026-04-26T09:46:11.936Z</time></trkpt><trkpt lat="44.67383" lon="10.0804117"><ele>155.33333333333334</ele><time>2026-04-26T09:46:12.935Z</time></trkpt><trkpt lat="44.6736833" lon="10.0801867"><ele>154.0</ele><time>2026-04-26T09:46:13.936Z</time></trkpt><trkpt lat="44.67353" lon="10.079955"><ele>156.0</ele><time>2026-04-26T09:46:14.936Z</time></trkpt><trkpt lat="44.6733717" lon="10.0797217"><ele>158.0</ele><time>2026-04-26T09:46:15.936Z</time></trkpt><trkpt lat="44.67321" lon="10.0794967"><ele>158.0</ele><time>2026-04-26T09:46:16.936Z</time></trkpt><trkpt lat="44.673045" lon="10.0792717"><ele>158.0</ele><time>2026-04-26T09:46:17.936Z</time></trkpt><trkpt lat="44.6728733" lon="10.0790483"><ele>158.0</ele><time>2026-04-26T09:46:18.936Z</time></trkpt><trkpt lat="44.6727017" lon="10.0788267"><ele>158.0</ele><time>2026-04-26T09:46:19.936Z</time></trkpt><trkpt lat="44.67252" lon="10.07861"><ele>158.0</ele><time>2026-04-26T09:46:20.936Z</time></trkpt><trkpt lat="44.6723367" lon="10.078395"><ele>158.0</ele><time>2026-04-26T09:46:21.935Z</time></trkpt><trkpt lat="44.6721483" lon="10.078175"><ele>158.0</ele><time>2026-04-26T09:46:22.936Z</time></trkpt><trkpt lat="44.67196" lon="10.0779567"><ele>158.0</ele><time>2026-04-26T09:46:23.936Z</time></trkpt><trkpt lat="44.67177" lon="10.0777433"><ele>158.0</ele><time>2026-04-26T09:46:24.936Z</time></trkpt><trkpt lat="44.6715767" lon="10.0775317"><ele>158.0</ele><time>2026-04-26T09:46:25.936Z</time></trkpt><trkpt lat="44.6713833" lon="10.0773217"><ele>157.0</ele><time>2026-04-26T09:46:26.935Z</time></trkpt><trkpt lat="44.67119" lon="10.0771133"><ele>156.0</ele><time>2026-04-26T09:46:27.936Z</time></trkpt><trkpt lat="44.671" lon="10.076905"><ele>156.0</ele><time>2026-04-26T09:46:28.936Z</time></trkpt><trkpt lat="44.6708117" lon="10.0766983"><ele>156.0</ele><time>2026-04-26T09:46:29.936Z</time></trkpt><trkpt lat="44.6706267" lon="10.076495"><ele>156.0</ele><time>2026-04-26T09:46:30.935Z</time></trkpt><trkpt lat="44.6704483" lon="10.0762933"><ele>156.0</ele><time>2026-04-26T09:46:31.936Z</time></trkpt><trkpt lat="44.67027" lon="10.07609"><ele>157.0</ele><time>2026-04-26T09:46:32.936Z</time></trkpt><trkpt lat="44.6700883" lon="10.0758917"><ele>158.0</ele><time>2026-04-26T09:46:33.936Z</time></trkpt><trkpt lat="44.6699067" lon="10.0756933"><ele>158.0</ele><time>2026-04-26T09:46:34.936Z</time></trkpt><trkpt lat="44.6697383" lon="10.0754917"><ele>158.0</ele><time>2026-04-26T09:46:35.936Z</time></trkpt><trkpt lat="44.6695633" lon="10.0752983"><ele>158.0</ele><time>2026-04-26T09:46:36.936Z</time></trkpt><trkpt lat="44.669375" lon="10.0751083"><ele>158.66666666666666</ele><time>2026-04-26T09:46:37.936Z</time></trkpt><trkpt lat="44.6691883" lon="10.07492"><ele>159.33333333333334</ele><time>2026-04-26T09:46:38.936Z</time></trkpt><trkpt lat="44.6690133" lon="10.0747417"><ele>160.0</ele><time>2026-04-26T09:46:39.935Z</time></trkpt><trkpt lat="44.6688433" lon="10.074575"><ele>160.0</ele><time>2026-04-26T09:46:40.936Z</time></trkpt><trkpt lat="44.6686867" lon="10.0744117"><ele>160.0</ele><time>2026-04-26T09:46:41.936Z</time></trkpt><trkpt lat="44.668525" lon="10.0742517"><ele>160.0</ele><time>2026-04-26T09:46:42.936Z</time></trkpt><trkpt lat="44.66836" lon="10.0740883"><ele>160.33333333333334</ele><time>2026-04-26T09:46:43.936Z</time></trkpt><trkpt lat="44.6682017" lon="10.0739217"><ele>160.66666666666666</ele><time>2026-04-26T09:46:44.936Z</time></trkpt><trkpt lat="44.6680483" lon="10.0737533"><ele>161.0</ele><time>2026-04-26T09:46:45.936Z</time></trkpt><trkpt lat="44.6679017" lon="10.073575"><ele>162.0</ele><time>2026-04-26T09:46:46.936Z</time></trkpt><trkpt lat="44.6677617" lon="10.073385"><ele>163.0</ele><time>2026-04-26T09:46:47.936Z</time></trkpt><trkpt lat="44.6676317" lon="10.0731883"><ele>164.0</ele><time>2026-04-26T09:46:48.936Z</time></trkpt><trkpt lat="44.667505" lon="10.072995"><ele>164.0</ele><time>2026-04-26T09:46:49.936Z</time></trkpt><trkpt lat="44.6673717" lon="10.0728033"><ele>164.0</ele><time>2026-04-26T09:46:50.936Z</time></trkpt><trkpt lat="44.6672183" lon="10.07263"><ele>164.0</ele><time>2026-04-26T09:46:51.936Z</time></trkpt><trkpt lat="44.6670517" lon="10.0724617"><ele>164.0</ele><time>2026-04-26T09:46:52.936Z</time></trkpt><trkpt lat="44.66688" lon="10.0722917"><ele>164.0</ele><time>2026-04-26T09:46:53.936Z</time></trkpt><trkpt lat="44.6667" lon="10.0721083"><ele>164.0</ele><time>2026-04-26T09:46:54.936Z</time></trkpt><trkpt lat="44.6665233" lon="10.0719233"><ele>164.0</ele><time>2026-04-26T09:46:55.936Z</time></trkpt><trkpt lat="44.666335" lon="10.0717317"><ele>164.0</ele><time>2026-04-26T09:46:56.936Z</time></trkpt><trkpt lat="44.6661417" lon="10.0715417"><ele>164.0</ele><time>2026-04-26T09:46:57.936Z</time></trkpt><trkpt lat="44.6659483" lon="10.0713483"><ele>164.0</ele><time>2026-04-26T09:46:58.935Z</time></trkpt><trkpt lat="44.66575" lon="10.0711383"><ele>164.0</ele><time>2026-04-26T09:46:59.936Z</time></trkpt><trkpt lat="44.6655517" lon="10.070935"><ele>164.0</ele><time>2026-04-26T09:47:00.936Z</time></trkpt><trkpt lat="44.6653617" lon="10.0707267"><ele>165.0</ele><time>2026-04-26T09:47:01.936Z</time></trkpt><trkpt lat="44.66518" lon="10.0705233"><ele>166.0</ele><time>2026-04-26T09:47:02.936Z</time></trkpt><trkpt lat="44.6649967" lon="10.0703233"><ele>166.0</ele><time>2026-04-26T09:47:03.936Z</time></trkpt><trkpt lat="44.6648067" lon="10.0701317"><ele>166.0</ele><time>2026-04-26T09:47:04.936Z</time></trkpt><trkpt lat="44.6646133" lon="10.06994"><ele>166.5</ele><time>2026-04-26T09:47:05.935Z</time></trkpt><trkpt lat="44.6644167" lon="10.0697467"><ele>167.0</ele><time>2026-04-26T09:47:06.936Z</time></trkpt><trkpt lat="44.6642267" lon="10.0695483"><ele>167.0</ele><time>2026-04-26T09:47:07.936Z</time></trkpt><trkpt lat="44.664035" lon="10.06935"><ele>167.0</ele><time>2026-04-26T09:47:08.936Z</time></trkpt><trkpt lat="44.6638433" lon="10.06916"><ele>166.66666666666666</ele><time>2026-04-26T09:47:09.936Z</time></trkpt><trkpt lat="44.66367" lon="10.06898"><ele>166.33333333333334</ele><time>2026-04-26T09:47:10.935Z</time></trkpt><trkpt lat="44.6635117" lon="10.0688033"><ele>166.0</ele><time>2026-04-26T09:47:11.936Z</time></trkpt><trkpt lat="44.663355" lon="10.0686183"><ele>166.33333333333334</ele><time>2026-04-26T09:47:12.936Z</time></trkpt><trkpt lat="44.6632017" lon="10.0684133"><ele>166.66666666666666</ele><time>2026-04-26T09:47:13.936Z</time></trkpt><trkpt lat="44.6630483" lon="10.0681767"><ele>167.0</ele><time>2026-04-26T09:47:14.936Z</time></trkpt><trkpt lat="44.6628883" lon="10.0679167"><ele>167.5</ele><time>2026-04-26T09:47:15.936Z</time></trkpt><trkpt lat="44.66273" lon="10.0676533"><ele>168.0</ele><time>2026-04-26T09:47:16.936Z</time></trkpt><trkpt lat="44.6625767" lon="10.067385"><ele>168.0</ele><time>2026-04-26T09:47:17.936Z</time></trkpt><trkpt lat="44.662425" lon="10.067115"><ele>168.0</ele><time>2026-04-26T09:47:18.936Z</time></trkpt><trkpt lat="44.6622683" lon="10.0668467"><ele>166.0</ele><time>2026-04-26T09:47:19.936Z</time></trkpt><trkpt lat="44.6621117" lon="10.0665783"><ele>164.0</ele><time>2026-04-26T09:47:20.935Z</time></trkpt><trkpt lat="44.6619583" lon="10.0663067"><ele>165.5</ele><time>2026-04-26T09:47:21.936Z</time></trkpt><trkpt lat="44.6618083" lon="10.06603"><ele>167.0</ele><time>2026-04-26T09:47:22.936Z</time></trkpt><trkpt lat="44.6616633" lon="10.06575"><ele>167.0</ele><time>2026-04-26T09:47:23.935Z</time></trkpt><trkpt lat="44.6615233" lon="10.0654683"><ele>167.0</ele><time>2026-04-26T09:47:24.936Z</time></trkpt><trkpt lat="44.6613867" lon="10.0651867"><ele>165.0</ele><time>2026-04-26T09:47:25.936Z</time></trkpt><trkpt lat="44.6612483" lon="10.06491"><ele>163.0</ele><time>2026-04-26T09:47:26.936Z</time></trkpt><trkpt lat="44.6611083" lon="10.0646333"><ele>165.5</ele><time>2026-04-26T09:47:27.936Z</time></trkpt><trkpt lat="44.6609633" lon="10.06436"><ele>168.0</ele><time>2026-04-26T09:47:28.936Z</time></trkpt><trkpt lat="44.6608083" lon="10.0640933"><ele>168.0</ele><time>2026-04-26T09:47:29.936Z</time></trkpt><trkpt lat="44.6606583" lon="10.063825"><ele>168.0</ele><time>2026-04-26T09:47:30.936Z</time></trkpt><trkpt lat="44.6605117" lon="10.0635583"><ele>168.0</ele><time>2026-04-26T09:47:31.936Z</time></trkpt><trkpt lat="44.6603583" lon="10.0632933"><ele>168.0</ele><time>2026-04-26T09:47:32.935Z</time></trkpt><trkpt lat="44.6602017" lon="10.0630283"><ele>170.0</ele><time>2026-04-26T09:47:33.936Z</time></trkpt><trkpt lat="44.660045" lon="10.0627633"><ele>172.0</ele><time>2026-04-26T09:47:34.936Z</time></trkpt><trkpt lat="44.6598917" lon="10.0624933"><ele>170.0</ele><time>2026-04-26T09:47:35.935Z</time></trkpt><trkpt lat="44.6597417" lon="10.0622233"><ele>168.0</ele><time>2026-04-26T09:47:36.936Z</time></trkpt><trkpt lat="44.65959" lon="10.0619517"><ele>170.5</ele><time>2026-04-26T09:47:37.936Z</time></trkpt><trkpt lat="44.6594383" lon="10.0616817"><ele>173.0</ele><time>2026-04-26T09:47:38.936Z</time></trkpt><trkpt lat="44.659285" lon="10.0614133"><ele>173.0</ele><time>2026-04-26T09:47:39.936Z</time></trkpt><trkpt lat="44.65913" lon="10.061145"><ele>173.0</ele><time>2026-04-26T09:47:40.935Z</time></trkpt><trkpt lat="44.6589767" lon="10.0608767"><ele>171.5</ele><time>2026-04-26T09:47:41.936Z</time></trkpt><trkpt lat="44.6588233" lon="10.0606083"><ele>170.0</ele><time>2026-04-26T09:47:42.935Z</time></trkpt><trkpt lat="44.65867" lon="10.06034"><ele>171.0</ele><time>2026-04-26T09:47:43.936Z</time></trkpt><trkpt lat="44.6585233" lon="10.060075"><ele>172.0</ele><time>2026-04-26T09:47:44.935Z</time></trkpt><trkpt lat="44.658375" lon="10.05981"><ele>172.0</ele><time>2026-04-26T09:47:45.936Z</time></trkpt><trkpt lat="44.658225" lon="10.0595483"><ele>172.0</ele><time>2026-04-26T09:47:46.935Z</time></trkpt><trkpt lat="44.6580783" lon="10.0592867"><ele>170.0</ele><time>2026-04-26T09:47:47.936Z</time></trkpt><trkpt lat="44.6579317" lon="10.0590267"><ele>168.0</ele><time>2026-04-26T09:47:48.936Z</time></trkpt><trkpt lat="44.65779" lon="10.058765"><ele>169.5</ele><time>2026-04-26T09:47:49.935Z</time></trkpt><trkpt lat="44.6576417" lon="10.0585133"><ele>171.0</ele><time>2026-04-26T09:47:50.936Z</time></trkpt><trkpt lat="44.6574817" lon="10.058275"><ele>171.0</ele><time>2026-04-26T09:47:51.935Z</time></trkpt><trkpt lat="44.6573183" lon="10.0580483"><ele>171.0</ele><time>2026-04-26T09:47:52.936Z</time></trkpt><trkpt lat="44.6571483" lon="10.05782"><ele>171.0</ele><time>2026-04-26T09:47:53.936Z</time></trkpt><trkpt lat="44.65698" lon="10.057585"><ele>171.0</ele><time>2026-04-26T09:47:54.936Z</time></trkpt><trkpt lat="44.65681" lon="10.0573533"><ele>171.5</ele><time>2026-04-26T09:47:55.936Z</time></trkpt><trkpt lat="44.6566367" lon="10.0571267"><ele>172.0</ele><time>2026-04-26T09:47:56.935Z</time></trkpt><trkpt lat="44.6564683" lon="10.0569"><ele>172.0</ele><time>2026-04-26T09:47:57.936Z</time></trkpt><trkpt lat="44.656295" lon="10.0566733"><ele>172.0</ele><time>2026-04-26T09:47:58.936Z</time></trkpt><trkpt lat="44.65612" lon="10.05645"><ele>174.0</ele><time>2026-04-26T09:47:59.936Z</time></trkpt><trkpt lat="44.655945" lon="10.0562267"><ele>176.0</ele><time>2026-04-26T09:48:00.936Z</time></trkpt><trkpt lat="44.6557717" lon="10.0559983"><ele>174.5</ele><time>2026-04-26T09:48:01.935Z</time></trkpt><trkpt lat="44.6556017" lon="10.0557667"><ele>173.0</ele><time>2026-04-26T09:48:02.936Z</time></trkpt><trkpt lat="44.6554367" lon="10.05553"><ele>175.0</ele><time>2026-04-26T09:48:03.936Z</time></trkpt><trkpt lat="44.6552783" lon="10.0552883"><ele>177.0</ele><time>2026-04-26T09:48:04.936Z</time></trkpt><trkpt lat="44.6551317" lon="10.0550367"><ele>176.0</ele><time>2026-04-26T09:48:05.936Z</time></trkpt><trkpt lat="44.654995" lon="10.0547717"><ele>175.0</ele><time>2026-04-26T09:48:06.935Z</time></trkpt><trkpt lat="44.6548667" lon="10.054505"><ele>175.0</ele><time>2026-04-26T09:48:07.936Z</time></trkpt><trkpt lat="44.65473" lon="10.054245"><ele>175.0</ele><time>2026-04-26T09:48:08.936Z</time></trkpt><trkpt lat="44.6546033" lon="10.053985"><ele>175.0</ele><time>2026-04-26T09:48:09.936Z</time></trkpt><trkpt lat="44.6544733" lon="10.053725"><ele>175.0</ele><time>2026-04-26T09:48:10.935Z</time></trkpt><trkpt lat="44.65434" lon="10.053465"><ele>176.33333333333334</ele><time>2026-04-26T09:48:11.936Z</time></trkpt><trkpt lat="44.6542083" lon="10.05321"><ele>177.66666666666666</ele><time>2026-04-26T09:48:12.936Z</time></trkpt><trkpt lat="44.654085" lon="10.0529517"><ele>179.0</ele><time>2026-04-26T09:48:13.935Z</time></trkpt><trkpt lat="44.653955" lon="10.0526917"><ele>178.33333333333331</ele><time>2026-04-26T09:48:14.935Z</time></trkpt><trkpt lat="44.6538333" lon="10.0524333"><ele>177.66666666666666</ele><time>2026-04-26T09:48:15.935Z</time></trkpt><trkpt lat="44.6537083" lon="10.0521783"><ele>177.0</ele><time>2026-04-26T09:48:16.934Z</time></trkpt><trkpt lat="44.6535867" lon="10.0519233"><ele>178.66666666666666</ele><time>2026-04-26T09:48:17.935Z</time></trkpt><trkpt lat="44.6534667" lon="10.0516767"><ele>180.33333333333331</ele><time>2026-04-26T09:48:18.935Z</time></trkpt><trkpt lat="44.65334" lon="10.0514233"><ele>182.0</ele><time>2026-04-26T09:48:19.934Z</time></trkpt><trkpt lat="44.653215" lon="10.0511667"><ele>182.0</ele><time>2026-04-26T09:48:20.935Z</time></trkpt><trkpt lat="44.653085" lon="10.0509217"><ele>182.0</ele><time>2026-04-26T09:48:21.934Z</time></trkpt><trkpt lat="44.652945" lon="10.0506833"><ele>182.0</ele><time>2026-04-26T09:48:22.935Z</time></trkpt><trkpt lat="44.6527983" lon="10.050455"><ele>182.33333333333331</ele><time>2026-04-26T09:48:23.935Z</time></trkpt><trkpt lat="44.6526517" lon="10.0502333"><ele>182.66666666666666</ele><time>2026-04-26T09:48:24.935Z</time></trkpt><trkpt lat="44.65249" lon="10.0500217"><ele>183.0</ele><time>2026-04-26T09:48:25.935Z</time></trkpt><trkpt lat="44.65235" lon="10.0498033"><ele>183.0</ele><time>2026-04-26T09:48:26.935Z</time></trkpt><trkpt lat="44.65221" lon="10.0495883"><ele>183.0</ele><time>2026-04-26T09:48:27.935Z</time></trkpt><trkpt lat="44.6520733" lon="10.0493817"><ele>183.0</ele><time>2026-04-26T09:48:28.935Z</time></trkpt><trkpt lat="44.6519267" lon="10.049195"><ele>182.0</ele><time>2026-04-26T09:48:29.935Z</time></trkpt><trkpt lat="44.6518083" lon="10.049"><ele>181.0</ele><time>2026-04-26T09:48:30.935Z</time></trkpt><trkpt lat="44.6515917" lon="10.048845"><ele>180.0</ele><time>2026-04-26T09:48:31.935Z</time></trkpt><trkpt lat="44.6512767" lon="10.0486933"><ele>181.33333333333334</ele><time>2026-04-26T09:48:32.935Z</time></trkpt><trkpt lat="44.6510833" lon="10.0485633"><ele>182.66666666666669</ele><time>2026-04-26T09:48:33.934Z</time></trkpt><trkpt lat="44.6508783" lon="10.0484633"><ele>184.0</ele><time>2026-04-26T09:48:34.935Z</time></trkpt><trkpt lat="44.65065" lon="10.0483967"><ele>184.0</ele><time>2026-04-26T09:48:35.935Z</time></trkpt><trkpt lat="44.6504233" lon="10.0483083"><ele>184.0</ele><time>2026-04-26T09:48:36.935Z</time></trkpt><trkpt lat="44.650205" lon="10.0481867"><ele>183.5</ele><time>2026-04-26T09:48:37.935Z</time></trkpt><trkpt lat="44.649995" lon="10.04807"><ele>183.0</ele><time>2026-04-26T09:48:38.935Z</time></trkpt><trkpt lat="44.6497817" lon="10.047955"><ele>183.0</ele><time>2026-04-26T09:48:39.935Z</time></trkpt><trkpt lat="44.6495683" lon="10.0478483"><ele>183.0</ele><time>2026-04-26T09:48:40.934Z</time></trkpt><trkpt lat="44.6493583" lon="10.0477517"><ele>183.0</ele><time>2026-04-26T09:48:41.934Z</time></trkpt><trkpt lat="44.6491467" lon="10.04767"><ele>184.0</ele><time>2026-04-26T09:48:42.934Z</time></trkpt><trkpt lat="44.6489233" lon="10.0475883"><ele>185.0</ele><time>2026-04-26T09:48:43.935Z</time></trkpt><trkpt lat="44.648685" lon="10.0475117"><ele>182.5</ele><time>2026-04-26T09:48:44.935Z</time></trkpt><trkpt lat="44.6484333" lon="10.0474367"><ele>180.0</ele><time>2026-04-26T09:48:45.935Z</time></trkpt><trkpt lat="44.6481817" lon="10.04736"><ele>180.0</ele><time>2026-04-26T09:48:46.935Z</time></trkpt><trkpt lat="44.6479367" lon="10.0472833"><ele>180.0</ele><time>2026-04-26T09:48:47.935Z</time></trkpt><trkpt lat="44.6477" lon="10.0472117"><ele>182.0</ele><time>2026-04-26T09:48:48.935Z</time></trkpt><trkpt lat="44.6474767" lon="10.04715"><ele>184.0</ele><time>2026-04-26T09:48:49.934Z</time></trkpt><trkpt lat="44.6472583" lon="10.0470833"><ele>184.0</ele><time>2026-04-26T09:48:50.935Z</time></trkpt><trkpt lat="44.6470483" lon="10.0469983"><ele>184.0</ele><time>2026-04-26T09:48:51.934Z</time></trkpt><trkpt lat="44.646855" lon="10.0469033"><ele>184.0</ele><time>2026-04-26T09:48:52.935Z</time></trkpt><trkpt lat="44.6466717" lon="10.0468017"><ele>183.66666666666669</ele><time>2026-04-26T09:48:53.935Z</time></trkpt><trkpt lat="44.6464983" lon="10.0467083"><ele>183.33333333333334</ele><time>2026-04-26T09:48:54.935Z</time></trkpt><trkpt lat="44.64632" lon="10.0466133"><ele>183.0</ele><time>2026-04-26T09:48:55.935Z</time></trkpt><trkpt lat="44.6461383" lon="10.04652"><ele>184.0</ele><time>2026-04-26T09:48:56.935Z</time></trkpt><trkpt lat="44.6459617" lon="10.04644"><ele>185.0</ele><time>2026-04-26T09:48:57.935Z</time></trkpt><trkpt lat="44.6457833" lon="10.046375"><ele>186.0</ele><time>2026-04-26T09:48:58.935Z</time></trkpt><trkpt lat="44.6456217" lon="10.0463083"><ele>186.0</ele><time>2026-04-26T09:48:59.935Z</time></trkpt><trkpt lat="44.6454617" lon="10.0462367"><ele>186.0</ele><time>2026-04-26T09:49:00.935Z</time></trkpt><trkpt lat="44.6452883" lon="10.0461917"><ele>186.0</ele><time>2026-04-26T09:49:01.935Z</time></trkpt><trkpt lat="44.6451217" lon="10.04617"><ele>187.0</ele><time>2026-04-26T09:49:02.935Z</time></trkpt><trkpt lat="44.6449617" lon="10.0461633"><ele>188.0</ele><time>2026-04-26T09:49:03.934Z</time></trkpt><trkpt lat="44.6448017" lon="10.04617"><ele>189.0</ele><time>2026-04-26T09:49:04.935Z</time></trkpt><trkpt lat="44.6446467" lon="10.0461633"><ele>189.0</ele><time>2026-04-26T09:49:05.935Z</time></trkpt><trkpt lat="44.64449" lon="10.0461533"><ele>189.0</ele><time>2026-04-26T09:49:06.935Z</time></trkpt><trkpt lat="44.644335" lon="10.046145"><ele>189.0</ele><time>2026-04-26T09:49:07.935Z</time></trkpt><trkpt lat="44.6441767" lon="10.0461133"><ele>189.66666666666666</ele><time>2026-04-26T09:49:08.935Z</time></trkpt><trkpt lat="44.6440133" lon="10.0460567"><ele>190.33333333333331</ele><time>2026-04-26T09:49:09.935Z</time></trkpt><trkpt lat="44.643835" lon="10.04597"><ele>191.0</ele><time>2026-04-26T09:49:10.935Z</time></trkpt><trkpt lat="44.6436517" lon="10.045845"><ele>190.0</ele><time>2026-04-26T09:49:11.935Z</time></trkpt><trkpt lat="44.6434433" lon="10.0456967"><ele>189.0</ele><time>2026-04-26T09:49:12.935Z</time></trkpt><trkpt lat="44.6432367" lon="10.04553"><ele>189.0</ele><time>2026-04-26T09:49:13.934Z</time></trkpt><trkpt lat="44.643045" lon="10.04537"><ele>189.0</ele><time>2026-04-26T09:49:14.935Z</time></trkpt><trkpt lat="44.6428783" lon="10.045215"><ele>189.0</ele><time>2026-04-26T09:49:15.935Z</time></trkpt><trkpt lat="44.642725" lon="10.04505"><ele>189.33333333333334</ele><time>2026-04-26T09:49:16.935Z</time></trkpt><trkpt lat="44.6425733" lon="10.0448633"><ele>189.66666666666669</ele><time>2026-04-26T09:49:17.935Z</time></trkpt><trkpt lat="44.6424" lon="10.0446533"><ele>190.0</ele><time>2026-04-26T09:49:18.935Z</time></trkpt><trkpt lat="44.6422267" lon="10.0444333"><ele>190.0</ele><time>2026-04-26T09:49:19.935Z</time></trkpt><trkpt lat="44.642055" lon="10.0442183"><ele>190.0</ele><time>2026-04-26T09:49:20.934Z</time></trkpt><trkpt lat="44.6418767" lon="10.044005"><ele>190.5</ele><time>2026-04-26T09:49:21.935Z</time></trkpt><trkpt lat="44.6417033" lon="10.0437783"><ele>191.0</ele><time>2026-04-26T09:49:22.935Z</time></trkpt><trkpt lat="44.64153" lon="10.0435483"><ele>191.0</ele><time>2026-04-26T09:49:23.935Z</time></trkpt><trkpt lat="44.64136" lon="10.043315"><ele>191.0</ele><time>2026-04-26T09:49:24.934Z</time></trkpt><trkpt lat="44.6411933" lon="10.0430733"><ele>191.5</ele><time>2026-04-26T09:49:25.935Z</time></trkpt><trkpt lat="44.6410333" lon="10.0428333"><ele>192.0</ele><time>2026-04-26T09:49:26.935Z</time></trkpt><trkpt lat="44.6408767" lon="10.042585"><ele>190.5</ele><time>2026-04-26T09:49:27.934Z</time></trkpt><trkpt lat="44.6407283" lon="10.04233"><ele>189.0</ele><time>2026-04-26T09:49:28.935Z</time></trkpt><trkpt lat="44.64058" lon="10.04208"><ele>189.0</ele><time>2026-04-26T09:49:29.935Z</time></trkpt><trkpt lat="44.64043" lon="10.0418267"><ele>189.0</ele><time>2026-04-26T09:49:30.935Z</time></trkpt><trkpt lat="44.6402883" lon="10.041575"><ele>190.5</ele><time>2026-04-26T09:49:31.935Z</time></trkpt><trkpt lat="44.6401433" lon="10.0413233"><ele>192.0</ele><time>2026-04-26T09:49:32.935Z</time></trkpt><trkpt lat="44.6399933" lon="10.0410717"><ele>192.0</ele><time>2026-04-26T09:49:33.935Z</time></trkpt><trkpt lat="44.6398483" lon="10.0408183"><ele>192.0</ele><time>2026-04-26T09:49:34.934Z</time></trkpt><trkpt lat="44.6397" lon="10.0405583"><ele>191.0</ele><time>2026-04-26T09:49:35.935Z</time></trkpt><trkpt lat="44.6395533" lon="10.0403133"><ele>190.0</ele><time>2026-04-26T09:49:36.935Z</time></trkpt><trkpt lat="44.639405" lon="10.0400517"><ele>192.5</ele><time>2026-04-26T09:49:37.934Z</time></trkpt><trkpt lat="44.6392467" lon="10.0397867"><ele>195.0</ele><time>2026-04-26T09:49:38.935Z</time></trkpt><trkpt lat="44.6390917" lon="10.0395217"><ele>195.0</ele><time>2026-04-26T09:49:39.935Z</time></trkpt><trkpt lat="44.63893" lon="10.03926"><ele>195.0</ele><time>2026-04-26T09:49:40.934Z</time></trkpt><trkpt lat="44.6387617" lon="10.039"><ele>198.0</ele><time>2026-04-26T09:49:41.935Z</time></trkpt><trkpt lat="44.638595" lon="10.0387217"><ele>201.0</ele><time>2026-04-26T09:49:42.934Z</time></trkpt><trkpt lat="44.6384333" lon="10.0384567"><ele>197.0</ele><time>2026-04-26T09:49:43.935Z</time></trkpt><trkpt lat="44.638275" lon="10.0381817"><ele>193.0</ele><time>2026-04-26T09:49:44.935Z</time></trkpt><trkpt lat="44.638115" lon="10.0379"><ele>193.0</ele><time>2026-04-26T09:49:45.935Z</time></trkpt><trkpt lat="44.637955" lon="10.03762"><ele>193.0</ele><time>2026-04-26T09:49:46.935Z</time></trkpt><trkpt lat="44.6377917" lon="10.0373433"><ele>195.5</ele><time>2026-04-26T09:49:47.935Z</time></trkpt><trkpt lat="44.6376267" lon="10.0370467"><ele>198.0</ele><time>2026-04-26T09:49:48.934Z</time></trkpt><trkpt lat="44.6374667" lon="10.036765"><ele>195.0</ele><time>2026-04-26T09:49:49.935Z</time></trkpt><trkpt lat="44.6373133" lon="10.03648"><ele>192.0</ele><time>2026-04-26T09:49:50.934Z</time></trkpt><trkpt lat="44.6371617" lon="10.0362083"><ele>192.0</ele><time>2026-04-26T09:49:51.935Z</time></trkpt><trkpt lat="44.63702" lon="10.0359517"><ele>192.0</ele><time>2026-04-26T09:49:52.934Z</time></trkpt><trkpt lat="44.63687" lon="10.0357217"><ele>193.33333333333331</ele><time>2026-04-26T09:49:53.935Z</time></trkpt><trkpt lat="44.6367" lon="10.03553"><ele>194.66666666666666</ele><time>2026-04-26T09:49:54.934Z</time></trkpt><trkpt lat="44.636525" lon="10.03536"><ele>196.0</ele><time>2026-04-26T09:49:55.935Z</time></trkpt><trkpt lat="44.63632" lon="10.0352283"><ele>196.33333333333331</ele><time>2026-04-26T09:49:56.935Z</time></trkpt><trkpt lat="44.6361083" lon="10.0350983"><ele>196.66666666666669</ele><time>2026-04-26T09:49:57.935Z</time></trkpt><trkpt lat="44.6359183" lon="10.0349567"><ele>197.0</ele><time>2026-04-26T09:49:58.935Z</time></trkpt><trkpt lat="44.6357283" lon="10.034805"><ele>197.0</ele><time>2026-04-26T09:49:59.935Z</time></trkpt><trkpt lat="44.6355517" lon="10.0346333"><ele>197.0</ele><time>2026-04-26T09:50:00.935Z</time></trkpt><trkpt lat="44.63539" lon="10.0344333"><ele>197.0</ele><time>2026-04-26T09:50:01.935Z</time></trkpt><trkpt lat="44.635245" lon="10.0342117"><ele>198.33333333333334</ele><time>2026-04-26T09:50:02.935Z</time></trkpt><trkpt lat="44.6351183" lon="10.033975"><ele>199.66666666666669</ele><time>2026-04-26T09:50:03.934Z</time></trkpt><trkpt lat="44.635" lon="10.0337283"><ele>201.0</ele><time>2026-04-26T09:50:04.934Z</time></trkpt><trkpt lat="44.6348733" lon="10.0334817"><ele>200.33333333333331</ele><time>2026-04-26T09:50:05.935Z</time></trkpt><trkpt lat="44.6347533" lon="10.0332283"><ele>199.66666666666666</ele><time>2026-04-26T09:50:06.934Z</time></trkpt><trkpt lat="44.634645" lon="10.032965"><ele>199.0</ele><time>2026-04-26T09:50:07.935Z</time></trkpt><trkpt lat="44.63455" lon="10.03269"><ele>203.0</ele><time>2026-04-26T09:50:08.934Z</time></trkpt><trkpt lat="44.6344633" lon="10.0324"><ele>207.0</ele><time>2026-04-26T09:50:09.934Z</time></trkpt><trkpt lat="44.6343817" lon="10.0321"><ele>207.0</ele><time>2026-04-26T09:50:10.935Z</time></trkpt><trkpt lat="44.6343017" lon="10.031795"><ele>207.0</ele><time>2026-04-26T09:50:11.934Z</time></trkpt><trkpt lat="44.63422" lon="10.0314817"><ele>205.0</ele><time>2026-04-26T09:50:12.935Z</time></trkpt><trkpt lat="44.634135" lon="10.0311683"><ele>203.0</ele><time>2026-04-26T09:50:13.935Z</time></trkpt><trkpt lat="44.6340483" lon="10.030855"><ele>200.0</ele><time>2026-04-26T09:50:14.935Z</time></trkpt><trkpt lat="44.6339533" lon="10.0305467"><ele>197.0</ele><time>2026-04-26T09:50:15.935Z</time></trkpt><trkpt lat="44.6338467" lon="10.0302417"><ele>195.5</ele><time>2026-04-26T09:50:16.935Z</time></trkpt><trkpt lat="44.6337283" lon="10.0299433"><ele>194.0</ele><time>2026-04-26T09:50:17.935Z</time></trkpt><trkpt lat="44.6336067" lon="10.0296483"><ele>196.0</ele><time>2026-04-26T09:50:18.935Z</time></trkpt><trkpt lat="44.6334767" lon="10.0293583"><ele>198.0</ele><time>2026-04-26T09:50:19.935Z</time></trkpt><trkpt lat="44.6333433" lon="10.0290683"><ele>198.0</ele><time>2026-04-26T09:50:20.935Z</time></trkpt><trkpt lat="44.633205" lon="10.0287817"><ele>198.0</ele><time>2026-04-26T09:50:21.934Z</time></trkpt><trkpt lat="44.6330633" lon="10.0285033"><ele>195.5</ele><time>2026-04-26T09:50:22.934Z</time></trkpt><trkpt lat="44.6329133" lon="10.0282333"><ele>193.0</ele><time>2026-04-26T09:50:23.935Z</time></trkpt><trkpt lat="44.632765" lon="10.0279633"><ele>196.5</ele><time>2026-04-26T09:50:24.935Z</time></trkpt><trkpt lat="44.63262" lon="10.027695"><ele>200.0</ele><time>2026-04-26T09:50:25.935Z</time></trkpt><trkpt lat="44.6324767" lon="10.0274283"><ele>200.0</ele><time>2026-04-26T09:50:26.935Z</time></trkpt><trkpt lat="44.6323367" lon="10.0271683"><ele>200.0</ele><time>2026-04-26T09:50:27.935Z</time></trkpt><trkpt lat="44.632195" lon="10.0269117"><ele>200.0</ele><time>2026-04-26T09:50:28.935Z</time></trkpt><trkpt lat="44.6320533" lon="10.02666"><ele>200.0</ele><time>2026-04-26T09:50:29.935Z</time></trkpt><trkpt lat="44.631915" lon="10.0264083"><ele>200.33333333333334</ele><time>2026-04-26T09:50:30.935Z</time></trkpt><trkpt lat="44.6317783" lon="10.0261567"><ele>200.66666666666669</ele><time>2026-04-26T09:50:31.935Z</time></trkpt><trkpt lat="44.63165" lon="10.0259067"><ele>201.0</ele><time>2026-04-26T09:50:32.935Z</time></trkpt><trkpt lat="44.631525" lon="10.0256567"><ele>201.0</ele><time>2026-04-26T09:50:33.935Z</time></trkpt><trkpt lat="44.6314" lon="10.0254133"><ele>201.0</ele><time>2026-04-26T09:50:34.935Z</time></trkpt><trkpt lat="44.6312683" lon="10.025175"><ele>201.0</ele><time>2026-04-26T09:50:35.935Z</time></trkpt><trkpt lat="44.6311267" lon="10.024945"><ele>204.5</ele><time>2026-04-26T09:50:36.935Z</time></trkpt><trkpt lat="44.6309683" lon="10.0247167"><ele>208.0</ele><time>2026-04-26T09:50:37.935Z</time></trkpt><trkpt lat="44.6308067" lon="10.0244983"><ele>208.0</ele><time>2026-04-26T09:50:38.932Z</time></trkpt><trkpt lat="44.6306533" lon="10.0242867"><ele>208.0</ele><time>2026-04-26T09:50:39.935Z</time></trkpt><trkpt lat="44.6304933" lon="10.02408"><ele>208.0</ele><time>2026-04-26T09:50:40.935Z</time></trkpt><trkpt lat="44.630335" lon="10.0238667"><ele>207.0</ele><time>2026-04-26T09:50:41.935Z</time></trkpt><trkpt lat="44.630185" lon="10.02366"><ele>206.0</ele><time>2026-04-26T09:50:42.935Z</time></trkpt><trkpt lat="44.63006" lon="10.0234517"><ele>205.0</ele><time>2026-04-26T09:50:43.935Z</time></trkpt><trkpt lat="44.629975" lon="10.023235"><ele>205.0</ele><time>2026-04-26T09:50:44.934Z</time></trkpt><trkpt lat="44.6299033" lon="10.023025"><ele>205.0</ele><time>2026-04-26T09:50:45.935Z</time></trkpt><trkpt lat="44.629815" lon="10.0228233"><ele>205.0</ele><time>2026-04-26T09:50:46.935Z</time></trkpt><trkpt lat="44.62971" lon="10.02262"><ele>202.0</ele><time>2026-04-26T09:50:47.935Z</time></trkpt><trkpt lat="44.6296" lon="10.0224117"><ele>199.0</ele><time>2026-04-26T09:50:48.935Z</time></trkpt><trkpt lat="44.6294933" lon="10.0221967"><ele>196.0</ele><time>2026-04-26T09:50:49.935Z</time></trkpt><trkpt lat="44.6294" lon="10.0219667"><ele>199.33333333333331</ele><time>2026-04-26T09:50:50.935Z</time></trkpt><trkpt lat="44.6292867" lon="10.0217367"><ele>202.66666666666669</ele><time>2026-04-26T09:50:51.935Z</time></trkpt><trkpt lat="44.6292033" lon="10.0214867"><ele>206.0</ele><time>2026-04-26T09:50:52.935Z</time></trkpt><trkpt lat="44.62912" lon="10.0212367"><ele>206.0</ele><time>2026-04-26T09:50:53.935Z</time></trkpt><trkpt lat="44.6290133" lon="10.02098"><ele>206.0</ele><time>2026-04-26T09:50:54.935Z</time></trkpt><trkpt lat="44.62896" lon="10.0207017"><ele>206.0</ele><time>2026-04-26T09:50:55.935Z</time></trkpt><trkpt lat="44.6289083" lon="10.0204267"><ele>205.0</ele><time>2026-04-26T09:50:56.935Z</time></trkpt><trkpt lat="44.6288567" lon="10.0201367"><ele>204.0</ele><time>2026-04-26T09:50:57.935Z</time></trkpt><trkpt lat="44.6288017" lon="10.01983"><ele>203.0</ele><time>2026-04-26T09:50:58.935Z</time></trkpt><trkpt lat="44.6287517" lon="10.0195317"><ele>203.0</ele><time>2026-04-26T09:50:59.935Z</time></trkpt><trkpt lat="44.6287" lon="10.019245"><ele>203.0</ele><time>2026-04-26T09:51:00.935Z</time></trkpt><trkpt lat="44.6286667" lon="10.0189517"><ele>203.0</ele><time>2026-04-26T09:51:01.935Z</time></trkpt><trkpt lat="44.6286583" lon="10.018645"><ele>204.33333333333334</ele><time>2026-04-26T09:51:02.935Z</time></trkpt><trkpt lat="44.6286683" lon="10.0183383"><ele>205.66666666666669</ele><time>2026-04-26T09:51:03.935Z</time></trkpt><trkpt lat="44.6286883" lon="10.0180317"><ele>207.0</ele><time>2026-04-26T09:51:04.935Z</time></trkpt><trkpt lat="44.6287217" lon="10.0177267"><ele>207.66666666666669</ele><time>2026-04-26T09:51:05.935Z</time></trkpt><trkpt lat="44.6287533" lon="10.0174133"><ele>208.33333333333334</ele><time>2026-04-26T09:51:06.935Z</time></trkpt><trkpt lat="44.6287833" lon="10.0171033"><ele>209.0</ele><time>2026-04-26T09:51:07.935Z</time></trkpt><trkpt lat="44.6288167" lon="10.01679"><ele>210.0</ele><time>2026-04-26T09:51:08.935Z</time></trkpt><trkpt lat="44.6288483" lon="10.0164733"><ele>211.0</ele><time>2026-04-26T09:51:09.935Z</time></trkpt><trkpt lat="44.6288817" lon="10.016155"><ele>211.0</ele><time>2026-04-26T09:51:10.935Z</time></trkpt><trkpt lat="44.62892" lon="10.0158383"><ele>211.0</ele><time>2026-04-26T09:51:11.935Z</time></trkpt><trkpt lat="44.6289483" lon="10.0155267"><ele>211.66666666666666</ele><time>2026-04-26T09:51:12.934Z</time></trkpt><trkpt lat="44.6289767" lon="10.0152117"><ele>212.33333333333331</ele><time>2026-04-26T09:51:13.935Z</time></trkpt><trkpt lat="44.6290067" lon="10.0149083"><ele>213.0</ele><time>2026-04-26T09:51:14.935Z</time></trkpt><trkpt lat="44.6290267" lon="10.0146233"><ele>214.0</ele><time>2026-04-26T09:51:15.935Z</time></trkpt><trkpt lat="44.6290517" lon="10.01435"><ele>215.0</ele><time>2026-04-26T09:51:16.935Z</time></trkpt><trkpt lat="44.6290817" lon="10.014095"><ele>216.0</ele><time>2026-04-26T09:51:17.935Z</time></trkpt><trkpt lat="44.6291083" lon="10.013855"><ele>216.0</ele><time>2026-04-26T09:51:18.935Z</time></trkpt><trkpt lat="44.6291033" lon="10.013635"><ele>216.0</ele><time>2026-04-26T09:51:19.935Z</time></trkpt><trkpt lat="44.6290683" lon="10.0134533"><ele>216.0</ele><time>2026-04-26T09:51:20.935Z</time></trkpt><trkpt lat="44.62901" lon="10.0133067"><ele>216.0</ele><time>2026-04-26T09:51:21.934Z</time></trkpt><trkpt lat="44.6288967" lon="10.0132167"><ele>216.75</ele><time>2026-04-26T09:51:22.935Z</time></trkpt><trkpt lat="44.6287583" lon="10.0131533"><ele>217.5</ele><time>2026-04-26T09:51:23.935Z</time></trkpt><trkpt lat="44.62861" lon="10.013105"><ele>218.25</ele><time>2026-04-26T09:51:24.935Z</time></trkpt><trkpt lat="44.6284683" lon="10.0130467"><ele>219.0</ele><time>2026-04-26T09:51:25.935Z</time></trkpt><trkpt lat="44.628345" lon="10.0129633"><ele>219.0</ele><time>2026-04-26T09:51:26.935Z</time></trkpt><trkpt lat="44.6282333" lon="10.0128517"><ele>219.0</ele><time>2026-04-26T09:51:27.935Z</time></trkpt><trkpt lat="44.62813" lon="10.0127133"><ele>219.0</ele><time>2026-04-26T09:51:28.935Z</time></trkpt><trkpt lat="44.62803" lon="10.012555"><ele>219.0</ele><time>2026-04-26T09:51:29.935Z</time></trkpt><trkpt lat="44.627925" lon="10.0123817"><ele>220.66666666666669</ele><time>2026-04-26T09:51:30.934Z</time></trkpt><trkpt lat="44.627805" lon="10.0122033"><ele>222.33333333333334</ele><time>2026-04-26T09:51:31.935Z</time></trkpt><trkpt lat="44.62768" lon="10.0120183"><ele>224.0</ele><time>2026-04-26T09:51:32.935Z</time></trkpt><trkpt lat="44.6275567" lon="10.0118317"><ele>221.33333333333334</ele><time>2026-04-26T09:51:33.935Z</time></trkpt><trkpt lat="44.627435" lon="10.0116417"><ele>218.66666666666669</ele><time>2026-04-26T09:51:34.935Z</time></trkpt><trkpt lat="44.627305" lon="10.0114467"><ele>216.0</ele><time>2026-04-26T09:51:35.935Z</time></trkpt><trkpt lat="44.6271733" lon="10.0112483"><ele>216.0</ele><time>2026-04-26T09:51:36.935Z</time></trkpt><trkpt lat="44.6270617" lon="10.0110433"><ele>216.0</ele><time>2026-04-26T09:51:37.935Z</time></trkpt><trkpt lat="44.6269417" lon="10.0108183"><ele>216.0</ele><time>2026-04-26T09:51:38.935Z</time></trkpt><trkpt lat="44.6268283" lon="10.0105867"><ele>216.66666666666669</ele><time>2026-04-26T09:51:39.935Z</time></trkpt><trkpt lat="44.626715" lon="10.0103417"><ele>217.33333333333334</ele><time>2026-04-26T09:51:40.934Z</time></trkpt><trkpt lat="44.6265933" lon="10.010095"><ele>218.0</ele><time>2026-04-26T09:51:41.935Z</time></trkpt><trkpt lat="44.6264583" lon="10.0098533"><ele>218.0</ele><time>2026-04-26T09:51:42.935Z</time></trkpt><trkpt lat="44.62633" lon="10.0096183"><ele>218.0</ele><time>2026-04-26T09:51:43.935Z</time></trkpt><trkpt lat="44.62619" lon="10.0093917"><ele>218.0</ele><time>2026-04-26T09:51:44.935Z</time></trkpt><trkpt lat="44.6260417" lon="10.0091683"><ele>219.66666666666669</ele><time>2026-04-26T09:51:45.935Z</time></trkpt><trkpt lat="44.62589" lon="10.008955"><ele>221.33333333333331</ele><time>2026-04-26T09:51:46.935Z</time></trkpt><trkpt lat="44.6257317" lon="10.0087667"><ele>223.0</ele><time>2026-04-26T09:51:47.935Z</time></trkpt><trkpt lat="44.6255667" lon="10.0086033"><ele>223.0</ele><time>2026-04-26T09:51:48.935Z</time></trkpt><trkpt lat="44.6253933" lon="10.00844"><ele>223.0</ele><time>2026-04-26T09:51:49.934Z</time></trkpt><trkpt lat="44.625225" lon="10.0082817"><ele>223.0</ele><time>2026-04-26T09:51:50.935Z</time></trkpt><trkpt lat="44.6250517" lon="10.0081167"><ele>225.33333333333331</ele><time>2026-04-26T09:51:51.935Z</time></trkpt><trkpt lat="44.6248833" lon="10.0079533"><ele>227.66666666666669</ele><time>2026-04-26T09:51:52.935Z</time></trkpt><trkpt lat="44.6247133" lon="10.00779"><ele>230.0</ele><time>2026-04-26T09:51:53.935Z</time></trkpt><trkpt lat="44.6245467" lon="10.00762"><ele>230.66666666666669</ele><time>2026-04-26T09:51:54.935Z</time></trkpt><trkpt lat="44.62437" lon="10.0074533"><ele>231.33333333333331</ele><time>2026-04-26T09:51:55.935Z</time></trkpt><trkpt lat="44.6241983" lon="10.00729"><ele>232.0</ele><time>2026-04-26T09:51:56.935Z</time></trkpt><trkpt lat="44.6240367" lon="10.0071283"><ele>232.0</ele><time>2026-04-26T09:51:57.934Z</time></trkpt><trkpt lat="44.6238667" lon="10.00697"><ele>232.0</ele><time>2026-04-26T09:51:58.935Z</time></trkpt><trkpt lat="44.6237217" lon="10.006815"><ele>232.0</ele><time>2026-04-26T09:51:59.935Z</time></trkpt><trkpt lat="44.6235783" lon="10.0066333"><ele>234.33333333333331</ele><time>2026-04-26T09:52:00.935Z</time></trkpt><trkpt lat="44.6234567" lon="10.00642"><ele>236.66666666666669</ele><time>2026-04-26T09:52:01.934Z</time></trkpt><trkpt lat="44.6233333" lon="10.0061883"><ele>239.0</ele><time>2026-04-26T09:52:02.935Z</time></trkpt><trkpt lat="44.6232283" lon="10.0059467"><ele>239.0</ele><time>2026-04-26T09:52:03.935Z</time></trkpt><trkpt lat="44.6231267" lon="10.0056917"><ele>239.0</ele><time>2026-04-26T09:52:04.935Z</time></trkpt><trkpt lat="44.62302" lon="10.0054433"><ele>239.0</ele><time>2026-04-26T09:52:05.934Z</time></trkpt><trkpt lat="44.62291" lon="10.0051783"><ele>243.0</ele><time>2026-04-26T09:52:06.934Z</time></trkpt><trkpt lat="44.6228017" lon="10.0049033"><ele>247.0</ele><time>2026-04-26T09:52:07.935Z</time></trkpt><trkpt lat="44.6226833" lon="10.0046433"><ele>251.0</ele><time>2026-04-26T09:52:08.935Z</time></trkpt><trkpt lat="44.6225733" lon="10.0043833"><ele>250.66666666666669</ele><time>2026-04-26T09:52:09.935Z</time></trkpt><trkpt lat="44.6224683" lon="10.004115"><ele>250.33333333333331</ele><time>2026-04-26T09:52:10.935Z</time></trkpt><trkpt lat="44.6223767" lon="10.0038533"><ele>250.0</ele><time>2026-04-26T09:52:11.935Z</time></trkpt><trkpt lat="44.6223117" lon="10.0036033"><ele>250.0</ele><time>2026-04-26T09:52:12.935Z</time></trkpt><trkpt lat="44.6222683" lon="10.00337"><ele>250.0</ele><time>2026-04-26T09:52:13.935Z</time></trkpt><trkpt lat="44.6222017" lon="10.0031667"><ele>250.0</ele><time>2026-04-26T09:52:14.934Z</time></trkpt><trkpt lat="44.6220967" lon="10.0030167"><ele>251.33333333333331</ele><time>2026-04-26T09:52:15.935Z</time></trkpt><trkpt lat="44.62194" lon="10.00291"><ele>252.66666666666669</ele><time>2026-04-26T09:52:16.935Z</time></trkpt><trkpt lat="44.6217633" lon="10.0028033"><ele>254.0</ele><time>2026-04-26T09:52:17.935Z</time></trkpt><trkpt lat="44.6215817" lon="10.0026683"><ele>254.0</ele><time>2026-04-26T09:52:18.935Z</time></trkpt><trkpt lat="44.6214133" lon="10.0025033"><ele>254.0</ele><time>2026-04-26T09:52:19.935Z</time></trkpt><trkpt lat="44.6212817" lon="10.0023083"><ele>254.0</ele><time>2026-04-26T09:52:20.935Z</time></trkpt><trkpt lat="44.621175" lon="10.0021117"><ele>254.33333333333334</ele><time>2026-04-26T09:52:21.935Z</time></trkpt><trkpt lat="44.6210617" lon="10.0019567"><ele>254.66666666666669</ele><time>2026-04-26T09:52:22.935Z</time></trkpt><trkpt lat="44.6209233" lon="10.001855"><ele>255.0</ele><time>2026-04-26T09:52:23.935Z</time></trkpt><trkpt lat="44.62076" lon="10.0018017"><ele>255.0</ele><time>2026-04-26T09:52:24.935Z</time></trkpt><trkpt lat="44.62058" lon="10.00175"><ele>255.0</ele><time>2026-04-26T09:52:25.935Z</time></trkpt><trkpt lat="44.620405" lon="10.001655"><ele>255.0</ele><time>2026-04-26T09:52:26.935Z</time></trkpt><trkpt lat="44.6202333" lon="10.0015317"><ele>253.33333333333331</ele><time>2026-04-26T09:52:27.935Z</time></trkpt><trkpt lat="44.6200583" lon="10.0014267"><ele>251.66666666666666</ele><time>2026-04-26T09:52:28.934Z</time></trkpt><trkpt lat="44.6199017" lon="10.0013233"><ele>250.0</ele><time>2026-04-26T09:52:29.935Z</time></trkpt><trkpt lat="44.6197583" lon="10.0011967"><ele>250.0</ele><time>2026-04-26T09:52:30.935Z</time></trkpt><trkpt lat="44.6196567" lon="10.00103"><ele>250.0</ele><time>2026-04-26T09:52:31.935Z</time></trkpt><trkpt lat="44.6195733" lon="10.0008067"><ele>250.0</ele><time>2026-04-26T09:52:32.935Z</time></trkpt><trkpt lat="44.619485" lon="10.0005783"><ele>255.0</ele><time>2026-04-26T09:52:33.935Z</time></trkpt><trkpt lat="44.6193667" lon="10.0003733"><ele>260.0</ele><time>2026-04-26T09:52:34.935Z</time></trkpt><trkpt lat="44.619235" lon="10.0001783"><ele>265.0</ele><time>2026-04-26T09:52:35.935Z</time></trkpt><trkpt lat="44.6190933" lon="10.0000033"><ele>265.0</ele><time>2026-04-26T09:52:36.935Z</time></trkpt><trkpt lat="44.618935" lon="9.9998633"><ele>265.0</ele><time>2026-04-26T09:52:37.935Z</time></trkpt><trkpt lat="44.618755" lon="9.9997717"><ele>265.0</ele><time>2026-04-26T09:52:38.935Z</time></trkpt><trkpt lat="44.6185733" lon="9.9997117"><ele>272.3333333333333</ele><time>2026-04-26T09:52:39.935Z</time></trkpt><trkpt lat="44.6183967" lon="9.999625"><ele>279.6666666666667</ele><time>2026-04-26T09:52:40.935Z</time></trkpt><trkpt lat="44.6182367" lon="9.9995117"><ele>287.0</ele><time>2026-04-26T09:52:41.935Z</time></trkpt><trkpt lat="44.6180917" lon="9.9993483"><ele>290.33333333333337</ele><time>2026-04-26T09:52:42.935Z</time></trkpt><trkpt lat="44.6179667" lon="9.999155"><ele>293.6666666666667</ele><time>2026-04-26T09:52:43.935Z</time></trkpt><trkpt lat="44.6178333" lon="9.99897"><ele>297.0</ele><time>2026-04-26T09:52:44.935Z</time></trkpt><trkpt lat="44.617685" lon="9.9988083"><ele>297.0</ele><time>2026-04-26T09:52:45.935Z</time></trkpt><trkpt lat="44.6175217" lon="9.998655"><ele>297.0</ele><time>2026-04-26T09:52:46.935Z</time></trkpt><trkpt lat="44.6173467" lon="9.9985133"><ele>297.0</ele><time>2026-04-26T09:52:47.935Z</time></trkpt><trkpt lat="44.6171583" lon="9.9983883"><ele>292.6666666666667</ele><time>2026-04-26T09:52:48.935Z</time></trkpt><trkpt lat="44.61696" lon="9.9982933"><ele>288.33333333333337</ele><time>2026-04-26T09:52:49.935Z</time></trkpt><trkpt lat="44.6167533" lon="9.99823"><ele>284.0</ele><time>2026-04-26T09:52:50.935Z</time></trkpt><trkpt lat="44.6165533" lon="9.9981817"><ele>284.0</ele><time>2026-04-26T09:52:51.935Z</time></trkpt><trkpt lat="44.616365" lon="9.99808"><ele>284.0</ele><time>2026-04-26T09:52:52.935Z</time></trkpt><trkpt lat="44.616205" lon="9.99792"><ele>284.0</ele><time>2026-04-26T09:52:53.935Z</time></trkpt><trkpt lat="44.616055" lon="9.9977417"><ele>283.6666666666667</ele><time>2026-04-26T09:52:54.935Z</time></trkpt><trkpt lat="44.6159383" lon="9.9975133"><ele>283.3333333333333</ele><time>2026-04-26T09:52:55.935Z</time></trkpt><trkpt lat="44.615845" lon="9.9972817"><ele>283.0</ele><time>2026-04-26T09:52:56.935Z</time></trkpt><trkpt lat="44.6157583" lon="9.9970117"><ele>283.0</ele><time>2026-04-26T09:52:57.934Z</time></trkpt><trkpt lat="44.6156767" lon="9.9967317"><ele>283.0</ele><time>2026-04-26T09:52:58.935Z</time></trkpt><trkpt lat="44.6155917" lon="9.9964683"><ele>283.0</ele><time>2026-04-26T09:52:59.935Z</time></trkpt><trkpt lat="44.6155" lon="9.9962017"><ele>278.5</ele><time>2026-04-26T09:53:00.935Z</time></trkpt><trkpt lat="44.6154083" lon="9.99591"><ele>274.0</ele><time>2026-04-26T09:53:01.933Z</time></trkpt><trkpt lat="44.6153267" lon="9.9956167"><ele>276.0</ele><time>2026-04-26T09:53:02.934Z</time></trkpt><trkpt lat="44.6152433" lon="9.995335"><ele>278.0</ele><time>2026-04-26T09:53:03.934Z</time></trkpt><trkpt lat="44.6151567" lon="9.9950667"><ele>280.0</ele><time>2026-04-26T09:53:04.934Z</time></trkpt><trkpt lat="44.61506" lon="9.9948"><ele>280.0</ele><time>2026-04-26T09:53:05.934Z</time></trkpt><trkpt lat="44.6149633" lon="9.9945383"><ele>280.0</ele><time>2026-04-26T09:53:06.933Z</time></trkpt><trkpt lat="44.6148717" lon="9.9942733"><ele>280.0</ele><time>2026-04-26T09:53:07.934Z</time></trkpt><trkpt lat="44.61477" lon="9.9940017"><ele>275.0</ele><time>2026-04-26T09:53:08.934Z</time></trkpt><trkpt lat="44.6146817" lon="9.993725"><ele>270.0</ele><time>2026-04-26T09:53:09.934Z</time></trkpt><trkpt lat="44.6146117" lon="9.99344"><ele>265.0</ele><time>2026-04-26T09:53:10.934Z</time></trkpt><trkpt lat="44.6145433" lon="9.9931467"><ele>264.66666666666663</ele><time>2026-04-26T09:53:11.934Z</time></trkpt><trkpt lat="44.6144917" lon="9.9928617"><ele>264.3333333333333</ele><time>2026-04-26T09:53:12.934Z</time></trkpt><trkpt lat="44.6144433" lon="9.9925733"><ele>264.0</ele><time>2026-04-26T09:53:13.934Z</time></trkpt><trkpt lat="44.6143917" lon="9.992285"><ele>264.0</ele><time>2026-04-26T09:53:14.934Z</time></trkpt><trkpt lat="44.6143417" lon="9.9919917"><ele>264.0</ele><time>2026-04-26T09:53:15.934Z</time></trkpt><trkpt lat="44.614295" lon="9.9916933"><ele>264.0</ele><time>2026-04-26T09:53:16.933Z</time></trkpt><trkpt lat="44.6142517" lon="9.9913917"><ele>262.6666666666667</ele><time>2026-04-26T09:53:17.934Z</time></trkpt><trkpt lat="44.614205" lon="9.99109"><ele>261.33333333333337</ele><time>2026-04-26T09:53:18.934Z</time></trkpt><trkpt lat="44.61416" lon="9.99079"><ele>260.0</ele><time>2026-04-26T09:53:19.934Z</time></trkpt><trkpt lat="44.6141117" lon="9.9905"><ele>258.0</ele><time>2026-04-26T09:53:20.934Z</time></trkpt><trkpt lat="44.6140633" lon="9.9902217"><ele>256.0</ele><time>2026-04-26T09:53:21.933Z</time></trkpt><trkpt lat="44.6140183" lon="9.9899533"><ele>254.0</ele><time>2026-04-26T09:53:22.933Z</time></trkpt><trkpt lat="44.6139733" lon="9.9896967"><ele>250.33333333333334</ele><time>2026-04-26T09:53:23.934Z</time></trkpt><trkpt lat="44.6139417" lon="9.9894467"><ele>246.66666666666669</ele><time>2026-04-26T09:53:24.933Z</time></trkpt><trkpt lat="44.6139033" lon="9.9892183"><ele>243.0</ele><time>2026-04-26T09:53:25.934Z</time></trkpt><trkpt lat="44.6138817" lon="9.9890017"><ele>241.0</ele><time>2026-04-26T09:53:26.933Z</time></trkpt><trkpt lat="44.6138517" lon="9.98879"><ele>239.0</ele><time>2026-04-26T09:53:27.934Z</time></trkpt><trkpt lat="44.6138033" lon="9.98859"><ele>237.0</ele><time>2026-04-26T09:53:28.933Z</time></trkpt><trkpt lat="44.613725" lon="9.9884167"><ele>241.75</ele><time>2026-04-26T09:53:29.934Z</time></trkpt><trkpt lat="44.6136233" lon="9.9882583"><ele>246.5</ele><time>2026-04-26T09:53:30.934Z</time></trkpt><trkpt lat="44.613535" lon="9.9881017"><ele>251.25</ele><time>2026-04-26T09:53:31.934Z</time></trkpt><trkpt lat="44.61347" lon="9.9879383"><ele>256.0</ele><time>2026-04-26T09:53:32.934Z</time></trkpt><trkpt lat="44.6134533" lon="9.9877783"><ele>256.0</ele><time>2026-04-26T09:53:33.934Z</time></trkpt><trkpt lat="44.6134883" lon="9.987635"><ele>256.0</ele><time>2026-04-26T09:53:34.934Z</time></trkpt><trkpt lat="44.61357" lon="9.987525"><ele>256.0</ele><time>2026-04-26T09:53:35.934Z</time></trkpt><trkpt lat="44.6136833" lon="9.987425"><ele>256.0</ele><time>2026-04-26T09:53:36.934Z</time></trkpt><trkpt lat="44.6138233" lon="9.9873317"><ele>246.0</ele><time>2026-04-26T09:53:37.934Z</time></trkpt><trkpt lat="44.6139617" lon="9.9872283"><ele>236.0</ele><time>2026-04-26T09:53:38.934Z</time></trkpt><trkpt lat="44.6140967" lon="9.9871233"><ele>226.0</ele><time>2026-04-26T09:53:39.933Z</time></trkpt><trkpt lat="44.6142317" lon="9.9870167"><ele>226.0</ele><time>2026-04-26T09:53:40.934Z</time></trkpt><trkpt lat="44.614365" lon="9.9869067"><ele>226.0</ele><time>2026-04-26T09:53:41.934Z</time></trkpt><trkpt lat="44.6145033" lon="9.986795"><ele>226.0</ele><time>2026-04-26T09:53:42.934Z</time></trkpt><trkpt lat="44.6146433" lon="9.9866833"><ele>224.33333333333331</ele><time>2026-04-26T09:53:43.934Z</time></trkpt><trkpt lat="44.6147933" lon="9.98657"><ele>222.66666666666669</ele><time>2026-04-26T09:53:44.934Z</time></trkpt><trkpt lat="44.6149333" lon="9.9864617"><ele>221.0</ele><time>2026-04-26T09:53:45.934Z</time></trkpt><trkpt lat="44.6150683" lon="9.9863583"><ele>221.0</ele><time>2026-04-26T09:53:46.933Z</time></trkpt><trkpt lat="44.6151983" lon="9.98626"><ele>221.0</ele><time>2026-04-26T09:53:47.934Z</time></trkpt><trkpt lat="44.6153233" lon="9.9861517"><ele>221.0</ele><time>2026-04-26T09:53:48.934Z</time></trkpt><trkpt lat="44.615455" lon="9.9860433"><ele>221.0</ele><time>2026-04-26T09:53:49.933Z</time></trkpt><trkpt lat="44.6155917" lon="9.9859433"><ele>221.75</ele><time>2026-04-26T09:53:50.934Z</time></trkpt><trkpt lat="44.61573" lon="9.9858383"><ele>222.5</ele><time>2026-04-26T09:53:51.934Z</time></trkpt><trkpt lat="44.61586" lon="9.98574"><ele>223.25</ele><time>2026-04-26T09:53:52.934Z</time></trkpt><trkpt lat="44.6159817" lon="9.9856433"><ele>224.0</ele><time>2026-04-26T09:53:53.933Z</time></trkpt><trkpt lat="44.6161017" lon="9.9855517"><ele>233.0</ele><time>2026-04-26T09:53:54.934Z</time></trkpt><trkpt lat="44.6162067" lon="9.985455"><ele>242.0</ele><time>2026-04-26T09:53:55.933Z</time></trkpt><trkpt lat="44.6163017" lon="9.98534"><ele>251.0</ele><time>2026-04-26T09:53:56.933Z</time></trkpt><trkpt lat="44.6163783" lon="9.9851833"><ele>260.0</ele><time>2026-04-26T09:53:57.934Z</time></trkpt><trkpt lat="44.6164167" lon="9.9850033"><ele>260.0</ele><time>2026-04-26T09:53:58.934Z</time></trkpt><trkpt lat="44.6164367" lon="9.9848133"><ele>260.0</ele><time>2026-04-26T09:53:59.934Z</time></trkpt><trkpt lat="44.6164333" lon="9.9846033"><ele>260.0</ele><time>2026-04-26T09:54:00.934Z</time></trkpt><trkpt lat="44.61644" lon="9.984395"><ele>260.0</ele><time>2026-04-26T09:54:01.934Z</time></trkpt><trkpt lat="44.61644" lon="9.9841733"><ele>259.33333333333337</ele><time>2026-04-26T09:54:02.934Z</time></trkpt><trkpt lat="44.61645" lon="9.9839617"><ele>258.6666666666667</ele><time>2026-04-26T09:54:03.934Z</time></trkpt><trkpt lat="44.61646" lon="9.9837367"><ele>258.0</ele><time>2026-04-26T09:54:04.934Z</time></trkpt><trkpt lat="44.6164717" lon="9.9835167"><ele>255.33333333333331</ele><time>2026-04-26T09:54:05.934Z</time></trkpt><trkpt lat="44.6165083" lon="9.98329"><ele>252.66666666666666</ele><time>2026-04-26T09:54:06.934Z</time></trkpt><trkpt lat="44.616555" lon="9.9830783"><ele>250.0</ele><time>2026-04-26T09:54:07.934Z</time></trkpt><trkpt lat="44.6165817" lon="9.9828467"><ele>250.0</ele><time>2026-04-26T09:54:08.934Z</time></trkpt><trkpt lat="44.61658" lon="9.98262"><ele>250.0</ele><time>2026-04-26T09:54:09.934Z</time></trkpt><trkpt lat="44.6165467" lon="9.9823967"><ele>250.0</ele><time>2026-04-26T09:54:10.934Z</time></trkpt><trkpt lat="44.616505" lon="9.982195"><ele>250.5</ele><time>2026-04-26T09:54:11.934Z</time></trkpt><trkpt lat="44.6164583" lon="9.98201"><ele>251.0</ele><time>2026-04-26T09:54:12.934Z</time></trkpt><trkpt lat="44.616415" lon="9.9818283"><ele>251.5</ele><time>2026-04-26T09:54:13.934Z</time></trkpt><trkpt lat="44.6163683" lon="9.9816583"><ele>252.0</ele><time>2026-04-26T09:54:14.934Z</time></trkpt><trkpt lat="44.6163067" lon="9.9814967"><ele>253.75</ele><time>2026-04-26T09:54:15.934Z</time></trkpt><trkpt lat="44.6162633" lon="9.981335"><ele>255.5</ele><time>2026-04-26T09:54:16.934Z</time></trkpt><trkpt lat="44.616215" lon="9.9811767"><ele>257.25</ele><time>2026-04-26T09:54:17.934Z</time></trkpt><trkpt lat="44.6161583" lon="9.98103"><ele>259.0</ele><time>2026-04-26T09:54:18.934Z</time></trkpt><trkpt lat="44.616105" lon="9.98088"><ele>254.25</ele><time>2026-04-26T09:54:19.934Z</time></trkpt><trkpt lat="44.6160483" lon="9.98073"><ele>249.5</ele><time>2026-04-26T09:54:20.934Z</time></trkpt><trkpt lat="44.6159917" lon="9.9805867"><ele>244.75</ele><time>2026-04-26T09:54:21.934Z</time></trkpt><trkpt lat="44.6159367" lon="9.9804317"><ele>240.0</ele><time>2026-04-26T09:54:22.934Z</time></trkpt><trkpt lat="44.6158767" lon="9.9802717"><ele>240.0</ele><time>2026-04-26T09:54:23.934Z</time></trkpt><trkpt lat="44.6158133" lon="9.9801033"><ele>240.0</ele><time>2026-04-26T09:54:24.934Z</time></trkpt><trkpt lat="44.6157383" lon="9.9799283"><ele>240.0</ele><time>2026-04-26T09:54:25.934Z</time></trkpt><trkpt lat="44.615655" lon="9.9797483"><ele>240.0</ele><time>2026-04-26T09:54:26.934Z</time></trkpt><trkpt lat="44.615585" lon="9.979565"><ele>239.25</ele><time>2026-04-26T09:54:27.934Z</time></trkpt><trkpt lat="44.615505" lon="9.9793917"><ele>238.5</ele><time>2026-04-26T09:54:28.934Z</time></trkpt><trkpt lat="44.6154283" lon="9.97923"><ele>237.75</ele><time>2026-04-26T09:54:29.934Z</time></trkpt><trkpt lat="44.6153467" lon="9.979075"><ele>237.0</ele><time>2026-04-26T09:54:30.934Z</time></trkpt><trkpt lat="44.615255" lon="9.9789383"><ele>237.0</ele><time>2026-04-26T09:54:31.933Z</time></trkpt><trkpt lat="44.61516" lon="9.978815"><ele>237.0</ele><time>2026-04-26T09:54:32.934Z</time></trkpt><trkpt lat="44.6150517" lon="9.9787167"><ele>237.0</ele><time>2026-04-26T09:54:33.934Z</time></trkpt><trkpt lat="44.61493" lon="9.978635"><ele>237.0</ele><time>2026-04-26T09:54:34.934Z</time></trkpt><trkpt lat="44.6148017" lon="9.978575"><ele>237.0</ele><time>2026-04-26T09:54:35.933Z</time></trkpt><trkpt lat="44.6146817" lon="9.97851"><ele>237.0</ele><time>2026-04-26T09:54:36.934Z</time></trkpt><trkpt lat="44.6145633" lon="9.9784383"><ele>237.0</ele><time>2026-04-26T09:54:37.934Z</time></trkpt><trkpt lat="44.6144483" lon="9.9783633"><ele>237.0</ele><time>2026-04-26T09:54:38.934Z</time></trkpt><trkpt lat="44.6143367" lon="9.978295"><ele>237.75</ele><time>2026-04-26T09:54:39.934Z</time></trkpt><trkpt lat="44.61422" lon="9.978225"><ele>238.5</ele><time>2026-04-26T09:54:40.934Z</time></trkpt><trkpt lat="44.6140933" lon="9.9781567"><ele>239.25</ele><time>2026-04-26T09:54:41.934Z</time></trkpt><trkpt lat="44.6139683" lon="9.9781"><ele>240.0</ele><time>2026-04-26T09:54:42.933Z</time></trkpt><trkpt lat="44.613855" lon="9.9780317"><ele>240.0</ele><time>2026-04-26T09:54:43.934Z</time></trkpt><trkpt lat="44.6137433" lon="9.977955"><ele>240.0</ele><time>2026-04-26T09:54:44.934Z</time></trkpt><trkpt lat="44.613635" lon="9.9779"><ele>240.0</ele><time>2026-04-26T09:54:45.934Z</time></trkpt><trkpt lat="44.6135317" lon="9.9778333"><ele>240.0</ele><time>2026-04-26T09:54:46.934Z</time></trkpt><trkpt lat="44.6134367" lon="9.977775"><ele>239.2</ele><time>2026-04-26T09:54:47.934Z</time></trkpt><trkpt lat="44.6133467" lon="9.9777167"><ele>238.4</ele><time>2026-04-26T09:54:48.934Z</time></trkpt><trkpt lat="44.6132567" lon="9.977655"><ele>237.60000000000002</ele><time>2026-04-26T09:54:49.934Z</time></trkpt><trkpt lat="44.61315" lon="9.977595"><ele>236.8</ele><time>2026-04-26T09:54:50.934Z</time></trkpt><trkpt lat="44.6130433" lon="9.9775367"><ele>236.0</ele><time>2026-04-26T09:54:51.934Z</time></trkpt><trkpt lat="44.6129233" lon="9.9774867"><ele>236.0</ele><time>2026-04-26T09:54:52.934Z</time></trkpt><trkpt lat="44.6127983" lon="9.97744"><ele>236.0</ele><time>2026-04-26T09:54:53.933Z</time></trkpt><trkpt lat="44.6126717" lon="9.97739"><ele>236.0</ele><time>2026-04-26T09:54:54.934Z</time></trkpt><trkpt lat="44.61255" lon="9.97734"><ele>236.0</ele><time>2026-04-26T09:54:55.934Z</time></trkpt><trkpt lat="44.6124167" lon="9.9772967"><ele>236.0</ele><time>2026-04-26T09:54:56.934Z</time></trkpt><trkpt lat="44.6122917" lon="9.97726"><ele>236.0</ele><time>2026-04-26T09:54:57.934Z</time></trkpt><trkpt lat="44.6121667" lon="9.9772317"><ele>236.0</ele><time>2026-04-26T09:54:58.934Z</time></trkpt><trkpt lat="44.612045" lon="9.9771933"><ele>236.0</ele><time>2026-04-26T09:54:59.934Z</time></trkpt><trkpt lat="44.6119267" lon="9.97716"><ele>235.5</ele><time>2026-04-26T09:55:00.934Z</time></trkpt><trkpt lat="44.611805" lon="9.9771233"><ele>235.0</ele><time>2026-04-26T09:55:01.933Z</time></trkpt><trkpt lat="44.611675" lon="9.977085"><ele>234.5</ele><time>2026-04-26T09:55:02.934Z</time></trkpt><trkpt lat="44.6115467" lon="9.9770417"><ele>234.0</ele><time>2026-04-26T09:55:03.934Z</time></trkpt><trkpt lat="44.611415" lon="9.977"><ele>234.0</ele><time>2026-04-26T09:55:04.934Z</time></trkpt><trkpt lat="44.611275" lon="9.976955"><ele>234.0</ele><time>2026-04-26T09:55:05.934Z</time></trkpt><trkpt lat="44.611135" lon="9.976905"><ele>234.0</ele><time>2026-04-26T09:55:06.934Z</time></trkpt><trkpt lat="44.6110033" lon="9.976865"><ele>234.0</ele><time>2026-04-26T09:55:07.934Z</time></trkpt><trkpt lat="44.6108633" lon="9.976815"><ele>233.33333333333331</ele><time>2026-04-26T09:55:08.933Z</time></trkpt><trkpt lat="44.6107183" lon="9.976765"><ele>232.66666666666666</ele><time>2026-04-26T09:55:09.933Z</time></trkpt><trkpt lat="44.6105667" lon="9.9767233"><ele>232.0</ele><time>2026-04-26T09:55:10.934Z</time></trkpt><trkpt lat="44.6104117" lon="9.9766767"><ele>233.0</ele><time>2026-04-26T09:55:11.934Z</time></trkpt><trkpt lat="44.61026" lon="9.9766217"><ele>234.0</ele><time>2026-04-26T09:55:12.934Z</time></trkpt><trkpt lat="44.6101033" lon="9.976575"><ele>235.0</ele><time>2026-04-26T09:55:13.934Z</time></trkpt><trkpt lat="44.6099433" lon="9.9765267"><ele>235.0</ele><time>2026-04-26T09:55:14.934Z</time></trkpt><trkpt lat="44.6097767" lon="9.97647"><ele>235.0</ele><time>2026-04-26T09:55:15.934Z</time></trkpt><trkpt lat="44.609615" lon="9.9764083"><ele>235.0</ele><time>2026-04-26T09:55:16.934Z</time></trkpt><trkpt lat="44.609455" lon="9.9763583"><ele>234.0</ele><time>2026-04-26T09:55:17.934Z</time></trkpt><trkpt lat="44.6092933" lon="9.9763"><ele>233.0</ele><time>2026-04-26T09:55:18.934Z</time></trkpt><trkpt lat="44.6091283" lon="9.9762417"><ele>232.0</ele><time>2026-04-26T09:55:19.934Z</time></trkpt><trkpt lat="44.60896" lon="9.9761933"><ele>232.0</ele><time>2026-04-26T09:55:20.934Z</time></trkpt><trkpt lat="44.6087883" lon="9.976145"><ele>232.0</ele><time>2026-04-26T09:55:21.934Z</time></trkpt><trkpt lat="44.608605" lon="9.9760917"><ele>232.0</ele><time>2026-04-26T09:55:22.934Z</time></trkpt><trkpt lat="44.6084133" lon="9.9760467"><ele>232.33333333333331</ele><time>2026-04-26T09:55:23.934Z</time></trkpt><trkpt lat="44.6082133" lon="9.97601"><ele>232.66666666666669</ele><time>2026-04-26T09:55:24.934Z</time></trkpt><trkpt lat="44.6080117" lon="9.97598"><ele>233.0</ele><time>2026-04-26T09:55:25.934Z</time></trkpt><trkpt lat="44.6078133" lon="9.9759667"><ele>231.33333333333334</ele><time>2026-04-26T09:55:26.934Z</time></trkpt><trkpt lat="44.6076133" lon="9.9759617"><ele>229.66666666666669</ele><time>2026-04-26T09:55:27.934Z</time></trkpt><trkpt lat="44.6074133" lon="9.9759467"><ele>228.0</ele><time>2026-04-26T09:55:28.934Z</time></trkpt><trkpt lat="44.6072167" lon="9.97592"><ele>228.0</ele><time>2026-04-26T09:55:29.934Z</time></trkpt><trkpt lat="44.6070183" lon="9.9758683"><ele>228.0</ele><time>2026-04-26T09:55:30.934Z</time></trkpt><trkpt lat="44.6068233" lon="9.9757967"><ele>228.0</ele><time>2026-04-26T09:55:31.934Z</time></trkpt><trkpt lat="44.6066317" lon="9.9756983"><ele>227.66666666666669</ele><time>2026-04-26T09:55:32.934Z</time></trkpt><trkpt lat="44.6064417" lon="9.975575"><ele>227.33333333333334</ele><time>2026-04-26T09:55:33.934Z</time></trkpt><trkpt lat="44.6062633" lon="9.9754233"><ele>227.0</ele><time>2026-04-26T09:55:34.933Z</time></trkpt><trkpt lat="44.606085" lon="9.9752483"><ele>227.0</ele><time>2026-04-26T09:55:35.934Z</time></trkpt><trkpt lat="44.6059167" lon="9.9750433"><ele>227.0</ele><time>2026-04-26T09:55:36.933Z</time></trkpt><trkpt lat="44.6057433" lon="9.9748367"><ele>230.0</ele><time>2026-04-26T09:55:37.933Z</time></trkpt><trkpt lat="44.605575" lon="9.9746233"><ele>233.0</ele><time>2026-04-26T09:55:38.934Z</time></trkpt><trkpt lat="44.6054017" lon="9.974405"><ele>233.0</ele><time>2026-04-26T09:55:39.934Z</time></trkpt><trkpt lat="44.6052283" lon="9.9741833"><ele>233.0</ele><time>2026-04-26T09:55:40.933Z</time></trkpt><trkpt lat="44.6050567" lon="9.9739667"><ele>233.0</ele><time>2026-04-26T09:55:41.934Z</time></trkpt><trkpt lat="44.6048917" lon="9.973745"><ele>233.0</ele><time>2026-04-26T09:55:42.934Z</time></trkpt><trkpt lat="44.6047317" lon="9.9735233"><ele>231.66666666666669</ele><time>2026-04-26T09:55:43.933Z</time></trkpt><trkpt lat="44.6045733" lon="9.9733033"><ele>230.33333333333331</ele><time>2026-04-26T09:55:44.934Z</time></trkpt><trkpt lat="44.6044133" lon="9.9730867"><ele>229.0</ele><time>2026-04-26T09:55:45.934Z</time></trkpt><trkpt lat="44.6042617" lon="9.9728717"><ele>229.0</ele><time>2026-04-26T09:55:46.934Z</time></trkpt><trkpt lat="44.6041083" lon="9.972655"><ele>229.0</ele><time>2026-04-26T09:55:47.934Z</time></trkpt><trkpt lat="44.6039567" lon="9.9724417"><ele>229.0</ele><time>2026-04-26T09:55:48.934Z</time></trkpt><trkpt lat="44.6038117" lon="9.9722283"><ele>228.66666666666666</ele><time>2026-04-26T09:55:49.934Z</time></trkpt><trkpt lat="44.6036667" lon="9.972015"><ele>228.33333333333331</ele><time>2026-04-26T09:55:50.934Z</time></trkpt><trkpt lat="44.603525" lon="9.9718033"><ele>228.0</ele><time>2026-04-26T09:55:51.934Z</time></trkpt><trkpt lat="44.60338" lon="9.9715967"><ele>229.66666666666669</ele><time>2026-04-26T09:55:52.934Z</time></trkpt><trkpt lat="44.603235" lon="9.9713933"><ele>231.33333333333334</ele><time>2026-04-26T09:55:53.933Z</time></trkpt><trkpt lat="44.6030917" lon="9.9711867"><ele>233.0</ele><time>2026-04-26T09:55:54.934Z</time></trkpt><trkpt lat="44.60295" lon="9.9709783"><ele>232.66666666666669</ele><time>2026-04-26T09:55:55.933Z</time></trkpt><trkpt lat="44.60281" lon="9.97077"><ele>232.33333333333331</ele><time>2026-04-26T09:55:56.934Z</time></trkpt><trkpt lat="44.6026717" lon="9.9705583"><ele>232.0</ele><time>2026-04-26T09:55:57.933Z</time></trkpt><trkpt lat="44.6025317" lon="9.9703467"><ele>232.0</ele><time>2026-04-26T09:55:58.934Z</time></trkpt><trkpt lat="44.6023933" lon="9.9701367"><ele>232.0</ele><time>2026-04-26T09:55:59.934Z</time></trkpt><trkpt lat="44.6022567" lon="9.96993"><ele>232.0</ele><time>2026-04-26T09:56:00.934Z</time></trkpt><trkpt lat="44.60212" lon="9.969725"><ele>232.0</ele><time>2026-04-26T09:56:01.933Z</time></trkpt><trkpt lat="44.60198" lon="9.9695217"><ele>232.0</ele><time>2026-04-26T09:56:02.934Z</time></trkpt><trkpt lat="44.6018417" lon="9.9693183"><ele>232.0</ele><time>2026-04-26T09:56:03.934Z</time></trkpt><trkpt lat="44.6017033" lon="9.9691167"><ele>233.33333333333331</ele><time>2026-04-26T09:56:04.934Z</time></trkpt><trkpt lat="44.6015633" lon="9.9689133"><ele>234.66666666666669</ele><time>2026-04-26T09:56:05.934Z</time></trkpt><trkpt lat="44.601425" lon="9.9687117"><ele>236.0</ele><time>2026-04-26T09:56:06.934Z</time></trkpt><trkpt lat="44.6012867" lon="9.96851"><ele>235.0</ele><time>2026-04-26T09:56:07.933Z</time></trkpt><trkpt lat="44.6011483" lon="9.9683083"><ele>234.0</ele><time>2026-04-26T09:56:08.934Z</time></trkpt><trkpt lat="44.601015" lon="9.9681083"><ele>233.0</ele><time>2026-04-26T09:56:09.934Z</time></trkpt><trkpt lat="44.60088" lon="9.9679083"><ele>233.0</ele><time>2026-04-26T09:56:10.933Z</time></trkpt><trkpt lat="44.6007467" lon="9.96771"><ele>233.0</ele><time>2026-04-26T09:56:11.934Z</time></trkpt><trkpt lat="44.6006133" lon="9.9675133"><ele>233.0</ele><time>2026-04-26T09:56:12.934Z</time></trkpt><trkpt lat="44.6004783" lon="9.9673167"><ele>233.66666666666669</ele><time>2026-04-26T09:56:13.934Z</time></trkpt><trkpt lat="44.600345" lon="9.9671217"><ele>234.33333333333331</ele><time>2026-04-26T09:56:14.933Z</time></trkpt><trkpt lat="44.6002083" lon="9.9669267"><ele>235.0</ele><time>2026-04-26T09:56:15.934Z</time></trkpt><trkpt lat="44.600075" lon="9.9667317"><ele>235.33333333333331</ele><time>2026-04-26T09:56:16.934Z</time></trkpt><trkpt lat="44.59994" lon="9.9665367"><ele>235.66666666666669</ele><time>2026-04-26T09:56:17.933Z</time></trkpt><trkpt lat="44.599805" lon="9.96634"><ele>236.0</ele><time>2026-04-26T09:56:18.933Z</time></trkpt><trkpt lat="44.5996717" lon="9.9661417"><ele>236.0</ele><time>2026-04-26T09:56:19.934Z</time></trkpt><trkpt lat="44.59954" lon="9.9659417"><ele>236.0</ele><time>2026-04-26T09:56:20.934Z</time></trkpt><trkpt lat="44.599405" lon="9.9657383"><ele>236.0</ele><time>2026-04-26T09:56:21.934Z</time></trkpt><trkpt lat="44.5992683" lon="9.9655367"><ele>236.66666666666669</ele><time>2026-04-26T09:56:22.934Z</time></trkpt><trkpt lat="44.5991283" lon="9.96533"><ele>237.33333333333331</ele><time>2026-04-26T09:56:23.934Z</time></trkpt><trkpt lat="44.5989917" lon="9.9651233"><ele>238.0</ele><time>2026-04-26T09:56:24.933Z</time></trkpt><trkpt lat="44.5988533" lon="9.9649167"><ele>237.0</ele><time>2026-04-26T09:56:25.934Z</time></trkpt><trkpt lat="44.5987083" lon="9.96472"><ele>236.0</ele><time>2026-04-26T09:56:26.934Z</time></trkpt><trkpt lat="44.5985633" lon="9.9645267"><ele>235.0</ele><time>2026-04-26T09:56:27.934Z</time></trkpt><trkpt lat="44.59842" lon="9.9643367"><ele>238.0</ele><time>2026-04-26T09:56:28.934Z</time></trkpt><trkpt lat="44.59827" lon="9.9641533"><ele>241.0</ele><time>2026-04-26T09:56:29.934Z</time></trkpt><trkpt lat="44.598105" lon="9.9639767"><ele>244.0</ele><time>2026-04-26T09:56:30.934Z</time></trkpt><trkpt lat="44.5979433" lon="9.963795"><ele>243.33333333333331</ele><time>2026-04-26T09:56:31.934Z</time></trkpt><trkpt lat="44.5977833" lon="9.9636117"><ele>242.66666666666669</ele><time>2026-04-26T09:56:32.934Z</time></trkpt><trkpt lat="44.5976283" lon="9.96343"><ele>242.0</ele><time>2026-04-26T09:56:33.934Z</time></trkpt><trkpt lat="44.5974633" lon="9.963255"><ele>242.0</ele><time>2026-04-26T09:56:34.934Z</time></trkpt><trkpt lat="44.5973033" lon="9.9630783"><ele>242.0</ele><time>2026-04-26T09:56:35.934Z</time></trkpt><trkpt lat="44.5971467" lon="9.9629"><ele>242.0</ele><time>2026-04-26T09:56:36.934Z</time></trkpt><trkpt lat="44.5969833" lon="9.9627183"><ele>241.66666666666669</ele><time>2026-04-26T09:56:37.934Z</time></trkpt><trkpt lat="44.59683" lon="9.9625367"><ele>241.33333333333331</ele><time>2026-04-26T09:56:38.933Z</time></trkpt><trkpt lat="44.596675" lon="9.9623617"><ele>241.0</ele><time>2026-04-26T09:56:39.934Z</time></trkpt><trkpt lat="44.5965233" lon="9.9621817"><ele>241.0</ele><time>2026-04-26T09:56:40.934Z</time></trkpt><trkpt lat="44.59638" lon="9.9619917"><ele>241.0</ele><time>2026-04-26T09:56:41.934Z</time></trkpt><trkpt lat="44.5962317" lon="9.9617883"><ele>241.0</ele><time>2026-04-26T09:56:42.934Z</time></trkpt><trkpt lat="44.5960917" lon="9.9615883"><ele>241.0</ele><time>2026-04-26T09:56:43.934Z</time></trkpt><trkpt lat="44.595965" lon="9.96138"><ele>241.0</ele><time>2026-04-26T09:56:44.934Z</time></trkpt><trkpt lat="44.595855" lon="9.9611517"><ele>241.0</ele><time>2026-04-26T09:56:45.933Z</time></trkpt><trkpt lat="44.5957433" lon="9.9609083"><ele>243.33333333333331</ele><time>2026-04-26T09:56:46.934Z</time></trkpt><trkpt lat="44.5956333" lon="9.9606667"><ele>245.66666666666669</ele><time>2026-04-26T09:56:47.934Z</time></trkpt><trkpt lat="44.5955333" lon="9.96042"><ele>248.0</ele><time>2026-04-26T09:56:48.934Z</time></trkpt><trkpt lat="44.5954467" lon="9.9601583"><ele>248.66666666666669</ele><time>2026-04-26T09:56:49.934Z</time></trkpt><trkpt lat="44.5953783" lon="9.959895"><ele>249.33333333333331</ele><time>2026-04-26T09:56:50.934Z</time></trkpt><trkpt lat="44.5953067" lon="9.9596283"><ele>250.0</ele><time>2026-04-26T09:56:51.934Z</time></trkpt><trkpt lat="44.5952317" lon="9.9593583"><ele>246.66666666666666</ele><time>2026-04-26T09:56:52.934Z</time></trkpt><trkpt lat="44.5951567" lon="9.95909"><ele>243.33333333333331</ele><time>2026-04-26T09:56:53.933Z</time></trkpt><trkpt lat="44.5950833" lon="9.9588317"><ele>240.0</ele><time>2026-04-26T09:56:54.934Z</time></trkpt><trkpt lat="44.5950083" lon="9.9585733"><ele>242.0</ele><time>2026-04-26T09:56:55.934Z</time></trkpt><trkpt lat="44.59494" lon="9.9583133"><ele>244.0</ele><time>2026-04-26T09:56:56.934Z</time></trkpt><trkpt lat="44.5948717" lon="9.95805"><ele>246.0</ele><time>2026-04-26T09:56:57.934Z</time></trkpt><trkpt lat="44.5948033" lon="9.9577883"><ele>247.66666666666669</ele><time>2026-04-26T09:56:58.934Z</time></trkpt><trkpt lat="44.594735" lon="9.9575283"><ele>249.33333333333334</ele><time>2026-04-26T09:56:59.934Z</time></trkpt><trkpt lat="44.5946667" lon="9.9572667"><ele>251.0</ele><time>2026-04-26T09:57:00.934Z</time></trkpt><trkpt lat="44.59459" lon="9.9570117"><ele>248.33333333333334</ele><time>2026-04-26T09:57:01.934Z</time></trkpt><trkpt lat="44.5945033" lon="9.9567567"><ele>245.66666666666669</ele><time>2026-04-26T09:57:02.934Z</time></trkpt><trkpt lat="44.5944083" lon="9.95651"><ele>243.0</ele><time>2026-04-26T09:57:03.934Z</time></trkpt><trkpt lat="44.59431" lon="9.9562633"><ele>243.0</ele><time>2026-04-26T09:57:04.934Z</time></trkpt><trkpt lat="44.5942067" lon="9.9560183"><ele>243.0</ele><time>2026-04-26T09:57:05.934Z</time></trkpt><trkpt lat="44.5940967" lon="9.9557733"><ele>243.0</ele><time>2026-04-26T09:57:06.934Z</time></trkpt><trkpt lat="44.5939867" lon="9.95553"><ele>242.33333333333331</ele><time>2026-04-26T09:57:07.934Z</time></trkpt><trkpt lat="44.5938767" lon="9.955285"><ele>241.66666666666666</ele><time>2026-04-26T09:57:08.934Z</time></trkpt><trkpt lat="44.5937667" lon="9.9550417"><ele>241.0</ele><time>2026-04-26T09:57:09.934Z</time></trkpt><trkpt lat="44.5936567" lon="9.9548067"><ele>241.0</ele><time>2026-04-26T09:57:10.934Z</time></trkpt><trkpt lat="44.5935467" lon="9.9545633"><ele>241.0</ele><time>2026-04-26T09:57:11.934Z</time></trkpt><trkpt lat="44.59344" lon="9.954315"><ele>241.0</ele><time>2026-04-26T09:57:12.934Z</time></trkpt><trkpt lat="44.593335" lon="9.9540717"><ele>242.66666666666666</ele><time>2026-04-26T09:57:13.934Z</time></trkpt><trkpt lat="44.5932317" lon="9.9538317"><ele>244.33333333333331</ele><time>2026-04-26T09:57:14.934Z</time></trkpt><trkpt lat="44.5931333" lon="9.9535933"><ele>246.0</ele><time>2026-04-26T09:57:15.934Z</time></trkpt><trkpt lat="44.5930317" lon="9.9533517"><ele>248.0</ele><time>2026-04-26T09:57:16.933Z</time></trkpt><trkpt lat="44.59293" lon="9.9531167"><ele>250.0</ele><time>2026-04-26T09:57:17.933Z</time></trkpt><trkpt lat="44.5928267" lon="9.952885"><ele>252.0</ele><time>2026-04-26T09:57:18.934Z</time></trkpt><trkpt lat="44.5927233" lon="9.9526517"><ele>249.66666666666669</ele><time>2026-04-26T09:57:19.934Z</time></trkpt><trkpt lat="44.5926267" lon="9.9524183"><ele>247.33333333333334</ele><time>2026-04-26T09:57:20.933Z</time></trkpt><trkpt lat="44.5925217" lon="9.952185"><ele>245.0</ele><time>2026-04-26T09:57:21.934Z</time></trkpt><trkpt lat="44.592415" lon="9.9519467"><ele>245.0</ele><time>2026-04-26T09:57:22.934Z</time></trkpt><trkpt lat="44.5923117" lon="9.9517133"><ele>245.0</ele><time>2026-04-26T09:57:23.934Z</time></trkpt><trkpt lat="44.5922033" lon="9.951475"><ele>245.0</ele><time>2026-04-26T09:57:24.934Z</time></trkpt><trkpt lat="44.592095" lon="9.9512367"><ele>245.33333333333334</ele><time>2026-04-26T09:57:25.933Z</time></trkpt><trkpt lat="44.591985" lon="9.951"><ele>245.66666666666669</ele><time>2026-04-26T09:57:26.934Z</time></trkpt><trkpt lat="44.59188" lon="9.9507633"><ele>246.0</ele><time>2026-04-26T09:57:27.934Z</time></trkpt><trkpt lat="44.5917683" lon="9.9505333"><ele>246.0</ele><time>2026-04-26T09:57:28.934Z</time></trkpt><trkpt lat="44.5916483" lon="9.9503117"><ele>246.0</ele><time>2026-04-26T09:57:29.934Z</time></trkpt><trkpt lat="44.59152" lon="9.9501017"><ele>246.0</ele><time>2026-04-26T09:57:30.934Z</time></trkpt><trkpt lat="44.5913683" lon="9.9499033"><ele>246.0</ele><time>2026-04-26T09:57:31.934Z</time></trkpt><trkpt lat="44.5912183" lon="9.9497167"><ele>246.0</ele><time>2026-04-26T09:57:32.934Z</time></trkpt><trkpt lat="44.5910733" lon="9.949535"><ele>246.0</ele><time>2026-04-26T09:57:33.934Z</time></trkpt><trkpt lat="44.5909183" lon="9.949355"><ele>248.66666666666669</ele><time>2026-04-26T09:57:34.934Z</time></trkpt><trkpt lat="44.5907617" lon="9.94917"><ele>251.33333333333334</ele><time>2026-04-26T09:57:35.934Z</time></trkpt><trkpt lat="44.5906033" lon="9.94899"><ele>254.0</ele><time>2026-04-26T09:57:36.934Z</time></trkpt><trkpt lat="44.5904483" lon="9.9488017"><ele>253.33333333333334</ele><time>2026-04-26T09:57:37.934Z</time></trkpt><trkpt lat="44.5902867" lon="9.9486167"><ele>252.66666666666669</ele><time>2026-04-26T09:57:38.934Z</time></trkpt><trkpt lat="44.5901283" lon="9.9484267"><ele>252.0</ele><time>2026-04-26T09:57:39.934Z</time></trkpt><trkpt lat="44.58998" lon="9.94823"><ele>252.0</ele><time>2026-04-26T09:57:40.934Z</time></trkpt><trkpt lat="44.5898267" lon="9.94805"><ele>252.0</ele><time>2026-04-26T09:57:41.934Z</time></trkpt><trkpt lat="44.58968" lon="9.9478717"><ele>252.0</ele><time>2026-04-26T09:57:42.934Z</time></trkpt><trkpt lat="44.5895283" lon="9.9477033"><ele>252.33333333333331</ele><time>2026-04-26T09:57:43.933Z</time></trkpt><trkpt lat="44.58937" lon="9.9475217"><ele>252.66666666666666</ele><time>2026-04-26T09:57:44.934Z</time></trkpt><trkpt lat="44.5892183" lon="9.947345"><ele>253.0</ele><time>2026-04-26T09:57:45.934Z</time></trkpt><trkpt lat="44.58906" lon="9.9471933"><ele>253.0</ele><time>2026-04-26T09:57:46.934Z</time></trkpt><trkpt lat="44.588875" lon="9.9470683"><ele>253.0</ele><time>2026-04-26T09:57:47.934Z</time></trkpt><trkpt lat="44.588675" lon="9.946975"><ele>253.0</ele><time>2026-04-26T09:57:48.933Z</time></trkpt><trkpt lat="44.5884767" lon="9.9469"><ele>251.33333333333331</ele><time>2026-04-26T09:57:49.934Z</time></trkpt><trkpt lat="44.5882867" lon="9.946815"><ele>249.66666666666669</ele><time>2026-04-26T09:57:50.934Z</time></trkpt><trkpt lat="44.58809" lon="9.9466933"><ele>248.0</ele><time>2026-04-26T09:57:51.934Z</time></trkpt><trkpt lat="44.5879117" lon="9.946545"><ele>249.0</ele><time>2026-04-26T09:57:52.934Z</time></trkpt><trkpt lat="44.58774" lon="9.9463817"><ele>250.0</ele><time>2026-04-26T09:57:53.934Z</time></trkpt><trkpt lat="44.58757" lon="9.94622"><ele>251.0</ele><time>2026-04-26T09:57:54.934Z</time></trkpt><trkpt lat="44.587405" lon="9.9460517"><ele>251.0</ele><time>2026-04-26T09:57:55.934Z</time></trkpt><trkpt lat="44.58724" lon="9.9458833"><ele>251.0</ele><time>2026-04-26T09:57:56.934Z</time></trkpt><trkpt lat="44.5870783" lon="9.9457167"><ele>251.0</ele><time>2026-04-26T09:57:57.934Z</time></trkpt><trkpt lat="44.58692" lon="9.945555"><ele>251.33333333333334</ele><time>2026-04-26T09:57:58.933Z</time></trkpt><trkpt lat="44.58676" lon="9.94538"><ele>251.66666666666669</ele><time>2026-04-26T09:57:59.934Z</time></trkpt><trkpt lat="44.586595" lon="9.9452017"><ele>252.0</ele><time>2026-04-26T09:58:00.933Z</time></trkpt><trkpt lat="44.5864283" lon="9.945045"><ele>252.66666666666669</ele><time>2026-04-26T09:58:01.934Z</time></trkpt><trkpt lat="44.586285" lon="9.9448867"><ele>253.33333333333334</ele><time>2026-04-26T09:58:02.933Z</time></trkpt><trkpt lat="44.5861417" lon="9.9447283"><ele>254.0</ele><time>2026-04-26T09:58:03.934Z</time></trkpt><trkpt lat="44.5860033" lon="9.9445617"><ele>254.0</ele><time>2026-04-26T09:58:04.934Z</time></trkpt><trkpt lat="44.5858683" lon="9.944395"><ele>254.0</ele><time>2026-04-26T09:58:05.934Z</time></trkpt><trkpt lat="44.585725" lon="9.9442283"><ele>254.0</ele><time>2026-04-26T09:58:06.933Z</time></trkpt><trkpt lat="44.5855833" lon="9.9440667"><ele>253.33333333333334</ele><time>2026-04-26T09:58:07.932Z</time></trkpt><trkpt lat="44.5854433" lon="9.9439033"><ele>252.66666666666669</ele><time>2026-04-26T09:58:08.933Z</time></trkpt><trkpt lat="44.5852967" lon="9.9437283"><ele>252.0</ele><time>2026-04-26T09:58:09.932Z</time></trkpt><trkpt lat="44.5851583" lon="9.9435633"><ele>252.0</ele><time>2026-04-26T09:58:10.933Z</time></trkpt><trkpt lat="44.5850133" lon="9.9434017"><ele>252.0</ele><time>2026-04-26T09:58:11.933Z</time></trkpt><trkpt lat="44.58487" lon="9.9432533"><ele>252.0</ele><time>2026-04-26T09:58:12.933Z</time></trkpt><trkpt lat="44.5847317" lon="9.9430967"><ele>252.0</ele><time>2026-04-26T09:58:13.933Z</time></trkpt><trkpt lat="44.5845883" lon="9.9429533"><ele>252.0</ele><time>2026-04-26T09:58:14.933Z</time></trkpt><trkpt lat="44.5844433" lon="9.942815"><ele>252.0</ele><time>2026-04-26T09:58:15.933Z</time></trkpt><trkpt lat="44.5842883" lon="9.9427"><ele>252.0</ele><time>2026-04-26T09:58:16.933Z</time></trkpt><trkpt lat="44.584115" lon="9.9426067"><ele>252.0</ele><time>2026-04-26T09:58:17.933Z</time></trkpt><trkpt lat="44.58396" lon="9.9425167"><ele>252.0</ele><time>2026-04-26T09:58:18.933Z</time></trkpt><trkpt lat="44.58382" lon="9.9424333"><ele>252.75</ele><time>2026-04-26T09:58:19.933Z</time></trkpt><trkpt lat="44.5837033" lon="9.9423483"><ele>253.5</ele><time>2026-04-26T09:58:20.933Z</time></trkpt><trkpt lat="44.5836067" lon="9.94224"><ele>254.25</ele><time>2026-04-26T09:58:21.933Z</time></trkpt><trkpt lat="44.5835117" lon="9.9421317"><ele>255.0</ele><time>2026-04-26T09:58:22.933Z</time></trkpt><trkpt lat="44.5834067" lon="9.942045"><ele>255.0</ele><time>2026-04-26T09:58:23.933Z</time></trkpt><trkpt lat="44.5832883" lon="9.9419767"><ele>255.0</ele><time>2026-04-26T09:58:24.933Z</time></trkpt><trkpt lat="44.583145" lon="9.9419183"><ele>255.0</ele><time>2026-04-26T09:58:25.933Z</time></trkpt><trkpt lat="44.582995" lon="9.94185"><ele>255.0</ele><time>2026-04-26T09:58:26.933Z</time></trkpt><trkpt lat="44.5828383" lon="9.9417717"><ele>256.3333333333333</ele><time>2026-04-26T09:58:27.933Z</time></trkpt><trkpt lat="44.5826783" lon="9.9416917"><ele>257.66666666666663</ele><time>2026-04-26T09:58:28.933Z</time></trkpt><trkpt lat="44.5825183" lon="9.9416167"><ele>259.0</ele><time>2026-04-26T09:58:29.933Z</time></trkpt><trkpt lat="44.5823683" lon="9.94155"><ele>259.0</ele><time>2026-04-26T09:58:30.933Z</time></trkpt><trkpt lat="44.58223" lon="9.9414817"><ele>259.0</ele><time>2026-04-26T09:58:31.933Z</time></trkpt><trkpt lat="44.582105" lon="9.941415"><ele>259.0</ele><time>2026-04-26T09:58:32.933Z</time></trkpt><trkpt lat="44.581985" lon="9.9413667"><ele>259.0</ele><time>2026-04-26T09:58:33.933Z</time></trkpt><trkpt lat="44.58187" lon="9.9413533"><ele>260.0</ele><time>2026-04-26T09:58:34.933Z</time></trkpt><trkpt lat="44.5817467" lon="9.941375"><ele>261.0</ele><time>2026-04-26T09:58:35.933Z</time></trkpt><trkpt lat="44.5816167" lon="9.94143"><ele>262.0</ele><time>2026-04-26T09:58:36.932Z</time></trkpt><trkpt lat="44.5814917" lon="9.9415133"><ele>263.0</ele><time>2026-04-26T09:58:37.933Z</time></trkpt><trkpt lat="44.5813733" lon="9.941605"><ele>263.0</ele><time>2026-04-26T09:58:38.933Z</time></trkpt><trkpt lat="44.58125" lon="9.9417017"><ele>263.0</ele><time>2026-04-26T09:58:39.933Z</time></trkpt><trkpt lat="44.5811283" lon="9.9417933"><ele>263.0</ele><time>2026-04-26T09:58:40.933Z</time></trkpt><trkpt lat="44.5809917" lon="9.94187"><ele>263.0</ele><time>2026-04-26T09:58:41.933Z</time></trkpt><trkpt lat="44.5808383" lon="9.9419317"><ele>261.33333333333337</ele><time>2026-04-26T09:58:42.933Z</time></trkpt><trkpt lat="44.580695" lon="9.9419883"><ele>259.6666666666667</ele><time>2026-04-26T09:58:43.933Z</time></trkpt><trkpt lat="44.5805467" lon="9.94204"><ele>258.0</ele><time>2026-04-26T09:58:44.933Z</time></trkpt><trkpt lat="44.580395" lon="9.942085"><ele>260.0</ele><time>2026-04-26T09:58:45.933Z</time></trkpt><trkpt lat="44.5802317" lon="9.9421233"><ele>262.0</ele><time>2026-04-26T09:58:46.933Z</time></trkpt><trkpt lat="44.58007" lon="9.942175"><ele>264.0</ele><time>2026-04-26T09:58:47.933Z</time></trkpt><trkpt lat="44.579915" lon="9.9422533"><ele>264.0</ele><time>2026-04-26T09:58:48.933Z</time></trkpt><trkpt lat="44.57977" lon="9.942355"><ele>264.0</ele><time>2026-04-26T09:58:49.933Z</time></trkpt><trkpt lat="44.5796417" lon="9.9424733"><ele>264.0</ele><time>2026-04-26T09:58:50.933Z</time></trkpt><trkpt lat="44.5795183" lon="9.9425783"><ele>263.0</ele><time>2026-04-26T09:58:51.933Z</time></trkpt><trkpt lat="44.5793933" lon="9.9426717"><ele>262.0</ele><time>2026-04-26T09:58:52.933Z</time></trkpt><trkpt lat="44.5792567" lon="9.9427633"><ele>261.0</ele><time>2026-04-26T09:58:53.933Z</time></trkpt><trkpt lat="44.57912" lon="9.9428533"><ele>260.0</ele><time>2026-04-26T09:58:54.932Z</time></trkpt><trkpt lat="44.578965" lon="9.9429183"><ele>260.0</ele><time>2026-04-26T09:58:55.933Z</time></trkpt><trkpt lat="44.5788167" lon="9.942965"><ele>260.0</ele><time>2026-04-26T09:58:56.932Z</time></trkpt><trkpt lat="44.5786617" lon="9.9429983"><ele>260.0</ele><time>2026-04-26T09:58:57.933Z</time></trkpt><trkpt lat="44.578495" lon="9.943025"><ele>260.6666666666667</ele><time>2026-04-26T09:58:58.933Z</time></trkpt><trkpt lat="44.57832" lon="9.9430633"><ele>261.3333333333333</ele><time>2026-04-26T09:58:59.932Z</time></trkpt><trkpt lat="44.5781567" lon="9.9431033"><ele>262.0</ele><time>2026-04-26T09:59:00.933Z</time></trkpt><trkpt lat="44.57799" lon="9.9431667"><ele>263.66666666666663</ele><time>2026-04-26T09:59:01.933Z</time></trkpt><trkpt lat="44.5778283" lon="9.9432533"><ele>265.3333333333333</ele><time>2026-04-26T09:59:02.933Z</time></trkpt><trkpt lat="44.5776767" lon="9.94335"><ele>267.0</ele><time>2026-04-26T09:59:03.933Z</time></trkpt><trkpt lat="44.5775283" lon="9.9434567"><ele>263.6666666666667</ele><time>2026-04-26T09:59:04.933Z</time></trkpt><trkpt lat="44.5773833" lon="9.9435733"><ele>260.33333333333337</ele><time>2026-04-26T09:59:05.933Z</time></trkpt><trkpt lat="44.5772317" lon="9.943685"><ele>257.0</ele><time>2026-04-26T09:59:06.933Z</time></trkpt><trkpt lat="44.5770717" lon="9.94378"><ele>258.33333333333337</ele><time>2026-04-26T09:59:07.933Z</time></trkpt><trkpt lat="44.5769083" lon="9.9438617"><ele>259.6666666666667</ele><time>2026-04-26T09:59:08.933Z</time></trkpt><trkpt lat="44.5767517" lon="9.9439267"><ele>261.0</ele><time>2026-04-26T09:59:09.933Z</time></trkpt><trkpt lat="44.5765917" lon="9.9439567"><ele>261.0</ele><time>2026-04-26T09:59:10.932Z</time></trkpt><trkpt lat="44.576425" lon="9.94396"><ele>261.0</ele><time>2026-04-26T09:59:11.932Z</time></trkpt><trkpt lat="44.57625" lon="9.9439583"><ele>261.0</ele><time>2026-04-26T09:59:12.933Z</time></trkpt><trkpt lat="44.57607" lon="9.9439683"><ele>262.6666666666667</ele><time>2026-04-26T09:59:13.933Z</time></trkpt><trkpt lat="44.5758883" lon="9.94399"><ele>264.33333333333337</ele><time>2026-04-26T09:59:14.933Z</time></trkpt><trkpt lat="44.5757067" lon="9.94402"><ele>266.0</ele><time>2026-04-26T09:59:15.933Z</time></trkpt><trkpt lat="44.5755333" lon="9.9440617"><ele>266.0</ele><time>2026-04-26T09:59:16.933Z</time></trkpt><trkpt lat="44.5753683" lon="9.9441017"><ele>266.0</ele><time>2026-04-26T09:59:17.933Z</time></trkpt><trkpt lat="44.57521" lon="9.9441417"><ele>266.0</ele><time>2026-04-26T09:59:18.933Z</time></trkpt><trkpt lat="44.57506" lon="9.944215"><ele>265.0</ele><time>2026-04-26T09:59:19.933Z</time></trkpt><trkpt lat="44.5749083" lon="9.944315"><ele>264.0</ele><time>2026-04-26T09:59:20.933Z</time></trkpt><trkpt lat="44.5747633" lon="9.944445"><ele>263.0</ele><time>2026-04-26T09:59:21.933Z</time></trkpt><trkpt lat="44.57462" lon="9.9445867"><ele>266.33333333333337</ele><time>2026-04-26T09:59:22.933Z</time></trkpt><trkpt lat="44.5744883" lon="9.9447333"><ele>269.6666666666667</ele><time>2026-04-26T09:59:23.933Z</time></trkpt><trkpt lat="44.5743617" lon="9.9448833"><ele>273.0</ele><time>2026-04-26T09:59:24.933Z</time></trkpt><trkpt lat="44.5742317" lon="9.9450017"><ele>268.6666666666667</ele><time>2026-04-26T09:59:25.933Z</time></trkpt><trkpt lat="44.57409" lon="9.94509"><ele>264.33333333333337</ele><time>2026-04-26T09:59:26.933Z</time></trkpt><trkpt lat="44.5739217" lon="9.945155"><ele>260.0</ele><time>2026-04-26T09:59:27.933Z</time></trkpt><trkpt lat="44.5737483" lon="9.9451817"><ele>260.6666666666667</ele><time>2026-04-26T09:59:28.933Z</time></trkpt><trkpt lat="44.5735667" lon="9.9452067"><ele>261.3333333333333</ele><time>2026-04-26T09:59:29.932Z</time></trkpt><trkpt lat="44.5733833" lon="9.9452267"><ele>262.0</ele><time>2026-04-26T09:59:30.933Z</time></trkpt><trkpt lat="44.5731983" lon="9.9452467"><ele>262.0</ele><time>2026-04-26T09:59:31.933Z</time></trkpt><trkpt lat="44.5730183" lon="9.9452567"><ele>262.0</ele><time>2026-04-26T09:59:32.932Z</time></trkpt><trkpt lat="44.572855" lon="9.9452383"><ele>262.0</ele><time>2026-04-26T09:59:33.933Z</time></trkpt><trkpt lat="44.5726867" lon="9.9452"><ele>261.66666666666663</ele><time>2026-04-26T09:59:34.933Z</time></trkpt><trkpt lat="44.5725133" lon="9.9451433"><ele>261.3333333333333</ele><time>2026-04-26T09:59:35.933Z</time></trkpt><trkpt lat="44.5723383" lon="9.9450733"><ele>261.0</ele><time>2026-04-26T09:59:36.933Z</time></trkpt><trkpt lat="44.57216" lon="9.9450033"><ele>264.0</ele><time>2026-04-26T09:59:37.933Z</time></trkpt><trkpt lat="44.5719733" lon="9.94492"><ele>267.0</ele><time>2026-04-26T09:59:38.933Z</time></trkpt><trkpt lat="44.5717817" lon="9.9448517"><ele>270.0</ele><time>2026-04-26T09:59:39.933Z</time></trkpt><trkpt lat="44.5715917" lon="9.9447933"><ele>270.0</ele><time>2026-04-26T09:59:40.932Z</time></trkpt><trkpt lat="44.5714" lon="9.9447533"><ele>270.0</ele><time>2026-04-26T09:59:41.933Z</time></trkpt><trkpt lat="44.5712117" lon="9.9447317"><ele>270.0</ele><time>2026-04-26T09:59:42.933Z</time></trkpt><trkpt lat="44.5710317" lon="9.944735"><ele>271.0</ele><time>2026-04-26T09:59:43.933Z</time></trkpt><trkpt lat="44.5708633" lon="9.9447467"><ele>272.0</ele><time>2026-04-26T09:59:44.933Z</time></trkpt><trkpt lat="44.5707117" lon="9.9447483"><ele>273.0</ele><time>2026-04-26T09:59:45.933Z</time></trkpt><trkpt lat="44.5705617" lon="9.94473"><ele>273.0</ele><time>2026-04-26T09:59:46.933Z</time></trkpt><trkpt lat="44.5704083" lon="9.9446917"><ele>273.0</ele><time>2026-04-26T09:59:47.933Z</time></trkpt><trkpt lat="44.570265" lon="9.94462"><ele>273.0</ele><time>2026-04-26T09:59:48.933Z</time></trkpt><trkpt lat="44.5701283" lon="9.9444967"><ele>272.0</ele><time>2026-04-26T09:59:49.932Z</time></trkpt><trkpt lat="44.5700017" lon="9.9443567"><ele>271.0</ele><time>2026-04-26T09:59:50.933Z</time></trkpt><trkpt lat="44.5698767" lon="9.9442517"><ele>270.0</ele><time>2026-04-26T09:59:51.933Z</time></trkpt><trkpt lat="44.5697367" lon="9.9442467"><ele>269.0</ele><time>2026-04-26T09:59:52.933Z</time></trkpt><trkpt lat="44.5696017" lon="9.9443067"><ele>268.25</ele><time>2026-04-26T09:59:53.932Z</time></trkpt><trkpt lat="44.569475" lon="9.94439"><ele>267.5</ele><time>2026-04-26T09:59:54.933Z</time></trkpt><trkpt lat="44.5693467" lon="9.9444467"><ele>266.75</ele><time>2026-04-26T09:59:55.933Z</time></trkpt><trkpt lat="44.5692133" lon="9.9445"><ele>266.0</ele><time>2026-04-26T09:59:56.933Z</time></trkpt><trkpt lat="44.56908" lon="9.9445183"><ele>266.0</ele><time>2026-04-26T09:59:57.933Z</time></trkpt><trkpt lat="44.5689433" lon="9.944495"><ele>266.0</ele><time>2026-04-26T09:59:58.933Z</time></trkpt><trkpt lat="44.5688017" lon="9.9444333"><ele>266.0</ele><time>2026-04-26T09:59:59.933Z</time></trkpt><trkpt lat="44.5686583" lon="9.9443633"><ele>266.0</ele><time>2026-04-26T10:00:00.933Z</time></trkpt><trkpt lat="44.5685233" lon="9.944305"><ele>265.0</ele><time>2026-04-26T10:00:01.933Z</time></trkpt><trkpt lat="44.5684133" lon="9.9442133"><ele>264.0</ele><time>2026-04-26T10:00:02.933Z</time></trkpt><trkpt lat="44.568335" lon="9.9440933"><ele>263.0</ele><time>2026-04-26T10:00:03.932Z</time></trkpt><trkpt lat="44.5682733" lon="9.9439467"><ele>262.0</ele><time>2026-04-26T10:00:04.933Z</time></trkpt><trkpt lat="44.5682217" lon="9.9438067"><ele>263.66666666666663</ele><time>2026-04-26T10:00:05.933Z</time></trkpt><trkpt lat="44.5681717" lon="9.9436983"><ele>265.3333333333333</ele><time>2026-04-26T10:00:06.933Z</time></trkpt><trkpt lat="44.5681167" lon="9.943625"><ele>267.0</ele><time>2026-04-26T10:00:07.933Z</time></trkpt><trkpt lat="44.56807" lon="9.94352"><ele>268.6666666666667</ele><time>2026-04-26T10:00:09.933Z</time></trkpt><trkpt lat="44.5680517" lon="9.9433733"><ele>270.33333333333337</ele><time>2026-04-26T10:00:11.933Z</time></trkpt><trkpt lat="44.5680467" lon="9.9432733"><ele>272.0</ele><time>2026-04-26T10:00:12.933Z</time></trkpt><trkpt lat="44.56804" lon="9.9431417"><ele>275.0</ele><time>2026-04-26T10:00:13.933Z</time></trkpt><trkpt lat="44.5680217" lon="9.942975"><ele>278.0</ele><time>2026-04-26T10:00:14.933Z</time></trkpt><trkpt lat="44.5679817" lon="9.9427683"><ele>281.0</ele><time>2026-04-26T10:00:15.932Z</time></trkpt><trkpt lat="44.56795" lon="9.942575"><ele>284.0</ele><time>2026-04-26T10:00:16.933Z</time></trkpt><trkpt lat="44.5679117" lon="9.94242"><ele>284.0</ele><time>2026-04-26T10:00:17.933Z</time></trkpt><trkpt lat="44.56788" lon="9.9422883"><ele>284.0</ele><time>2026-04-26T10:00:18.933Z</time></trkpt><trkpt lat="44.5678617" lon="9.9421517"><ele>284.0</ele><time>2026-04-26T10:00:19.933Z</time></trkpt><trkpt lat="44.5678483" lon="9.9420083"><ele>284.0</ele><time>2026-04-26T10:00:20.933Z</time></trkpt><trkpt lat="44.56782" lon="9.9418567"><ele>284.0</ele><time>2026-04-26T10:00:21.933Z</time></trkpt><trkpt lat="44.567795" lon="9.9417017"><ele>280.0</ele><time>2026-04-26T10:00:22.932Z</time></trkpt><trkpt lat="44.5677633" lon="9.9415433"><ele>276.0</ele><time>2026-04-26T10:00:23.932Z</time></trkpt><trkpt lat="44.5677367" lon="9.9413917"><ele>272.0</ele><time>2026-04-26T10:00:24.933Z</time></trkpt><trkpt lat="44.5677117" lon="9.9412533"><ele>268.0</ele><time>2026-04-26T10:00:25.933Z</time></trkpt><trkpt lat="44.567695" lon="9.941145"><ele>264.0</ele><time>2026-04-26T10:00:26.933Z</time></trkpt><trkpt lat="44.56767" lon="9.9410433"><ele>264.0</ele><time>2026-04-26T10:00:27.933Z</time></trkpt><trkpt lat="44.5676517" lon="9.9409417"><ele>264.0</ele><time>2026-04-26T10:00:28.933Z</time></trkpt><trkpt lat="44.5676333" lon="9.9408383"><ele>264.0</ele><time>2026-04-26T10:00:29.932Z</time></trkpt><trkpt lat="44.5676167" lon="9.9407383"><ele>264.0</ele><time>2026-04-26T10:00:30.933Z</time></trkpt><trkpt lat="44.5676033" lon="9.9406467"><ele>264.0</ele><time>2026-04-26T10:00:31.933Z</time></trkpt><trkpt lat="44.5675883" lon="9.9405483"><ele>264.0</ele><time>2026-04-26T10:00:33.933Z</time></trkpt><trkpt lat="44.5675433" lon="9.9406417"><ele>264.0</ele><time>2026-04-26T10:00:39.933Z</time></trkpt><trkpt lat="44.5676083" lon="9.94082"><ele>264.0</ele><time>2026-04-26T10:00:41.933Z</time></trkpt><trkpt lat="44.56764" lon="9.9409417"><ele>264.0</ele><time>2026-04-26T10:00:42.933Z</time></trkpt><trkpt lat="44.567665" lon="9.94107"><ele>264.0</ele><time>2026-04-26T10:00:43.933Z</time></trkpt><trkpt lat="44.5676883" lon="9.9411917"><ele>264.0</ele><time>2026-04-26T10:00:44.933Z</time></trkpt><trkpt lat="44.5677117" lon="9.94129"><ele>264.0</ele><time>2026-04-26T10:00:45.933Z</time></trkpt><trkpt lat="44.567775" lon="9.9414167"><ele>264.0</ele><time>2026-04-26T10:00:47.933Z</time></trkpt><trkpt lat="44.56785" lon="9.941445"><ele>264.0</ele><time>2026-04-26T10:00:49.933Z</time></trkpt><trkpt lat="44.5679417" lon="9.9414217"><ele>264.0</ele><time>2026-04-26T10:00:51.933Z</time></trkpt><trkpt lat="44.5680267" lon="9.9413167"><ele>264.0</ele><time>2026-04-26T10:00:53.933Z</time></trkpt><trkpt lat="44.5680783" lon="9.9412383"><ele>264.0</ele><time>2026-04-26T10:00:54.932Z</time></trkpt><trkpt lat="44.5681333" lon="9.9411367"><ele>266.59999999999997</ele><time>2026-04-26T10:00:55.933Z</time></trkpt><trkpt lat="44.5681783" lon="9.9410183"><ele>269.2</ele><time>2026-04-26T10:00:56.932Z</time></trkpt><trkpt lat="44.56822" lon="9.9408817"><ele>271.79999999999995</ele><time>2026-04-26T10:00:57.933Z</time></trkpt><trkpt lat="44.568215" lon="9.9407167"><ele>274.4</ele><time>2026-04-26T10:00:58.932Z</time></trkpt><trkpt lat="44.5681867" lon="9.940545"><ele>277.0</ele><time>2026-04-26T10:00:59.933Z</time></trkpt><trkpt lat="44.5681583" lon="9.940385"><ele>277.0</ele><time>2026-04-26T10:01:00.933Z</time></trkpt><trkpt lat="44.5681533" lon="9.940215"><ele>277.0</ele><time>2026-04-26T10:01:01.933Z</time></trkpt><trkpt lat="44.56813" lon="9.9400367"><ele>277.0</ele><time>2026-04-26T10:01:02.933Z</time></trkpt><trkpt lat="44.568105" lon="9.9398517"><ele>277.0</ele><time>2026-04-26T10:01:03.933Z</time></trkpt><trkpt lat="44.56807" lon="9.93966"><ele>279.3333333333333</ele><time>2026-04-26T10:01:04.933Z</time></trkpt><trkpt lat="44.56802" lon="9.9394583"><ele>281.6666666666667</ele><time>2026-04-26T10:01:05.933Z</time></trkpt><trkpt lat="44.5679733" lon="9.9392483"><ele>284.0</ele><time>2026-04-26T10:01:06.933Z</time></trkpt><trkpt lat="44.56793" lon="9.9390367"><ele>284.75</ele><time>2026-04-26T10:01:07.933Z</time></trkpt><trkpt lat="44.56789" lon="9.9388283"><ele>285.5</ele><time>2026-04-26T10:01:08.933Z</time></trkpt><trkpt lat="44.5678483" lon="9.9386383"><ele>286.25</ele><time>2026-04-26T10:01:09.933Z</time></trkpt><trkpt lat="44.5678117" lon="9.9384517"><ele>287.0</ele><time>2026-04-26T10:01:10.933Z</time></trkpt><trkpt lat="44.5677367" lon="9.93828"><ele>287.0</ele><time>2026-04-26T10:01:11.933Z</time></trkpt><trkpt lat="44.5676683" lon="9.9381117"><ele>287.0</ele><time>2026-04-26T10:01:12.933Z</time></trkpt><trkpt lat="44.5675783" lon="9.9379567"><ele>287.0</ele><time>2026-04-26T10:01:13.933Z</time></trkpt><trkpt lat="44.5674983" lon="9.937815"><ele>287.0</ele><time>2026-04-26T10:01:14.933Z</time></trkpt><trkpt lat="44.5674183" lon="9.9376733"><ele>285.25</ele><time>2026-04-26T10:01:15.933Z</time></trkpt><trkpt lat="44.5673317" lon="9.93751"><ele>283.5</ele><time>2026-04-26T10:01:16.933Z</time></trkpt><trkpt lat="44.5672283" lon="9.9373683"><ele>281.75</ele><time>2026-04-26T10:01:17.933Z</time></trkpt><trkpt lat="44.5671167" lon="9.937245"><ele>280.0</ele><time>2026-04-26T10:01:18.932Z</time></trkpt><trkpt lat="44.56702" lon="9.937115"><ele>280.0</ele><time>2026-04-26T10:01:19.933Z</time></trkpt><trkpt lat="44.5668883" lon="9.9370567"><ele>280.0</ele><time>2026-04-26T10:01:20.933Z</time></trkpt><trkpt lat="44.566755" lon="9.9370067"><ele>280.0</ele><time>2026-04-26T10:01:21.933Z</time></trkpt><trkpt lat="44.56665" lon="9.9369433"><ele>280.0</ele><time>2026-04-26T10:01:22.933Z</time></trkpt><trkpt lat="44.5665667" lon="9.9368817"><ele>280.0</ele><time>2026-04-26T10:01:23.933Z</time></trkpt><trkpt lat="44.5665033" lon="9.9367967"><ele>280.0</ele><time>2026-04-26T10:01:24.933Z</time></trkpt><trkpt lat="44.5664567" lon="9.9366933"><ele>280.0</ele><time>2026-04-26T10:01:25.933Z</time></trkpt><trkpt lat="44.5664167" lon="9.9365467"><ele>280.0</ele><time>2026-04-26T10:01:26.933Z</time></trkpt><trkpt lat="44.566375" lon="9.9363883"><ele>280.0</ele><time>2026-04-26T10:01:27.933Z</time></trkpt><trkpt lat="44.56633" lon="9.93624"><ele>283.0</ele><time>2026-04-26T10:01:28.933Z</time></trkpt><trkpt lat="44.5662833" lon="9.93612"><ele>286.0</ele><time>2026-04-26T10:01:29.933Z</time></trkpt><trkpt lat="44.5662367" lon="9.9360217"><ele>289.0</ele><time>2026-04-26T10:01:30.933Z</time></trkpt><trkpt lat="44.566195" lon="9.9359267"><ele>292.0</ele><time>2026-04-26T10:01:31.933Z</time></trkpt><trkpt lat="44.5661733" lon="9.9358217"><ele>295.0</ele><time>2026-04-26T10:01:32.933Z</time></trkpt><trkpt lat="44.5661617" lon="9.9357117"><ele>298.0</ele><time>2026-04-26T10:01:33.933Z</time></trkpt><trkpt lat="44.56614" lon="9.935595"><ele>298.0</ele><time>2026-04-26T10:01:34.933Z</time></trkpt><trkpt lat="44.5661" lon="9.9354783"><ele>298.0</ele><time>2026-04-26T10:01:35.933Z</time></trkpt><trkpt lat="44.566035" lon="9.935385"><ele>298.0</ele><time>2026-04-26T10:01:36.933Z</time></trkpt><trkpt lat="44.5659517" lon="9.9353017"><ele>298.0</ele><time>2026-04-26T10:01:37.933Z</time></trkpt><trkpt lat="44.565865" lon="9.935235"><ele>298.0</ele><time>2026-04-26T10:01:38.933Z</time></trkpt><trkpt lat="44.56579" lon="9.9351567"><ele>298.0</ele><time>2026-04-26T10:01:39.933Z</time></trkpt><trkpt lat="44.56573" lon="9.9350683"><ele>298.0</ele><time>2026-04-26T10:01:40.933Z</time></trkpt><trkpt lat="44.56569" lon="9.9349867"><ele>298.0</ele><time>2026-04-26T10:01:41.933Z</time></trkpt><trkpt lat="44.565685" lon="9.9348667"><ele>298.0</ele><time>2026-04-26T10:01:42.933Z</time></trkpt><trkpt lat="44.565675" lon="9.93474"><ele>298.0</ele><time>2026-04-26T10:01:43.933Z</time></trkpt><trkpt lat="44.5656567" lon="9.9346283"><ele>298.0</ele><time>2026-04-26T10:01:44.933Z</time></trkpt><trkpt lat="44.5656217" lon="9.9345283"><ele>298.66666666666663</ele><time>2026-04-26T10:01:45.933Z</time></trkpt><trkpt lat="44.5655767" lon="9.9344517"><ele>299.3333333333333</ele><time>2026-04-26T10:01:46.933Z</time></trkpt><trkpt lat="44.5655083" lon="9.9344083"><ele>300.0</ele><time>2026-04-26T10:01:47.932Z</time></trkpt><trkpt lat="44.56543" lon="9.9343883"><ele>300.6666666666667</ele><time>2026-04-26T10:01:48.933Z</time></trkpt><trkpt lat="44.5653467" lon="9.9343717"><ele>301.33333333333337</ele><time>2026-04-26T10:01:49.933Z</time></trkpt><trkpt lat="44.5652733" lon="9.9343333"><ele>302.0</ele><time>2026-04-26T10:01:50.932Z</time></trkpt><trkpt lat="44.5652133" lon="9.9342767"><ele>303.1666666666667</ele><time>2026-04-26T10:01:51.933Z</time></trkpt><trkpt lat="44.56516" lon="9.9341967"><ele>304.33333333333337</ele><time>2026-04-26T10:01:52.933Z</time></trkpt><trkpt lat="44.5651067" lon="9.9341167"><ele>305.5</ele><time>2026-04-26T10:01:53.933Z</time></trkpt><trkpt lat="44.565045" lon="9.9340567"><ele>306.6666666666667</ele><time>2026-04-26T10:01:54.932Z</time></trkpt><trkpt lat="44.5649817" lon="9.934005"><ele>307.8333333333333</ele><time>2026-04-26T10:01:55.933Z</time></trkpt><trkpt lat="44.5649283" lon="9.9339267"><ele>309.0</ele><time>2026-04-26T10:01:56.933Z</time></trkpt><trkpt lat="44.5648733" lon="9.9338333"><ele>309.0</ele><time>2026-04-26T10:01:57.933Z</time></trkpt><trkpt lat="44.56481" lon="9.93374"><ele>309.0</ele><time>2026-04-26T10:01:58.933Z</time></trkpt><trkpt lat="44.5647367" lon="9.9336517"><ele>309.0</ele><time>2026-04-26T10:01:59.932Z</time></trkpt><trkpt lat="44.5646633" lon="9.9335783"><ele>309.0</ele><time>2026-04-26T10:02:00.933Z</time></trkpt><trkpt lat="44.5645867" lon="9.9335033"><ele>309.0</ele><time>2026-04-26T10:02:01.933Z</time></trkpt><trkpt lat="44.5645" lon="9.93344"><ele>308.8</ele><time>2026-04-26T10:02:02.932Z</time></trkpt><trkpt lat="44.5644117" lon="9.9333683"><ele>308.59999999999997</ele><time>2026-04-26T10:02:03.933Z</time></trkpt><trkpt lat="44.5643167" lon="9.9332883"><ele>308.4</ele><time>2026-04-26T10:02:04.933Z</time></trkpt><trkpt lat="44.5642317" lon="9.9332183"><ele>308.2</ele><time>2026-04-26T10:02:05.933Z</time></trkpt><trkpt lat="44.5641483" lon="9.9331483"><ele>308.0</ele><time>2026-04-26T10:02:06.933Z</time></trkpt><trkpt lat="44.5640683" lon="9.9330733"><ele>308.0</ele><time>2026-04-26T10:02:07.932Z</time></trkpt><trkpt lat="44.5640017" lon="9.9329933"><ele>308.0</ele><time>2026-04-26T10:02:08.933Z</time></trkpt><trkpt lat="44.5639383" lon="9.9329067"><ele>308.0</ele><time>2026-04-26T10:02:09.933Z</time></trkpt><trkpt lat="44.5638817" lon="9.93281"><ele>308.0</ele><time>2026-04-26T10:02:10.933Z</time></trkpt><trkpt lat="44.5638333" lon="9.9326867"><ele>308.0</ele><time>2026-04-26T10:02:11.933Z</time></trkpt><trkpt lat="44.56379" lon="9.93257"><ele>308.8</ele><time>2026-04-26T10:02:12.933Z</time></trkpt><trkpt lat="44.5637517" lon="9.9324517"><ele>309.6</ele><time>2026-04-26T10:02:13.933Z</time></trkpt><trkpt lat="44.5637" lon="9.93235"><ele>310.4</ele><time>2026-04-26T10:02:14.933Z</time></trkpt><trkpt lat="44.5636417" lon="9.9322667"><ele>311.2</ele><time>2026-04-26T10:02:15.933Z</time></trkpt><trkpt lat="44.563565" lon="9.9321833"><ele>312.0</ele><time>2026-04-26T10:02:16.933Z</time></trkpt><trkpt lat="44.5634833" lon="9.932105"><ele>312.0</ele><time>2026-04-26T10:02:17.933Z</time></trkpt><trkpt lat="44.56341" lon="9.9320317"><ele>312.0</ele><time>2026-04-26T10:02:18.933Z</time></trkpt><trkpt lat="44.563345" lon="9.9319567"><ele>312.0</ele><time>2026-04-26T10:02:19.933Z</time></trkpt><trkpt lat="44.563295" lon="9.93187"><ele>312.0</ele><time>2026-04-26T10:02:20.933Z</time></trkpt><trkpt lat="44.5632567" lon="9.9317917"><ele>312.0</ele><time>2026-04-26T10:02:21.933Z</time></trkpt><trkpt lat="44.5632183" lon="9.9317183"><ele>312.0</ele><time>2026-04-26T10:02:22.933Z</time></trkpt><trkpt lat="44.56318" lon="9.9316333"><ele>315.6</ele><time>2026-04-26T10:02:23.933Z</time></trkpt><trkpt lat="44.5631367" lon="9.93155"><ele>319.2</ele><time>2026-04-26T10:02:24.933Z</time></trkpt><trkpt lat="44.5630817" lon="9.9314117"><ele>322.8</ele><time>2026-04-26T10:02:26.933Z</time></trkpt><trkpt lat="44.5630867" lon="9.931285"><ele>326.4</ele><time>2026-04-26T10:02:29.933Z</time></trkpt><trkpt lat="44.5630683" lon="9.9311667"><ele>330.0</ele><time>2026-04-26T10:02:31.933Z</time></trkpt><trkpt lat="44.5630283" lon="9.9310167"><ele>332.6</ele><time>2026-04-26T10:02:33.933Z</time></trkpt><trkpt lat="44.563015" lon="9.9308567"><ele>335.2</ele><time>2026-04-26T10:02:35.933Z</time></trkpt><trkpt lat="44.5630317" lon="9.93068"><ele>337.79999999999995</ele><time>2026-04-26T10:02:37.933Z</time></trkpt><trkpt lat="44.5630383" lon="9.930585"><ele>340.4</ele><time>2026-04-26T10:02:38.933Z</time></trkpt><trkpt lat="44.5630517" lon="9.9304867"><ele>343.0</ele><time>2026-04-26T10:02:39.933Z</time></trkpt><trkpt lat="44.5630367" lon="9.9303333"><ele>343.0</ele><time>2026-04-26T10:02:41.932Z</time></trkpt><trkpt lat="44.5629483" lon="9.930195"><ele>343.0</ele><time>2026-04-26T10:02:43.933Z</time></trkpt><trkpt lat="44.5628933" lon="9.9301183"><ele>343.0</ele><time>2026-04-26T10:02:44.933Z</time></trkpt><trkpt lat="44.5628383" lon="9.93004"><ele>343.0</ele><time>2026-04-26T10:02:45.932Z</time></trkpt><trkpt lat="44.56278" lon="9.9299817"><ele>343.0</ele><time>2026-04-26T10:02:46.933Z</time></trkpt><trkpt lat="44.5627133" lon="9.9299233"><ele>343.0</ele><time>2026-04-26T10:02:47.933Z</time></trkpt><trkpt lat="44.5626383" lon="9.9298783"><ele>339.66666666666663</ele><time>2026-04-26T10:02:48.933Z</time></trkpt><trkpt lat="44.5625717" lon="9.929825"><ele>336.3333333333333</ele><time>2026-04-26T10:02:49.933Z</time></trkpt><trkpt lat="44.5625133" lon="9.92977"><ele>333.0</ele><time>2026-04-26T10:02:50.933Z</time></trkpt><trkpt lat="44.56247" lon="9.929695"><ele>329.6666666666667</ele><time>2026-04-26T10:02:51.933Z</time></trkpt><trkpt lat="44.5624467" lon="9.9295983"><ele>326.33333333333337</ele><time>2026-04-26T10:02:52.933Z</time></trkpt><trkpt lat="44.56244" lon="9.9294767"><ele>323.0</ele><time>2026-04-26T10:02:53.932Z</time></trkpt><trkpt lat="44.562445" lon="9.9293533"><ele>325.33333333333337</ele><time>2026-04-26T10:02:54.932Z</time></trkpt><trkpt lat="44.5624383" lon="9.92922"><ele>327.6666666666667</ele><time>2026-04-26T10:02:55.932Z</time></trkpt><trkpt lat="44.56243" lon="9.9291033"><ele>330.0</ele><time>2026-04-26T10:02:56.932Z</time></trkpt><trkpt lat="44.5624067" lon="9.9289783"><ele>332.3333333333333</ele><time>2026-04-26T10:02:57.932Z</time></trkpt><trkpt lat="44.562385" lon="9.9288633"><ele>334.66666666666663</ele><time>2026-04-26T10:02:58.932Z</time></trkpt><trkpt lat="44.56237" lon="9.9287517"><ele>337.0</ele><time>2026-04-26T10:02:59.932Z</time></trkpt><trkpt lat="44.562375" lon="9.92863"><ele>337.00000000000006</ele><time>2026-04-26T10:03:00.932Z</time></trkpt><trkpt lat="44.5623917" lon="9.9285317"><ele>337.0</ele><time>2026-04-26T10:03:01.932Z</time></trkpt><trkpt lat="44.5624167" lon="9.9284383"><ele>337.0</ele><time>2026-04-26T10:03:02.932Z</time></trkpt><trkpt lat="44.562445" lon="9.9283417"><ele>337.0</ele><time>2026-04-26T10:03:03.932Z</time></trkpt><trkpt lat="44.562465" lon="9.92824"><ele>337.0</ele><time>2026-04-26T10:03:04.931Z</time></trkpt><trkpt lat="44.5624733" lon="9.9281467"><ele>337.00000000000006</ele><time>2026-04-26T10:03:05.932Z</time></trkpt><trkpt lat="44.562475" lon="9.9280483"><ele>337.0</ele><time>2026-04-26T10:03:06.931Z</time></trkpt><trkpt lat="44.5624583" lon="9.927935"><ele>336.8333333333333</ele><time>2026-04-26T10:03:07.932Z</time></trkpt><trkpt lat="44.5624367" lon="9.9278133"><ele>336.66666666666663</ele><time>2026-04-26T10:03:08.932Z</time></trkpt><trkpt lat="44.5624133" lon="9.9276817"><ele>336.5</ele><time>2026-04-26T10:03:09.932Z</time></trkpt><trkpt lat="44.5623983" lon="9.927565"><ele>336.3333333333333</ele><time>2026-04-26T10:03:10.932Z</time></trkpt><trkpt lat="44.5623783" lon="9.9274633"><ele>336.1666666666667</ele><time>2026-04-26T10:03:11.932Z</time></trkpt><trkpt lat="44.562315" lon="9.9273567"><ele>336.0</ele><time>2026-04-26T10:03:13.931Z</time></trkpt><trkpt lat="44.5622217" lon="9.9273667"><ele>336.8</ele><time>2026-04-26T10:03:15.932Z</time></trkpt><trkpt lat="44.5620917" lon="9.92737"><ele>337.6</ele><time>2026-04-26T10:03:17.931Z</time></trkpt><trkpt lat="44.56202" lon="9.9273433"><ele>338.4</ele><time>2026-04-26T10:03:18.932Z</time></trkpt><trkpt lat="44.561945" lon="9.9273067"><ele>339.2</ele><time>2026-04-26T10:03:19.932Z</time></trkpt><trkpt lat="44.5618783" lon="9.927255"><ele>340.0</ele><time>2026-04-26T10:03:20.932Z</time></trkpt><trkpt lat="44.5618017" lon="9.9271767"><ele>336.8333333333333</ele><time>2026-04-26T10:03:21.932Z</time></trkpt><trkpt lat="44.56173" lon="9.9271"><ele>333.66666666666663</ele><time>2026-04-26T10:03:22.932Z</time></trkpt><trkpt lat="44.56167" lon="9.9270233"><ele>330.5</ele><time>2026-04-26T10:03:23.932Z</time></trkpt><trkpt lat="44.5616167" lon="9.9269467"><ele>327.3333333333333</ele><time>2026-04-26T10:03:24.932Z</time></trkpt><trkpt lat="44.5615683" lon="9.9268767"><ele>324.1666666666667</ele><time>2026-04-26T10:03:25.932Z</time></trkpt><trkpt lat="44.56151" lon="9.9268167"><ele>321.0</ele><time>2026-04-26T10:03:26.932Z</time></trkpt><trkpt lat="44.5613933" lon="9.9267533"><ele>321.0</ele><time>2026-04-26T10:03:28.931Z</time></trkpt><trkpt lat="44.5613133" lon="9.9267517"><ele>321.0</ele><time>2026-04-26T10:03:29.932Z</time></trkpt><trkpt lat="44.5612183" lon="9.9267783"><ele>321.0</ele><time>2026-04-26T10:03:30.932Z</time></trkpt><trkpt lat="44.56113" lon="9.926805"><ele>321.0</ele><time>2026-04-26T10:03:31.932Z</time></trkpt><trkpt lat="44.5610467" lon="9.92684"><ele>321.0</ele><time>2026-04-26T10:03:32.932Z</time></trkpt><trkpt lat="44.5609633" lon="9.92685"><ele>321.0</ele><time>2026-04-26T10:03:33.932Z</time></trkpt><trkpt lat="44.5608683" lon="9.9268533"><ele>318.8333333333333</ele><time>2026-04-26T10:03:34.932Z</time></trkpt><trkpt lat="44.5607833" lon="9.9268483"><ele>316.6666666666667</ele><time>2026-04-26T10:03:35.931Z</time></trkpt><trkpt lat="44.560705" lon="9.926845"><ele>314.5</ele><time>2026-04-26T10:03:36.932Z</time></trkpt><trkpt lat="44.5606317" lon="9.92684"><ele>312.33333333333337</ele><time>2026-04-26T10:03:37.931Z</time></trkpt><trkpt lat="44.56056" lon="9.9268317"><ele>310.1666666666667</ele><time>2026-04-26T10:03:38.932Z</time></trkpt><trkpt lat="44.5604883" lon="9.9268133"><ele>308.0</ele><time>2026-04-26T10:03:39.932Z</time></trkpt><trkpt lat="44.56042" lon="9.9267767"><ele>309.83333333333337</ele><time>2026-04-26T10:03:40.932Z</time></trkpt><trkpt lat="44.56036" lon="9.9267267"><ele>311.6666666666667</ele><time>2026-04-26T10:03:41.932Z</time></trkpt><trkpt lat="44.560305" lon="9.9266617"><ele>313.5</ele><time>2026-04-26T10:03:42.932Z</time></trkpt><trkpt lat="44.5602517" lon="9.9265883"><ele>315.3333333333333</ele><time>2026-04-26T10:03:43.932Z</time></trkpt><trkpt lat="44.5602" lon="9.926505"><ele>317.16666666666663</ele><time>2026-04-26T10:03:44.932Z</time></trkpt><trkpt lat="44.5601467" lon="9.926415"><ele>319.0</ele><time>2026-04-26T10:03:45.932Z</time></trkpt><trkpt lat="44.560095" lon="9.9263267"><ele>319.0</ele><time>2026-04-26T10:03:46.932Z</time></trkpt><trkpt lat="44.5600383" lon="9.9262583"><ele>319.0</ele><time>2026-04-26T10:03:47.932Z</time></trkpt><trkpt lat="44.55997" lon="9.9262183"><ele>319.0</ele><time>2026-04-26T10:03:48.932Z</time></trkpt><trkpt lat="44.5598933" lon="9.9262033"><ele>319.0</ele><time>2026-04-26T10:03:49.932Z</time></trkpt><trkpt lat="44.5598133" lon="9.92621"><ele>319.0</ele><time>2026-04-26T10:03:50.932Z</time></trkpt><trkpt lat="44.559725" lon="9.9262267"><ele>319.0</ele><time>2026-04-26T10:03:51.932Z</time></trkpt><trkpt lat="44.5596283" lon="9.9262533"><ele>319.0</ele><time>2026-04-26T10:03:52.932Z</time></trkpt><trkpt lat="44.5595467" lon="9.9262717"><ele>319.0</ele><time>2026-04-26T10:03:53.932Z</time></trkpt><trkpt lat="44.55947" lon="9.9262767"><ele>319.0</ele><time>2026-04-26T10:03:54.932Z</time></trkpt><trkpt lat="44.5593933" lon="9.9262567"><ele>319.0</ele><time>2026-04-26T10:03:55.932Z</time></trkpt><trkpt lat="44.5593183" lon="9.9261933"><ele>319.0</ele><time>2026-04-26T10:03:56.932Z</time></trkpt><trkpt lat="44.559245" lon="9.926105"><ele>319.0</ele><time>2026-04-26T10:03:57.932Z</time></trkpt><trkpt lat="44.559175" lon="9.9259933"><ele>321.0</ele><time>2026-04-26T10:03:58.932Z</time></trkpt><trkpt lat="44.55911" lon="9.92587"><ele>323.0</ele><time>2026-04-26T10:03:59.932Z</time></trkpt><trkpt lat="44.5590417" lon="9.9257633"><ele>325.0</ele><time>2026-04-26T10:04:00.931Z</time></trkpt><trkpt lat="44.5589783" lon="9.92568"><ele>327.0</ele><time>2026-04-26T10:04:01.932Z</time></trkpt><trkpt lat="44.558915" lon="9.9256033"><ele>329.0</ele><time>2026-04-26T10:04:02.932Z</time></trkpt><trkpt lat="44.55884" lon="9.92554"><ele>329.0</ele><time>2026-04-26T10:04:03.932Z</time></trkpt><trkpt lat="44.5587583" lon="9.9254867"><ele>329.0</ele><time>2026-04-26T10:04:04.932Z</time></trkpt><trkpt lat="44.5586717" lon="9.9254383"><ele>329.0</ele><time>2026-04-26T10:04:05.931Z</time></trkpt><trkpt lat="44.5585867" lon="9.9253933"><ele>329.0</ele><time>2026-04-26T10:04:06.932Z</time></trkpt><trkpt lat="44.5584967" lon="9.9253433"><ele>329.0</ele><time>2026-04-26T10:04:07.932Z</time></trkpt><trkpt lat="44.5584117" lon="9.9252883"><ele>330.6</ele><time>2026-04-26T10:04:08.932Z</time></trkpt><trkpt lat="44.558335" lon="9.92523"><ele>332.2</ele><time>2026-04-26T10:04:09.932Z</time></trkpt><trkpt lat="44.5582717" lon="9.92517"><ele>333.8</ele><time>2026-04-26T10:04:10.932Z</time></trkpt><trkpt lat="44.5582117" lon="9.9251133"><ele>335.40000000000003</ele><time>2026-04-26T10:04:11.932Z</time></trkpt><trkpt lat="44.558105" lon="9.925045"><ele>337.0</ele><time>2026-04-26T10:04:13.932Z</time></trkpt><trkpt lat="44.5579617" lon="9.9250667"><ele>333.3333333333333</ele><time>2026-04-26T10:04:15.931Z</time></trkpt><trkpt lat="44.55787" lon="9.9251233"><ele>329.66666666666663</ele><time>2026-04-26T10:04:16.932Z</time></trkpt><trkpt lat="44.5577817" lon="9.925185"><ele>326.0</ele><time>2026-04-26T10:04:17.932Z</time></trkpt><trkpt lat="44.557705" lon="9.925235"><ele>322.3333333333333</ele><time>2026-04-26T10:04:18.931Z</time></trkpt><trkpt lat="44.5576333" lon="9.9252683"><ele>318.6666666666667</ele><time>2026-04-26T10:04:19.932Z</time></trkpt><trkpt lat="44.55757" lon="9.9252833"><ele>315.0</ele><time>2026-04-26T10:04:20.932Z</time></trkpt><trkpt lat="44.5574467" lon="9.9252633"><ele>315.0</ele><time>2026-04-26T10:04:22.932Z</time></trkpt><trkpt lat="44.5573883" lon="9.9252167"><ele>315.0</ele><time>2026-04-26T10:04:23.932Z</time></trkpt><trkpt lat="44.5573383" lon="9.92515"><ele>315.0</ele><time>2026-04-26T10:04:24.932Z</time></trkpt><trkpt lat="44.5573117" lon="9.92505"><ele>315.0</ele><time>2026-04-26T10:04:25.932Z</time></trkpt><trkpt lat="44.5573183" lon="9.924915"><ele>315.0</ele><time>2026-04-26T10:04:26.932Z</time></trkpt><trkpt lat="44.55734" lon="9.924785"><ele>315.0</ele><time>2026-04-26T10:04:27.932Z</time></trkpt><trkpt lat="44.55735" lon="9.9246667"><ele>317.2</ele><time>2026-04-26T10:04:28.932Z</time></trkpt><trkpt lat="44.5573517" lon="9.92456"><ele>319.4</ele><time>2026-04-26T10:04:29.932Z</time></trkpt><trkpt lat="44.55733" lon="9.9244533"><ele>321.6</ele><time>2026-04-26T10:04:30.932Z</time></trkpt><trkpt lat="44.55729" lon="9.9243217"><ele>323.8</ele><time>2026-04-26T10:04:31.932Z</time></trkpt><trkpt lat="44.5572133" lon="9.9241567"><ele>326.0</ele><time>2026-04-26T10:04:32.932Z</time></trkpt><trkpt lat="44.5571333" lon="9.92402"><ele>327.5</ele><time>2026-04-26T10:04:33.932Z</time></trkpt><trkpt lat="44.55705" lon="9.92392"><ele>329.0</ele><time>2026-04-26T10:04:34.932Z</time></trkpt><trkpt lat="44.556945" lon="9.9238617"><ele>330.5</ele><time>2026-04-26T10:04:35.932Z</time></trkpt><trkpt lat="44.5568233" lon="9.923835"><ele>332.0</ele><time>2026-04-26T10:04:36.931Z</time></trkpt><trkpt lat="44.5566917" lon="9.9238233"><ele>332.0</ele><time>2026-04-26T10:04:37.932Z</time></trkpt><trkpt lat="44.556555" lon="9.923805"><ele>332.0</ele><time>2026-04-26T10:04:38.932Z</time></trkpt><trkpt lat="44.5564183" lon="9.923775"><ele>332.0</ele><time>2026-04-26T10:04:39.932Z</time></trkpt><trkpt lat="44.5562667" lon="9.923755"><ele>332.0</ele><time>2026-04-26T10:04:40.931Z</time></trkpt><trkpt lat="44.5561133" lon="9.9237317"><ele>332.5</ele><time>2026-04-26T10:04:41.931Z</time></trkpt><trkpt lat="44.555965" lon="9.9237083"><ele>333.0</ele><time>2026-04-26T10:04:42.932Z</time></trkpt><trkpt lat="44.5558367" lon="9.92368"><ele>333.5</ele><time>2026-04-26T10:04:43.932Z</time></trkpt><trkpt lat="44.5557283" lon="9.9236483"><ele>334.0</ele><time>2026-04-26T10:04:44.932Z</time></trkpt><trkpt lat="44.555645" lon="9.9236233"><ele>334.0</ele><time>2026-04-26T10:04:45.932Z</time></trkpt><trkpt lat="44.555575" lon="9.9236067"><ele>334.0</ele><time>2026-04-26T10:04:46.932Z</time></trkpt><trkpt lat="44.5554867" lon="9.9235983"><ele>334.0</ele><time>2026-04-26T10:04:47.932Z</time></trkpt><trkpt lat="44.5553867" lon="9.9236217"><ele>334.0</ele><time>2026-04-26T10:04:48.932Z</time></trkpt><trkpt lat="44.5552583" lon="9.9236583"><ele>334.0</ele><time>2026-04-26T10:04:49.932Z</time></trkpt><trkpt lat="44.5551217" lon="9.9236867"><ele>334.4</ele><time>2026-04-26T10:04:50.932Z</time></trkpt><trkpt lat="44.5549917" lon="9.9237033"><ele>334.79999999999995</ele><time>2026-04-26T10:04:51.932Z</time></trkpt><trkpt lat="44.55487" lon="9.9237033"><ele>335.20000000000005</ele><time>2026-04-26T10:04:52.932Z</time></trkpt><trkpt lat="44.5547717" lon="9.92369"><ele>335.6</ele><time>2026-04-26T10:04:53.932Z</time></trkpt><trkpt lat="44.55469" lon="9.9236617"><ele>336.0</ele><time>2026-04-26T10:04:54.932Z</time></trkpt><trkpt lat="44.554615" lon="9.9236283"><ele>336.0</ele><time>2026-04-26T10:04:55.931Z</time></trkpt><trkpt lat="44.5545517" lon="9.9235817"><ele>336.0</ele><time>2026-04-26T10:04:56.932Z</time></trkpt><trkpt lat="44.554495" lon="9.9235383"><ele>336.0</ele><time>2026-04-26T10:04:57.932Z</time></trkpt><trkpt lat="44.554435" lon="9.9235033"><ele>336.0</ele><time>2026-04-26T10:04:58.932Z</time></trkpt><trkpt lat="44.55437" lon="9.92348"><ele>336.0</ele><time>2026-04-26T10:04:59.932Z</time></trkpt><trkpt lat="44.55429" lon="9.9234583"><ele>336.0</ele><time>2026-04-26T10:05:00.931Z</time></trkpt><trkpt lat="44.554205" lon="9.9234317"><ele>336.0</ele><time>2026-04-26T10:05:01.931Z</time></trkpt><trkpt lat="44.5541117" lon="9.9233917"><ele>334.6</ele><time>2026-04-26T10:05:02.932Z</time></trkpt><trkpt lat="44.5540117" lon="9.92333"><ele>333.20000000000005</ele><time>2026-04-26T10:05:03.932Z</time></trkpt><trkpt lat="44.5539117" lon="9.9232533"><ele>331.79999999999995</ele><time>2026-04-26T10:05:04.932Z</time></trkpt><trkpt lat="44.5538217" lon="9.9231717"><ele>330.4</ele><time>2026-04-26T10:05:05.932Z</time></trkpt><trkpt lat="44.5537433" lon="9.923095"><ele>329.0</ele><time>2026-04-26T10:05:06.932Z</time></trkpt><trkpt lat="44.5536667" lon="9.9230367"><ele>326.4</ele><time>2026-04-26T10:05:07.932Z</time></trkpt><trkpt lat="44.5536" lon="9.9230033"><ele>323.79999999999995</ele><time>2026-04-26T10:05:08.932Z</time></trkpt><trkpt lat="44.55353" lon="9.9229967"><ele>321.20000000000005</ele><time>2026-04-26T10:05:09.932Z</time></trkpt><trkpt lat="44.5534417" lon="9.9230133"><ele>318.6</ele><time>2026-04-26T10:05:10.932Z</time></trkpt><trkpt lat="44.5533317" lon="9.92303"><ele>316.0</ele><time>2026-04-26T10:05:11.931Z</time></trkpt><trkpt lat="44.553215" lon="9.92303"><ele>316.0</ele><time>2026-04-26T10:05:12.932Z</time></trkpt><trkpt lat="44.5530933" lon="9.92303"><ele>316.0</ele><time>2026-04-26T10:05:13.932Z</time></trkpt><trkpt lat="44.5529733" lon="9.9230417"><ele>316.0</ele><time>2026-04-26T10:05:14.932Z</time></trkpt><trkpt lat="44.552855" lon="9.9230633"><ele>316.0</ele><time>2026-04-26T10:05:15.932Z</time></trkpt><trkpt lat="44.5527283" lon="9.923085"><ele>312.0</ele><time>2026-04-26T10:05:16.932Z</time></trkpt><trkpt lat="44.55261" lon="9.92309"><ele>308.0</ele><time>2026-04-26T10:05:17.932Z</time></trkpt><trkpt lat="44.5524917" lon="9.92306"><ele>304.0</ele><time>2026-04-26T10:05:18.932Z</time></trkpt><trkpt lat="44.5524017" lon="9.9229883"><ele>300.0</ele><time>2026-04-26T10:05:19.931Z</time></trkpt><trkpt lat="44.5523233" lon="9.922875"><ele>300.0</ele><time>2026-04-26T10:05:20.931Z</time></trkpt><trkpt lat="44.55227" lon="9.9227417"><ele>300.0</ele><time>2026-04-26T10:05:21.932Z</time></trkpt><trkpt lat="44.55226" lon="9.9225867"><ele>300.0</ele><time>2026-04-26T10:05:22.932Z</time></trkpt><trkpt lat="44.5522833" lon="9.9223967"><ele>300.0</ele><time>2026-04-26T10:05:23.932Z</time></trkpt><trkpt lat="44.5523267" lon="9.9221733"><ele>300.75</ele><time>2026-04-26T10:05:24.932Z</time></trkpt><trkpt lat="44.5523333" lon="9.9219617"><ele>301.5</ele><time>2026-04-26T10:05:25.932Z</time></trkpt><trkpt lat="44.5522967" lon="9.921775"><ele>302.25</ele><time>2026-04-26T10:05:26.931Z</time></trkpt><trkpt lat="44.5522083" lon="9.9216317"><ele>303.0</ele><time>2026-04-26T10:05:27.932Z</time></trkpt><trkpt lat="44.5520917" lon="9.9215383"><ele>301.0</ele><time>2026-04-26T10:05:28.931Z</time></trkpt><trkpt lat="44.5519533" lon="9.9214767"><ele>299.0</ele><time>2026-04-26T10:05:29.932Z</time></trkpt><trkpt lat="44.55182" lon="9.9214183"><ele>297.0</ele><time>2026-04-26T10:05:30.932Z</time></trkpt><trkpt lat="44.551695" lon="9.921325"><ele>295.0</ele><time>2026-04-26T10:05:31.932Z</time></trkpt><trkpt lat="44.5515967" lon="9.9211833"><ele>295.0</ele><time>2026-04-26T10:05:32.932Z</time></trkpt><trkpt lat="44.551495" lon="9.921035"><ele>295.0</ele><time>2026-04-26T10:05:33.932Z</time></trkpt><trkpt lat="44.551395" lon="9.9208733"><ele>295.0</ele><time>2026-04-26T10:05:34.932Z</time></trkpt><trkpt lat="44.5513" lon="9.9207033"><ele>292.66666666666663</ele><time>2026-04-26T10:05:35.932Z</time></trkpt><trkpt lat="44.5512167" lon="9.9205267"><ele>290.3333333333333</ele><time>2026-04-26T10:05:36.932Z</time></trkpt><trkpt lat="44.5511433" lon="9.92034"><ele>288.0</ele><time>2026-04-26T10:05:37.932Z</time></trkpt><trkpt lat="44.551075" lon="9.9201433"><ele>289.5</ele><time>2026-04-26T10:05:38.932Z</time></trkpt><trkpt lat="44.5510033" lon="9.91995"><ele>291.0</ele><time>2026-04-26T10:05:39.932Z</time></trkpt><trkpt lat="44.5509407" lon="9.9197802"><ele>292.5</ele><time>2026-04-26T10:05:40.932Z</time></trkpt><trkpt lat="44.5508655" lon="9.9196571"><ele>294.0</ele><time>2026-04-26T10:05:41.932Z</time></trkpt><trkpt lat="44.5507832" lon="9.9195759"><ele>294.0</ele><time>2026-04-26T10:05:42.932Z</time></trkpt><trkpt lat="44.5506819" lon="9.9195462"><ele>294.0</ele><time>2026-04-26T10:05:43.932Z</time></trkpt><trkpt lat="44.5505751" lon="9.9195646"><ele>294.0</ele><time>2026-04-26T10:05:44.932Z</time></trkpt><trkpt lat="44.5504818" lon="9.9196122"><ele>294.0</ele><time>2026-04-26T10:05:45.931Z</time></trkpt><trkpt lat="44.5504018" lon="9.919655"><ele>294.0</ele><time>2026-04-26T10:05:46.932Z</time></trkpt><trkpt lat="44.5503361" lon="9.9196615"><ele>293.0</ele><time>2026-04-26T10:05:47.932Z</time></trkpt><trkpt lat="44.5502399" lon="9.9195635"><ele>292.0</ele><time>2026-04-26T10:05:49.932Z</time></trkpt><trkpt lat="44.550188" lon="9.9194638"><ele>291.0</ele><time>2026-04-26T10:05:50.932Z</time></trkpt><trkpt lat="44.5501394" lon="9.9193155"><ele>290.0</ele><time>2026-04-26T10:05:51.932Z</time></trkpt><trkpt lat="44.5500751" lon="9.9191115"><ele>290.0</ele><time>2026-04-26T10:05:52.932Z</time></trkpt><trkpt lat="44.5500054" lon="9.9188553"><ele>290.0</ele><time>2026-04-26T10:05:53.931Z</time></trkpt><trkpt lat="44.5499218" lon="9.918593"><ele>290.0</ele><time>2026-04-26T10:05:54.931Z</time></trkpt><trkpt lat="44.5498311" lon="9.9183171"><ele>291.5</ele><time>2026-04-26T10:05:55.932Z</time></trkpt><trkpt lat="44.5497334" lon="9.9180346"><ele>293.0</ele><time>2026-04-26T10:05:56.932Z</time></trkpt><trkpt lat="44.5496278" lon="9.9177448"><ele>287.5</ele><time>2026-04-26T10:05:57.932Z</time></trkpt><trkpt lat="44.5495246" lon="9.9174363"><ele>282.0</ele><time>2026-04-26T10:05:58.932Z</time></trkpt><trkpt lat="44.5494148" lon="9.9171274"><ele>282.0</ele><time>2026-04-26T10:05:59.932Z</time></trkpt><trkpt lat="44.5493062" lon="9.9168125"><ele>282.0</ele><time>2026-04-26T10:06:00.932Z</time></trkpt><trkpt lat="44.5491928" lon="9.9164977"><ele>283.5</ele><time>2026-04-26T10:06:01.931Z</time></trkpt><trkpt lat="44.5490752" lon="9.9161786"><ele>285.0</ele><time>2026-04-26T10:06:02.932Z</time></trkpt><trkpt lat="44.5489646" lon="9.915856"><ele>286.0</ele><time>2026-04-26T10:06:03.931Z</time></trkpt><trkpt lat="44.5488581" lon="9.9155372"><ele>287.0</ele><time>2026-04-26T10:06:04.932Z</time></trkpt><trkpt lat="44.5487599" lon="9.9152315"><ele>289.5</ele><time>2026-04-26T10:06:05.932Z</time></trkpt><trkpt lat="44.5486763" lon="9.9149275"><ele>292.0</ele><time>2026-04-26T10:06:06.932Z</time></trkpt><trkpt lat="44.5486068" lon="9.9146153"><ele>292.0</ele><time>2026-04-26T10:06:07.932Z</time></trkpt><trkpt lat="44.5485505" lon="9.9142915"><ele>292.0</ele><time>2026-04-26T10:06:08.931Z</time></trkpt><trkpt lat="44.5484999" lon="9.9139675"><ele>292.0</ele><time>2026-04-26T10:06:09.932Z</time></trkpt><trkpt lat="44.548453" lon="9.9136616"><ele>292.0</ele><time>2026-04-26T10:06:10.932Z</time></trkpt><trkpt lat="44.5484105" lon="9.9133773"><ele>292.0</ele><time>2026-04-26T10:06:11.932Z</time></trkpt><trkpt lat="44.5483681" lon="9.9131079"><ele>292.3333333333333</ele><time>2026-04-26T10:06:12.932Z</time></trkpt><trkpt lat="44.548323" lon="9.9128353"><ele>292.6666666666667</ele><time>2026-04-26T10:06:13.932Z</time></trkpt><trkpt lat="44.5482748" lon="9.9125488"><ele>293.0</ele><time>2026-04-26T10:06:14.932Z</time></trkpt><trkpt lat="44.5482278" lon="9.9122486"><ele>293.5</ele><time>2026-04-26T10:06:15.931Z</time></trkpt><trkpt lat="44.5481825" lon="9.9119387"><ele>294.0</ele><time>2026-04-26T10:06:16.932Z</time></trkpt><trkpt lat="44.5481349" lon="9.9116233"><ele>294.0</ele><time>2026-04-26T10:06:17.932Z</time></trkpt><trkpt lat="44.5480866" lon="9.9113073"><ele>294.0</ele><time>2026-04-26T10:06:18.931Z</time></trkpt><trkpt lat="44.5480377" lon="9.9109904"><ele>293.0</ele><time>2026-04-26T10:06:19.932Z</time></trkpt><trkpt lat="44.5479895" lon="9.9106734"><ele>292.0</ele><time>2026-04-26T10:06:20.932Z</time></trkpt><trkpt lat="44.5479395" lon="9.9103568"><ele>292.0</ele><time>2026-04-26T10:06:21.932Z</time></trkpt><trkpt lat="44.5478896" lon="9.9100401"><ele>292.0</ele><time>2026-04-26T10:06:22.931Z</time></trkpt><trkpt lat="44.5478413" lon="9.909725"><ele>296.5</ele><time>2026-04-26T10:06:23.932Z</time></trkpt><trkpt lat="44.5477901" lon="9.9094127"><ele>301.0</ele><time>2026-04-26T10:06:24.932Z</time></trkpt><trkpt lat="44.5477397" lon="9.9090987"><ele>301.0</ele><time>2026-04-26T10:06:25.932Z</time></trkpt><trkpt lat="44.5476907" lon="9.9087864"><ele>301.0</ele><time>2026-04-26T10:06:26.932Z</time></trkpt><trkpt lat="44.5476424" lon="9.9084734"><ele>297.0</ele><time>2026-04-26T10:06:27.931Z</time></trkpt><trkpt lat="44.5475955" lon="9.9081588"><ele>293.0</ele><time>2026-04-26T10:06:28.932Z</time></trkpt><trkpt lat="44.5475457" lon="9.9078426"><ele>297.0</ele><time>2026-04-26T10:06:29.932Z</time></trkpt><trkpt lat="44.5474899" lon="9.9075314"><ele>301.0</ele><time>2026-04-26T10:06:30.932Z</time></trkpt><trkpt lat="44.5474254" lon="9.9072244"><ele>301.0</ele><time>2026-04-26T10:06:31.932Z</time></trkpt><trkpt lat="44.5473456" lon="9.9069251"><ele>301.0</ele><time>2026-04-26T10:06:32.932Z</time></trkpt><trkpt lat="44.5472485" lon="9.9066358"><ele>298.0</ele><time>2026-04-26T10:06:33.932Z</time></trkpt><trkpt lat="44.5471252" lon="9.9063605"><ele>295.0</ele><time>2026-04-26T10:06:34.932Z</time></trkpt><trkpt lat="44.5469837" lon="9.9061103"><ele>297.5</ele><time>2026-04-26T10:06:35.932Z</time></trkpt><trkpt lat="44.5468285" lon="9.9058675"><ele>300.0</ele><time>2026-04-26T10:06:36.932Z</time></trkpt><trkpt lat="44.5466683" lon="9.905633"><ele>300.0</ele><time>2026-04-26T10:06:37.932Z</time></trkpt><trkpt lat="44.5465179" lon="9.905397"><ele>300.0</ele><time>2026-04-26T10:06:38.932Z</time></trkpt><trkpt lat="44.5463707" lon="9.9051675"><ele>300.0</ele><time>2026-04-26T10:06:39.931Z</time></trkpt><trkpt lat="44.546219" lon="9.904928"><ele>296.5</ele><time>2026-04-26T10:06:40.932Z</time></trkpt><trkpt lat="44.5460662" lon="9.9046797"><ele>293.0</ele><time>2026-04-26T10:06:41.932Z</time></trkpt><trkpt lat="44.545913" lon="9.9044293"><ele>296.5</ele><time>2026-04-26T10:06:42.932Z</time></trkpt><trkpt lat="44.5457613" lon="9.9041816"><ele>300.0</ele><time>2026-04-26T10:06:43.932Z</time></trkpt><trkpt lat="44.5456053" lon="9.9039336"><ele>300.0</ele><time>2026-04-26T10:06:44.932Z</time></trkpt><trkpt lat="44.5454472" lon="9.9036864"><ele>300.0</ele><time>2026-04-26T10:06:45.932Z</time></trkpt><trkpt lat="44.5452864" lon="9.9034455"><ele>299.5</ele><time>2026-04-26T10:06:46.932Z</time></trkpt><trkpt lat="44.5451217" lon="9.9032033"><ele>299.0</ele><time>2026-04-26T10:06:47.932Z</time></trkpt><trkpt lat="44.5449533" lon="9.9029667"><ele>299.0</ele><time>2026-04-26T10:06:48.932Z</time></trkpt><trkpt lat="44.5447817" lon="9.9027517"><ele>299.0</ele><time>2026-04-26T10:06:49.932Z</time></trkpt><trkpt lat="44.5445883" lon="9.90257"><ele>297.6666666666667</ele><time>2026-04-26T10:06:50.931Z</time></trkpt><trkpt lat="44.544395" lon="9.902405"><ele>296.3333333333333</ele><time>2026-04-26T10:06:51.932Z</time></trkpt><trkpt lat="44.5442" lon="9.90227"><ele>295.0</ele><time>2026-04-26T10:06:52.932Z</time></trkpt><trkpt lat="44.5440067" lon="9.9021483"><ele>295.0</ele><time>2026-04-26T10:06:53.932Z</time></trkpt><trkpt lat="44.5438117" lon="9.902025"><ele>295.0</ele><time>2026-04-26T10:06:54.932Z</time></trkpt><trkpt lat="44.5436183" lon="9.9018983"><ele>295.0</ele><time>2026-04-26T10:06:55.932Z</time></trkpt><trkpt lat="44.5434283" lon="9.90177"><ele>296.0</ele><time>2026-04-26T10:06:56.931Z</time></trkpt><trkpt lat="44.5432367" lon="9.90163"><ele>297.0</ele><time>2026-04-26T10:06:57.932Z</time></trkpt><trkpt lat="44.5430283" lon="9.9014817"><ele>301.0</ele><time>2026-04-26T10:06:58.932Z</time></trkpt><trkpt lat="44.5428433" lon="9.9013217"><ele>305.0</ele><time>2026-04-26T10:06:59.932Z</time></trkpt><trkpt lat="44.542665" lon="9.901145"><ele>309.0</ele><time>2026-04-26T10:07:00.931Z</time></trkpt><trkpt lat="44.5425017" lon="9.9009483"><ele>307.0</ele><time>2026-04-26T10:07:01.932Z</time></trkpt><trkpt lat="44.5423533" lon="9.9007267"><ele>305.0</ele><time>2026-04-26T10:07:02.932Z</time></trkpt><trkpt lat="44.5422233" lon="9.9004883"><ele>303.0</ele><time>2026-04-26T10:07:03.932Z</time></trkpt><trkpt lat="44.5421" lon="9.900245"><ele>301.3333333333333</ele><time>2026-04-26T10:07:04.932Z</time></trkpt><trkpt lat="44.5419833" lon="9.8999917"><ele>299.66666666666663</ele><time>2026-04-26T10:07:05.932Z</time></trkpt><trkpt lat="44.5418633" lon="9.89974"><ele>298.0</ele><time>2026-04-26T10:07:06.932Z</time></trkpt><trkpt lat="44.54174" lon="9.8994867"><ele>298.66666666666663</ele><time>2026-04-26T10:07:07.932Z</time></trkpt><trkpt lat="44.5416117" lon="9.8992333"><ele>299.3333333333333</ele><time>2026-04-26T10:07:08.932Z</time></trkpt><trkpt lat="44.5414817" lon="9.8989767"><ele>300.0</ele><time>2026-04-26T10:07:09.932Z</time></trkpt><trkpt lat="44.541355" lon="9.8987233"><ele>300.0</ele><time>2026-04-26T10:07:10.931Z</time></trkpt><trkpt lat="44.5412233" lon="9.8984733"><ele>300.0</ele><time>2026-04-26T10:07:11.931Z</time></trkpt><trkpt lat="44.541095" lon="9.8982217"><ele>300.0</ele><time>2026-04-26T10:07:12.932Z</time></trkpt><trkpt lat="44.5409667" lon="9.8979717"><ele>301.6666666666667</ele><time>2026-04-26T10:07:13.932Z</time></trkpt><trkpt lat="44.54084" lon="9.8977217"><ele>303.33333333333337</ele><time>2026-04-26T10:07:14.932Z</time></trkpt><trkpt lat="44.5407133" lon="9.8974683"><ele>305.0</ele><time>2026-04-26T10:07:15.932Z</time></trkpt><trkpt lat="44.5405817" lon="9.8972183"><ele>306.33333333333337</ele><time>2026-04-26T10:07:16.932Z</time></trkpt><trkpt lat="44.5404583" lon="9.8969767"><ele>307.6666666666667</ele><time>2026-04-26T10:07:17.932Z</time></trkpt><trkpt lat="44.5403433" lon="9.896755"><ele>309.0</ele><time>2026-04-26T10:07:18.932Z</time></trkpt><trkpt lat="44.5402333" lon="9.89654"><ele>306.3333333333333</ele><time>2026-04-26T10:07:19.932Z</time></trkpt><trkpt lat="44.5401233" lon="9.8963233"><ele>303.66666666666663</ele><time>2026-04-26T10:07:20.932Z</time></trkpt><trkpt lat="44.5400183" lon="9.8961067"><ele>301.0</ele><time>2026-04-26T10:07:21.932Z</time></trkpt><trkpt lat="44.5399217" lon="9.895885"><ele>301.0</ele><time>2026-04-26T10:07:22.931Z</time></trkpt><trkpt lat="44.5398417" lon="9.8956633"><ele>301.0</ele><time>2026-04-26T10:07:23.931Z</time></trkpt><trkpt lat="44.5397783" lon="9.8954417"><ele>301.0</ele><time>2026-04-26T10:07:24.931Z</time></trkpt><trkpt lat="44.539735" lon="9.8952117"><ele>302.0</ele><time>2026-04-26T10:07:25.931Z</time></trkpt><trkpt lat="44.539715" lon="9.894965"><ele>303.0</ele><time>2026-04-26T10:07:26.931Z</time></trkpt><trkpt lat="44.5397083" lon="9.8947083"><ele>304.0</ele><time>2026-04-26T10:07:27.931Z</time></trkpt><trkpt lat="44.5397267" lon="9.894445"><ele>305.0</ele><time>2026-04-26T10:07:28.931Z</time></trkpt><trkpt lat="44.5397533" lon="9.8941917"><ele>306.0</ele><time>2026-04-26T10:07:29.93Z</time></trkpt><trkpt lat="44.53979" lon="9.893965"><ele>307.0</ele><time>2026-04-26T10:07:30.93Z</time></trkpt><trkpt lat="44.539825" lon="9.89374"><ele>307.0</ele><time>2026-04-26T10:07:31.931Z</time></trkpt><trkpt lat="44.539865" lon="9.8935083"><ele>307.0</ele><time>2026-04-26T10:07:32.931Z</time></trkpt><trkpt lat="44.5399117" lon="9.8932833"><ele>307.0</ele><time>2026-04-26T10:07:33.931Z</time></trkpt><trkpt lat="44.5399517" lon="9.8930717"><ele>308.3333333333333</ele><time>2026-04-26T10:07:34.931Z</time></trkpt><trkpt lat="44.5399917" lon="9.8928517"><ele>309.6666666666667</ele><time>2026-04-26T10:07:35.931Z</time></trkpt><trkpt lat="44.5400233" lon="9.8926317"><ele>311.0</ele><time>2026-04-26T10:07:36.931Z</time></trkpt><trkpt lat="44.540045" lon="9.8924083"><ele>312.0</ele><time>2026-04-26T10:07:37.931Z</time></trkpt><trkpt lat="44.54005" lon="9.89218"><ele>313.0</ele><time>2026-04-26T10:07:38.931Z</time></trkpt><trkpt lat="44.540035" lon="9.8919467"><ele>314.0</ele><time>2026-04-26T10:07:39.931Z</time></trkpt><trkpt lat="44.5399967" lon="9.8917083"><ele>314.0</ele><time>2026-04-26T10:07:40.931Z</time></trkpt><trkpt lat="44.5399233" lon="9.89147"><ele>314.0</ele><time>2026-04-26T10:07:41.931Z</time></trkpt><trkpt lat="44.5398233" lon="9.891225"><ele>314.0</ele><time>2026-04-26T10:07:42.93Z</time></trkpt><trkpt lat="44.539715" lon="9.8909633"><ele>312.0</ele><time>2026-04-26T10:07:43.93Z</time></trkpt><trkpt lat="44.5396133" lon="9.8906883"><ele>310.0</ele><time>2026-04-26T10:07:44.931Z</time></trkpt><trkpt lat="44.5395217" lon="9.8904033"><ele>308.0</ele><time>2026-04-26T10:07:45.931Z</time></trkpt><trkpt lat="44.539435" lon="9.8901133"><ele>311.6666666666667</ele><time>2026-04-26T10:07:46.931Z</time></trkpt><trkpt lat="44.5393533" lon="9.8898217"><ele>315.3333333333333</ele><time>2026-04-26T10:07:47.931Z</time></trkpt><trkpt lat="44.5392717" lon="9.889535"><ele>319.0</ele><time>2026-04-26T10:07:48.931Z</time></trkpt><trkpt lat="44.5391917" lon="9.8892533"><ele>319.0</ele><time>2026-04-26T10:07:49.931Z</time></trkpt><trkpt lat="44.5391133" lon="9.8889767"><ele>319.0</ele><time>2026-04-26T10:07:50.931Z</time></trkpt><trkpt lat="44.53903" lon="9.888705"><ele>319.0</ele><time>2026-04-26T10:07:51.931Z</time></trkpt><trkpt lat="44.5389367" lon="9.8884483"><ele>317.3333333333333</ele><time>2026-04-26T10:07:52.931Z</time></trkpt><trkpt lat="44.5388233" lon="9.8882133"><ele>315.6666666666667</ele><time>2026-04-26T10:07:53.931Z</time></trkpt><trkpt lat="44.538675" lon="9.8880083"><ele>314.0</ele><time>2026-04-26T10:07:54.931Z</time></trkpt><trkpt lat="44.5385067" lon="9.8878333"><ele>314.33333333333337</ele><time>2026-04-26T10:07:55.931Z</time></trkpt><trkpt lat="44.538325" lon="9.887685"><ele>314.6666666666667</ele><time>2026-04-26T10:07:56.931Z</time></trkpt><trkpt lat="44.5381333" lon="9.8875467"><ele>315.0</ele><time>2026-04-26T10:07:57.931Z</time></trkpt><trkpt lat="44.5379417" lon="9.8874067"><ele>318.6666666666667</ele><time>2026-04-26T10:07:58.931Z</time></trkpt><trkpt lat="44.5377517" lon="9.8872567"><ele>322.33333333333337</ele><time>2026-04-26T10:07:59.931Z</time></trkpt><trkpt lat="44.5375633" lon="9.8871083"><ele>326.0</ele><time>2026-04-26T10:08:00.931Z</time></trkpt><trkpt lat="44.53738" lon="9.88697"><ele>326.0</ele><time>2026-04-26T10:08:01.931Z</time></trkpt><trkpt lat="44.5371933" lon="9.8868433"><ele>326.0</ele><time>2026-04-26T10:08:02.93Z</time></trkpt><trkpt lat="44.5370067" lon="9.886715"><ele>326.0</ele><time>2026-04-26T10:08:03.931Z</time></trkpt><trkpt lat="44.5368283" lon="9.8865833"><ele>324.33333333333337</ele><time>2026-04-26T10:08:04.931Z</time></trkpt><trkpt lat="44.536675" lon="9.8864417"><ele>322.6666666666667</ele><time>2026-04-26T10:08:05.93Z</time></trkpt><trkpt lat="44.5365283" lon="9.8862833"><ele>321.0</ele><time>2026-04-26T10:08:06.931Z</time></trkpt><trkpt lat="44.5364" lon="9.8860933"><ele>317.6666666666667</ele><time>2026-04-26T10:08:07.931Z</time></trkpt><trkpt lat="44.536285" lon="9.8858733"><ele>314.33333333333337</ele><time>2026-04-26T10:08:08.93Z</time></trkpt><trkpt lat="44.5362017" lon="9.8856333"><ele>311.0</ele><time>2026-04-26T10:08:09.93Z</time></trkpt><trkpt lat="44.5361633" lon="9.8853683"><ele>320.33333333333337</ele><time>2026-04-26T10:08:10.931Z</time></trkpt><trkpt lat="44.5361583" lon="9.885095"><ele>329.6666666666667</ele><time>2026-04-26T10:08:11.931Z</time></trkpt><trkpt lat="44.5361767" lon="9.88482"><ele>339.0</ele><time>2026-04-26T10:08:12.931Z</time></trkpt><trkpt lat="44.5362133" lon="9.8845533"><ele>330.3333333333333</ele><time>2026-04-26T10:08:13.931Z</time></trkpt><trkpt lat="44.5362617" lon="9.8842933"><ele>321.66666666666663</ele><time>2026-04-26T10:08:14.931Z</time></trkpt><trkpt lat="44.5363217" lon="9.8840417"><ele>313.0</ele><time>2026-04-26T10:08:15.931Z</time></trkpt><trkpt lat="44.5363833" lon="9.8837833"><ele>313.0</ele><time>2026-04-26T10:08:16.931Z</time></trkpt><trkpt lat="44.53645" lon="9.8835333"><ele>313.0</ele><time>2026-04-26T10:08:17.93Z</time></trkpt><trkpt lat="44.5365283" lon="9.8832117"><ele>313.0</ele><time>2026-04-26T10:08:18.931Z</time></trkpt><trkpt lat="44.536605" lon="9.882935"><ele>314.3333333333333</ele><time>2026-04-26T10:08:19.931Z</time></trkpt><trkpt lat="44.536665" lon="9.8826333"><ele>315.6666666666667</ele><time>2026-04-26T10:08:20.931Z</time></trkpt><trkpt lat="44.53664" lon="9.8823483"><ele>317.0</ele><time>2026-04-26T10:08:21.931Z</time></trkpt><trkpt lat="44.53657" lon="9.88207"><ele>317.0</ele><time>2026-04-26T10:08:22.931Z</time></trkpt><trkpt lat="44.5364683" lon="9.8818083"><ele>317.0</ele><time>2026-04-26T10:08:23.93Z</time></trkpt><trkpt lat="44.5363417" lon="9.8815717"><ele>317.0</ele><time>2026-04-26T10:08:24.931Z</time></trkpt><trkpt lat="44.536185" lon="9.8813633"><ele>318.0</ele><time>2026-04-26T10:08:25.93Z</time></trkpt><trkpt lat="44.5360183" lon="9.8811617"><ele>319.0</ele><time>2026-04-26T10:08:26.931Z</time></trkpt><trkpt lat="44.5358483" lon="9.8809583"><ele>320.0</ele><time>2026-04-26T10:08:27.931Z</time></trkpt><trkpt lat="44.5356867" lon="9.880745"><ele>320.0</ele><time>2026-04-26T10:08:28.931Z</time></trkpt><trkpt lat="44.5355317" lon="9.88053"><ele>320.0</ele><time>2026-04-26T10:08:29.931Z</time></trkpt><trkpt lat="44.5353767" lon="9.8803117"><ele>320.0</ele><time>2026-04-26T10:08:30.931Z</time></trkpt><trkpt lat="44.53522" lon="9.8800933"><ele>324.33333333333337</ele><time>2026-04-26T10:08:31.931Z</time></trkpt><trkpt lat="44.5350683" lon="9.8798767"><ele>328.6666666666667</ele><time>2026-04-26T10:08:32.931Z</time></trkpt><trkpt lat="44.53491" lon="9.8796683"><ele>333.0</ele><time>2026-04-26T10:08:33.931Z</time></trkpt><trkpt lat="44.53474" lon="9.8794717"><ele>333.0</ele><time>2026-04-26T10:08:34.931Z</time></trkpt><trkpt lat="44.5345667" lon="9.879285"><ele>333.0</ele><time>2026-04-26T10:08:35.93Z</time></trkpt><trkpt lat="44.5343983" lon="9.879105"><ele>333.0</ele><time>2026-04-26T10:08:36.931Z</time></trkpt><trkpt lat="44.534225" lon="9.87893"><ele>335.6666666666667</ele><time>2026-04-26T10:08:37.931Z</time></trkpt><trkpt lat="44.5340667" lon="9.8787417"><ele>338.33333333333337</ele><time>2026-04-26T10:08:38.93Z</time></trkpt><trkpt lat="44.5339133" lon="9.87854"><ele>341.0</ele><time>2026-04-26T10:08:39.931Z</time></trkpt><trkpt lat="44.5337733" lon="9.8783167"><ele>342.33333333333337</ele><time>2026-04-26T10:08:40.931Z</time></trkpt><trkpt lat="44.5336517" lon="9.8780783"><ele>343.6666666666667</ele><time>2026-04-26T10:08:41.931Z</time></trkpt><trkpt lat="44.5335433" lon="9.8778317"><ele>345.0</ele><time>2026-04-26T10:08:42.931Z</time></trkpt><trkpt lat="44.5334617" lon="9.8775733"><ele>341.3333333333333</ele><time>2026-04-26T10:08:43.931Z</time></trkpt><trkpt lat="44.533385" lon="9.87731"><ele>337.66666666666663</ele><time>2026-04-26T10:08:44.93Z</time></trkpt><trkpt lat="44.5333033" lon="9.8770467"><ele>334.0</ele><time>2026-04-26T10:08:45.931Z</time></trkpt><trkpt lat="44.533215" lon="9.8767833"><ele>331.0</ele><time>2026-04-26T10:08:46.931Z</time></trkpt><trkpt lat="44.533135" lon="9.8765183"><ele>328.0</ele><time>2026-04-26T10:08:47.931Z</time></trkpt><trkpt lat="44.5330567" lon="9.876255"><ele>325.0</ele><time>2026-04-26T10:08:48.931Z</time></trkpt><trkpt lat="44.53298" lon="9.8759967"><ele>323.66666666666663</ele><time>2026-04-26T10:08:49.931Z</time></trkpt><trkpt lat="44.5329017" lon="9.8757483"><ele>322.3333333333333</ele><time>2026-04-26T10:08:50.931Z</time></trkpt><trkpt lat="44.53282" lon="9.8755067"><ele>321.0</ele><time>2026-04-26T10:08:51.931Z</time></trkpt><trkpt lat="44.5327283" lon="9.8752783"><ele>322.0</ele><time>2026-04-26T10:08:52.931Z</time></trkpt><trkpt lat="44.53262" lon="9.87506"><ele>323.0</ele><time>2026-04-26T10:08:53.931Z</time></trkpt><trkpt lat="44.5325033" lon="9.874845"><ele>324.0</ele><time>2026-04-26T10:08:54.93Z</time></trkpt><trkpt lat="44.5323783" lon="9.87463"><ele>324.0</ele><time>2026-04-26T10:08:55.931Z</time></trkpt><trkpt lat="44.5322533" lon="9.8744083"><ele>324.0</ele><time>2026-04-26T10:08:56.931Z</time></trkpt><trkpt lat="44.5321317" lon="9.87417"><ele>324.0</ele><time>2026-04-26T10:08:57.931Z</time></trkpt><trkpt lat="44.5320117" lon="9.873915"><ele>324.3333333333333</ele><time>2026-04-26T10:08:58.931Z</time></trkpt><trkpt lat="44.531895" lon="9.8736683"><ele>324.66666666666663</ele><time>2026-04-26T10:08:59.93Z</time></trkpt><trkpt lat="44.5317867" lon="9.873405"><ele>325.0</ele><time>2026-04-26T10:09:00.931Z</time></trkpt><trkpt lat="44.5316817" lon="9.8731533"><ele>325.0</ele><time>2026-04-26T10:09:01.931Z</time></trkpt><trkpt lat="44.53158" lon="9.8728917"><ele>325.0</ele><time>2026-04-26T10:09:02.931Z</time></trkpt><trkpt lat="44.5314767" lon="9.8726283"><ele>325.0</ele><time>2026-04-26T10:09:03.931Z</time></trkpt><trkpt lat="44.531375" lon="9.8723733"><ele>324.0</ele><time>2026-04-26T10:09:04.931Z</time></trkpt><trkpt lat="44.5312783" lon="9.8721233"><ele>323.0</ele><time>2026-04-26T10:09:05.931Z</time></trkpt><trkpt lat="44.5311833" lon="9.8718683"><ele>322.0</ele><time>2026-04-26T10:09:06.931Z</time></trkpt><trkpt lat="44.5310883" lon="9.871615"><ele>323.3333333333333</ele><time>2026-04-26T10:09:07.931Z</time></trkpt><trkpt lat="44.530995" lon="9.8713633"><ele>324.6666666666667</ele><time>2026-04-26T10:09:08.931Z</time></trkpt><trkpt lat="44.5309033" lon="9.8711117"><ele>326.0</ele><time>2026-04-26T10:09:09.931Z</time></trkpt><trkpt lat="44.5308083" lon="9.8708567"><ele>326.0</ele><time>2026-04-26T10:09:10.931Z</time></trkpt><trkpt lat="44.5307183" lon="9.8706067"><ele>326.0</ele><time>2026-04-26T10:09:11.931Z</time></trkpt><trkpt lat="44.5306217" lon="9.8703567"><ele>326.0</ele><time>2026-04-26T10:09:12.931Z</time></trkpt><trkpt lat="44.5305267" lon="9.8701033"><ele>324.0</ele><time>2026-04-26T10:09:13.931Z</time></trkpt><trkpt lat="44.5304367" lon="9.8698483"><ele>322.0</ele><time>2026-04-26T10:09:14.931Z</time></trkpt><trkpt lat="44.530345" lon="9.8695917"><ele>320.0</ele><time>2026-04-26T10:09:15.931Z</time></trkpt><trkpt lat="44.5302533" lon="9.869335"><ele>325.0</ele><time>2026-04-26T10:09:16.931Z</time></trkpt><trkpt lat="44.5301583" lon="9.8690767"><ele>330.0</ele><time>2026-04-26T10:09:17.931Z</time></trkpt><trkpt lat="44.5300667" lon="9.868825"><ele>335.0</ele><time>2026-04-26T10:09:18.931Z</time></trkpt><trkpt lat="44.5299683" lon="9.8685767"><ele>333.0</ele><time>2026-04-26T10:09:19.931Z</time></trkpt><trkpt lat="44.5298633" lon="9.8683367"><ele>331.0</ele><time>2026-04-26T10:09:20.93Z</time></trkpt><trkpt lat="44.5297517" lon="9.868105"><ele>329.0</ele><time>2026-04-26T10:09:21.931Z</time></trkpt><trkpt lat="44.52963" lon="9.8678883"><ele>336.6666666666667</ele><time>2026-04-26T10:09:22.931Z</time></trkpt><trkpt lat="44.529515" lon="9.8676733"><ele>344.3333333333333</ele><time>2026-04-26T10:09:23.931Z</time></trkpt><trkpt lat="44.529395" lon="9.86746"><ele>352.0</ele><time>2026-04-26T10:09:24.931Z</time></trkpt><trkpt lat="44.5292683" lon="9.8672467"><ele>352.0</ele><time>2026-04-26T10:09:25.93Z</time></trkpt><trkpt lat="44.5291383" lon="9.8670383"><ele>352.0</ele><time>2026-04-26T10:09:26.931Z</time></trkpt><trkpt lat="44.5290167" lon="9.8668183"><ele>352.0</ele><time>2026-04-26T10:09:27.931Z</time></trkpt><trkpt lat="44.528895" lon="9.866605"><ele>337.0</ele><time>2026-04-26T10:09:28.931Z</time></trkpt><trkpt lat="44.5270483" lon="9.8639633"><ele>337.0</ele><time>2026-04-26T10:09:40.941Z</time></trkpt><trkpt lat="44.5269533" lon="9.8637283"><ele>337.0</ele><time>2026-04-26T10:09:41.941Z</time></trkpt><trkpt lat="44.5268517" lon="9.8634967"><ele>337.0</ele><time>2026-04-26T10:09:42.941Z</time></trkpt><trkpt lat="44.526755" lon="9.8632517"><ele>334.66666666666663</ele><time>2026-04-26T10:09:43.941Z</time></trkpt><trkpt lat="44.5266567" lon="9.86299"><ele>332.3333333333333</ele><time>2026-04-26T10:09:44.941Z</time></trkpt><trkpt lat="44.5265583" lon="9.8627233"><ele>330.0</ele><time>2026-04-26T10:09:45.941Z</time></trkpt><trkpt lat="44.52646" lon="9.8624483"><ele>328.0</ele><time>2026-04-26T10:09:46.941Z</time></trkpt><trkpt lat="44.5263617" lon="9.8621767"><ele>326.0</ele><time>2026-04-26T10:09:47.941Z</time></trkpt><trkpt lat="44.5262633" lon="9.86191"><ele>324.0</ele><time>2026-04-26T10:09:48.941Z</time></trkpt><trkpt lat="44.5261667" lon="9.861645"><ele>329.6666666666667</ele><time>2026-04-26T10:09:49.941Z</time></trkpt><trkpt lat="44.52607" lon="9.8613783"><ele>335.33333333333337</ele><time>2026-04-26T10:09:50.94Z</time></trkpt><trkpt lat="44.5259733" lon="9.861125"><ele>341.0</ele><time>2026-04-26T10:09:51.941Z</time></trkpt><trkpt lat="44.52588" lon="9.86087"><ele>351.0</ele><time>2026-04-26T10:09:52.941Z</time></trkpt><trkpt lat="44.5257883" lon="9.860605"><ele>361.0</ele><time>2026-04-26T10:09:53.941Z</time></trkpt><trkpt lat="44.5256967" lon="9.86034"><ele>371.0</ele><time>2026-04-26T10:09:54.941Z</time></trkpt><trkpt lat="44.5255983" lon="9.8600783"><ele>385.6666666666667</ele><time>2026-04-26T10:09:55.941Z</time></trkpt><trkpt lat="44.5255133" lon="9.8598067"><ele>400.33333333333337</ele><time>2026-04-26T10:09:56.941Z</time></trkpt><trkpt lat="44.5254133" lon="9.85956"><ele>415.0</ele><time>2026-04-26T10:09:57.941Z</time></trkpt><trkpt lat="44.52532" lon="9.8593"><ele>420.0</ele><time>2026-04-26T10:09:58.941Z</time></trkpt><trkpt lat="44.5252267" lon="9.85904"><ele>425.0</ele><time>2026-04-26T10:09:59.941Z</time></trkpt><trkpt lat="44.525135" lon="9.8587783"><ele>430.0</ele><time>2026-04-26T10:10:00.941Z</time></trkpt><trkpt lat="44.5245583" lon="9.8566933"><ele>400.6666666666667</ele><time>2026-04-26T10:10:07.945Z</time></trkpt><trkpt lat="44.5244717" lon="9.8564067"><ele>371.33333333333337</ele><time>2026-04-26T10:10:08.945Z</time></trkpt><trkpt lat="44.524445" lon="9.8560917"><ele>342.0</ele><time>2026-04-26T10:10:09.945Z</time></trkpt><trkpt lat="44.52442" lon="9.8558067"><ele>341.0</ele><time>2026-04-26T10:10:10.945Z</time></trkpt><trkpt lat="44.5243933" lon="9.8555283"><ele>340.0</ele><time>2026-04-26T10:10:11.945Z</time></trkpt><trkpt lat="44.524375" lon="9.8552617"><ele>339.0</ele><time>2026-04-26T10:10:12.945Z</time></trkpt><trkpt lat="44.52436" lon="9.85502"><ele>339.0</ele><time>2026-04-26T10:10:13.945Z</time></trkpt><trkpt lat="44.5243583" lon="9.854795"><ele>339.0</ele><time>2026-04-26T10:10:14.945Z</time></trkpt><trkpt lat="44.5243617" lon="9.8546067"><ele>339.0</ele><time>2026-04-26T10:10:15.945Z</time></trkpt><trkpt lat="44.52436" lon="9.85446"><ele>339.0</ele><time>2026-04-26T10:10:16.945Z</time></trkpt><trkpt lat="44.524355" lon="9.85432"><ele>339.2</ele><time>2026-04-26T10:10:17.945Z</time></trkpt><trkpt lat="44.524345" lon="9.85417"><ele>339.4</ele><time>2026-04-26T10:10:18.944Z</time></trkpt><trkpt lat="44.5243317" lon="9.85402"><ele>339.6</ele><time>2026-04-26T10:10:19.945Z</time></trkpt><trkpt lat="44.5243167" lon="9.8538733"><ele>339.8</ele><time>2026-04-26T10:10:20.945Z</time></trkpt><trkpt lat="44.524305" lon="9.853745"><ele>340.0</ele><time>2026-04-26T10:10:21.945Z</time></trkpt><trkpt lat="44.5242967" lon="9.853645"><ele>340.0</ele><time>2026-04-26T10:10:22.945Z</time></trkpt><trkpt lat="44.524295" lon="9.85352"><ele>340.0</ele><time>2026-04-26T10:10:24.945Z</time></trkpt><trkpt lat="44.524225" lon="9.8535467"><ele>340.0</ele><time>2026-04-26T10:10:29.944Z</time></trkpt><trkpt lat="44.5242467" lon="9.853665"><ele>340.0</ele><time>2026-04-26T10:10:31.945Z</time></trkpt><trkpt lat="44.5242733" lon="9.8537683"><ele>340.0</ele><time>2026-04-26T10:10:32.945Z</time></trkpt><trkpt lat="44.5242917" lon="9.853905"><ele>340.0</ele><time>2026-04-26T10:10:33.945Z</time></trkpt><trkpt lat="44.5243" lon="9.8540617"><ele>340.0</ele><time>2026-04-26T10:10:34.945Z</time></trkpt><trkpt lat="44.5243033" lon="9.854215"><ele>340.0</ele><time>2026-04-26T10:10:35.945Z</time></trkpt><trkpt lat="44.5243133" lon="9.8543517"><ele>340.0</ele><time>2026-04-26T10:10:36.945Z</time></trkpt><trkpt lat="44.5243283" lon="9.8544683"><ele>340.0</ele><time>2026-04-26T10:10:37.945Z</time></trkpt><trkpt lat="44.52435" lon="9.8545583"><ele>340.0</ele><time>2026-04-26T10:10:38.945Z</time></trkpt><trkpt lat="44.5244383" lon="9.8546117"><ele>340.0</ele><time>2026-04-26T10:10:40.944Z</time></trkpt><trkpt lat="44.5244983" lon="9.8545833"><ele>340.0</ele><time>2026-04-26T10:10:41.945Z</time></trkpt><trkpt lat="44.5245517" lon="9.8544983"><ele>340.0</ele><time>2026-04-26T10:10:42.945Z</time></trkpt><trkpt lat="44.5245817" lon="9.8543817"><ele>340.0</ele><time>2026-04-26T10:10:43.945Z</time></trkpt><trkpt lat="44.5245833" lon="9.854265"><ele>340.0</ele><time>2026-04-26T10:10:44.945Z</time></trkpt><trkpt lat="44.52457" lon="9.854125"><ele>340.0</ele><time>2026-04-26T10:10:45.945Z</time></trkpt><trkpt lat="44.52455" lon="9.8539867"><ele>340.0</ele><time>2026-04-26T10:10:46.945Z</time></trkpt><trkpt lat="44.5245283" lon="9.8538767"><ele>340.0</ele><time>2026-04-26T10:10:47.945Z</time></trkpt><trkpt lat="44.5245" lon="9.8537717"><ele>340.0</ele><time>2026-04-26T10:10:48.945Z</time></trkpt><trkpt lat="44.524455" lon="9.8536633"><ele>340.0</ele><time>2026-04-26T10:10:49.945Z</time></trkpt><trkpt lat="44.5244017" lon="9.8535517"><ele>340.0</ele><time>2026-04-26T10:10:50.944Z</time></trkpt><trkpt lat="44.5243533" lon="9.8534183"><ele>340.5</ele><time>2026-04-26T10:10:51.945Z</time></trkpt><trkpt lat="44.5243133" lon="9.8532633"><ele>341.0</ele><time>2026-04-26T10:10:52.945Z</time></trkpt><trkpt lat="44.5242833" lon="9.8530867"><ele>341.5</ele><time>2026-04-26T10:10:53.944Z</time></trkpt><trkpt lat="44.5242583" lon="9.85289"><ele>342.0</ele><time>2026-04-26T10:10:54.945Z</time></trkpt><trkpt lat="44.5242383" lon="9.8526783"><ele>342.3333333333333</ele><time>2026-04-26T10:10:55.945Z</time></trkpt><trkpt lat="44.5242217" lon="9.8524617"><ele>342.66666666666663</ele><time>2026-04-26T10:10:56.945Z</time></trkpt><trkpt lat="44.5242067" lon="9.8522433"><ele>343.0</ele><time>2026-04-26T10:10:57.945Z</time></trkpt><trkpt lat="44.524185" lon="9.8520167"><ele>343.0</ele><time>2026-04-26T10:10:58.945Z</time></trkpt><trkpt lat="44.5241417" lon="9.8518233"><ele>343.0</ele><time>2026-04-26T10:10:59.945Z</time></trkpt><trkpt lat="44.52409" lon="9.8516467"><ele>343.0</ele><time>2026-04-26T10:11:00.945Z</time></trkpt><trkpt lat="44.52403" lon="9.8514683"><ele>343.0</ele><time>2026-04-26T10:11:01.945Z</time></trkpt><trkpt lat="44.5239733" lon="9.85129"><ele>344.25</ele><time>2026-04-26T10:11:02.945Z</time></trkpt><trkpt lat="44.5239167" lon="9.85112"><ele>345.5</ele><time>2026-04-26T10:11:03.945Z</time></trkpt><trkpt lat="44.523865" lon="9.8509567"><ele>346.75</ele><time>2026-04-26T10:11:04.945Z</time></trkpt><trkpt lat="44.5238167" lon="9.8508017"><ele>348.0</ele><time>2026-04-26T10:11:05.945Z</time></trkpt><trkpt lat="44.52377" lon="9.8506517"><ele>347.0</ele><time>2026-04-26T10:11:06.945Z</time></trkpt><trkpt lat="44.523725" lon="9.85052"><ele>346.0</ele><time>2026-04-26T10:11:07.945Z</time></trkpt><trkpt lat="44.5236833" lon="9.8503833"><ele>345.0</ele><time>2026-04-26T10:11:08.945Z</time></trkpt><trkpt lat="44.5236333" lon="9.8502333"><ele>344.0</ele><time>2026-04-26T10:11:09.945Z</time></trkpt><trkpt lat="44.523585" lon="9.8500667"><ele>344.0</ele><time>2026-04-26T10:11:10.945Z</time></trkpt><trkpt lat="44.523535" lon="9.84989"><ele>344.0</ele><time>2026-04-26T10:11:11.945Z</time></trkpt><trkpt lat="44.523485" lon="9.8497"><ele>344.0</ele><time>2026-04-26T10:11:12.944Z</time></trkpt><trkpt lat="44.5234367" lon="9.8495217"><ele>344.0</ele><time>2026-04-26T10:11:13.945Z</time></trkpt><trkpt lat="44.5234067" lon="9.8493717"><ele>346.0</ele><time>2026-04-26T10:11:14.945Z</time></trkpt><trkpt lat="44.5233783" lon="9.8492433"><ele>348.0</ele><time>2026-04-26T10:11:15.945Z</time></trkpt><trkpt lat="44.5233617" lon="9.849145"><ele>350.0</ele><time>2026-04-26T10:11:16.945Z</time></trkpt><trkpt lat="44.5233283" lon="9.84901"><ele>352.0</ele><time>2026-04-26T10:11:18.945Z</time></trkpt><trkpt lat="44.523305" lon="9.84887"><ele>354.0</ele><time>2026-04-26T10:11:20.945Z</time></trkpt><trkpt lat="44.5232967" lon="9.8486883"><ele>354.0</ele><time>2026-04-26T10:11:22.945Z</time></trkpt><trkpt lat="44.5233083" lon="9.8485783"><ele>354.0</ele><time>2026-04-26T10:11:23.945Z</time></trkpt><trkpt lat="44.5233217" lon="9.8484717"><ele>354.0</ele><time>2026-04-26T10:11:24.944Z</time></trkpt><trkpt lat="44.5233333" lon="9.8483667"><ele>354.0</ele><time>2026-04-26T10:11:25.945Z</time></trkpt><trkpt lat="44.5233217" lon="9.84826"><ele>354.0</ele><time>2026-04-26T10:11:26.945Z</time></trkpt><trkpt lat="44.52331" lon="9.84815"><ele>354.0</ele><time>2026-04-26T10:11:27.944Z</time></trkpt><trkpt lat="44.5232883" lon="9.8480367"><ele>354.6</ele><time>2026-04-26T10:11:28.944Z</time></trkpt><trkpt lat="44.52326" lon="9.8479183"><ele>355.2</ele><time>2026-04-26T10:11:29.945Z</time></trkpt><trkpt lat="44.5232283" lon="9.8477933"><ele>355.8</ele><time>2026-04-26T10:11:30.945Z</time></trkpt><trkpt lat="44.5231883" lon="9.8476617"><ele>356.40000000000003</ele><time>2026-04-26T10:11:31.945Z</time></trkpt><trkpt lat="44.523145" lon="9.8475217"><ele>357.0</ele><time>2026-04-26T10:11:32.945Z</time></trkpt><trkpt lat="44.5231117" lon="9.847395"><ele>358.3333333333333</ele><time>2026-04-26T10:11:33.945Z</time></trkpt><trkpt lat="44.5230733" lon="9.847265"><ele>359.6666666666667</ele><time>2026-04-26T10:11:34.944Z</time></trkpt><trkpt lat="44.5230467" lon="9.847135"><ele>361.0</ele><time>2026-04-26T10:11:35.945Z</time></trkpt><trkpt lat="44.5230083" lon="9.8470317"><ele>362.33333333333337</ele><time>2026-04-26T10:11:36.945Z</time></trkpt><trkpt lat="44.5229683" lon="9.8469217"><ele>363.6666666666667</ele><time>2026-04-26T10:11:37.944Z</time></trkpt><trkpt lat="44.5229167" lon="9.8468367"><ele>365.0</ele><time>2026-04-26T10:11:38.945Z</time></trkpt><trkpt lat="44.5228667" lon="9.8467367"><ele>361.14285714285717</ele><time>2026-04-26T10:11:39.945Z</time></trkpt><trkpt lat="44.5228301" lon="9.8466523"><ele>357.2857142857143</ele><time>2026-04-26T10:11:40.945Z</time></trkpt><trkpt lat="44.5227941" lon="9.8465576"><ele>353.42857142857144</ele><time>2026-04-26T10:11:41.945Z</time></trkpt><trkpt lat="44.5227678" lon="9.8464565"><ele>349.57142857142856</ele><time>2026-04-26T10:11:42.945Z</time></trkpt><trkpt lat="44.5227614" lon="9.8463589"><ele>345.7142857142857</ele><time>2026-04-26T10:11:43.945Z</time></trkpt><trkpt lat="44.5227772" lon="9.8462635"><ele>341.8571428571429</ele><time>2026-04-26T10:11:44.945Z</time></trkpt><trkpt lat="44.5228094" lon="9.8461839"><ele>338.0</ele><time>2026-04-26T10:11:45.945Z</time></trkpt><trkpt lat="44.5228604" lon="9.846112"><ele>338.0</ele><time>2026-04-26T10:11:46.944Z</time></trkpt><trkpt lat="44.5229234" lon="9.8460533"><ele>338.0</ele><time>2026-04-26T10:11:47.944Z</time></trkpt><trkpt lat="44.522995" lon="9.8460084"><ele>338.0</ele><time>2026-04-26T10:11:49.944Z</time></trkpt><trkpt lat="44.5228924" lon="9.8460968"><ele>338.0</ele><time>2026-04-26T10:14:42.944Z</time></trkpt><trkpt lat="44.5228383" lon="9.8461605"><ele>338.0</ele><time>2026-04-26T10:14:43.944Z</time></trkpt><trkpt lat="44.5227879" lon="9.8462241"><ele>338.0</ele><time>2026-04-26T10:14:44.944Z</time></trkpt><trkpt lat="44.5227501" lon="9.8463816"><ele>338.0</ele><time>2026-04-26T10:14:46.944Z</time></trkpt><trkpt lat="44.5227874" lon="9.846524"><ele>338.0</ele><time>2026-04-26T10:14:48.944Z</time></trkpt><trkpt lat="44.5228297" lon="9.8465941"><ele>338.0</ele><time>2026-04-26T10:14:49.944Z</time></trkpt><trkpt lat="44.5228754" lon="9.846668"><ele>338.0</ele><time>2026-04-26T10:14:50.944Z</time></trkpt><trkpt lat="44.5229247" lon="9.846757"><ele>338.0</ele><time>2026-04-26T10:14:51.943Z</time></trkpt><trkpt lat="44.5229763" lon="9.8468605"><ele>338.0</ele><time>2026-04-26T10:14:52.944Z</time></trkpt><trkpt lat="44.523029" lon="9.846972"><ele>341.79999999999995</ele><time>2026-04-26T10:14:53.944Z</time></trkpt><trkpt lat="44.5230765" lon="9.847094"><ele>345.6</ele><time>2026-04-26T10:14:54.944Z</time></trkpt><trkpt lat="44.5231159" lon="9.8472316"><ele>349.4</ele><time>2026-04-26T10:14:55.944Z</time></trkpt><trkpt lat="44.5231499" lon="9.8473937"><ele>353.20000000000005</ele><time>2026-04-26T10:14:56.943Z</time></trkpt><trkpt lat="44.5231757" lon="9.8475566"><ele>357.0</ele><time>2026-04-26T10:14:57.944Z</time></trkpt><trkpt lat="44.5232023" lon="9.8477157"><ele>357.0</ele><time>2026-04-26T10:14:58.944Z</time></trkpt><trkpt lat="44.5232289" lon="9.8478649"><ele>357.0</ele><time>2026-04-26T10:14:59.944Z</time></trkpt><trkpt lat="44.5232444" lon="9.8479939"><ele>357.0</ele><time>2026-04-26T10:15:00.943Z</time></trkpt><trkpt lat="44.5232637" lon="9.8481081"><ele>357.0</ele><time>2026-04-26T10:15:01.943Z</time></trkpt><trkpt lat="44.5232819" lon="9.8482134"><ele>357.0</ele><time>2026-04-26T10:15:02.944Z</time></trkpt><trkpt lat="44.5232936" lon="9.8483171"><ele>357.0</ele><time>2026-04-26T10:15:03.943Z</time></trkpt><trkpt lat="44.5232977" lon="9.8484251"><ele>356.5</ele><time>2026-04-26T10:15:04.943Z</time></trkpt><trkpt lat="44.5232923" lon="9.8485337"><ele>356.0</ele><time>2026-04-26T10:15:05.943Z</time></trkpt><trkpt lat="44.523282" lon="9.848646"><ele>355.5</ele><time>2026-04-26T10:15:06.944Z</time></trkpt><trkpt lat="44.5232765" lon="9.8487515"><ele>355.0</ele><time>2026-04-26T10:15:07.944Z</time></trkpt><trkpt lat="44.5232837" lon="9.8488665"><ele>354.5</ele><time>2026-04-26T10:15:08.944Z</time></trkpt><trkpt lat="44.5233062" lon="9.8489818"><ele>354.0</ele><time>2026-04-26T10:15:09.944Z</time></trkpt><trkpt lat="44.5233295" lon="9.8490784"><ele>354.0</ele><time>2026-04-26T10:15:10.944Z</time></trkpt><trkpt lat="44.5233711" lon="9.8492391"><ele>354.0</ele><time>2026-04-26T10:15:12.944Z</time></trkpt><trkpt lat="44.5233958" lon="9.8493228"><ele>354.0</ele><time>2026-04-26T10:15:13.944Z</time></trkpt><trkpt lat="44.5234185" lon="9.8494263"><ele>354.0</ele><time>2026-04-26T10:15:14.944Z</time></trkpt><trkpt lat="44.523439" lon="9.8495304"><ele>354.0</ele><time>2026-04-26T10:15:15.944Z</time></trkpt><trkpt lat="44.5234617" lon="9.8496332"><ele>354.0</ele><time>2026-04-26T10:15:16.944Z</time></trkpt><trkpt lat="44.5234813" lon="9.8497439"><ele>352.0</ele><time>2026-04-26T10:15:17.944Z</time></trkpt><trkpt lat="44.523508" lon="9.8498647"><ele>350.0</ele><time>2026-04-26T10:15:18.944Z</time></trkpt><trkpt lat="44.5235397" lon="9.8500023"><ele>348.0</ele><time>2026-04-26T10:15:19.944Z</time></trkpt><trkpt lat="44.5235775" lon="9.8501451"><ele>346.0</ele><time>2026-04-26T10:15:20.944Z</time></trkpt><trkpt lat="44.5236194" lon="9.8502823"><ele>344.0</ele><time>2026-04-26T10:15:21.944Z</time></trkpt><trkpt lat="44.523662" lon="9.8504095"><ele>344.79999999999995</ele><time>2026-04-26T10:15:22.943Z</time></trkpt><trkpt lat="44.5236969" lon="9.8505396"><ele>345.59999999999997</ele><time>2026-04-26T10:15:23.944Z</time></trkpt><trkpt lat="44.5237315" lon="9.8506641"><ele>346.4</ele><time>2026-04-26T10:15:24.944Z</time></trkpt><trkpt lat="44.5237742" lon="9.8507809"><ele>347.2</ele><time>2026-04-26T10:15:25.944Z</time></trkpt><trkpt lat="44.5238188" lon="9.8509037"><ele>348.0</ele><time>2026-04-26T10:15:26.944Z</time></trkpt><trkpt lat="44.5238663" lon="9.8510322"><ele>348.0</ele><time>2026-04-26T10:15:27.944Z</time></trkpt><trkpt lat="44.5239162" lon="9.8511674"><ele>348.0</ele><time>2026-04-26T10:15:28.943Z</time></trkpt><trkpt lat="44.523964" lon="9.8513112"><ele>348.0</ele><time>2026-04-26T10:15:29.943Z</time></trkpt><trkpt lat="44.5240097" lon="9.851457"><ele>348.0</ele><time>2026-04-26T10:15:30.944Z</time></trkpt><trkpt lat="44.5240522" lon="9.8516011"><ele>348.0</ele><time>2026-04-26T10:15:31.944Z</time></trkpt><trkpt lat="44.5240886" lon="9.8517343"><ele>347.0</ele><time>2026-04-26T10:15:32.944Z</time></trkpt><trkpt lat="44.5241232" lon="9.8518639"><ele>346.0</ele><time>2026-04-26T10:15:33.944Z</time></trkpt><trkpt lat="44.524152" lon="9.8519871"><ele>345.0</ele><time>2026-04-26T10:15:34.944Z</time></trkpt><trkpt lat="44.5241729" lon="9.8521102"><ele>344.0</ele><time>2026-04-26T10:15:35.944Z</time></trkpt><trkpt lat="44.5241908" lon="9.8522321"><ele>343.0</ele><time>2026-04-26T10:15:36.944Z</time></trkpt><trkpt lat="44.5242069" lon="9.8523493"><ele>343.0</ele><time>2026-04-26T10:15:37.944Z</time></trkpt><trkpt lat="44.5242195" lon="9.8524626"><ele>343.0</ele><time>2026-04-26T10:15:38.944Z</time></trkpt><trkpt lat="44.524234" lon="9.8526906"><ele>343.0</ele><time>2026-04-26T10:15:40.944Z</time></trkpt><trkpt lat="44.5242537" lon="9.8528898"><ele>343.0</ele><time>2026-04-26T10:15:42.944Z</time></trkpt><trkpt lat="44.5242618" lon="9.8529783"><ele>342.79999999999995</ele><time>2026-04-26T10:15:43.944Z</time></trkpt><trkpt lat="44.5242718" lon="9.853068"><ele>342.6</ele><time>2026-04-26T10:15:44.944Z</time></trkpt><trkpt lat="44.5242929" lon="9.8532314"><ele>342.4</ele><time>2026-04-26T10:15:46.944Z</time></trkpt><trkpt lat="44.5243217" lon="9.8533832"><ele>342.20000000000005</ele><time>2026-04-26T10:15:48.944Z</time></trkpt><trkpt lat="44.5243338" lon="9.8535003"><ele>342.0</ele><time>2026-04-26T10:15:50.944Z</time></trkpt><trkpt lat="44.5243746" lon="9.8535876"><ele>341.6</ele><time>2026-04-26T10:16:19.943Z</time></trkpt><trkpt lat="44.5244267" lon="9.8536867"><ele>341.20000000000005</ele><time>2026-04-26T10:16:20.943Z</time></trkpt><trkpt lat="44.5244842" lon="9.8538115"><ele>340.8</ele><time>2026-04-26T10:16:21.943Z</time></trkpt><trkpt lat="44.524529" lon="9.8539621"><ele>340.4</ele><time>2026-04-26T10:16:22.943Z</time></trkpt><trkpt lat="44.5245509" lon="9.8541299"><ele>340.0</ele><time>2026-04-26T10:16:23.943Z</time></trkpt><trkpt lat="44.5245541" lon="9.8542747"><ele>339.8</ele><time>2026-04-26T10:16:24.943Z</time></trkpt><trkpt lat="44.5245488" lon="9.8543883"><ele>339.6</ele><time>2026-04-26T10:16:25.943Z</time></trkpt><trkpt lat="44.5245244" lon="9.8544812"><ele>339.4</ele><time>2026-04-26T10:16:26.943Z</time></trkpt><trkpt lat="44.5244506" lon="9.854603"><ele>339.2</ele><time>2026-04-26T10:16:28.943Z</time></trkpt><trkpt lat="44.5243586" lon="9.8546362"><ele>339.0</ele><time>2026-04-26T10:16:30.942Z</time></trkpt><trkpt lat="44.5242961" lon="9.8544966"><ele>339.0</ele><time>2026-04-26T10:16:32.943Z</time></trkpt><trkpt lat="44.5242895" lon="9.8543491"><ele>339.0</ele><time>2026-04-26T10:16:33.943Z</time></trkpt><trkpt lat="44.5242929" lon="9.8541725"><ele>339.0</ele><time>2026-04-26T10:16:34.942Z</time></trkpt><trkpt lat="44.5242872" lon="9.8539874"><ele>339.0</ele><time>2026-04-26T10:16:35.943Z</time></trkpt><trkpt lat="44.5242717" lon="9.8538171"><ele>339.25</ele><time>2026-04-26T10:16:36.943Z</time></trkpt><trkpt lat="44.5242571" lon="9.8536675"><ele>339.5</ele><time>2026-04-26T10:16:37.943Z</time></trkpt><trkpt lat="44.5242314" lon="9.8535152"><ele>339.75</ele><time>2026-04-26T10:16:38.943Z</time></trkpt><trkpt lat="44.5242016" lon="9.8533362"><ele>340.0</ele><time>2026-04-26T10:16:39.943Z</time></trkpt><trkpt lat="44.52417" lon="9.8531328"><ele>340.66666666666663</ele><time>2026-04-26T10:16:40.943Z</time></trkpt><trkpt lat="44.5241381" lon="9.8529096"><ele>341.3333333333333</ele><time>2026-04-26T10:16:41.943Z</time></trkpt><trkpt lat="44.5241063" lon="9.8526732"><ele>342.0</ele><time>2026-04-26T10:16:42.943Z</time></trkpt><trkpt lat="44.5240691" lon="9.8524257"><ele>342.3333333333333</ele><time>2026-04-26T10:16:43.942Z</time></trkpt><trkpt lat="44.5240199" lon="9.8521694"><ele>342.66666666666663</ele><time>2026-04-26T10:16:44.943Z</time></trkpt><trkpt lat="44.5239663" lon="9.8519013"><ele>343.0</ele><time>2026-04-26T10:16:45.942Z</time></trkpt><trkpt lat="44.5239043" lon="9.8516328"><ele>341.66666666666663</ele><time>2026-04-26T10:16:46.942Z</time></trkpt><trkpt lat="44.5238396" lon="9.8513637"><ele>340.3333333333333</ele><time>2026-04-26T10:16:47.943Z</time></trkpt><trkpt lat="44.5237731" lon="9.8510946"><ele>339.0</ele><time>2026-04-26T10:16:48.942Z</time></trkpt><trkpt lat="44.5237011" lon="9.8508207"><ele>339.0</ele><time>2026-04-26T10:16:49.942Z</time></trkpt><trkpt lat="44.5236301" lon="9.8505478"><ele>339.0</ele><time>2026-04-26T10:16:50.943Z</time></trkpt><trkpt lat="44.5234904" lon="9.8503646"><ele>339.0</ele><time>2026-04-26T10:16:51.943Z</time></trkpt><trkpt lat="44.5233266" lon="9.8501602"><ele>338.6666666666667</ele><time>2026-04-26T10:16:52.942Z</time></trkpt><trkpt lat="44.5231731" lon="9.8499912"><ele>338.33333333333337</ele><time>2026-04-26T10:16:53.943Z</time></trkpt><trkpt lat="44.5230358" lon="9.8498212"><ele>338.0</ele><time>2026-04-26T10:16:54.943Z</time></trkpt><trkpt lat="44.5228954" lon="9.8496618"><ele>338.0</ele><time>2026-04-26T10:16:55.943Z</time></trkpt><trkpt lat="44.5227461" lon="9.8495006"><ele>338.0</ele><time>2026-04-26T10:16:56.943Z</time></trkpt><trkpt lat="44.5225946" lon="9.8493384"><ele>338.0</ele><time>2026-04-26T10:16:57.943Z</time></trkpt><trkpt lat="44.5224446" lon="9.8491701"><ele>339.0</ele><time>2026-04-26T10:16:58.943Z</time></trkpt><trkpt lat="44.5222939" lon="9.849001"><ele>340.0</ele><time>2026-04-26T10:16:59.943Z</time></trkpt><trkpt lat="44.5221443" lon="9.8488282"><ele>341.0</ele><time>2026-04-26T10:17:00.942Z</time></trkpt><trkpt lat="44.521993" lon="9.8486548"><ele>339.0</ele><time>2026-04-26T10:17:01.943Z</time></trkpt><trkpt lat="44.5218409" lon="9.8484812"><ele>337.0</ele><time>2026-04-26T10:17:02.942Z</time></trkpt><trkpt lat="44.5216858" lon="9.8483022"><ele>335.0</ele><time>2026-04-26T10:17:03.943Z</time></trkpt><trkpt lat="44.5215299" lon="9.8481165"><ele>335.0</ele><time>2026-04-26T10:17:04.943Z</time></trkpt><trkpt lat="44.5213716" lon="9.8479305"><ele>335.0</ele><time>2026-04-26T10:17:05.942Z</time></trkpt><trkpt lat="44.5212139" lon="9.8477458"><ele>335.0</ele><time>2026-04-26T10:17:06.943Z</time></trkpt><trkpt lat="44.5210559" lon="9.8475623"><ele>336.6666666666667</ele><time>2026-04-26T10:17:07.943Z</time></trkpt><trkpt lat="44.5209021" lon="9.8473871"><ele>338.3333333333333</ele><time>2026-04-26T10:17:08.943Z</time></trkpt><trkpt lat="44.5207563" lon="9.8472253"><ele>340.0</ele><time>2026-04-26T10:17:09.943Z</time></trkpt><trkpt lat="44.5206204" lon="9.8470734"><ele>340.0</ele><time>2026-04-26T10:17:10.942Z</time></trkpt><trkpt lat="44.5204933" lon="9.846929"><ele>340.0</ele><time>2026-04-26T10:17:11.942Z</time></trkpt><trkpt lat="44.5203729" lon="9.8467897"><ele>340.0</ele><time>2026-04-26T10:17:12.943Z</time></trkpt><trkpt lat="44.5202561" lon="9.846653"><ele>348.5</ele><time>2026-04-26T10:17:13.942Z</time></trkpt><trkpt lat="44.5201374" lon="9.8465181"><ele>357.0</ele><time>2026-04-26T10:17:14.942Z</time></trkpt><trkpt lat="44.5200231" lon="9.8463859"><ele>365.5</ele><time>2026-04-26T10:17:15.943Z</time></trkpt><trkpt lat="44.5199087" lon="9.8462545"><ele>374.0</ele><time>2026-04-26T10:17:16.942Z</time></trkpt><trkpt lat="44.5197891" lon="9.8461281"><ele>374.0</ele><time>2026-04-26T10:17:17.943Z</time></trkpt><trkpt lat="44.5196606" lon="9.8460032"><ele>374.0</ele><time>2026-04-26T10:17:18.943Z</time></trkpt><trkpt lat="44.5195383" lon="9.8458748"><ele>374.0</ele><time>2026-04-26T10:17:19.943Z</time></trkpt><trkpt lat="44.5194176" lon="9.845744"><ele>374.6666666666667</ele><time>2026-04-26T10:17:20.943Z</time></trkpt><trkpt lat="44.5192963" lon="9.8456116"><ele>375.3333333333333</ele><time>2026-04-26T10:17:21.943Z</time></trkpt><trkpt lat="44.5191747" lon="9.8454786"><ele>376.0</ele><time>2026-04-26T10:17:22.942Z</time></trkpt><trkpt lat="44.51905" lon="9.8453434"><ele>376.0</ele><time>2026-04-26T10:17:23.943Z</time></trkpt><trkpt lat="44.518922" lon="9.8452033"><ele>376.0</ele><time>2026-04-26T10:17:24.943Z</time></trkpt><trkpt lat="44.5187899" lon="9.8450564"><ele>376.0</ele><time>2026-04-26T10:17:25.943Z</time></trkpt><trkpt lat="44.5186653" lon="9.8449209"><ele>364.5</ele><time>2026-04-26T10:17:26.943Z</time></trkpt><trkpt lat="44.5183494" lon="9.8444736"><ele>353.0</ele><time>2026-04-26T10:17:28.942Z</time></trkpt><trkpt lat="44.5182035" lon="9.8443036"><ele>353.0</ele><time>2026-04-26T10:17:29.943Z</time></trkpt><trkpt lat="44.5181356" lon="9.8443029"><ele>353.0</ele><time>2026-04-26T10:17:30.943Z</time></trkpt><trkpt lat="44.518127" lon="9.8441603"><ele>353.0</ele><time>2026-04-26T10:17:32.943Z</time></trkpt><trkpt lat="44.5180615" lon="9.8440183"><ele>353.0</ele><time>2026-04-26T10:17:33.943Z</time></trkpt><trkpt lat="44.5179776" lon="9.8438734"><ele>353.0</ele><time>2026-04-26T10:17:34.942Z</time></trkpt><trkpt lat="44.5178738" lon="9.8437253"><ele>351.33333333333337</ele><time>2026-04-26T10:17:35.942Z</time></trkpt><trkpt lat="44.5177703" lon="9.8435695"><ele>349.6666666666667</ele><time>2026-04-26T10:17:36.943Z</time></trkpt><trkpt lat="44.5176611" lon="9.8434228"><ele>348.0</ele><time>2026-04-26T10:17:37.943Z</time></trkpt><trkpt lat="44.517555" lon="9.8432798"><ele>348.0</ele><time>2026-04-26T10:17:38.943Z</time></trkpt><trkpt lat="44.5174469" lon="9.8431315"><ele>348.0</ele><time>2026-04-26T10:17:39.943Z</time></trkpt><trkpt lat="44.5173383" lon="9.842975"><ele>348.0</ele><time>2026-04-26T10:17:40.943Z</time></trkpt><trkpt lat="44.5172247" lon="9.8428224"><ele>348.0</ele><time>2026-04-26T10:17:41.943Z</time></trkpt><trkpt lat="44.5171158" lon="9.8426604"><ele>348.0</ele><time>2026-04-26T10:17:42.943Z</time></trkpt><trkpt lat="44.5170026" lon="9.8425025"><ele>348.0</ele><time>2026-04-26T10:17:43.943Z</time></trkpt><trkpt lat="44.5168797" lon="9.842346"><ele>349.0</ele><time>2026-04-26T10:17:44.942Z</time></trkpt><trkpt lat="44.5167514" lon="9.8421959"><ele>350.0</ele><time>2026-04-26T10:17:45.943Z</time></trkpt><trkpt lat="44.5166013" lon="9.8420509"><ele>351.0</ele><time>2026-04-26T10:17:46.943Z</time></trkpt><trkpt lat="44.5164444" lon="9.8418961"><ele>352.0</ele><time>2026-04-26T10:17:47.943Z</time></trkpt><trkpt lat="44.5162792" lon="9.8417447"><ele>353.0</ele><time>2026-04-26T10:17:48.942Z</time></trkpt><trkpt lat="44.5161055" lon="9.8415948"><ele>354.0</ele><time>2026-04-26T10:17:49.943Z</time></trkpt><trkpt lat="44.5159302" lon="9.8414477"><ele>358.0</ele><time>2026-04-26T10:17:50.943Z</time></trkpt><trkpt lat="44.5157568" lon="9.8413049"><ele>362.0</ele><time>2026-04-26T10:17:51.943Z</time></trkpt><trkpt lat="44.5155917" lon="9.8411631"><ele>366.0</ele><time>2026-04-26T10:17:52.943Z</time></trkpt><trkpt lat="44.5154328" lon="9.8410217"><ele>368.3333333333333</ele><time>2026-04-26T10:17:53.943Z</time></trkpt><trkpt lat="44.515262" lon="9.8408778"><ele>370.66666666666663</ele><time>2026-04-26T10:17:54.943Z</time></trkpt><trkpt lat="44.515093" lon="9.8407343"><ele>373.0</ele><time>2026-04-26T10:17:55.943Z</time></trkpt><trkpt lat="44.5149244" lon="9.8405898"><ele>356.0</ele><time>2026-04-26T10:17:56.943Z</time></trkpt><trkpt lat="44.5141583" lon="9.8399902"><ele>356.0</ele><time>2026-04-26T10:18:00.941Z</time></trkpt><trkpt lat="44.5140201" lon="9.8397216"><ele>356.0</ele><time>2026-04-26T10:18:01.94Z</time></trkpt><trkpt lat="44.5138751" lon="9.8395979"><ele>356.0</ele><time>2026-04-26T10:18:03.941Z</time></trkpt><trkpt lat="44.5137467" lon="9.8394884"><ele>354.75</ele><time>2026-04-26T10:18:04.941Z</time></trkpt><trkpt lat="44.5136278" lon="9.8393823"><ele>353.5</ele><time>2026-04-26T10:18:05.941Z</time></trkpt><trkpt lat="44.5135166" lon="9.8392702"><ele>352.25</ele><time>2026-04-26T10:18:06.941Z</time></trkpt><trkpt lat="44.5134009" lon="9.8391422"><ele>351.0</ele><time>2026-04-26T10:18:07.941Z</time></trkpt><trkpt lat="44.5132762" lon="9.8389983"><ele>351.0</ele><time>2026-04-26T10:18:08.941Z</time></trkpt><trkpt lat="44.5131365" lon="9.8388329"><ele>351.0</ele><time>2026-04-26T10:18:09.941Z</time></trkpt><trkpt lat="44.513006" lon="9.8386568"><ele>351.0</ele><time>2026-04-26T10:18:10.941Z</time></trkpt><trkpt lat="44.5128768" lon="9.8384631"><ele>350.6666666666667</ele><time>2026-04-26T10:18:11.941Z</time></trkpt><trkpt lat="44.5127477" lon="9.8382534"><ele>350.33333333333337</ele><time>2026-04-26T10:18:12.941Z</time></trkpt><trkpt lat="44.5126161" lon="9.8380409"><ele>350.0</ele><time>2026-04-26T10:18:13.941Z</time></trkpt><trkpt lat="44.5124841" lon="9.83782"><ele>350.6666666666667</ele><time>2026-04-26T10:18:14.941Z</time></trkpt><trkpt lat="44.5123546" lon="9.8375938"><ele>351.3333333333333</ele><time>2026-04-26T10:18:15.941Z</time></trkpt><trkpt lat="44.5122207" lon="9.837367"><ele>352.0</ele><time>2026-04-26T10:18:16.941Z</time></trkpt><trkpt lat="44.5120887" lon="9.8371377"><ele>351.66666666666663</ele><time>2026-04-26T10:18:17.941Z</time></trkpt><trkpt lat="44.5119655" lon="9.8369013"><ele>351.3333333333333</ele><time>2026-04-26T10:18:18.941Z</time></trkpt><trkpt lat="44.5118486" lon="9.836658"><ele>351.0</ele><time>2026-04-26T10:18:19.941Z</time></trkpt><trkpt lat="44.5117384" lon="9.8364082"><ele>351.0</ele><time>2026-04-26T10:18:20.941Z</time></trkpt><trkpt lat="44.5116351" lon="9.836152"><ele>351.0</ele><time>2026-04-26T10:18:21.94Z</time></trkpt><trkpt lat="44.5115409" lon="9.8358887"><ele>351.0</ele><time>2026-04-26T10:18:22.941Z</time></trkpt><trkpt lat="44.5114543" lon="9.8356174"><ele>350.6666666666667</ele><time>2026-04-26T10:18:23.94Z</time></trkpt><trkpt lat="44.5113757" lon="9.8353391"><ele>350.33333333333337</ele><time>2026-04-26T10:18:24.941Z</time></trkpt><trkpt lat="44.5113018" lon="9.8350577"><ele>350.0</ele><time>2026-04-26T10:18:25.941Z</time></trkpt><trkpt lat="44.5112371" lon="9.8347709"><ele>350.0</ele><time>2026-04-26T10:18:26.941Z</time></trkpt><trkpt lat="44.5111817" lon="9.8344792"><ele>350.0</ele><time>2026-04-26T10:18:27.941Z</time></trkpt><trkpt lat="44.5111297" lon="9.8341865"><ele>350.0</ele><time>2026-04-26T10:18:28.941Z</time></trkpt><trkpt lat="44.5110857" lon="9.8338929"><ele>350.33333333333337</ele><time>2026-04-26T10:18:29.94Z</time></trkpt><trkpt lat="44.5110461" lon="9.8335981"><ele>350.6666666666667</ele><time>2026-04-26T10:18:30.941Z</time></trkpt><trkpt lat="44.5110099" lon="9.833304"><ele>351.0</ele><time>2026-04-26T10:18:31.941Z</time></trkpt><trkpt lat="44.5109755" lon="9.8330091"><ele>351.3333333333333</ele><time>2026-04-26T10:18:32.941Z</time></trkpt><trkpt lat="44.5109454" lon="9.8327143"><ele>351.66666666666663</ele><time>2026-04-26T10:18:33.94Z</time></trkpt><trkpt lat="44.5109195" lon="9.8324206"><ele>352.0</ele><time>2026-04-26T10:18:34.941Z</time></trkpt><trkpt lat="44.5108916" lon="9.8321323"><ele>353.66666666666663</ele><time>2026-04-26T10:18:35.941Z</time></trkpt><trkpt lat="44.5108648" lon="9.8318455"><ele>355.3333333333333</ele><time>2026-04-26T10:18:36.941Z</time></trkpt><trkpt lat="44.5108359" lon="9.8315614"><ele>357.0</ele><time>2026-04-26T10:18:37.941Z</time></trkpt><trkpt lat="44.5108063" lon="9.8312761"><ele>359.3333333333333</ele><time>2026-04-26T10:18:38.941Z</time></trkpt><trkpt lat="44.5107731" lon="9.8309927"><ele>361.66666666666663</ele><time>2026-04-26T10:18:39.94Z</time></trkpt><trkpt lat="44.5107462" lon="9.8307072"><ele>364.0</ele><time>2026-04-26T10:18:40.941Z</time></trkpt><trkpt lat="44.5107222" lon="9.8304234"><ele>366.66666666666663</ele><time>2026-04-26T10:18:41.941Z</time></trkpt><trkpt lat="44.5106923" lon="9.8301344"><ele>369.3333333333333</ele><time>2026-04-26T10:18:42.94Z</time></trkpt><trkpt lat="44.5106605" lon="9.8298429"><ele>372.0</ele><time>2026-04-26T10:18:43.941Z</time></trkpt><trkpt lat="44.5106349" lon="9.8295566"><ele>372.6666666666667</ele><time>2026-04-26T10:18:44.941Z</time></trkpt><trkpt lat="44.5106124" lon="9.8292863"><ele>373.33333333333337</ele><time>2026-04-26T10:18:45.941Z</time></trkpt><trkpt lat="44.5105888" lon="9.8290419"><ele>374.0</ele><time>2026-04-26T10:18:46.941Z</time></trkpt><trkpt lat="44.5105474" lon="9.8288415"><ele>374.0</ele><time>2026-04-26T10:18:47.941Z</time></trkpt><trkpt lat="44.5105071" lon="9.8286871"><ele>374.0</ele><time>2026-04-26T10:18:48.941Z</time></trkpt><trkpt lat="44.5104809" lon="9.8285786"><ele>374.0</ele><time>2026-04-26T10:18:49.94Z</time></trkpt><trkpt lat="44.5104551" lon="9.8284584"><ele>374.0</ele><time>2026-04-26T10:18:51.941Z</time></trkpt><trkpt lat="44.5105145" lon="9.8285074"><ele>374.0</ele><time>2026-04-26T10:18:56.941Z</time></trkpt><trkpt lat="44.5105184" lon="9.8287154"><ele>374.0</ele><time>2026-04-26T10:18:58.941Z</time></trkpt><trkpt lat="44.5105253" lon="9.8288987"><ele>374.0</ele><time>2026-04-26T10:18:59.941Z</time></trkpt><trkpt lat="44.5105346" lon="9.8291774"><ele>374.0</ele><time>2026-04-26T10:19:00.941Z</time></trkpt><trkpt lat="44.5105565" lon="9.8295386"><ele>373.0</ele><time>2026-04-26T10:19:01.941Z</time></trkpt><trkpt lat="44.5105892" lon="9.8299503"><ele>372.0</ele><time>2026-04-26T10:19:02.941Z</time></trkpt><trkpt lat="44.5106347" lon="9.830393"><ele>371.0</ele><time>2026-04-26T10:19:03.94Z</time></trkpt><trkpt lat="44.5106925" lon="9.8308432"><ele>370.0</ele><time>2026-04-26T10:19:04.941Z</time></trkpt><trkpt lat="44.5107497" lon="9.8313048"><ele>367.0</ele><time>2026-04-26T10:19:05.941Z</time></trkpt><trkpt lat="44.5108127" lon="9.8317577"><ele>364.0</ele><time>2026-04-26T10:19:06.941Z</time></trkpt><trkpt lat="44.5108561" lon="9.8321993"><ele>360.5</ele><time>2026-04-26T10:19:07.941Z</time></trkpt><trkpt lat="44.5108996" lon="9.832621"><ele>357.0</ele><time>2026-04-26T10:19:08.941Z</time></trkpt><trkpt lat="44.510943" lon="9.8330358"><ele>354.5</ele><time>2026-04-26T10:19:09.941Z</time></trkpt><trkpt lat="44.510995" lon="9.8334519"><ele>352.0</ele><time>2026-04-26T10:19:10.941Z</time></trkpt><trkpt lat="44.5110443" lon="9.8338697"><ele>351.5</ele><time>2026-04-26T10:19:11.941Z</time></trkpt><trkpt lat="44.5110987" lon="9.8342826"><ele>351.0</ele><time>2026-04-26T10:19:12.941Z</time></trkpt><trkpt lat="44.5111734" lon="9.8346861"><ele>353.5</ele><time>2026-04-26T10:19:13.941Z</time></trkpt><trkpt lat="44.5112611" lon="9.8350867"><ele>356.0</ele><time>2026-04-26T10:19:14.941Z</time></trkpt><trkpt lat="44.5113656" lon="9.8354804"><ele>356.0</ele><time>2026-04-26T10:19:15.94Z</time></trkpt><trkpt lat="44.5114875" lon="9.835867"><ele>356.0</ele><time>2026-04-26T10:19:16.941Z</time></trkpt><trkpt lat="44.5116305" lon="9.8362355"><ele>353.5</ele><time>2026-04-26T10:19:17.941Z</time></trkpt><trkpt lat="44.5117817" lon="9.8366044"><ele>351.0</ele><time>2026-04-26T10:19:18.941Z</time></trkpt><trkpt lat="44.5119464" lon="9.8369582"><ele>351.5</ele><time>2026-04-26T10:19:19.941Z</time></trkpt><trkpt lat="44.5121254" lon="9.8373001"><ele>352.0</ele><time>2026-04-26T10:19:20.941Z</time></trkpt><trkpt lat="44.5123178" lon="9.8376218"><ele>351.0</ele><time>2026-04-26T10:19:21.941Z</time></trkpt><trkpt lat="44.5125079" lon="9.8379296"><ele>350.0</ele><time>2026-04-26T10:19:22.941Z</time></trkpt><trkpt lat="44.5126859" lon="9.8382176"><ele>350.5</ele><time>2026-04-26T10:19:23.941Z</time></trkpt><trkpt lat="44.5128575" lon="9.8384855"><ele>351.0</ele><time>2026-04-26T10:19:24.941Z</time></trkpt><trkpt lat="44.5130151" lon="9.8387378"><ele>351.0</ele><time>2026-04-26T10:19:25.941Z</time></trkpt><trkpt lat="44.5131567" lon="9.8389648"><ele>351.0</ele><time>2026-04-26T10:19:26.941Z</time></trkpt><trkpt lat="44.5132913" lon="9.839167"><ele>351.0</ele><time>2026-04-26T10:19:27.941Z</time></trkpt><trkpt lat="44.5134171" lon="9.8393599"><ele>350.3333333333333</ele><time>2026-04-26T10:19:28.941Z</time></trkpt><trkpt lat="44.5135261" lon="9.8395577"><ele>349.66666666666663</ele><time>2026-04-26T10:19:29.941Z</time></trkpt><trkpt lat="44.5136188" lon="9.8397656"><ele>349.0</ele><time>2026-04-26T10:19:30.941Z</time></trkpt><trkpt lat="44.5137075" lon="9.8399718"><ele>352.3333333333333</ele><time>2026-04-26T10:19:31.941Z</time></trkpt><trkpt lat="44.5138019" lon="9.8401804"><ele>355.6666666666667</ele><time>2026-04-26T10:19:32.941Z</time></trkpt><trkpt lat="44.5138869" lon="9.8404046"><ele>359.0</ele><time>2026-04-26T10:19:33.941Z</time></trkpt><trkpt lat="44.5139718" lon="9.8406314"><ele>359.0</ele><time>2026-04-26T10:19:34.941Z</time></trkpt><trkpt lat="44.5140495" lon="9.8408648"><ele>359.0</ele><time>2026-04-26T10:19:35.941Z</time></trkpt><trkpt lat="44.514123" lon="9.8410998"><ele>359.0</ele><time>2026-04-26T10:19:36.941Z</time></trkpt><trkpt lat="44.5141954" lon="9.8413202"><ele>357.25</ele><time>2026-04-26T10:19:37.941Z</time></trkpt><trkpt lat="44.5142621" lon="9.8415169"><ele>355.5</ele><time>2026-04-26T10:19:38.941Z</time></trkpt><trkpt lat="44.5143207" lon="9.841695"><ele>353.75</ele><time>2026-04-26T10:19:39.94Z</time></trkpt><trkpt lat="44.5143605" lon="9.8418598"><ele>352.0</ele><time>2026-04-26T10:19:40.941Z</time></trkpt><trkpt lat="44.5143785" lon="9.8420009"><ele>351.40000000000003</ele><time>2026-04-26T10:19:41.941Z</time></trkpt><trkpt lat="44.5143665" lon="9.8421149"><ele>350.8</ele><time>2026-04-26T10:19:42.941Z</time></trkpt><trkpt lat="44.5143233" lon="9.8422051"><ele>350.2</ele><time>2026-04-26T10:19:43.94Z</time></trkpt><trkpt lat="44.5142462" lon="9.842278"><ele>349.6</ele><time>2026-04-26T10:19:44.941Z</time></trkpt><trkpt lat="44.5141236" lon="9.8423367"><ele>349.0</ele><time>2026-04-26T10:19:45.941Z</time></trkpt><trkpt lat="44.5139662" lon="9.8424062"><ele>349.0</ele><time>2026-04-26T10:19:46.941Z</time></trkpt><trkpt lat="44.5137966" lon="9.8424901"><ele>349.0</ele><time>2026-04-26T10:19:47.941Z</time></trkpt><trkpt lat="44.5136373" lon="9.8425815"><ele>349.0</ele><time>2026-04-26T10:19:48.941Z</time></trkpt><trkpt lat="44.5134747" lon="9.8426827"><ele>351.66666666666663</ele><time>2026-04-26T10:19:49.941Z</time></trkpt><trkpt lat="44.5133174" lon="9.842786"><ele>354.3333333333333</ele><time>2026-04-26T10:19:50.941Z</time></trkpt><trkpt lat="44.5131679" lon="9.8428836"><ele>357.0</ele><time>2026-04-26T10:19:51.941Z</time></trkpt><trkpt lat="44.5130315" lon="9.8429758"><ele>357.0</ele><time>2026-04-26T10:19:52.941Z</time></trkpt><trkpt lat="44.5129102" lon="9.843065"><ele>357.0</ele><time>2026-04-26T10:19:53.941Z</time></trkpt><trkpt lat="44.5128122" lon="9.8431699"><ele>357.0</ele><time>2026-04-26T10:19:54.941Z</time></trkpt><trkpt lat="44.5127471" lon="9.8432896"><ele>357.0</ele><time>2026-04-26T10:19:55.941Z</time></trkpt><trkpt lat="44.5127156" lon="9.8434296"><ele>362.25</ele><time>2026-04-26T10:19:56.94Z</time></trkpt><trkpt lat="44.5127122" lon="9.8435795"><ele>367.5</ele><time>2026-04-26T10:19:57.939Z</time></trkpt><trkpt lat="44.5127361" lon="9.8437379"><ele>372.75</ele><time>2026-04-26T10:19:58.94Z</time></trkpt><trkpt lat="44.5127781" lon="9.8438943"><ele>378.0</ele><time>2026-04-26T10:19:59.94Z</time></trkpt><trkpt lat="44.5128228" lon="9.8440366"><ele>378.0</ele><time>2026-04-26T10:20:00.94Z</time></trkpt><trkpt lat="44.5128707" lon="9.8441545"><ele>378.0</ele><time>2026-04-26T10:20:01.94Z</time></trkpt><trkpt lat="44.5129009" lon="9.8442598"><ele>378.0</ele><time>2026-04-26T10:20:02.94Z</time></trkpt><trkpt lat="44.5128995" lon="9.8444023"><ele>378.0</ele><time>2026-04-26T10:20:04.94Z</time></trkpt><trkpt lat="44.5128053" lon="9.8443286"><ele>378.0</ele><time>2026-04-26T10:20:07.94Z</time></trkpt><trkpt lat="44.5127684" lon="9.8442196"><ele>378.0</ele><time>2026-04-26T10:20:08.94Z</time></trkpt><trkpt lat="44.5127207" lon="9.8440855"><ele>378.0</ele><time>2026-04-26T10:20:09.94Z</time></trkpt><trkpt lat="44.5126691" lon="9.8439304"><ele>378.0</ele><time>2026-04-26T10:20:10.94Z</time></trkpt><trkpt lat="44.5126059" lon="9.8437488"><ele>378.0</ele><time>2026-04-26T10:20:11.94Z</time></trkpt><trkpt lat="44.5125472" lon="9.8435559"><ele>377.25</ele><time>2026-04-26T10:20:12.94Z</time></trkpt><trkpt lat="44.5124951" lon="9.8433587"><ele>376.5</ele><time>2026-04-26T10:20:13.94Z</time></trkpt><trkpt lat="44.5124566" lon="9.8431651"><ele>375.75</ele><time>2026-04-26T10:20:14.94Z</time></trkpt><trkpt lat="44.5124203" lon="9.8429859"><ele>375.0</ele><time>2026-04-26T10:20:15.94Z</time></trkpt><trkpt lat="44.5123654" lon="9.8428348"><ele>375.0</ele><time>2026-04-26T10:20:16.94Z</time></trkpt><trkpt lat="44.5122938" lon="9.8427104"><ele>375.0</ele><time>2026-04-26T10:20:17.94Z</time></trkpt><trkpt lat="44.5121979" lon="9.8426211"><ele>375.0</ele><time>2026-04-26T10:20:18.94Z</time></trkpt><trkpt lat="44.5120751" lon="9.8425613"><ele>375.0</ele><time>2026-04-26T10:20:19.94Z</time></trkpt><trkpt lat="44.5119394" lon="9.8425158"><ele>377.5</ele><time>2026-04-26T10:20:20.94Z</time></trkpt><trkpt lat="44.5118017" lon="9.8424702"><ele>380.0</ele><time>2026-04-26T10:20:21.94Z</time></trkpt><trkpt lat="44.5116578" lon="9.8424239"><ele>382.5</ele><time>2026-04-26T10:20:22.94Z</time></trkpt><trkpt lat="44.5115075" lon="9.842383"><ele>385.0</ele><time>2026-04-26T10:20:23.94Z</time></trkpt><trkpt lat="44.5113545" lon="9.8423574"><ele>386.6666666666667</ele><time>2026-04-26T10:20:24.94Z</time></trkpt><trkpt lat="44.5111937" lon="9.8423588"><ele>388.33333333333337</ele><time>2026-04-26T10:20:25.939Z</time></trkpt><trkpt lat="44.5110348" lon="9.8423555"><ele>390.0</ele><time>2026-04-26T10:20:26.94Z</time></trkpt><trkpt lat="44.5108796" lon="9.8423292"><ele>390.0</ele><time>2026-04-26T10:20:27.94Z</time></trkpt><trkpt lat="44.5107235" lon="9.8422657"><ele>390.0</ele><time>2026-04-26T10:20:28.94Z</time></trkpt><trkpt lat="44.5105851" lon="9.8421656"><ele>390.0</ele><time>2026-04-26T10:20:29.939Z</time></trkpt><trkpt lat="44.5104547" lon="9.8420472"><ele>392.5</ele><time>2026-04-26T10:20:30.939Z</time></trkpt><trkpt lat="44.5103382" lon="9.8419158"><ele>395.0</ele><time>2026-04-26T10:20:31.94Z</time></trkpt><trkpt lat="44.5102424" lon="9.8417777"><ele>397.5</ele><time>2026-04-26T10:20:32.94Z</time></trkpt><trkpt lat="44.5101715" lon="9.8416406"><ele>400.0</ele><time>2026-04-26T10:20:33.939Z</time></trkpt><trkpt lat="44.5101291" lon="9.8415083"><ele>400.0</ele><time>2026-04-26T10:20:34.939Z</time></trkpt><trkpt lat="44.5101143" lon="9.8413776"><ele>400.0</ele><time>2026-04-26T10:20:35.94Z</time></trkpt><trkpt lat="44.5101278" lon="9.841251"><ele>400.0</ele><time>2026-04-26T10:20:36.94Z</time></trkpt><trkpt lat="44.5101724" lon="9.8411244"><ele>400.0</ele><time>2026-04-26T10:20:37.939Z</time></trkpt><trkpt lat="44.5102836" lon="9.8409614"><ele>400.0</ele><time>2026-04-26T10:20:38.94Z</time></trkpt><trkpt lat="44.510407" lon="9.840774"><ele>395.33333333333337</ele><time>2026-04-26T10:20:39.939Z</time></trkpt><trkpt lat="44.5105286" lon="9.8405761"><ele>390.66666666666663</ele><time>2026-04-26T10:20:40.94Z</time></trkpt><trkpt lat="44.5106452" lon="9.8403819"><ele>386.0</ele><time>2026-04-26T10:20:41.94Z</time></trkpt><trkpt lat="44.5107495" lon="9.8401994"><ele>389.0</ele><time>2026-04-26T10:20:42.939Z</time></trkpt><trkpt lat="44.510833" lon="9.8400273"><ele>392.0</ele><time>2026-04-26T10:20:43.94Z</time></trkpt><trkpt lat="44.510898" lon="9.8398553"><ele>395.0</ele><time>2026-04-26T10:20:44.94Z</time></trkpt><trkpt lat="44.5109373" lon="9.8396634"><ele>398.0</ele><time>2026-04-26T10:20:45.939Z</time></trkpt><trkpt lat="44.5109436" lon="9.8394679"><ele>398.25</ele><time>2026-04-26T10:20:46.94Z</time></trkpt><trkpt lat="44.5109249" lon="9.8392687"><ele>398.5</ele><time>2026-04-26T10:20:47.939Z</time></trkpt><trkpt lat="44.510872" lon="9.8390874"><ele>398.75</ele><time>2026-04-26T10:20:48.94Z</time></trkpt><trkpt lat="44.5107845" lon="9.8389323"><ele>399.0</ele><time>2026-04-26T10:20:49.94Z</time></trkpt><trkpt lat="44.5106639" lon="9.8387977"><ele>399.0</ele><time>2026-04-26T10:20:50.939Z</time></trkpt><trkpt lat="44.5105298" lon="9.8386822"><ele>399.0</ele><time>2026-04-26T10:20:51.94Z</time></trkpt><trkpt lat="44.510381" lon="9.8385904"><ele>399.0</ele><time>2026-04-26T10:20:52.94Z</time></trkpt><trkpt lat="44.5102261" lon="9.8385191"><ele>401.66666666666663</ele><time>2026-04-26T10:20:53.94Z</time></trkpt><trkpt lat="44.5100674" lon="9.8384747"><ele>404.3333333333333</ele><time>2026-04-26T10:20:54.94Z</time></trkpt><trkpt lat="44.5099139" lon="9.83847"><ele>407.0</ele><time>2026-04-26T10:20:55.94Z</time></trkpt><trkpt lat="44.5097563" lon="9.8385191"><ele>407.0</ele><time>2026-04-26T10:20:56.94Z</time></trkpt><trkpt lat="44.5096038" lon="9.8385972"><ele>407.0</ele><time>2026-04-26T10:20:57.939Z</time></trkpt><trkpt lat="44.509452" lon="9.8386848"><ele>407.0</ele><time>2026-04-26T10:20:58.939Z</time></trkpt><trkpt lat="44.509312" lon="9.8387513"><ele>409.5</ele><time>2026-04-26T10:20:59.94Z</time></trkpt><trkpt lat="44.509168" lon="9.8387849"><ele>412.0</ele><time>2026-04-26T10:21:00.94Z</time></trkpt><trkpt lat="44.5090318" lon="9.8387626"><ele>414.5</ele><time>2026-04-26T10:21:01.94Z</time></trkpt><trkpt lat="44.5088942" lon="9.8386856"><ele>417.0</ele><time>2026-04-26T10:21:02.94Z</time></trkpt><trkpt lat="44.5087601" lon="9.8385792"><ele>418.75</ele><time>2026-04-26T10:21:03.94Z</time></trkpt><trkpt lat="44.5086366" lon="9.8384696"><ele>420.5</ele><time>2026-04-26T10:21:04.94Z</time></trkpt><trkpt lat="44.5085349" lon="9.8383618"><ele>422.25</ele><time>2026-04-26T10:21:05.94Z</time></trkpt><trkpt lat="44.5084652" lon="9.8382415"><ele>424.0</ele><time>2026-04-26T10:21:06.94Z</time></trkpt><trkpt lat="44.508437" lon="9.8380959"><ele>424.0</ele><time>2026-04-26T10:21:07.94Z</time></trkpt><trkpt lat="44.5084471" lon="9.8379188"><ele>424.0</ele><time>2026-04-26T10:21:08.94Z</time></trkpt><trkpt lat="44.5084933" lon="9.8377263"><ele>424.0</ele><time>2026-04-26T10:21:09.939Z</time></trkpt><trkpt lat="44.5085394" lon="9.8375432"><ele>424.0</ele><time>2026-04-26T10:21:10.94Z</time></trkpt><trkpt lat="44.5085729" lon="9.8373686"><ele>424.0</ele><time>2026-04-26T10:21:11.94Z</time></trkpt><trkpt lat="44.5085805" lon="9.8371912"><ele>424.0</ele><time>2026-04-26T10:21:12.939Z</time></trkpt><trkpt lat="44.5085637" lon="9.8370083"><ele>424.0</ele><time>2026-04-26T10:21:13.94Z</time></trkpt><trkpt lat="44.5085212" lon="9.836817"><ele>424.0</ele><time>2026-04-26T10:21:14.94Z</time></trkpt><trkpt lat="44.5084661" lon="9.8366102"><ele>423.6666666666667</ele><time>2026-04-26T10:21:15.939Z</time></trkpt><trkpt lat="44.5084078" lon="9.8363897"><ele>423.33333333333337</ele><time>2026-04-26T10:21:16.939Z</time></trkpt><trkpt lat="44.5083428" lon="9.8361644"><ele>423.0</ele><time>2026-04-26T10:21:17.94Z</time></trkpt><trkpt lat="44.5082753" lon="9.8359445"><ele>423.0</ele><time>2026-04-26T10:21:18.94Z</time></trkpt><trkpt lat="44.5082007" lon="9.8357342"><ele>423.0</ele><time>2026-04-26T10:21:19.94Z</time></trkpt><trkpt lat="44.5081128" lon="9.8355453"><ele>423.0</ele><time>2026-04-26T10:21:20.94Z</time></trkpt><trkpt lat="44.5080195" lon="9.8353708"><ele>423.0</ele><time>2026-04-26T10:21:21.94Z</time></trkpt><trkpt lat="44.507929" lon="9.8352237"><ele>423.0</ele><time>2026-04-26T10:21:22.94Z</time></trkpt><trkpt lat="44.5078317" lon="9.8351164"><ele>423.0</ele><time>2026-04-26T10:21:23.94Z</time></trkpt><trkpt lat="44.5077295" lon="9.8350529"><ele>423.0</ele><time>2026-04-26T10:21:24.94Z</time></trkpt><trkpt lat="44.5076392" lon="9.835026"><ele>423.79999999999995</ele><time>2026-04-26T10:21:25.94Z</time></trkpt><trkpt lat="44.5075712" lon="9.8350367"><ele>424.6</ele><time>2026-04-26T10:21:26.94Z</time></trkpt><trkpt lat="44.5074476" lon="9.835103"><ele>425.40000000000003</ele><time>2026-04-26T10:21:28.94Z</time></trkpt><trkpt lat="44.5073697" lon="9.8351357"><ele>426.20000000000005</ele><time>2026-04-26T10:21:29.94Z</time></trkpt><trkpt lat="44.507273" lon="9.8351453"><ele>427.0</ele><time>2026-04-26T10:21:30.94Z</time></trkpt><trkpt lat="44.5071455" lon="9.8351383"><ele>432.0</ele><time>2026-04-26T10:21:31.94Z</time></trkpt><trkpt lat="44.5070019" lon="9.8351419"><ele>437.0</ele><time>2026-04-26T10:21:32.939Z</time></trkpt><trkpt lat="44.506848" lon="9.8351901"><ele>442.0</ele><time>2026-04-26T10:21:33.94Z</time></trkpt><trkpt lat="44.5067087" lon="9.8352827"><ele>442.0</ele><time>2026-04-26T10:21:34.94Z</time></trkpt><trkpt lat="44.5065695" lon="9.8353822"><ele>442.0</ele><time>2026-04-26T10:21:35.94Z</time></trkpt><trkpt lat="44.5064239" lon="9.8354503"><ele>442.0</ele><time>2026-04-26T10:21:36.94Z</time></trkpt><trkpt lat="44.5062683" lon="9.8354557"><ele>446.6666666666667</ele><time>2026-04-26T10:21:37.94Z</time></trkpt><trkpt lat="44.5061119" lon="9.835413"><ele>451.33333333333337</ele><time>2026-04-26T10:21:38.939Z</time></trkpt><trkpt lat="44.5059608" lon="9.8353643"><ele>456.0</ele><time>2026-04-26T10:21:39.94Z</time></trkpt><trkpt lat="44.5058245" lon="9.8353241"><ele>456.0</ele><time>2026-04-26T10:21:40.94Z</time></trkpt><trkpt lat="44.5057079" lon="9.8352898"><ele>456.0</ele><time>2026-04-26T10:21:41.94Z</time></trkpt><trkpt lat="44.5056095" lon="9.8352495"><ele>456.0</ele><time>2026-04-26T10:21:42.94Z</time></trkpt><trkpt lat="44.5055303" lon="9.8352064"><ele>456.0</ele><time>2026-04-26T10:21:43.94Z</time></trkpt><trkpt lat="44.5054451" lon="9.8351362"><ele>456.0</ele><time>2026-04-26T10:21:45.94Z</time></trkpt><trkpt lat="44.505565" lon="9.8352049"><ele>456.0</ele><time>2026-04-26T10:21:56.94Z</time></trkpt><trkpt lat="44.5056697" lon="9.8352465"><ele>456.0</ele><time>2026-04-26T10:21:57.939Z</time></trkpt><trkpt lat="44.5058009" lon="9.8352875"><ele>456.0</ele><time>2026-04-26T10:21:58.94Z</time></trkpt><trkpt lat="44.5059539" lon="9.8353331"><ele>456.0</ele><time>2026-04-26T10:21:59.94Z</time></trkpt><trkpt lat="44.5060967" lon="9.8353789"><ele>456.0</ele><time>2026-04-26T10:22:00.94Z</time></trkpt><trkpt lat="44.5062305" lon="9.8354209"><ele>456.0</ele><time>2026-04-26T10:22:01.94Z</time></trkpt><trkpt lat="44.5063612" lon="9.8354616"><ele>456.0</ele><time>2026-04-26T10:22:02.94Z</time></trkpt><trkpt lat="44.5064893" lon="9.8354642"><ele>456.0</ele><time>2026-04-26T10:22:03.94Z</time></trkpt><trkpt lat="44.506607" lon="9.8354165"><ele>452.5</ele><time>2026-04-26T10:22:04.94Z</time></trkpt><trkpt lat="44.5067217" lon="9.8353413"><ele>449.0</ele><time>2026-04-26T10:22:05.94Z</time></trkpt><trkpt lat="44.5068253" lon="9.8352662"><ele>445.5</ele><time>2026-04-26T10:22:06.94Z</time></trkpt><trkpt lat="44.5069223" lon="9.8352039"><ele>442.0</ele><time>2026-04-26T10:22:07.94Z</time></trkpt><trkpt lat="44.5070243" lon="9.8351654"><ele>441.0</ele><time>2026-04-26T10:22:08.94Z</time></trkpt><trkpt lat="44.5071352" lon="9.8351616"><ele>440.00000000000006</ele><time>2026-04-26T10:22:09.939Z</time></trkpt><trkpt lat="44.5072466" lon="9.835169"><ele>439.00000000000006</ele><time>2026-04-26T10:22:10.94Z</time></trkpt><trkpt lat="44.507349" lon="9.8351797"><ele>438.0</ele><time>2026-04-26T10:22:11.94Z</time></trkpt><trkpt lat="44.5074403" lon="9.8351819"><ele>437.0</ele><time>2026-04-26T10:22:12.94Z</time></trkpt><trkpt lat="44.5075051" lon="9.8351672"><ele>435.3333333333333</ele><time>2026-04-26T10:22:13.94Z</time></trkpt><trkpt lat="44.5075574" lon="9.8351128"><ele>433.66666666666663</ele><time>2026-04-26T10:22:15.939Z</time></trkpt><trkpt lat="44.5075168" lon="9.8350161"><ele>432.0</ele><time>2026-04-26T10:22:18.94Z</time></trkpt><trkpt lat="44.507452" lon="9.8350015"><ele>430.33333333333337</ele><time>2026-04-26T10:22:19.939Z</time></trkpt><trkpt lat="44.507368" lon="9.834981"><ele>428.6666666666667</ele><time>2026-04-26T10:22:20.94Z</time></trkpt><trkpt lat="44.5072686" lon="9.8349415"><ele>427.0</ele><time>2026-04-26T10:22:21.939Z</time></trkpt><trkpt lat="44.5071595" lon="9.8348648"><ele>426.75</ele><time>2026-04-26T10:22:22.94Z</time></trkpt><trkpt lat="44.5070624" lon="9.8347485"><ele>426.5</ele><time>2026-04-26T10:22:23.94Z</time></trkpt><trkpt lat="44.5069835" lon="9.8345952"><ele>426.25</ele><time>2026-04-26T10:22:24.94Z</time></trkpt><trkpt lat="44.5069203" lon="9.8344144"><ele>426.0</ele><time>2026-04-26T10:22:25.94Z</time></trkpt><trkpt lat="44.5068559" lon="9.8342255"><ele>426.0</ele><time>2026-04-26T10:22:26.94Z</time></trkpt><trkpt lat="44.5068045" lon="9.8340275"><ele>426.0</ele><time>2026-04-26T10:22:27.94Z</time></trkpt><trkpt lat="44.5067642" lon="9.8338396"><ele>426.0</ele><time>2026-04-26T10:22:28.94Z</time></trkpt><trkpt lat="44.5067271" lon="9.8336466"><ele>426.0</ele><time>2026-04-26T10:22:29.94Z</time></trkpt><trkpt lat="44.5066821" lon="9.8334543"><ele>425.0</ele><time>2026-04-26T10:22:30.94Z</time></trkpt><trkpt lat="44.5066219" lon="9.8332631"><ele>424.0</ele><time>2026-04-26T10:22:31.94Z</time></trkpt><trkpt lat="44.5065604" lon="9.8330682"><ele>423.0</ele><time>2026-04-26T10:22:32.939Z</time></trkpt><trkpt lat="44.506494" lon="9.83287"><ele>423.0</ele><time>2026-04-26T10:22:33.94Z</time></trkpt><trkpt lat="44.5064049" lon="9.8326757"><ele>423.0</ele><time>2026-04-26T10:22:34.94Z</time></trkpt><trkpt lat="44.5062937" lon="9.8324983"><ele>423.0</ele><time>2026-04-26T10:22:35.939Z</time></trkpt><trkpt lat="44.5061643" lon="9.8323492"><ele>422.66666666666663</ele><time>2026-04-26T10:22:36.94Z</time></trkpt><trkpt lat="44.506028" lon="9.8322238"><ele>422.3333333333333</ele><time>2026-04-26T10:22:37.94Z</time></trkpt><trkpt lat="44.5058924" lon="9.8321084"><ele>422.0</ele><time>2026-04-26T10:22:38.94Z</time></trkpt><trkpt lat="44.5057701" lon="9.8319903"><ele>422.0</ele><time>2026-04-26T10:22:39.94Z</time></trkpt><trkpt lat="44.5056599" lon="9.8318481"><ele>422.0</ele><time>2026-04-26T10:22:40.94Z</time></trkpt><trkpt lat="44.5055731" lon="9.8316719"><ele>422.0</ele><time>2026-04-26T10:22:41.94Z</time></trkpt><trkpt lat="44.5055002" lon="9.8314722"><ele>421.0</ele><time>2026-04-26T10:22:42.939Z</time></trkpt><trkpt lat="44.5054349" lon="9.8312625"><ele>420.0</ele><time>2026-04-26T10:22:43.94Z</time></trkpt><trkpt lat="44.5053752" lon="9.8310446"><ele>419.0</ele><time>2026-04-26T10:22:44.94Z</time></trkpt><trkpt lat="44.5053133" lon="9.8308257"><ele>419.0</ele><time>2026-04-26T10:22:45.94Z</time></trkpt><trkpt lat="44.5052636" lon="9.8306117"><ele>419.0</ele><time>2026-04-26T10:22:46.94Z</time></trkpt><trkpt lat="44.5052244" lon="9.8304084"><ele>419.0</ele><time>2026-04-26T10:22:47.94Z</time></trkpt><trkpt lat="44.5051855" lon="9.8302186"><ele>416.75</ele><time>2026-04-26T10:22:48.94Z</time></trkpt><trkpt lat="44.5051391" lon="9.8300526"><ele>414.5</ele><time>2026-04-26T10:22:49.94Z</time></trkpt><trkpt lat="44.5050689" lon="9.8299097"><ele>412.25</ele><time>2026-04-26T10:22:50.94Z</time></trkpt><trkpt lat="44.504963" lon="9.8298014"><ele>410.0</ele><time>2026-04-26T10:22:51.94Z</time></trkpt><trkpt lat="44.5048312" lon="9.8297223"><ele>410.0</ele><time>2026-04-26T10:22:52.94Z</time></trkpt><trkpt lat="44.5046986" lon="9.8296368"><ele>410.0</ele><time>2026-04-26T10:22:53.94Z</time></trkpt><trkpt lat="44.5045812" lon="9.8295262"><ele>410.0</ele><time>2026-04-26T10:22:54.94Z</time></trkpt><trkpt lat="44.5044895" lon="9.8293926"><ele>410.0</ele><time>2026-04-26T10:22:55.94Z</time></trkpt><trkpt lat="44.5044227" lon="9.829228"><ele>412.0</ele><time>2026-04-26T10:22:56.94Z</time></trkpt><trkpt lat="44.5043705" lon="9.8290316"><ele>414.0</ele><time>2026-04-26T10:22:57.94Z</time></trkpt><trkpt lat="44.5043284" lon="9.8288153"><ele>416.0</ele><time>2026-04-26T10:22:58.94Z</time></trkpt><trkpt lat="44.504295" lon="9.8285889"><ele>417.3333333333333</ele><time>2026-04-26T10:22:59.94Z</time></trkpt><trkpt lat="44.5042567" lon="9.8283593"><ele>418.66666666666663</ele><time>2026-04-26T10:23:00.94Z</time></trkpt><trkpt lat="44.5042166" lon="9.8281412"><ele>420.0</ele><time>2026-04-26T10:23:01.94Z</time></trkpt><trkpt lat="44.5041773" lon="9.82794"><ele>420.0</ele><time>2026-04-26T10:23:02.939Z</time></trkpt><trkpt lat="44.5041448" lon="9.827756"><ele>420.0</ele><time>2026-04-26T10:23:03.94Z</time></trkpt><trkpt lat="44.504106" lon="9.8275832"><ele>420.0</ele><time>2026-04-26T10:23:04.939Z</time></trkpt><trkpt lat="44.5040785" lon="9.8274071"><ele>420.0</ele><time>2026-04-26T10:23:05.94Z</time></trkpt><trkpt lat="44.5040569" lon="9.8272307"><ele>418.0</ele><time>2026-04-26T10:23:06.939Z</time></trkpt><trkpt lat="44.5040473" lon="9.827053"><ele>416.0</ele><time>2026-04-26T10:23:07.94Z</time></trkpt><trkpt lat="44.5040449" lon="9.8268837"><ele>414.0</ele><time>2026-04-26T10:23:08.94Z</time></trkpt><trkpt lat="44.5040425" lon="9.8267287"><ele>412.0</ele><time>2026-04-26T10:23:09.94Z</time></trkpt><trkpt lat="44.5040303" lon="9.8265884"><ele>413.5</ele><time>2026-04-26T10:23:10.94Z</time></trkpt><trkpt lat="44.5039847" lon="9.8264631"><ele>415.0</ele><time>2026-04-26T10:23:11.94Z</time></trkpt><trkpt lat="44.5039166" lon="9.8263471"><ele>416.5</ele><time>2026-04-26T10:23:12.94Z</time></trkpt><trkpt lat="44.5038222" lon="9.8262433"><ele>418.0</ele><time>2026-04-26T10:23:13.94Z</time></trkpt><trkpt lat="44.5037138" lon="9.8261376"><ele>418.0</ele><time>2026-04-26T10:23:14.939Z</time></trkpt><trkpt lat="44.5036091" lon="9.8260256"><ele>418.0</ele><time>2026-04-26T10:23:15.94Z</time></trkpt><trkpt lat="44.5035161" lon="9.8258912"><ele>418.0</ele><time>2026-04-26T10:23:16.939Z</time></trkpt><trkpt lat="44.5034224" lon="9.8257416"><ele>418.0</ele><time>2026-04-26T10:23:17.94Z</time></trkpt><trkpt lat="44.5033232" lon="9.8255945"><ele>413.6666666666667</ele><time>2026-04-26T10:23:18.94Z</time></trkpt><trkpt lat="44.5032134" lon="9.8254545"><ele>409.33333333333337</ele><time>2026-04-26T10:23:19.94Z</time></trkpt><trkpt lat="44.5030872" lon="9.8253315"><ele>405.0</ele><time>2026-04-26T10:23:20.94Z</time></trkpt><trkpt lat="44.5029428" lon="9.8252474"><ele>404.5</ele><time>2026-04-26T10:23:21.94Z</time></trkpt><trkpt lat="44.5027868" lon="9.8252149"><ele>404.0</ele><time>2026-04-26T10:23:22.939Z</time></trkpt><trkpt lat="44.502638" lon="9.8252305"><ele>403.5</ele><time>2026-04-26T10:23:23.94Z</time></trkpt><trkpt lat="44.5025029" lon="9.8252929"><ele>403.0</ele><time>2026-04-26T10:23:24.94Z</time></trkpt><trkpt lat="44.5023949" lon="9.8254043"><ele>403.0</ele><time>2026-04-26T10:23:25.94Z</time></trkpt><trkpt lat="44.5023046" lon="9.8255528"><ele>403.0</ele><time>2026-04-26T10:23:26.94Z</time></trkpt><trkpt lat="44.5022085" lon="9.8257159"><ele>403.0</ele><time>2026-04-26T10:23:27.94Z</time></trkpt><trkpt lat="44.5020974" lon="9.8258553"><ele>403.0</ele><time>2026-04-26T10:23:28.94Z</time></trkpt><trkpt lat="44.5019633" lon="9.8259483"><ele>404.0</ele><time>2026-04-26T10:23:29.94Z</time></trkpt><trkpt lat="44.5018236" lon="9.8260236"><ele>405.0</ele><time>2026-04-26T10:23:30.94Z</time></trkpt><trkpt lat="44.501682" lon="9.8260959"><ele>406.0</ele><time>2026-04-26T10:23:31.94Z</time></trkpt><trkpt lat="44.5015456" lon="9.826158"><ele>407.0</ele><time>2026-04-26T10:23:32.94Z</time></trkpt><trkpt lat="44.5014141" lon="9.8262159"><ele>407.0</ele><time>2026-04-26T10:23:33.94Z</time></trkpt><trkpt lat="44.5012867" lon="9.8262474"><ele>407.0</ele><time>2026-04-26T10:23:34.94Z</time></trkpt><trkpt lat="44.5011653" lon="9.8262425"><ele>407.0</ele><time>2026-04-26T10:23:35.94Z</time></trkpt><trkpt lat="44.5010548" lon="9.8262019"><ele>407.0</ele><time>2026-04-26T10:23:36.94Z</time></trkpt><trkpt lat="44.500968" lon="9.8261004"><ele>403.5</ele><time>2026-04-26T10:23:37.94Z</time></trkpt><trkpt lat="44.5009267" lon="9.8259452"><ele>400.0</ele><time>2026-04-26T10:23:38.94Z</time></trkpt><trkpt lat="44.5009098" lon="9.8257342"><ele>396.5</ele><time>2026-04-26T10:23:39.939Z</time></trkpt><trkpt lat="44.5008968" lon="9.82552"><ele>393.0</ele><time>2026-04-26T10:23:40.939Z</time></trkpt><trkpt lat="44.5008948" lon="9.8253256"><ele>393.25</ele><time>2026-04-26T10:23:41.94Z</time></trkpt><trkpt lat="44.5009057" lon="9.8251405"><ele>393.5</ele><time>2026-04-26T10:23:42.94Z</time></trkpt><trkpt lat="44.5009108" lon="9.8249576"><ele>393.75</ele><time>2026-04-26T10:23:43.94Z</time></trkpt><trkpt lat="44.5009137" lon="9.8247853"><ele>394.0</ele><time>2026-04-26T10:23:44.94Z</time></trkpt><trkpt lat="44.5009009" lon="9.8246279"><ele>394.0</ele><time>2026-04-26T10:23:45.94Z</time></trkpt><trkpt lat="44.5008547" lon="9.8244944"><ele>394.0</ele><time>2026-04-26T10:23:46.94Z</time></trkpt><trkpt lat="44.5007774" lon="9.8244013"><ele>394.0</ele><time>2026-04-26T10:23:47.94Z</time></trkpt><trkpt lat="44.500668" lon="9.824361"><ele>394.0</ele><time>2026-04-26T10:23:48.94Z</time></trkpt><trkpt lat="44.5005357" lon="9.8243721"><ele>397.0</ele><time>2026-04-26T10:23:49.939Z</time></trkpt><trkpt lat="44.5003893" lon="9.8244004"><ele>400.0</ele><time>2026-04-26T10:23:50.94Z</time></trkpt><trkpt lat="44.5002324" lon="9.824434"><ele>403.0</ele><time>2026-04-26T10:23:51.94Z</time></trkpt><trkpt lat="44.5000705" lon="9.8244486"><ele>403.0</ele><time>2026-04-26T10:23:52.94Z</time></trkpt><trkpt lat="44.499921" lon="9.8244282"><ele>403.0</ele><time>2026-04-26T10:23:53.94Z</time></trkpt><trkpt lat="44.499772" lon="9.8243678"><ele>403.0</ele><time>2026-04-26T10:23:54.94Z</time></trkpt><trkpt lat="44.4996454" lon="9.8242406"><ele>401.6666666666667</ele><time>2026-04-26T10:23:55.94Z</time></trkpt><trkpt lat="44.4995398" lon="9.8240621"><ele>400.33333333333337</ele><time>2026-04-26T10:23:56.94Z</time></trkpt><trkpt lat="44.4994545" lon="9.823855"><ele>399.0</ele><time>2026-04-26T10:23:57.94Z</time></trkpt><trkpt lat="44.4993948" lon="9.8236513"><ele>397.5</ele><time>2026-04-26T10:23:58.94Z</time></trkpt><trkpt lat="44.4993637" lon="9.8234587"><ele>396.0</ele><time>2026-04-26T10:23:59.94Z</time></trkpt><trkpt lat="44.4993592" lon="9.8232762"><ele>394.5</ele><time>2026-04-26T10:24:00.94Z</time></trkpt><trkpt lat="44.499367" lon="9.8231028"><ele>393.0</ele><time>2026-04-26T10:24:01.94Z</time></trkpt><trkpt lat="44.4993613" lon="9.8229285"><ele>393.0</ele><time>2026-04-26T10:24:02.94Z</time></trkpt><trkpt lat="44.4993273" lon="9.8227485"><ele>393.0</ele><time>2026-04-26T10:24:03.94Z</time></trkpt><trkpt lat="44.4992656" lon="9.8225718"><ele>393.0</ele><time>2026-04-26T10:24:04.94Z</time></trkpt><trkpt lat="44.4991806" lon="9.8223977"><ele>393.0</ele><time>2026-04-26T10:24:05.939Z</time></trkpt><trkpt lat="44.4990837" lon="9.8222228"><ele>390.66666666666663</ele><time>2026-04-26T10:24:06.94Z</time></trkpt><trkpt lat="44.4989777" lon="9.8220408"><ele>388.3333333333333</ele><time>2026-04-26T10:24:07.94Z</time></trkpt><trkpt lat="44.4988714" lon="9.8218496"><ele>386.0</ele><time>2026-04-26T10:24:08.94Z</time></trkpt><trkpt lat="44.4987613" lon="9.8216566"><ele>388.66666666666663</ele><time>2026-04-26T10:24:09.939Z</time></trkpt><trkpt lat="44.4986579" lon="9.8214621"><ele>391.33333333333337</ele><time>2026-04-26T10:24:10.94Z</time></trkpt><trkpt lat="44.4985557" lon="9.8212597"><ele>394.0</ele><time>2026-04-26T10:24:11.94Z</time></trkpt><trkpt lat="44.4984562" lon="9.8210434"><ele>394.0</ele><time>2026-04-26T10:24:12.94Z</time></trkpt><trkpt lat="44.4983745" lon="9.8208121"><ele>394.0</ele><time>2026-04-26T10:24:13.94Z</time></trkpt><trkpt lat="44.4983241" lon="9.8205666"><ele>394.0</ele><time>2026-04-26T10:24:14.94Z</time></trkpt><trkpt lat="44.49829" lon="9.8203154"><ele>394.0</ele><time>2026-04-26T10:24:15.94Z</time></trkpt><trkpt lat="44.4982592" lon="9.8200675"><ele>394.0</ele><time>2026-04-26T10:24:16.94Z</time></trkpt><trkpt lat="44.4982196" lon="9.819823"><ele>394.0</ele><time>2026-04-26T10:24:17.939Z</time></trkpt><trkpt lat="44.4981639" lon="9.8195949"><ele>394.0</ele><time>2026-04-26T10:24:18.939Z</time></trkpt><trkpt lat="44.49808" lon="9.8193943"><ele>394.0</ele><time>2026-04-26T10:24:19.939Z</time></trkpt><trkpt lat="44.4979854" lon="9.8192145"><ele>394.0</ele><time>2026-04-26T10:24:20.938Z</time></trkpt><trkpt lat="44.4978745" lon="9.819061"><ele>394.25</ele><time>2026-04-26T10:24:21.939Z</time></trkpt><trkpt lat="44.4977704" lon="9.8189307"><ele>394.5</ele><time>2026-04-26T10:24:22.939Z</time></trkpt><trkpt lat="44.4976842" lon="9.8187894"><ele>394.75</ele><time>2026-04-26T10:24:23.939Z</time></trkpt><trkpt lat="44.4976275" lon="9.8186313"><ele>395.0</ele><time>2026-04-26T10:24:24.939Z</time></trkpt><trkpt lat="44.4976034" lon="9.8184584"><ele>395.0</ele><time>2026-04-26T10:24:25.939Z</time></trkpt><trkpt lat="44.4976021" lon="9.8182738"><ele>395.0</ele><time>2026-04-26T10:24:26.938Z</time></trkpt><trkpt lat="44.4976088" lon="9.8180759"><ele>395.0</ele><time>2026-04-26T10:24:27.939Z</time></trkpt><trkpt lat="44.4976195" lon="9.8178616"><ele>395.0</ele><time>2026-04-26T10:24:28.939Z</time></trkpt><trkpt lat="44.4976284" lon="9.8176311"><ele>395.3333333333333</ele><time>2026-04-26T10:24:29.939Z</time></trkpt><trkpt lat="44.4976419" lon="9.8173928"><ele>395.66666666666663</ele><time>2026-04-26T10:24:30.939Z</time></trkpt><trkpt lat="44.4976774" lon="9.8171597"><ele>396.0</ele><time>2026-04-26T10:24:31.939Z</time></trkpt><trkpt lat="44.497742" lon="9.8169534"><ele>397.25</ele><time>2026-04-26T10:24:32.939Z</time></trkpt><trkpt lat="44.4978363" lon="9.8167916"><ele>398.5</ele><time>2026-04-26T10:24:33.939Z</time></trkpt><trkpt lat="44.4979412" lon="9.8166499"><ele>399.75</ele><time>2026-04-26T10:24:34.939Z</time></trkpt><trkpt lat="44.4980401" lon="9.8164957"><ele>401.0</ele><time>2026-04-26T10:24:35.938Z</time></trkpt><trkpt lat="44.4981182" lon="9.8163194"><ele>397.66666666666663</ele><time>2026-04-26T10:24:36.939Z</time></trkpt><trkpt lat="44.4981559" lon="9.816118"><ele>394.33333333333337</ele><time>2026-04-26T10:24:37.939Z</time></trkpt><trkpt lat="44.4981696" lon="9.8158941"><ele>391.0</ele><time>2026-04-26T10:24:38.939Z</time></trkpt><trkpt lat="44.4981558" lon="9.8156631"><ele>391.0</ele><time>2026-04-26T10:24:39.939Z</time></trkpt><trkpt lat="44.4981509" lon="9.8154364"><ele>391.0</ele><time>2026-04-26T10:24:40.938Z</time></trkpt><trkpt lat="44.4981843" lon="9.8152197"><ele>391.0</ele><time>2026-04-26T10:24:41.938Z</time></trkpt><trkpt lat="44.4982496" lon="9.8150286"><ele>392.0</ele><time>2026-04-26T10:24:42.938Z</time></trkpt><trkpt lat="44.4983058" lon="9.8148439"><ele>393.0</ele><time>2026-04-26T10:24:43.939Z</time></trkpt><trkpt lat="44.4983328" lon="9.8146502"><ele>394.0</ele><time>2026-04-26T10:24:44.938Z</time></trkpt><trkpt lat="44.4983286" lon="9.8144424"><ele>395.0</ele><time>2026-04-26T10:24:45.939Z</time></trkpt><trkpt lat="44.4982889" lon="9.8142366"><ele>395.0</ele><time>2026-04-26T10:24:46.938Z</time></trkpt><trkpt lat="44.4982147" lon="9.8140453"><ele>395.0</ele><time>2026-04-26T10:24:47.939Z</time></trkpt><trkpt lat="44.4981244" lon="9.8138639"><ele>395.0</ele><time>2026-04-26T10:24:48.939Z</time></trkpt><trkpt lat="44.4980389" lon="9.8136769"><ele>395.0</ele><time>2026-04-26T10:24:49.939Z</time></trkpt><trkpt lat="44.4979888" lon="9.8134898"><ele>395.0</ele><time>2026-04-26T10:24:50.939Z</time></trkpt><trkpt lat="44.4979856" lon="9.8133007"><ele>395.0</ele><time>2026-04-26T10:24:51.939Z</time></trkpt><trkpt lat="44.4980014" lon="9.8131135"><ele>395.0</ele><time>2026-04-26T10:24:52.939Z</time></trkpt><trkpt lat="44.4979822" lon="9.8129323"><ele>393.8</ele><time>2026-04-26T10:24:53.939Z</time></trkpt><trkpt lat="44.4979276" lon="9.8127886"><ele>392.6</ele><time>2026-04-26T10:24:54.939Z</time></trkpt><trkpt lat="44.4978737" lon="9.8126937"><ele>391.4</ele><time>2026-04-26T10:24:55.939Z</time></trkpt><trkpt lat="44.4977941" lon="9.8126036"><ele>390.2</ele><time>2026-04-26T10:24:57.939Z</time></trkpt><trkpt lat="44.4977331" lon="9.8125753"><ele>389.0</ele><time>2026-04-26T10:24:59.939Z</time></trkpt><trkpt lat="44.4976446" lon="9.8124746"><ele>393.0</ele><time>2026-04-26T10:25:01.939Z</time></trkpt><trkpt lat="44.4975862" lon="9.8123866"><ele>397.0</ele><time>2026-04-26T10:25:02.939Z</time></trkpt><trkpt lat="44.497513" lon="9.8122769"><ele>401.0</ele><time>2026-04-26T10:25:03.939Z</time></trkpt><trkpt lat="44.4974485" lon="9.8121555"><ele>405.0</ele><time>2026-04-26T10:25:04.939Z</time></trkpt><trkpt lat="44.4974025" lon="9.8120225"><ele>409.0</ele><time>2026-04-26T10:25:05.938Z</time></trkpt><trkpt lat="44.4973754" lon="9.8119034"><ele>408.00000000000006</ele><time>2026-04-26T10:25:06.939Z</time></trkpt><trkpt lat="44.4973626" lon="9.8118009"><ele>407.0</ele><time>2026-04-26T10:25:07.939Z</time></trkpt><trkpt lat="44.497357" lon="9.8116946"><ele>406.0</ele><time>2026-04-26T10:25:08.939Z</time></trkpt><trkpt lat="44.4973451" lon="9.811573"><ele>405.0</ele><time>2026-04-26T10:25:09.939Z</time></trkpt><trkpt lat="44.4973283" lon="9.8114502"><ele>404.00000000000006</ele><time>2026-04-26T10:25:10.939Z</time></trkpt><trkpt lat="44.4973195" lon="9.8113379"><ele>403.0</ele><time>2026-04-26T10:25:11.939Z</time></trkpt><trkpt lat="44.4973131" lon="9.8112319"><ele>403.00000000000006</ele><time>2026-04-26T10:25:12.939Z</time></trkpt><trkpt lat="44.4973082" lon="9.8111286"><ele>403.0</ele><time>2026-04-26T10:25:13.939Z</time></trkpt><trkpt lat="44.4972984" lon="9.8110157"><ele>403.0</ele><time>2026-04-26T10:25:14.938Z</time></trkpt><trkpt lat="44.4972799" lon="9.8109179"><ele>403.0</ele><time>2026-04-26T10:25:15.938Z</time></trkpt><trkpt lat="44.4972557" lon="9.810831"><ele>403.00000000000006</ele><time>2026-04-26T10:25:16.939Z</time></trkpt><trkpt lat="44.4972184" lon="9.8107549"><ele>403.0</ele><time>2026-04-26T10:25:17.939Z</time></trkpt><trkpt lat="44.4971372" lon="9.8106323"><ele>404.75</ele><time>2026-04-26T10:25:19.939Z</time></trkpt><trkpt lat="44.4970711" lon="9.8104865"><ele>406.5</ele><time>2026-04-26T10:25:21.939Z</time></trkpt><trkpt lat="44.4970698" lon="9.8102978"><ele>408.25</ele><time>2026-04-26T10:25:23.938Z</time></trkpt><trkpt lat="44.4970791" lon="9.8101637"><ele>410.0</ele><time>2026-04-26T10:25:24.938Z</time></trkpt><trkpt lat="44.4970741" lon="9.8100006"><ele>410.0</ele><time>2026-04-26T10:25:25.939Z</time></trkpt><trkpt lat="44.4970488" lon="9.8098249"><ele>410.0</ele><time>2026-04-26T10:25:26.939Z</time></trkpt><trkpt lat="44.4969985" lon="9.8096513"><ele>410.0</ele><time>2026-04-26T10:25:27.939Z</time></trkpt><trkpt lat="44.4969291" lon="9.809476"><ele>410.0</ele><time>2026-04-26T10:25:28.939Z</time></trkpt><trkpt lat="44.496853" lon="9.8093161"><ele>409.0</ele><time>2026-04-26T10:25:29.939Z</time></trkpt><trkpt lat="44.4967839" lon="9.8091742"><ele>408.0</ele><time>2026-04-26T10:25:30.939Z</time></trkpt><trkpt lat="44.496722" lon="9.8090389"><ele>407.0</ele><time>2026-04-26T10:25:31.939Z</time></trkpt><trkpt lat="44.4966533" lon="9.8089079"><ele>406.0</ele><time>2026-04-26T10:25:32.939Z</time></trkpt><trkpt lat="44.496575" lon="9.8087748"><ele>406.0</ele><time>2026-04-26T10:25:33.939Z</time></trkpt><trkpt lat="44.4964896" lon="9.8086455"><ele>406.0</ele><time>2026-04-26T10:25:34.939Z</time></trkpt><trkpt lat="44.4964068" lon="9.8085103"><ele>406.0</ele><time>2026-04-26T10:25:35.939Z</time></trkpt><trkpt lat="44.4963339" lon="9.8083591"><ele>406.0</ele><time>2026-04-26T10:25:36.939Z</time></trkpt><trkpt lat="44.4962759" lon="9.8081774"><ele>407.6666666666667</ele><time>2026-04-26T10:25:37.939Z</time></trkpt><trkpt lat="44.4962346" lon="9.8079765"><ele>409.33333333333337</ele><time>2026-04-26T10:25:38.939Z</time></trkpt><trkpt lat="44.4962012" lon="9.8077692"><ele>411.0</ele><time>2026-04-26T10:25:39.938Z</time></trkpt><trkpt lat="44.496165" lon="9.8075658"><ele>411.0</ele><time>2026-04-26T10:25:40.938Z</time></trkpt><trkpt lat="44.4961185" lon="9.8073831"><ele>411.0</ele><time>2026-04-26T10:25:41.938Z</time></trkpt><trkpt lat="44.4960557" lon="9.8072299"><ele>411.0</ele><time>2026-04-26T10:25:42.939Z</time></trkpt><trkpt lat="44.4959856" lon="9.8070923"><ele>411.0</ele><time>2026-04-26T10:25:43.939Z</time></trkpt><trkpt lat="44.4959302" lon="9.8069414"><ele>410.25</ele><time>2026-04-26T10:25:44.939Z</time></trkpt><trkpt lat="44.4959032" lon="9.8067912"><ele>409.5</ele><time>2026-04-26T10:25:45.939Z</time></trkpt><trkpt lat="44.495903" lon="9.8066371"><ele>408.75</ele><time>2026-04-26T10:25:46.938Z</time></trkpt><trkpt lat="44.4959256" lon="9.8064766"><ele>408.0</ele><time>2026-04-26T10:25:47.939Z</time></trkpt><trkpt lat="44.4959481" lon="9.8062995"><ele>408.0</ele><time>2026-04-26T10:25:48.939Z</time></trkpt><trkpt lat="44.4959469" lon="9.8061242"><ele>408.0</ele><time>2026-04-26T10:25:49.939Z</time></trkpt><trkpt lat="44.4959203" lon="9.8059663"><ele>408.0</ele><time>2026-04-26T10:25:50.939Z</time></trkpt><trkpt lat="44.4958713" lon="9.8058292"><ele>408.0</ele><time>2026-04-26T10:25:51.938Z</time></trkpt><trkpt lat="44.4957915" lon="9.8057144"><ele>406.5</ele><time>2026-04-26T10:25:52.938Z</time></trkpt><trkpt lat="44.4956902" lon="9.8056315"><ele>405.0</ele><time>2026-04-26T10:25:53.938Z</time></trkpt><trkpt lat="44.4955684" lon="9.8055649"><ele>403.5</ele><time>2026-04-26T10:25:54.939Z</time></trkpt><trkpt lat="44.4954469" lon="9.8055125"><ele>402.0</ele><time>2026-04-26T10:25:55.939Z</time></trkpt><trkpt lat="44.4953454" lon="9.8054536"><ele>405.20000000000005</ele><time>2026-04-26T10:25:56.939Z</time></trkpt><trkpt lat="44.495267" lon="9.8053658"><ele>408.4</ele><time>2026-04-26T10:25:57.939Z</time></trkpt><trkpt lat="44.4952056" lon="9.8052554"><ele>411.6</ele><time>2026-04-26T10:25:58.939Z</time></trkpt><trkpt lat="44.4951779" lon="9.8051313"><ele>414.79999999999995</ele><time>2026-04-26T10:25:59.939Z</time></trkpt><trkpt lat="44.4951859" lon="9.8049932"><ele>418.0</ele><time>2026-04-26T10:26:00.939Z</time></trkpt><trkpt lat="44.4952375" lon="9.8048472"><ele>418.0</ele><time>2026-04-26T10:26:01.939Z</time></trkpt><trkpt lat="44.4953092" lon="9.8046974"><ele>418.0</ele><time>2026-04-26T10:26:02.939Z</time></trkpt><trkpt lat="44.4953872" lon="9.8045362"><ele>418.0</ele><time>2026-04-26T10:26:03.939Z</time></trkpt><trkpt lat="44.4954497" lon="9.8043606"><ele>418.0</ele><time>2026-04-26T10:26:04.939Z</time></trkpt><trkpt lat="44.4954776" lon="9.8041795"><ele>418.5</ele><time>2026-04-26T10:26:05.939Z</time></trkpt><trkpt lat="44.4954675" lon="9.803995"><ele>419.0</ele><time>2026-04-26T10:26:06.939Z</time></trkpt><trkpt lat="44.4954235" lon="9.803803"><ele>419.5</ele><time>2026-04-26T10:26:07.939Z</time></trkpt><trkpt lat="44.4953518" lon="9.8036192"><ele>420.0</ele><time>2026-04-26T10:26:08.938Z</time></trkpt><trkpt lat="44.4952625" lon="9.8034313"><ele>420.0</ele><time>2026-04-26T10:26:09.939Z</time></trkpt><trkpt lat="44.4951645" lon="9.8032389"><ele>420.0</ele><time>2026-04-26T10:26:10.938Z</time></trkpt><trkpt lat="44.4950713" lon="9.8030512"><ele>420.0</ele><time>2026-04-26T10:26:11.939Z</time></trkpt><trkpt lat="44.4949693" lon="9.8028602"><ele>420.0</ele><time>2026-04-26T10:26:12.939Z</time></trkpt><trkpt lat="44.4948678" lon="9.8026748"><ele>420.0</ele><time>2026-04-26T10:26:13.939Z</time></trkpt><trkpt lat="44.4947443" lon="9.8025022"><ele>420.0</ele><time>2026-04-26T10:26:14.939Z</time></trkpt><trkpt lat="44.4946106" lon="9.8023428"><ele>421.66666666666663</ele><time>2026-04-26T10:26:15.939Z</time></trkpt><trkpt lat="44.494485" lon="9.8021716"><ele>423.3333333333333</ele><time>2026-04-26T10:26:16.938Z</time></trkpt><trkpt lat="44.4943763" lon="9.8019889"><ele>425.0</ele><time>2026-04-26T10:26:17.939Z</time></trkpt><trkpt lat="44.4942867" lon="9.8017983"><ele>425.0</ele><time>2026-04-26T10:26:18.939Z</time></trkpt><trkpt lat="44.494215" lon="9.8015933"><ele>425.0</ele><time>2026-04-26T10:26:19.938Z</time></trkpt><trkpt lat="44.4941667" lon="9.8013833"><ele>425.0</ele><time>2026-04-26T10:26:20.939Z</time></trkpt><trkpt lat="44.4941383" lon="9.8011833"><ele>423.75</ele><time>2026-04-26T10:26:21.939Z</time></trkpt><trkpt lat="44.4941183" lon="9.8009867"><ele>422.5</ele><time>2026-04-26T10:26:22.938Z</time></trkpt><trkpt lat="44.4940783" lon="9.8008017"><ele>421.25</ele><time>2026-04-26T10:26:23.939Z</time></trkpt><trkpt lat="44.4940067" lon="9.8006267"><ele>420.0</ele><time>2026-04-26T10:26:24.939Z</time></trkpt><trkpt lat="44.49389" lon="9.8004717"><ele>420.0</ele><time>2026-04-26T10:26:25.939Z</time></trkpt><trkpt lat="44.4937567" lon="9.80034"><ele>420.0</ele><time>2026-04-26T10:26:26.938Z</time></trkpt><trkpt lat="44.4936333" lon="9.8002083"><ele>420.0</ele><time>2026-04-26T10:26:27.939Z</time></trkpt><trkpt lat="44.4935383" lon="9.80006"><ele>421.5</ele><time>2026-04-26T10:26:28.939Z</time></trkpt><trkpt lat="44.4934517" lon="9.79991"><ele>423.0</ele><time>2026-04-26T10:26:29.939Z</time></trkpt><trkpt lat="44.493385" lon="9.7997633"><ele>424.5</ele><time>2026-04-26T10:26:30.939Z</time></trkpt><trkpt lat="44.493345" lon="9.7996217"><ele>426.0</ele><time>2026-04-26T10:26:31.939Z</time></trkpt><trkpt lat="44.4933367" lon="9.7994883"><ele>426.0</ele><time>2026-04-26T10:26:32.939Z</time></trkpt><trkpt lat="44.4933433" lon="9.799355"><ele>426.0</ele><time>2026-04-26T10:26:33.939Z</time></trkpt><trkpt lat="44.4933483" lon="9.7992083"><ele>426.0</ele><time>2026-04-26T10:26:34.939Z</time></trkpt><trkpt lat="44.493315" lon="9.79908"><ele>426.0</ele><time>2026-04-26T10:26:35.939Z</time></trkpt><trkpt lat="44.4932467" lon="9.7989483"><ele>426.0</ele><time>2026-04-26T10:26:36.938Z</time></trkpt><trkpt lat="44.493145" lon="9.7988367"><ele>427.0</ele><time>2026-04-26T10:26:37.939Z</time></trkpt><trkpt lat="44.4930217" lon="9.7987433"><ele>428.0</ele><time>2026-04-26T10:26:38.939Z</time></trkpt><trkpt lat="44.4928833" lon="9.7986483"><ele>429.0</ele><time>2026-04-26T10:26:39.939Z</time></trkpt><trkpt lat="44.492755" lon="9.7985467"><ele>430.0</ele><time>2026-04-26T10:26:40.939Z</time></trkpt><trkpt lat="44.49264" lon="9.7984533"><ele>427.25</ele><time>2026-04-26T10:26:41.939Z</time></trkpt><trkpt lat="44.4925333" lon="9.7983517"><ele>424.5</ele><time>2026-04-26T10:26:42.938Z</time></trkpt><trkpt lat="44.492435" lon="9.7982617"><ele>421.75</ele><time>2026-04-26T10:26:43.939Z</time></trkpt><trkpt lat="44.49235" lon="9.798175"><ele>419.0</ele><time>2026-04-26T10:26:44.939Z</time></trkpt><trkpt lat="44.4922717" lon="9.7980833"><ele>419.0</ele><time>2026-04-26T10:26:45.939Z</time></trkpt><trkpt lat="44.4921933" lon="9.797995"><ele>419.0</ele><time>2026-04-26T10:26:46.939Z</time></trkpt><trkpt lat="44.4921133" lon="9.7979117"><ele>419.0</ele><time>2026-04-26T10:26:47.938Z</time></trkpt><trkpt lat="44.4920367" lon="9.797835"><ele>419.0</ele><time>2026-04-26T10:26:48.939Z</time></trkpt><trkpt lat="44.491965" lon="9.7977533"><ele>419.0</ele><time>2026-04-26T10:26:49.939Z</time></trkpt><trkpt lat="44.49189" lon="9.7976833"><ele>419.8333333333333</ele><time>2026-04-26T10:26:50.939Z</time></trkpt><trkpt lat="44.4918233" lon="9.7976183"><ele>420.66666666666663</ele><time>2026-04-26T10:26:51.939Z</time></trkpt><trkpt lat="44.4917467" lon="9.79756"><ele>421.5</ele><time>2026-04-26T10:26:52.938Z</time></trkpt><trkpt lat="44.4916733" lon="9.7974917"><ele>422.33333333333337</ele><time>2026-04-26T10:26:53.939Z</time></trkpt><trkpt lat="44.491615" lon="9.7974067"><ele>423.1666666666667</ele><time>2026-04-26T10:26:54.939Z</time></trkpt><trkpt lat="44.49156" lon="9.7973067"><ele>424.0</ele><time>2026-04-26T10:26:55.938Z</time></trkpt><trkpt lat="44.491525" lon="9.7971933"><ele>424.0</ele><time>2026-04-26T10:26:56.939Z</time></trkpt><trkpt lat="44.49149" lon="9.79707"><ele>424.0</ele><time>2026-04-26T10:26:57.939Z</time></trkpt><trkpt lat="44.491465" lon="9.796945"><ele>424.0</ele><time>2026-04-26T10:26:58.939Z</time></trkpt><trkpt lat="44.491425" lon="9.7968233"><ele>424.0</ele><time>2026-04-26T10:26:59.939Z</time></trkpt><trkpt lat="44.491365" lon="9.79671"><ele>424.0</ele><time>2026-04-26T10:27:00.938Z</time></trkpt><trkpt lat="44.4912983" lon="9.7966067"><ele>425.5</ele><time>2026-04-26T10:27:01.939Z</time></trkpt><trkpt lat="44.4912217" lon="9.796515"><ele>427.0</ele><time>2026-04-26T10:27:02.939Z</time></trkpt><trkpt lat="44.491145" lon="9.7964117"><ele>428.5</ele><time>2026-04-26T10:27:03.939Z</time></trkpt><trkpt lat="44.49106" lon="9.7962933"><ele>430.0</ele><time>2026-04-26T10:27:04.938Z</time></trkpt><trkpt lat="44.4909567" lon="9.7961667"><ele>430.0</ele><time>2026-04-26T10:27:05.939Z</time></trkpt><trkpt lat="44.4908533" lon="9.7960217"><ele>430.0</ele><time>2026-04-26T10:27:06.938Z</time></trkpt><trkpt lat="44.490745" lon="9.7958617"><ele>430.0</ele><time>2026-04-26T10:27:07.939Z</time></trkpt><trkpt lat="44.4906483" lon="9.7957133"><ele>430.0</ele><time>2026-04-26T10:27:08.939Z</time></trkpt><trkpt lat="44.49057" lon="9.795565"><ele>428.75</ele><time>2026-04-26T10:27:09.939Z</time></trkpt><trkpt lat="44.4905117" lon="9.79541"><ele>427.5</ele><time>2026-04-26T10:27:10.938Z</time></trkpt><trkpt lat="44.49047" lon="9.7952433"><ele>426.25</ele><time>2026-04-26T10:27:11.939Z</time></trkpt><trkpt lat="44.4904417" lon="9.795065"><ele>425.0</ele><time>2026-04-26T10:27:12.939Z</time></trkpt><trkpt lat="44.490405" lon="9.7948833"><ele>425.4</ele><time>2026-04-26T10:27:13.939Z</time></trkpt><trkpt lat="44.4903633" lon="9.794725"><ele>425.8</ele><time>2026-04-26T10:27:14.939Z</time></trkpt><trkpt lat="44.49032" lon="9.79458"><ele>426.20000000000005</ele><time>2026-04-26T10:27:15.939Z</time></trkpt><trkpt lat="44.4902733" lon="9.79445"><ele>426.6</ele><time>2026-04-26T10:27:16.939Z</time></trkpt><trkpt lat="44.49021" lon="9.7943383"><ele>427.0</ele><time>2026-04-26T10:27:17.939Z</time></trkpt><trkpt lat="44.4901183" lon="9.794245"><ele>427.0</ele><time>2026-04-26T10:27:18.939Z</time></trkpt><trkpt lat="44.4900017" lon="9.7941817"><ele>427.0</ele><time>2026-04-26T10:27:19.939Z</time></trkpt><trkpt lat="44.4898767" lon="9.7941533"><ele>427.0</ele><time>2026-04-26T10:27:20.938Z</time></trkpt><trkpt lat="44.4897517" lon="9.7941367"><ele>427.0</ele><time>2026-04-26T10:27:21.939Z</time></trkpt><trkpt lat="44.4896433" lon="9.7940967"><ele>428.75</ele><time>2026-04-26T10:27:22.939Z</time></trkpt><trkpt lat="44.4895567" lon="9.7940017"><ele>430.5</ele><time>2026-04-26T10:27:23.938Z</time></trkpt><trkpt lat="44.4894817" lon="9.7938683"><ele>432.25</ele><time>2026-04-26T10:27:24.939Z</time></trkpt><trkpt lat="44.489425" lon="9.7937"><ele>434.0</ele><time>2026-04-26T10:27:25.939Z</time></trkpt><trkpt lat="44.4893817" lon="9.79352"><ele>432.0</ele><time>2026-04-26T10:27:26.938Z</time></trkpt><trkpt lat="44.4893583" lon="9.7933033"><ele>430.0</ele><time>2026-04-26T10:27:27.938Z</time></trkpt><trkpt lat="44.4893217" lon="9.79309"><ele>428.0</ele><time>2026-04-26T10:27:28.939Z</time></trkpt><trkpt lat="44.4892783" lon="9.7928733"><ele>427.66666666666663</ele><time>2026-04-26T10:27:29.938Z</time></trkpt><trkpt lat="44.48924" lon="9.7926567"><ele>427.33333333333337</ele><time>2026-04-26T10:27:30.939Z</time></trkpt><trkpt lat="44.4891983" lon="9.7924467"><ele>427.0</ele><time>2026-04-26T10:27:31.939Z</time></trkpt><trkpt lat="44.4891617" lon="9.7922533"><ele>427.0</ele><time>2026-04-26T10:27:32.939Z</time></trkpt><trkpt lat="44.48913" lon="9.7920783"><ele>427.0</ele><time>2026-04-26T10:27:33.939Z</time></trkpt><trkpt lat="44.489085" lon="9.7919267"><ele>427.0</ele><time>2026-04-26T10:27:34.939Z</time></trkpt><trkpt lat="44.4890167" lon="9.7917967"><ele>427.0</ele><time>2026-04-26T10:27:35.939Z</time></trkpt><trkpt lat="44.48892" lon="9.7916967"><ele>426.5</ele><time>2026-04-26T10:27:36.939Z</time></trkpt><trkpt lat="44.4888083" lon="9.7916117"><ele>426.0</ele><time>2026-04-26T10:27:37.939Z</time></trkpt><trkpt lat="44.4886917" lon="9.7915217"><ele>425.5</ele><time>2026-04-26T10:27:38.938Z</time></trkpt><trkpt lat="44.4885817" lon="9.791405"><ele>425.0</ele><time>2026-04-26T10:27:39.939Z</time></trkpt><trkpt lat="44.4884867" lon="9.7912717"><ele>426.75</ele><time>2026-04-26T10:27:40.939Z</time></trkpt><trkpt lat="44.4884" lon="9.791135"><ele>428.5</ele><time>2026-04-26T10:27:41.939Z</time></trkpt><trkpt lat="44.4883367" lon="9.79099"><ele>430.25</ele><time>2026-04-26T10:27:42.938Z</time></trkpt><trkpt lat="44.4882933" lon="9.790835"><ele>432.0</ele><time>2026-04-26T10:27:43.939Z</time></trkpt><trkpt lat="44.4882817" lon="9.7906617"><ele>432.0</ele><time>2026-04-26T10:27:44.938Z</time></trkpt><trkpt lat="44.488275" lon="9.7904733"><ele>432.0</ele><time>2026-04-26T10:27:45.938Z</time></trkpt><trkpt lat="44.4882733" lon="9.7902717"><ele>432.0</ele><time>2026-04-26T10:27:46.939Z</time></trkpt><trkpt lat="44.4882533" lon="9.7900817"><ele>432.0</ele><time>2026-04-26T10:27:47.939Z</time></trkpt><trkpt lat="44.4882167" lon="9.78991"><ele>433.25</ele><time>2026-04-26T10:27:48.939Z</time></trkpt><trkpt lat="44.4881667" lon="9.789755"><ele>434.5</ele><time>2026-04-26T10:27:49.939Z</time></trkpt><trkpt lat="44.4880917" lon="9.7896167"><ele>435.75</ele><time>2026-04-26T10:27:50.939Z</time></trkpt><trkpt lat="44.4879917" lon="9.789495"><ele>437.0</ele><time>2026-04-26T10:27:51.939Z</time></trkpt><trkpt lat="44.487875" lon="9.7893817"><ele>435.0</ele><time>2026-04-26T10:27:52.939Z</time></trkpt><trkpt lat="44.487735" lon="9.78928"><ele>433.0</ele><time>2026-04-26T10:27:53.939Z</time></trkpt><trkpt lat="44.4875967" lon="9.7891767"><ele>431.0</ele><time>2026-04-26T10:27:54.939Z</time></trkpt><trkpt lat="44.4874867" lon="9.7890767"><ele>429.0</ele><time>2026-04-26T10:27:55.938Z</time></trkpt><trkpt lat="44.4874017" lon="9.7889467"><ele>429.0</ele><time>2026-04-26T10:27:56.939Z</time></trkpt><trkpt lat="44.4873333" lon="9.788785"><ele>429.0</ele><time>2026-04-26T10:27:57.938Z</time></trkpt><trkpt lat="44.4872867" lon="9.7885933"><ele>429.0</ele><time>2026-04-26T10:27:58.939Z</time></trkpt><trkpt lat="44.4872567" lon="9.7883833"><ele>429.0</ele><time>2026-04-26T10:27:59.939Z</time></trkpt><trkpt lat="44.4872267" lon="9.7881717"><ele>427.75</ele><time>2026-04-26T10:28:00.939Z</time></trkpt><trkpt lat="44.4872067" lon="9.7879717"><ele>426.5</ele><time>2026-04-26T10:28:01.939Z</time></trkpt><trkpt lat="44.4872217" lon="9.78778"><ele>425.25</ele><time>2026-04-26T10:28:02.938Z</time></trkpt><trkpt lat="44.4872933" lon="9.7875933"><ele>424.0</ele><time>2026-04-26T10:28:03.938Z</time></trkpt><trkpt lat="44.4874017" lon="9.7874283"><ele>424.0</ele><time>2026-04-26T10:28:04.939Z</time></trkpt><trkpt lat="44.4875167" lon="9.7872833"><ele>424.0</ele><time>2026-04-26T10:28:05.939Z</time></trkpt><trkpt lat="44.4876167" lon="9.7871367"><ele>424.0</ele><time>2026-04-26T10:28:06.939Z</time></trkpt><trkpt lat="44.487705" lon="9.7869983"><ele>424.0</ele><time>2026-04-26T10:28:07.939Z</time></trkpt><trkpt lat="44.487785" lon="9.7868717"><ele>424.5</ele><time>2026-04-26T10:28:08.938Z</time></trkpt><trkpt lat="44.4878417" lon="9.7867333"><ele>425.0</ele><time>2026-04-26T10:28:09.939Z</time></trkpt><trkpt lat="44.4878783" lon="9.7865617"><ele>425.5</ele><time>2026-04-26T10:28:10.939Z</time></trkpt><trkpt lat="44.4878817" lon="9.7863867"><ele>426.0</ele><time>2026-04-26T10:28:11.939Z</time></trkpt><trkpt lat="44.4878467" lon="9.7862233"><ele>426.0</ele><time>2026-04-26T10:28:12.939Z</time></trkpt><trkpt lat="44.48777" lon="9.786085"><ele>426.0</ele><time>2026-04-26T10:28:13.939Z</time></trkpt><trkpt lat="44.487665" lon="9.78597"><ele>426.0</ele><time>2026-04-26T10:28:14.939Z</time></trkpt><trkpt lat="44.4875367" lon="9.78589"><ele>426.0</ele><time>2026-04-26T10:28:15.939Z</time></trkpt><trkpt lat="44.4873933" lon="9.785815"><ele>425.66666666666663</ele><time>2026-04-26T10:28:16.939Z</time></trkpt><trkpt lat="44.4872533" lon="9.7857317"><ele>425.3333333333333</ele><time>2026-04-26T10:28:17.939Z</time></trkpt><trkpt lat="44.4871133" lon="9.7856383"><ele>425.0</ele><time>2026-04-26T10:28:18.938Z</time></trkpt><trkpt lat="44.4869983" lon="9.7855167"><ele>425.0</ele><time>2026-04-26T10:28:19.939Z</time></trkpt><trkpt lat="44.486905" lon="9.785375"><ele>425.0</ele><time>2026-04-26T10:28:20.939Z</time></trkpt><trkpt lat="44.48683" lon="9.7852017"><ele>425.0</ele><time>2026-04-26T10:28:21.939Z</time></trkpt><trkpt lat="44.4867733" lon="9.7850017"><ele>425.0</ele><time>2026-04-26T10:28:22.939Z</time></trkpt><trkpt lat="44.4867117" lon="9.7848033"><ele>423.0</ele><time>2026-04-26T10:28:23.939Z</time></trkpt><trkpt lat="44.4866433" lon="9.7846033"><ele>421.0</ele><time>2026-04-26T10:28:24.939Z</time></trkpt><trkpt lat="44.4865733" lon="9.7843983"><ele>419.0</ele><time>2026-04-26T10:28:25.938Z</time></trkpt><trkpt lat="44.4864933" lon="9.784195"><ele>417.5</ele><time>2026-04-26T10:28:26.939Z</time></trkpt><trkpt lat="44.486425" lon="9.7839933"><ele>416.0</ele><time>2026-04-26T10:28:27.939Z</time></trkpt><trkpt lat="44.4863917" lon="9.7837883"><ele>414.5</ele><time>2026-04-26T10:28:28.939Z</time></trkpt><trkpt lat="44.4863733" lon="9.7836067"><ele>413.0</ele><time>2026-04-26T10:28:29.939Z</time></trkpt><trkpt lat="44.486395" lon="9.7834267"><ele>412.25</ele><time>2026-04-26T10:28:30.939Z</time></trkpt><trkpt lat="44.4864367" lon="9.7832467"><ele>411.5</ele><time>2026-04-26T10:28:31.939Z</time></trkpt><trkpt lat="44.4865067" lon="9.7830867"><ele>410.75</ele><time>2026-04-26T10:28:32.938Z</time></trkpt><trkpt lat="44.4865917" lon="9.7829283"><ele>410.0</ele><time>2026-04-26T10:28:33.939Z</time></trkpt><trkpt lat="44.4866767" lon="9.782765"><ele>410.0</ele><time>2026-04-26T10:28:34.939Z</time></trkpt><trkpt lat="44.486755" lon="9.7826033"><ele>410.0</ele><time>2026-04-26T10:28:35.939Z</time></trkpt><trkpt lat="44.486825" lon="9.7824383"><ele>410.0</ele><time>2026-04-26T10:28:36.939Z</time></trkpt><trkpt lat="44.48688" lon="9.7822783"><ele>410.0</ele><time>2026-04-26T10:28:37.939Z</time></trkpt><trkpt lat="44.486915" lon="9.78212"><ele>410.0</ele><time>2026-04-26T10:28:38.939Z</time></trkpt><trkpt lat="44.4869233" lon="9.7819467"><ele>410.0</ele><time>2026-04-26T10:28:39.939Z</time></trkpt><trkpt lat="44.4869283" lon="9.7817767"><ele>410.0</ele><time>2026-04-26T10:28:40.939Z</time></trkpt><trkpt lat="44.4869267" lon="9.7816083"><ele>410.0</ele><time>2026-04-26T10:28:41.939Z</time></trkpt><trkpt lat="44.4869317" lon="9.78143"><ele>410.25</ele><time>2026-04-26T10:28:42.938Z</time></trkpt><trkpt lat="44.48689" lon="9.7812583"><ele>410.5</ele><time>2026-04-26T10:28:43.939Z</time></trkpt><trkpt lat="44.48691" lon="9.78108"><ele>410.75</ele><time>2026-04-26T10:28:44.939Z</time></trkpt><trkpt lat="44.4869033" lon="9.7809133"><ele>411.0</ele><time>2026-04-26T10:28:45.939Z</time></trkpt><trkpt lat="44.4869167" lon="9.7807583"><ele>411.0</ele><time>2026-04-26T10:28:46.938Z</time></trkpt><trkpt lat="44.4869117" lon="9.7806233"><ele>411.0</ele><time>2026-04-26T10:28:47.939Z</time></trkpt><trkpt lat="44.4868967" lon="9.7805067"><ele>411.0</ele><time>2026-04-26T10:28:48.939Z</time></trkpt><trkpt lat="44.4868767" lon="9.7804133"><ele>411.0</ele><time>2026-04-26T10:28:49.938Z</time></trkpt><trkpt lat="44.4868383" lon="9.7803367"><ele>411.0</ele><time>2026-04-26T10:28:51.938Z</time></trkpt><trkpt lat="44.486795" lon="9.7802617"><ele>411.0</ele><time>2026-04-26T10:28:56.938Z</time></trkpt><trkpt lat="44.4867233" lon="9.7801867"><ele>410.25</ele><time>2026-04-26T10:28:57.938Z</time></trkpt><trkpt lat="44.4866317" lon="9.7801133"><ele>409.5</ele><time>2026-04-26T10:28:58.938Z</time></trkpt><trkpt lat="44.4865267" lon="9.7800433"><ele>408.75</ele><time>2026-04-26T10:28:59.938Z</time></trkpt><trkpt lat="44.48641" lon="9.78"><ele>408.0</ele><time>2026-04-26T10:29:00.938Z</time></trkpt><trkpt lat="44.4862883" lon="9.779945"><ele>408.79999999999995</ele><time>2026-04-26T10:29:01.938Z</time></trkpt><trkpt lat="44.486175" lon="9.779885"><ele>409.6</ele><time>2026-04-26T10:29:02.937Z</time></trkpt><trkpt lat="44.486075" lon="9.779825"><ele>410.4</ele><time>2026-04-26T10:29:03.938Z</time></trkpt><trkpt lat="44.4859967" lon="9.779735"><ele>411.20000000000005</ele><time>2026-04-26T10:29:04.938Z</time></trkpt><trkpt lat="44.4859367" lon="9.779615"><ele>412.0</ele><time>2026-04-26T10:29:05.938Z</time></trkpt><trkpt lat="44.4859067" lon="9.779475"><ele>411.6666666666667</ele><time>2026-04-26T10:29:06.938Z</time></trkpt><trkpt lat="44.4858933" lon="9.7793367"><ele>411.33333333333337</ele><time>2026-04-26T10:29:07.938Z</time></trkpt><trkpt lat="44.4858783" lon="9.7792217"><ele>411.0</ele><time>2026-04-26T10:29:08.938Z</time></trkpt><trkpt lat="44.48586" lon="9.779135"><ele>410.66666666666663</ele><time>2026-04-26T10:29:09.938Z</time></trkpt><trkpt lat="44.485845" lon="9.7790317"><ele>410.3333333333333</ele><time>2026-04-26T10:29:11.938Z</time></trkpt><trkpt lat="44.4858" lon="9.7789433"><ele>410.0</ele><time>2026-04-26T10:29:14.937Z</time></trkpt><trkpt lat="44.4856933" lon="9.7789767"><ele>410.0</ele><time>2026-04-26T10:29:16.938Z</time></trkpt><trkpt lat="44.4856267" lon="9.7790317"><ele>410.0</ele><time>2026-04-26T10:29:17.938Z</time></trkpt><trkpt lat="44.4855283" lon="9.77909"><ele>410.0</ele><time>2026-04-26T10:29:18.938Z</time></trkpt><trkpt lat="44.48542" lon="9.7791467"><ele>410.0</ele><time>2026-04-26T10:29:19.938Z</time></trkpt><trkpt lat="44.4853033" lon="9.779195"><ele>410.0</ele><time>2026-04-26T10:29:20.938Z</time></trkpt><trkpt lat="44.4851817" lon="9.7792617"><ele>410.25</ele><time>2026-04-26T10:29:21.937Z</time></trkpt><trkpt lat="44.4850617" lon="9.779355"><ele>410.5</ele><time>2026-04-26T10:29:22.938Z</time></trkpt><trkpt lat="44.4849317" lon="9.77946"><ele>410.75</ele><time>2026-04-26T10:29:23.938Z</time></trkpt><trkpt lat="44.4848" lon="9.779575"><ele>411.0</ele><time>2026-04-26T10:29:24.937Z</time></trkpt><trkpt lat="44.4846517" lon="9.7797017"><ele>411.0</ele><time>2026-04-26T10:29:25.938Z</time></trkpt><trkpt lat="44.4844833" lon="9.7798483"><ele>411.0</ele><time>2026-04-26T10:29:26.938Z</time></trkpt><trkpt lat="44.4843067" lon="9.779995"><ele>411.0</ele><time>2026-04-26T10:29:27.938Z</time></trkpt><trkpt lat="44.4841283" lon="9.7801367"><ele>411.66666666666663</ele><time>2026-04-26T10:29:28.938Z</time></trkpt><trkpt lat="44.48394" lon="9.7802817"><ele>412.3333333333333</ele><time>2026-04-26T10:29:29.938Z</time></trkpt><trkpt lat="44.48376" lon="9.7804367"><ele>413.0</ele><time>2026-04-26T10:29:30.938Z</time></trkpt><trkpt lat="44.48358" lon="9.7805917"><ele>414.0</ele><time>2026-04-26T10:29:31.938Z</time></trkpt><trkpt lat="44.4833967" lon="9.7807433"><ele>415.0</ele><time>2026-04-26T10:29:32.938Z</time></trkpt><trkpt lat="44.4832183" lon="9.7808867"><ele>416.0</ele><time>2026-04-26T10:29:33.938Z</time></trkpt><trkpt lat="44.4830383" lon="9.7810283"><ele>417.0</ele><time>2026-04-26T10:29:34.938Z</time></trkpt><trkpt lat="44.48286" lon="9.7811733"><ele>418.0</ele><time>2026-04-26T10:29:35.937Z</time></trkpt><trkpt lat="44.4826867" lon="9.7813167"><ele>419.0</ele><time>2026-04-26T10:29:36.938Z</time></trkpt><trkpt lat="44.48251" lon="9.7814633"><ele>419.0</ele><time>2026-04-26T10:29:37.937Z</time></trkpt><trkpt lat="44.48233" lon="9.781615"><ele>419.0</ele><time>2026-04-26T10:29:38.938Z</time></trkpt><trkpt lat="44.482145" lon="9.78177"><ele>419.0</ele><time>2026-04-26T10:29:39.938Z</time></trkpt><trkpt lat="44.4819733" lon="9.7819117"><ele>421.0</ele><time>2026-04-26T10:29:40.938Z</time></trkpt><trkpt lat="44.4817967" lon="9.78206"><ele>423.0</ele><time>2026-04-26T10:29:41.937Z</time></trkpt><trkpt lat="44.4816033" lon="9.78222"><ele>425.0</ele><time>2026-04-26T10:29:42.937Z</time></trkpt><trkpt lat="44.48141" lon="9.7823817"><ele>425.0</ele><time>2026-04-26T10:29:43.938Z</time></trkpt><trkpt lat="44.48122" lon="9.782535"><ele>425.0</ele><time>2026-04-26T10:29:44.938Z</time></trkpt><trkpt lat="44.4810217" lon="9.782695"><ele>425.0</ele><time>2026-04-26T10:29:45.938Z</time></trkpt><trkpt lat="44.48082" lon="9.7828667"><ele>427.5</ele><time>2026-04-26T10:29:46.938Z</time></trkpt><trkpt lat="44.4806183" lon="9.78303"><ele>430.0</ele><time>2026-04-26T10:29:47.938Z</time></trkpt><trkpt lat="44.480415" lon="9.7831867"><ele>430.0</ele><time>2026-04-26T10:29:48.938Z</time></trkpt><trkpt lat="44.4802217" lon="9.7833467"><ele>430.0</ele><time>2026-04-26T10:29:49.937Z</time></trkpt><trkpt lat="44.4800317" lon="9.7834967"><ele>430.0</ele><time>2026-04-26T10:29:50.938Z</time></trkpt><trkpt lat="44.4798517" lon="9.78363"><ele>438.33333333333337</ele><time>2026-04-26T10:29:51.937Z</time></trkpt><trkpt lat="44.47966" lon="9.7837417"><ele>446.66666666666663</ele><time>2026-04-26T10:29:52.938Z</time></trkpt><trkpt lat="44.4794667" lon="9.7838083"><ele>455.0</ele><time>2026-04-26T10:29:53.937Z</time></trkpt><trkpt lat="44.479265" lon="9.78385"><ele>455.66666666666663</ele><time>2026-04-26T10:29:54.938Z</time></trkpt><trkpt lat="44.479085" lon="9.78388"><ele>456.33333333333337</ele><time>2026-04-26T10:29:55.937Z</time></trkpt><trkpt lat="44.4789267" lon="9.78391"><ele>457.0</ele><time>2026-04-26T10:29:56.937Z</time></trkpt><trkpt lat="44.478785" lon="9.7839167"><ele>458.75</ele><time>2026-04-26T10:29:57.938Z</time></trkpt><trkpt lat="44.478665" lon="9.7838867"><ele>460.5</ele><time>2026-04-26T10:29:58.937Z</time></trkpt><trkpt lat="44.478565" lon="9.7838067"><ele>462.25</ele><time>2026-04-26T10:29:59.938Z</time></trkpt><trkpt lat="44.4784783" lon="9.7836817"><ele>464.0</ele><time>2026-04-26T10:30:00.938Z</time></trkpt><trkpt lat="44.4783983" lon="9.78352"><ele>459.5</ele><time>2026-04-26T10:30:01.938Z</time></trkpt><trkpt lat="44.4783167" lon="9.7833867"><ele>455.0</ele><time>2026-04-26T10:30:02.938Z</time></trkpt><trkpt lat="44.4782233" lon="9.783285"><ele>450.5</ele><time>2026-04-26T10:30:03.937Z</time></trkpt><trkpt lat="44.4781067" lon="9.7832183"><ele>446.0</ele><time>2026-04-26T10:30:04.938Z</time></trkpt><trkpt lat="44.4779817" lon="9.783225"><ele>445.5</ele><time>2026-04-26T10:30:05.938Z</time></trkpt><trkpt lat="44.477855" lon="9.7833033"><ele>445.0</ele><time>2026-04-26T10:30:06.938Z</time></trkpt><trkpt lat="44.477755" lon="9.7834283"><ele>444.5</ele><time>2026-04-26T10:30:07.938Z</time></trkpt><trkpt lat="44.4776717" lon="9.7835917"><ele>444.0</ele><time>2026-04-26T10:30:08.938Z</time></trkpt><trkpt lat="44.477585" lon="9.7837717"><ele>449.33333333333337</ele><time>2026-04-26T10:30:09.937Z</time></trkpt><trkpt lat="44.477485" lon="9.7839317"><ele>454.6666666666667</ele><time>2026-04-26T10:30:10.938Z</time></trkpt><trkpt lat="44.4773483" lon="9.78408"><ele>460.0</ele><time>2026-04-26T10:30:11.938Z</time></trkpt><trkpt lat="44.4771867" lon="9.7842267"><ele>460.0</ele><time>2026-04-26T10:30:12.938Z</time></trkpt><trkpt lat="44.47702" lon="9.78438"><ele>460.0</ele><time>2026-04-26T10:30:13.937Z</time></trkpt><trkpt lat="44.47684" lon="9.784535"><ele>460.0</ele><time>2026-04-26T10:30:14.938Z</time></trkpt><trkpt lat="44.47666" lon="9.784685"><ele>460.0</ele><time>2026-04-26T10:30:15.937Z</time></trkpt><trkpt lat="44.4764817" lon="9.7848183"><ele>460.0</ele><time>2026-04-26T10:30:16.938Z</time></trkpt><trkpt lat="44.4762917" lon="9.7849017"><ele>460.0</ele><time>2026-04-26T10:30:17.938Z</time></trkpt><trkpt lat="44.476085" lon="9.7849483"><ele>459.33333333333337</ele><time>2026-04-26T10:30:18.937Z</time></trkpt><trkpt lat="44.4758733" lon="9.7849717"><ele>458.66666666666663</ele><time>2026-04-26T10:30:19.938Z</time></trkpt><trkpt lat="44.4756517" lon="9.7850033"><ele>458.0</ele><time>2026-04-26T10:30:20.937Z</time></trkpt><trkpt lat="44.4754417" lon="9.78503"><ele>459.0</ele><time>2026-04-26T10:30:21.938Z</time></trkpt><trkpt lat="44.4752433" lon="9.785055"><ele>460.0</ele><time>2026-04-26T10:30:22.938Z</time></trkpt><trkpt lat="44.4750717" lon="9.7850683"><ele>461.0</ele><time>2026-04-26T10:30:23.938Z</time></trkpt><trkpt lat="44.4749183" lon="9.785085"><ele>461.0</ele><time>2026-04-26T10:30:24.938Z</time></trkpt><trkpt lat="44.47476" lon="9.7851117"><ele>461.0</ele><time>2026-04-26T10:30:25.938Z</time></trkpt><trkpt lat="44.4746233" lon="9.78517"><ele>461.0</ele><time>2026-04-26T10:30:26.938Z</time></trkpt><trkpt lat="44.4744983" lon="9.7853033"><ele>462.3333333333333</ele><time>2026-04-26T10:30:27.938Z</time></trkpt><trkpt lat="44.4743983" lon="9.7854867"><ele>463.66666666666663</ele><time>2026-04-26T10:30:28.938Z</time></trkpt><trkpt lat="44.4742917" lon="9.7857117"><ele>465.0</ele><time>2026-04-26T10:30:29.938Z</time></trkpt><trkpt lat="44.4741967" lon="9.7859367"><ele>469.0</ele><time>2026-04-26T10:30:30.938Z</time></trkpt><trkpt lat="44.4740867" lon="9.78617"><ele>473.0</ele><time>2026-04-26T10:30:31.938Z</time></trkpt><trkpt lat="44.473965" lon="9.7864117"><ele>477.0</ele><time>2026-04-26T10:30:32.938Z</time></trkpt><trkpt lat="44.4738467" lon="9.78666"><ele>475.33333333333337</ele><time>2026-04-26T10:30:33.938Z</time></trkpt><trkpt lat="44.47372" lon="9.7869133"><ele>473.6666666666667</ele><time>2026-04-26T10:30:34.938Z</time></trkpt><trkpt lat="44.4735983" lon="9.7871717"><ele>472.0</ele><time>2026-04-26T10:30:35.937Z</time></trkpt><trkpt lat="44.4734867" lon="9.7874233"><ele>472.0</ele><time>2026-04-26T10:30:36.938Z</time></trkpt><trkpt lat="44.47337" lon="9.7876667"><ele>472.0</ele><time>2026-04-26T10:30:37.937Z</time></trkpt><trkpt lat="44.4732583" lon="9.7878983"><ele>472.0</ele><time>2026-04-26T10:30:38.938Z</time></trkpt><trkpt lat="44.47315" lon="9.78811"><ele>475.6666666666667</ele><time>2026-04-26T10:30:39.938Z</time></trkpt><trkpt lat="44.4730567" lon="9.7883117"><ele>479.33333333333337</ele><time>2026-04-26T10:30:40.937Z</time></trkpt><trkpt lat="44.4729617" lon="9.7885067"><ele>483.0</ele><time>2026-04-26T10:30:41.938Z</time></trkpt><trkpt lat="44.4728733" lon="9.7886867"><ele>485.33333333333337</ele><time>2026-04-26T10:30:42.938Z</time></trkpt><trkpt lat="44.4727567" lon="9.7888583"><ele>487.6666666666667</ele><time>2026-04-26T10:30:43.937Z</time></trkpt><trkpt lat="44.4726233" lon="9.7890083"><ele>490.0</ele><time>2026-04-26T10:30:44.938Z</time></trkpt><trkpt lat="44.47246" lon="9.7891267"><ele>490.0</ele><time>2026-04-26T10:30:45.938Z</time></trkpt><trkpt lat="44.472295" lon="9.7892317"><ele>490.0</ele><time>2026-04-26T10:30:46.937Z</time></trkpt><trkpt lat="44.4721183" lon="9.7893517"><ele>490.0</ele><time>2026-04-26T10:30:47.937Z</time></trkpt><trkpt lat="44.4719533" lon="9.7894917"><ele>490.6666666666667</ele><time>2026-04-26T10:30:48.938Z</time></trkpt><trkpt lat="44.4717967" lon="9.7896533"><ele>491.33333333333337</ele><time>2026-04-26T10:30:49.938Z</time></trkpt><trkpt lat="44.4716517" lon="9.7898233"><ele>492.0</ele><time>2026-04-26T10:30:50.938Z</time></trkpt><trkpt lat="44.4715067" lon="9.7900167"><ele>495.0</ele><time>2026-04-26T10:30:51.938Z</time></trkpt><trkpt lat="44.4713783" lon="9.7902133"><ele>498.0</ele><time>2026-04-26T10:30:52.938Z</time></trkpt><trkpt lat="44.4712567" lon="9.79039"><ele>501.0</ele><time>2026-04-26T10:30:53.937Z</time></trkpt><trkpt lat="44.4711367" lon="9.7905433"><ele>501.0</ele><time>2026-04-26T10:30:54.938Z</time></trkpt><trkpt lat="44.47101" lon="9.7906517"><ele>501.0</ele><time>2026-04-26T10:30:55.938Z</time></trkpt><trkpt lat="44.4708533" lon="9.7907117"><ele>501.0</ele><time>2026-04-26T10:30:56.938Z</time></trkpt><trkpt lat="44.4706983" lon="9.790735"><ele>501.0</ele><time>2026-04-26T10:30:57.938Z</time></trkpt><trkpt lat="44.47053" lon="9.790755"><ele>501.0</ele><time>2026-04-26T10:30:58.937Z</time></trkpt><trkpt lat="44.4703633" lon="9.7907817"><ele>501.0</ele><time>2026-04-26T10:30:59.938Z</time></trkpt><trkpt lat="44.47021" lon="9.7908167"><ele>498.5</ele><time>2026-04-26T10:31:00.938Z</time></trkpt><trkpt lat="44.47007" lon="9.790865"><ele>496.0</ele><time>2026-04-26T10:31:01.937Z</time></trkpt><trkpt lat="44.469955" lon="9.7909817"><ele>493.5</ele><time>2026-04-26T10:31:02.937Z</time></trkpt><trkpt lat="44.4698517" lon="9.7911383"><ele>491.0</ele><time>2026-04-26T10:31:03.938Z</time></trkpt><trkpt lat="44.4697483" lon="9.79132"><ele>492.3333333333333</ele><time>2026-04-26T10:31:04.938Z</time></trkpt><trkpt lat="44.4696417" lon="9.7914917"><ele>493.66666666666663</ele><time>2026-04-26T10:31:05.938Z</time></trkpt><trkpt lat="44.46953" lon="9.791645"><ele>495.0</ele><time>2026-04-26T10:31:06.938Z</time></trkpt><trkpt lat="44.469395" lon="9.7917633"><ele>501.0</ele><time>2026-04-26T10:31:07.938Z</time></trkpt><trkpt lat="44.4692417" lon="9.7918617"><ele>507.0</ele><time>2026-04-26T10:31:08.938Z</time></trkpt><trkpt lat="44.4690833" lon="9.7919433"><ele>513.0</ele><time>2026-04-26T10:31:09.938Z</time></trkpt><trkpt lat="44.46892" lon="9.7920067"><ele>513.0</ele><time>2026-04-26T10:31:10.938Z</time></trkpt><trkpt lat="44.4687783" lon="9.7920583"><ele>513.0</ele><time>2026-04-26T10:31:11.938Z</time></trkpt><trkpt lat="44.4686583" lon="9.7921017"><ele>513.0</ele><time>2026-04-26T10:31:12.938Z</time></trkpt><trkpt lat="44.4685617" lon="9.79215"><ele>513.0</ele><time>2026-04-26T10:31:13.938Z</time></trkpt><trkpt lat="44.4684733" lon="9.7922133"><ele>511.59999999999997</ele><time>2026-04-26T10:31:14.938Z</time></trkpt><trkpt lat="44.4683883" lon="9.79227"><ele>510.19999999999993</ele><time>2026-04-26T10:31:15.937Z</time></trkpt><trkpt lat="44.4683067" lon="9.79232"><ele>508.8</ele><time>2026-04-26T10:31:16.938Z</time></trkpt><trkpt lat="44.468225" lon="9.79236"><ele>507.4</ele><time>2026-04-26T10:31:17.938Z</time></trkpt><trkpt lat="44.4681367" lon="9.7924167"><ele>506.0</ele><time>2026-04-26T10:31:18.938Z</time></trkpt><trkpt lat="44.46804" lon="9.7924917"><ele>505.75</ele><time>2026-04-26T10:31:19.938Z</time></trkpt><trkpt lat="44.46792" lon="9.7925633"><ele>505.5</ele><time>2026-04-26T10:31:20.938Z</time></trkpt><trkpt lat="44.46779" lon="9.7926217"><ele>505.25</ele><time>2026-04-26T10:31:21.938Z</time></trkpt><trkpt lat="44.467655" lon="9.79267"><ele>505.0</ele><time>2026-04-26T10:31:22.938Z</time></trkpt><trkpt lat="44.467515" lon="9.7927167"><ele>509.5</ele><time>2026-04-26T10:31:23.937Z</time></trkpt><trkpt lat="44.4673633" lon="9.7927533"><ele>514.0</ele><time>2026-04-26T10:31:24.938Z</time></trkpt><trkpt lat="44.467235" lon="9.7927717"><ele>518.5</ele><time>2026-04-26T10:31:25.937Z</time></trkpt><trkpt lat="44.4671083" lon="9.792805"><ele>523.0</ele><time>2026-04-26T10:31:26.937Z</time></trkpt><trkpt lat="44.46701" lon="9.7928333"><ele>523.0</ele><time>2026-04-26T10:31:27.937Z</time></trkpt><trkpt lat="44.4669383" lon="9.7928867"><ele>523.0</ele><time>2026-04-26T10:31:28.938Z</time></trkpt><trkpt lat="44.4668667" lon="9.792965"><ele>523.0</ele><time>2026-04-26T10:31:29.938Z</time></trkpt><trkpt lat="44.4668117" lon="9.7930633"><ele>523.0</ele><time>2026-04-26T10:31:30.938Z</time></trkpt><trkpt lat="44.4667567" lon="9.7931783"><ele>523.0</ele><time>2026-04-26T10:31:31.937Z</time></trkpt><trkpt lat="44.4666983" lon="9.79329"><ele>523.0</ele><time>2026-04-26T10:31:32.938Z</time></trkpt><trkpt lat="44.4666517" lon="9.7933717"><ele>523.0</ele><time>2026-04-26T10:31:33.938Z</time></trkpt><trkpt lat="44.4665967" lon="9.7934933"><ele>523.0</ele><time>2026-04-26T10:31:35.938Z</time></trkpt><trkpt lat="44.4665283" lon="9.79363"><ele>523.0</ele><time>2026-04-26T10:31:37.938Z</time></trkpt><trkpt lat="44.4664683" lon="9.7937033"><ele>523.0</ele><time>2026-04-26T10:31:38.938Z</time></trkpt><trkpt lat="44.4664017" lon="9.7937617"><ele>525.5</ele><time>2026-04-26T10:31:39.938Z</time></trkpt><trkpt lat="44.4663183" lon="9.7937933"><ele>528.0</ele><time>2026-04-26T10:31:40.938Z</time></trkpt><trkpt lat="44.466225" lon="9.7938167"><ele>530.5</ele><time>2026-04-26T10:31:41.938Z</time></trkpt><trkpt lat="44.466145" lon="9.7938417"><ele>533.0</ele><time>2026-04-26T10:31:42.938Z</time></trkpt><trkpt lat="44.4660717" lon="9.7938833"><ele>535.5</ele><time>2026-04-26T10:31:43.938Z</time></trkpt><trkpt lat="44.4660133" lon="9.793945"><ele>538.0</ele><time>2026-04-26T10:31:44.938Z</time></trkpt><trkpt lat="44.4659667" lon="9.79403"><ele>538.0</ele><time>2026-04-26T10:31:45.938Z</time></trkpt><trkpt lat="44.4659283" lon="9.79411"><ele>538.0</ele><time>2026-04-26T10:31:46.938Z</time></trkpt><trkpt lat="44.4658417" lon="9.79426"><ele>538.0</ele><time>2026-04-26T10:31:48.938Z</time></trkpt><trkpt lat="44.4657883" lon="9.7943417"><ele>538.0</ele><time>2026-04-26T10:31:49.938Z</time></trkpt><trkpt lat="44.46574" lon="9.7944217"><ele>538.0</ele><time>2026-04-26T10:31:50.938Z</time></trkpt><trkpt lat="44.465695" lon="9.794495"><ele>538.0</ele><time>2026-04-26T10:31:51.938Z</time></trkpt><trkpt lat="44.4655983" lon="9.7945683"><ele>537.8</ele><time>2026-04-26T10:31:53.938Z</time></trkpt><trkpt lat="44.4655017" lon="9.794525"><ele>537.5999999999999</ele><time>2026-04-26T10:31:55.938Z</time></trkpt><trkpt lat="44.4654533" lon="9.7943933"><ele>537.4000000000001</ele><time>2026-04-26T10:31:57.938Z</time></trkpt><trkpt lat="44.4654233" lon="9.7942517"><ele>537.2</ele><time>2026-04-26T10:31:59.938Z</time></trkpt><trkpt lat="44.4653417" lon="9.7942"><ele>537.0</ele><time>2026-04-26T10:32:02.938Z</time></trkpt><trkpt lat="44.46524" lon="9.794175"><ele>536.9999999999999</ele><time>2026-04-26T10:32:04.938Z</time></trkpt><trkpt lat="44.4651717" lon="9.79415"><ele>537.0</ele><time>2026-04-26T10:32:05.937Z</time></trkpt><trkpt lat="44.4651083" lon="9.7941183"><ele>537.0</ele><time>2026-04-26T10:32:06.937Z</time></trkpt><trkpt lat="44.4650467" lon="9.7940867"><ele>537.0</ele><time>2026-04-26T10:32:07.938Z</time></trkpt><trkpt lat="44.4649767" lon="9.794055"><ele>537.0</ele><time>2026-04-26T10:32:08.938Z</time></trkpt><trkpt lat="44.4649067" lon="9.7940317"><ele>536.9999999999999</ele><time>2026-04-26T10:32:09.938Z</time></trkpt><trkpt lat="44.4648383" lon="9.7940133"><ele>537.0</ele><time>2026-04-26T10:32:10.937Z</time></trkpt><trkpt lat="44.4647783" lon="9.793985"><ele>536.9999999999999</ele><time>2026-04-26T10:32:11.938Z</time></trkpt><trkpt lat="44.4647083" lon="9.79394"><ele>537.0</ele><time>2026-04-26T10:32:12.938Z</time></trkpt><trkpt lat="44.46464" lon="9.7938967"><ele>537.0</ele><time>2026-04-26T10:32:13.938Z</time></trkpt><trkpt lat="44.4645767" lon="9.79386"><ele>537.0</ele><time>2026-04-26T10:32:14.938Z</time></trkpt><trkpt lat="44.4645117" lon="9.7938267"><ele>537.0</ele><time>2026-04-26T10:32:15.938Z</time></trkpt><trkpt lat="44.46444" lon="9.7938067"><ele>536.9999999999999</ele><time>2026-04-26T10:32:16.937Z</time></trkpt><trkpt lat="44.4643633" lon="9.7937867"><ele>537.0</ele><time>2026-04-26T10:32:17.938Z</time></trkpt><trkpt lat="44.4642883" lon="9.7937617"><ele>537.8000000000001</ele><time>2026-04-26T10:32:18.937Z</time></trkpt><trkpt lat="44.4642233" lon="9.7937283"><ele>538.6</ele><time>2026-04-26T10:32:19.938Z</time></trkpt><trkpt lat="44.4641367" lon="9.7936517"><ele>539.4000000000001</ele><time>2026-04-26T10:32:21.937Z</time></trkpt><trkpt lat="44.464055" lon="9.79358"><ele>540.2</ele><time>2026-04-26T10:32:23.938Z</time></trkpt><trkpt lat="44.463945" lon="9.7935117"><ele>541.0</ele><time>2026-04-26T10:32:25.938Z</time></trkpt><trkpt lat="44.4638917" lon="9.7934533"><ele>538.2</ele><time>2026-04-26T10:32:26.938Z</time></trkpt><trkpt lat="44.4638283" lon="9.7933117"><ele>535.4000000000001</ele><time>2026-04-26T10:32:28.938Z</time></trkpt><trkpt lat="44.4637933" lon="9.7932383"><ele>532.6</ele><time>2026-04-26T10:32:29.938Z</time></trkpt><trkpt lat="44.4636967" lon="9.793165"><ele>529.8000000000001</ele><time>2026-04-26T10:32:31.938Z</time></trkpt><trkpt lat="44.4635917" lon="9.7931333"><ele>527.0</ele><time>2026-04-26T10:32:33.938Z</time></trkpt><trkpt lat="44.4635233" lon="9.793135"><ele>527.0</ele><time>2026-04-26T10:32:34.938Z</time></trkpt><trkpt lat="44.46341" lon="9.793155"><ele>527.0</ele><time>2026-04-26T10:32:36.938Z</time></trkpt><trkpt lat="44.463345" lon="9.7931667"><ele>527.0</ele><time>2026-04-26T10:32:37.938Z</time></trkpt><trkpt lat="44.4632733" lon="9.79318"><ele>527.0</ele><time>2026-04-26T10:32:38.938Z</time></trkpt><trkpt lat="44.4632033" lon="9.793195"><ele>527.0</ele><time>2026-04-26T10:32:39.938Z</time></trkpt><trkpt lat="44.4631283" lon="9.79321"><ele>527.0</ele><time>2026-04-26T10:32:40.937Z</time></trkpt><trkpt lat="44.4630517" lon="9.79323"><ele>527.0</ele><time>2026-04-26T10:32:41.937Z</time></trkpt><trkpt lat="44.4629883" lon="9.7932433"><ele>527.0</ele><time>2026-04-26T10:32:42.938Z</time></trkpt><trkpt lat="44.4628817" lon="9.7932567"><ele>527.0</ele><time>2026-04-26T10:32:44.937Z</time></trkpt><trkpt lat="44.462785" lon="9.79323"><ele>527.0</ele><time>2026-04-26T10:32:46.938Z</time></trkpt><trkpt lat="44.462675" lon="9.793205"><ele>527.0</ele><time>2026-04-26T10:32:48.937Z</time></trkpt><trkpt lat="44.46259" lon="9.793195"><ele>527.2</ele><time>2026-04-26T10:32:50.938Z</time></trkpt><trkpt lat="44.4624833" lon="9.793185"><ele>527.4000000000001</ele><time>2026-04-26T10:32:55.938Z</time></trkpt><trkpt lat="44.462375" lon="9.7932133"><ele>527.5999999999999</ele><time>2026-04-26T10:32:57.937Z</time></trkpt><trkpt lat="44.46231" lon="9.7932167"><ele>527.8</ele><time>2026-04-26T10:32:58.938Z</time></trkpt><trkpt lat="44.462225" lon="9.7931917"><ele>528.0</ele><time>2026-04-26T10:33:00.938Z</time></trkpt><trkpt lat="44.4621767" lon="9.7933233"><ele>528.0</ele><time>2026-04-26T10:36:44.937Z</time></trkpt><trkpt lat="44.46212" lon="9.79343"><ele>528.0</ele><time>2026-04-26T10:36:46.937Z</time></trkpt><trkpt lat="44.4620783" lon="9.793545"><ele>528.0</ele><time>2026-04-26T10:36:48.937Z</time></trkpt><trkpt lat="44.4620467" lon="9.7936633"><ele>528.0</ele><time>2026-04-26T10:36:50.937Z</time></trkpt><trkpt lat="44.46203" lon="9.793805"><ele>528.0</ele><time>2026-04-26T10:36:52.937Z</time></trkpt><trkpt lat="44.4619967" lon="9.79391"><ele>530.8333333333334</ele><time>2026-04-26T10:36:54.937Z</time></trkpt><trkpt lat="44.461955" lon="9.7940283"><ele>533.6666666666666</ele><time>2026-04-26T10:36:56.937Z</time></trkpt><trkpt lat="44.46191" lon="9.79413"><ele>536.5</ele><time>2026-04-26T10:36:58.937Z</time></trkpt><trkpt lat="44.4618667" lon="9.794225"><ele>539.3333333333333</ele><time>2026-04-26T10:37:00.937Z</time></trkpt><trkpt lat="44.4618167" lon="9.7942983"><ele>542.1666666666666</ele><time>2026-04-26T10:37:02.937Z</time></trkpt><trkpt lat="44.4617417" lon="9.7943033"><ele>545.0</ele><time>2026-04-26T10:37:05.937Z</time></trkpt><trkpt lat="44.46179" lon="9.79423"><ele>545.0</ele><time>2026-04-26T10:37:11.936Z</time></trkpt><trkpt lat="44.46186" lon="9.794165"><ele>545.0</ele><time>2026-04-26T10:37:13.937Z</time></trkpt><trkpt lat="44.46193" lon="9.7940817"><ele>545.0</ele><time>2026-04-26T10:37:15.937Z</time></trkpt><trkpt lat="44.46199" lon="9.7939933"><ele>545.0</ele><time>2026-04-26T10:37:17.937Z</time></trkpt><trkpt lat="44.4620317" lon="9.7938983"><ele>545.0</ele><time>2026-04-26T10:37:19.937Z</time></trkpt><trkpt lat="44.46207" lon="9.7937867"><ele>545.0</ele><time>2026-04-26T10:37:21.937Z</time></trkpt><trkpt lat="44.4621233" lon="9.7936383"><ele>544.5</ele><time>2026-04-26T10:37:23.937Z</time></trkpt><trkpt lat="44.4621583" lon="9.7935617"><ele>544.0</ele><time>2026-04-26T10:37:24.937Z</time></trkpt><trkpt lat="44.4621933" lon="9.7934833"><ele>543.5</ele><time>2026-04-26T10:37:25.937Z</time></trkpt><trkpt lat="44.4622333" lon="9.7934083"><ele>543.0</ele><time>2026-04-26T10:37:26.937Z</time></trkpt><trkpt lat="44.4623183" lon="9.7932983"><ele>542.5</ele><time>2026-04-26T10:37:28.937Z</time></trkpt><trkpt lat="44.4624167" lon="9.7932333"><ele>542.0</ele><time>2026-04-26T10:37:30.937Z</time></trkpt><trkpt lat="44.46252" lon="9.79321"><ele>539.2</ele><time>2026-04-26T10:37:32.937Z</time></trkpt><trkpt lat="44.46263" lon="9.79322"><ele>536.4000000000001</ele><time>2026-04-26T10:37:34.937Z</time></trkpt><trkpt lat="44.462745" lon="9.79325"><ele>533.5999999999999</ele><time>2026-04-26T10:37:36.937Z</time></trkpt><trkpt lat="44.4628267" lon="9.7932633"><ele>530.8</ele><time>2026-04-26T10:37:38.937Z</time></trkpt><trkpt lat="44.4628983" lon="9.7932767"><ele>528.0</ele><time>2026-04-26T10:37:40.936Z</time></trkpt><trkpt lat="44.4629817" lon="9.7932867"><ele>527.8571428571429</ele><time>2026-04-26T10:37:42.937Z</time></trkpt><trkpt lat="44.4630767" lon="9.793275"><ele>527.7142857142858</ele><time>2026-04-26T10:37:44.937Z</time></trkpt><trkpt lat="44.46314" lon="9.7932633"><ele>527.5714285714287</ele><time>2026-04-26T10:37:45.937Z</time></trkpt><trkpt lat="44.4632067" lon="9.793245"><ele>527.4285714285714</ele><time>2026-04-26T10:37:46.937Z</time></trkpt><trkpt lat="44.4632717" lon="9.79322"><ele>527.2857142857143</ele><time>2026-04-26T10:37:47.937Z</time></trkpt><trkpt lat="44.463335" lon="9.7932033"><ele>527.1428571428572</ele><time>2026-04-26T10:37:48.937Z</time></trkpt><trkpt lat="44.4633983" lon="9.7931917"><ele>527.0</ele><time>2026-04-26T10:37:49.937Z</time></trkpt><trkpt lat="44.4634667" lon="9.7931883"><ele>527.0</ele><time>2026-04-26T10:37:50.937Z</time></trkpt><trkpt lat="44.46353" lon="9.7931817"><ele>527.0</ele><time>2026-04-26T10:37:51.937Z</time></trkpt><trkpt lat="44.463645" lon="9.793195"><ele>527.0</ele><time>2026-04-26T10:37:53.936Z</time></trkpt><trkpt lat="44.4637517" lon="9.7932467"><ele>527.0</ele><time>2026-04-26T10:37:55.937Z</time></trkpt><trkpt lat="44.4638133" lon="9.7933517"><ele>527.0</ele><time>2026-04-26T10:37:57.937Z</time></trkpt><trkpt lat="44.4638733" lon="9.7935017"><ele>529.8000000000001</ele><time>2026-04-26T10:37:59.937Z</time></trkpt><trkpt lat="44.4639833" lon="9.7935917"><ele>532.6</ele><time>2026-04-26T10:38:01.937Z</time></trkpt><trkpt lat="44.464045" lon="9.7936117"><ele>535.4000000000001</ele><time>2026-04-26T10:38:02.937Z</time></trkpt><trkpt lat="44.4641067" lon="9.7936383"><ele>538.2</ele><time>2026-04-26T10:38:03.937Z</time></trkpt><trkpt lat="44.4641933" lon="9.7937117"><ele>541.0</ele><time>2026-04-26T10:38:05.937Z</time></trkpt><trkpt lat="44.464275" lon="9.79378"><ele>541.0000000000001</ele><time>2026-04-26T10:38:07.937Z</time></trkpt><trkpt lat="44.4643383" lon="9.7938033"><ele>541.0</ele><time>2026-04-26T10:38:08.937Z</time></trkpt><trkpt lat="44.46441" lon="9.793825"><ele>541.0</ele><time>2026-04-26T10:38:09.937Z</time></trkpt><trkpt lat="44.46448" lon="9.793855"><ele>541.0</ele><time>2026-04-26T10:38:10.937Z</time></trkpt><trkpt lat="44.464545" lon="9.7938783"><ele>541.0</ele><time>2026-04-26T10:38:11.936Z</time></trkpt><trkpt lat="44.4646117" lon="9.7939"><ele>541.0000000000001</ele><time>2026-04-26T10:38:12.937Z</time></trkpt><trkpt lat="44.464675" lon="9.79393"><ele>541.0</ele><time>2026-04-26T10:38:13.937Z</time></trkpt><trkpt lat="44.4647433" lon="9.793965"><ele>540.4285714285714</ele><time>2026-04-26T10:38:14.937Z</time></trkpt><trkpt lat="44.4648117" lon="9.7940067"><ele>539.8571428571429</ele><time>2026-04-26T10:38:15.937Z</time></trkpt><trkpt lat="44.464875" lon="9.7940367"><ele>539.2857142857142</ele><time>2026-04-26T10:38:16.937Z</time></trkpt><trkpt lat="44.4649383" lon="9.7940583"><ele>538.7142857142858</ele><time>2026-04-26T10:38:17.937Z</time></trkpt><trkpt lat="44.4650083" lon="9.7940867"><ele>538.1428571428571</ele><time>2026-04-26T10:38:18.937Z</time></trkpt><trkpt lat="44.46507" lon="9.79412"><ele>537.5714285714286</ele><time>2026-04-26T10:38:19.937Z</time></trkpt><trkpt lat="44.4651317" lon="9.79414"><ele>537.0</ele><time>2026-04-26T10:38:20.937Z</time></trkpt><trkpt lat="44.4651967" lon="9.7941617"><ele>537.0</ele><time>2026-04-26T10:38:21.937Z</time></trkpt><trkpt lat="44.4652583" lon="9.794185"><ele>537.0</ele><time>2026-04-26T10:38:22.937Z</time></trkpt><trkpt lat="44.4653333" lon="9.7942183"><ele>537.0</ele><time>2026-04-26T10:38:24.937Z</time></trkpt><trkpt lat="44.46539" lon="9.794285"><ele>537.0</ele><time>2026-04-26T10:38:33.937Z</time></trkpt><trkpt lat="44.46546" lon="9.7944233"><ele>537.0</ele><time>2026-04-26T10:38:35.937Z</time></trkpt><trkpt lat="44.465535" lon="9.7945333"><ele>537.0</ele><time>2026-04-26T10:38:37.937Z</time></trkpt><trkpt lat="44.46561" lon="9.7945633"><ele>537.2</ele><time>2026-04-26T10:38:39.937Z</time></trkpt><trkpt lat="44.465685" lon="9.7945233"><ele>537.4000000000001</ele><time>2026-04-26T10:38:41.937Z</time></trkpt><trkpt lat="44.4657783" lon="9.7943917"><ele>537.5999999999999</ele><time>2026-04-26T10:38:43.937Z</time></trkpt><trkpt lat="44.4658333" lon="9.794315"><ele>537.8</ele><time>2026-04-26T10:38:44.937Z</time></trkpt><trkpt lat="44.4658783" lon="9.7942517"><ele>538.0</ele><time>2026-04-26T10:38:45.936Z</time></trkpt><trkpt lat="44.4659617" lon="9.7941367"><ele>538.0</ele><time>2026-04-26T10:38:47.937Z</time></trkpt><trkpt lat="44.4660267" lon="9.794025"><ele>538.0</ele><time>2026-04-26T10:38:49.937Z</time></trkpt><trkpt lat="44.4660867" lon="9.79393"><ele>538.0</ele><time>2026-04-26T10:38:51.937Z</time></trkpt><trkpt lat="44.46619" lon="9.793875"><ele>538.0</ele><time>2026-04-26T10:38:53.937Z</time></trkpt><trkpt lat="44.4663083" lon="9.7938367"><ele>538.0</ele><time>2026-04-26T10:38:55.937Z</time></trkpt><trkpt lat="44.46637" lon="9.793815"><ele>540.1999999999999</ele><time>2026-04-26T10:38:56.937Z</time></trkpt><trkpt lat="44.4664867" lon="9.7937433"><ele>542.4</ele><time>2026-04-26T10:38:58.936Z</time></trkpt><trkpt lat="44.4665333" lon="9.79368"><ele>544.5999999999999</ele><time>2026-04-26T10:38:59.936Z</time></trkpt><trkpt lat="44.4665867" lon="9.7935917"><ele>546.8</ele><time>2026-04-26T10:39:00.935Z</time></trkpt><trkpt lat="44.4666383" lon="9.793495"><ele>549.0</ele><time>2026-04-26T10:39:01.936Z</time></trkpt><trkpt lat="44.4666967" lon="9.7933983"><ele>544.6666666666666</ele><time>2026-04-26T10:39:02.936Z</time></trkpt><trkpt lat="44.4667517" lon="9.7932933"><ele>540.3333333333334</ele><time>2026-04-26T10:39:03.936Z</time></trkpt><trkpt lat="44.4667967" lon="9.7932"><ele>536.0</ele><time>2026-04-26T10:39:04.936Z</time></trkpt><trkpt lat="44.4668367" lon="9.7930983"><ele>531.6666666666667</ele><time>2026-04-26T10:39:05.936Z</time></trkpt><trkpt lat="44.46688" lon="9.7930183"><ele>527.3333333333334</ele><time>2026-04-26T10:39:06.936Z</time></trkpt><trkpt lat="44.4669317" lon="9.792945"><ele>523.0</ele><time>2026-04-26T10:39:07.936Z</time></trkpt><trkpt lat="44.467" lon="9.7928833"><ele>523.0</ele><time>2026-04-26T10:39:08.936Z</time></trkpt><trkpt lat="44.4670717" lon="9.79285"><ele>523.0</ele><time>2026-04-26T10:39:09.936Z</time></trkpt><trkpt lat="44.4671533" lon="9.7928133"><ele>523.0</ele><time>2026-04-26T10:39:10.936Z</time></trkpt><trkpt lat="44.46725" lon="9.7927817"><ele>523.0</ele><time>2026-04-26T10:39:11.936Z</time></trkpt><trkpt lat="44.4673617" lon="9.7927567"><ele>523.0</ele><time>2026-04-26T10:39:12.936Z</time></trkpt><trkpt lat="44.4674733" lon="9.79273"><ele>526.0</ele><time>2026-04-26T10:39:13.936Z</time></trkpt><trkpt lat="44.467585" lon="9.7927067"><ele>529.0</ele><time>2026-04-26T10:39:14.935Z</time></trkpt><trkpt lat="44.4676933" lon="9.7926767"><ele>532.0</ele><time>2026-04-26T10:39:15.936Z</time></trkpt><trkpt lat="44.4677983" lon="9.792645"><ele>535.0</ele><time>2026-04-26T10:39:16.936Z</time></trkpt><trkpt lat="44.4678983" lon="9.7926033"><ele>538.0</ele><time>2026-04-26T10:39:17.935Z</time></trkpt><trkpt lat="44.4679967" lon="9.7925633"><ele>532.6666666666667</ele><time>2026-04-26T10:39:18.936Z</time></trkpt><trkpt lat="44.4680783" lon="9.792515"><ele>527.3333333333334</ele><time>2026-04-26T10:39:19.936Z</time></trkpt><trkpt lat="44.4681633" lon="9.7924717"><ele>522.0</ele><time>2026-04-26T10:39:20.936Z</time></trkpt><trkpt lat="44.46822" lon="9.79241"><ele>516.6666666666666</ele><time>2026-04-26T10:39:21.936Z</time></trkpt><trkpt lat="44.4682583" lon="9.7923267"><ele>511.3333333333333</ele><time>2026-04-26T10:39:23.936Z</time></trkpt><trkpt lat="44.4682417" lon="9.792235"><ele>506.0</ele><time>2026-04-26T10:39:25.936Z</time></trkpt><trkpt lat="44.468135" lon="9.7921133"><ele>506.0</ele><time>2026-04-26T10:39:27.936Z</time></trkpt><trkpt lat="44.4680633" lon="9.7920217"><ele>506.0</ele><time>2026-04-26T10:39:28.935Z</time></trkpt><trkpt lat="44.4679967" lon="9.7918933"><ele>506.0</ele><time>2026-04-26T10:39:29.936Z</time></trkpt><trkpt lat="44.467945" lon="9.7917117"><ele>506.0</ele><time>2026-04-26T10:39:30.936Z</time></trkpt><trkpt lat="44.467885" lon="9.79152"><ele>502.5</ele><time>2026-04-26T10:39:31.935Z</time></trkpt><trkpt lat="44.4678233" lon="9.791345"><ele>499.0</ele><time>2026-04-26T10:39:32.936Z</time></trkpt><trkpt lat="44.4677333" lon="9.7912133"><ele>495.5</ele><time>2026-04-26T10:39:33.936Z</time></trkpt><trkpt lat="44.4676017" lon="9.791135"><ele>492.0</ele><time>2026-04-26T10:39:34.936Z</time></trkpt><trkpt lat="44.46746" lon="9.79108"><ele>492.0</ele><time>2026-04-26T10:39:35.936Z</time></trkpt><trkpt lat="44.4672917" lon="9.79106"><ele>492.0</ele><time>2026-04-26T10:39:36.936Z</time></trkpt><trkpt lat="44.467115" lon="9.791035"><ele>492.0</ele><time>2026-04-26T10:39:37.936Z</time></trkpt><trkpt lat="44.4669433" lon="9.79101"><ele>498.0</ele><time>2026-04-26T10:39:38.936Z</time></trkpt><trkpt lat="44.4667783" lon="9.790965"><ele>504.0</ele><time>2026-04-26T10:39:39.935Z</time></trkpt><trkpt lat="44.4666033" lon="9.790945"><ele>510.0</ele><time>2026-04-26T10:39:40.936Z</time></trkpt><trkpt lat="44.466425" lon="9.7909133"><ele>509.33333333333337</ele><time>2026-04-26T10:39:41.936Z</time></trkpt><trkpt lat="44.46624" lon="9.7908717"><ele>508.6666666666667</ele><time>2026-04-26T10:39:42.936Z</time></trkpt><trkpt lat="44.4660517" lon="9.7908283"><ele>508.0</ele><time>2026-04-26T10:39:43.935Z</time></trkpt><trkpt lat="44.4658483" lon="9.7907767"><ele>508.0</ele><time>2026-04-26T10:39:44.936Z</time></trkpt><trkpt lat="44.4656583" lon="9.7907183"><ele>508.0</ele><time>2026-04-26T10:39:45.936Z</time></trkpt><trkpt lat="44.4654583" lon="9.7906667"><ele>508.0</ele><time>2026-04-26T10:39:46.935Z</time></trkpt><trkpt lat="44.4652567" lon="9.7906133"><ele>509.0</ele><time>2026-04-26T10:39:47.936Z</time></trkpt><trkpt lat="44.46506" lon="9.7905617"><ele>510.0</ele><time>2026-04-26T10:39:48.935Z</time></trkpt><trkpt lat="44.46485" lon="9.790515"><ele>511.0</ele><time>2026-04-26T10:39:49.936Z</time></trkpt><trkpt lat="44.464645" lon="9.79046"><ele>510.6666666666667</ele><time>2026-04-26T10:39:50.936Z</time></trkpt><trkpt lat="44.46444" lon="9.7904067"><ele>510.33333333333337</ele><time>2026-04-26T10:39:51.936Z</time></trkpt><trkpt lat="44.46423" lon="9.7903517"><ele>510.0</ele><time>2026-04-26T10:39:52.936Z</time></trkpt><trkpt lat="44.4640233" lon="9.7903"><ele>510.0</ele><time>2026-04-26T10:39:53.936Z</time></trkpt><trkpt lat="44.463825" lon="9.7902483"><ele>510.0</ele><time>2026-04-26T10:39:54.936Z</time></trkpt><trkpt lat="44.4636367" lon="9.790205"><ele>510.0</ele><time>2026-04-26T10:39:55.936Z</time></trkpt><trkpt lat="44.4634583" lon="9.7901617"><ele>513.6666666666666</ele><time>2026-04-26T10:39:56.936Z</time></trkpt><trkpt lat="44.463285" lon="9.7901133"><ele>517.3333333333333</ele><time>2026-04-26T10:39:57.936Z</time></trkpt><trkpt lat="44.46311" lon="9.79006"><ele>521.0</ele><time>2026-04-26T10:39:58.935Z</time></trkpt><trkpt lat="44.462945" lon="9.7899933"><ele>521.0</ele><time>2026-04-26T10:39:59.936Z</time></trkpt><trkpt lat="44.4627933" lon="9.7898883"><ele>521.0</ele><time>2026-04-26T10:40:00.936Z</time></trkpt><trkpt lat="44.4626533" lon="9.78973"><ele>521.0</ele><time>2026-04-26T10:40:01.936Z</time></trkpt><trkpt lat="44.462525" lon="9.7895417"><ele>521.0</ele><time>2026-04-26T10:40:02.935Z</time></trkpt><trkpt lat="44.462395" lon="9.78935"><ele>521.0</ele><time>2026-04-26T10:40:03.936Z</time></trkpt><trkpt lat="44.4622667" lon="9.7891467"><ele>521.0</ele><time>2026-04-26T10:40:04.936Z</time></trkpt><trkpt lat="44.4621283" lon="9.78894"><ele>521.6666666666666</ele><time>2026-04-26T10:40:05.936Z</time></trkpt><trkpt lat="44.4619867" lon="9.7887267"><ele>522.3333333333334</ele><time>2026-04-26T10:40:06.936Z</time></trkpt><trkpt lat="44.4618517" lon="9.78851"><ele>523.0</ele><time>2026-04-26T10:40:07.936Z</time></trkpt><trkpt lat="44.4617067" lon="9.7883017"><ele>526.3333333333334</ele><time>2026-04-26T10:40:08.935Z</time></trkpt><trkpt lat="44.461555" lon="9.7880867"><ele>529.6666666666666</ele><time>2026-04-26T10:40:09.936Z</time></trkpt><trkpt lat="44.4613983" lon="9.7878667"><ele>533.0</ele><time>2026-04-26T10:40:10.935Z</time></trkpt><trkpt lat="44.4612517" lon="9.7876433"><ele>533.6666666666666</ele><time>2026-04-26T10:40:11.936Z</time></trkpt><trkpt lat="44.461115" lon="9.78741"><ele>534.3333333333334</ele><time>2026-04-26T10:40:12.936Z</time></trkpt><trkpt lat="44.4609667" lon="9.7871967"><ele>535.0</ele><time>2026-04-26T10:40:13.936Z</time></trkpt><trkpt lat="44.4608167" lon="9.7869667"><ele>537.6666666666667</ele><time>2026-04-26T10:40:14.936Z</time></trkpt><trkpt lat="44.460665" lon="9.7867433"><ele>540.3333333333334</ele><time>2026-04-26T10:40:15.936Z</time></trkpt><trkpt lat="44.46051" lon="9.7865367"><ele>543.0</ele><time>2026-04-26T10:40:16.936Z</time></trkpt><trkpt lat="44.4603583" lon="9.7863617"><ele>543.0</ele><time>2026-04-26T10:40:17.936Z</time></trkpt><trkpt lat="44.4601967" lon="9.7862283"><ele>543.0</ele><time>2026-04-26T10:40:18.936Z</time></trkpt><trkpt lat="44.460025" lon="9.786135"><ele>543.0</ele><time>2026-04-26T10:40:19.936Z</time></trkpt><trkpt lat="44.459845" lon="9.7860767"><ele>543.0</ele><time>2026-04-26T10:40:20.936Z</time></trkpt><trkpt lat="44.4596683" lon="9.7860333"><ele>543.0</ele><time>2026-04-26T10:40:21.936Z</time></trkpt><trkpt lat="44.4595033" lon="9.78598"><ele>543.0</ele><time>2026-04-26T10:40:22.936Z</time></trkpt><trkpt lat="44.4593683" lon="9.7859"><ele>545.6666666666666</ele><time>2026-04-26T10:40:23.936Z</time></trkpt><trkpt lat="44.4592683" lon="9.7857517"><ele>548.3333333333333</ele><time>2026-04-26T10:40:24.935Z</time></trkpt><trkpt lat="44.4592133" lon="9.7855517"><ele>551.0</ele><time>2026-04-26T10:40:25.935Z</time></trkpt><trkpt lat="44.45919" lon="9.7853183"><ele>553.6666666666666</ele><time>2026-04-26T10:40:26.936Z</time></trkpt><trkpt lat="44.4591717" lon="9.785085"><ele>556.3333333333334</ele><time>2026-04-26T10:40:27.936Z</time></trkpt><trkpt lat="44.4591317" lon="9.78487"><ele>559.0</ele><time>2026-04-26T10:40:28.936Z</time></trkpt><trkpt lat="44.4590633" lon="9.7846833"><ele>559.0</ele><time>2026-04-26T10:40:29.935Z</time></trkpt><trkpt lat="44.4589717" lon="9.7845183"><ele>559.0</ele><time>2026-04-26T10:40:30.936Z</time></trkpt><trkpt lat="44.45884" lon="9.7843733"><ele>559.0</ele><time>2026-04-26T10:40:31.936Z</time></trkpt><trkpt lat="44.4586967" lon="9.78424"><ele>561.3333333333334</ele><time>2026-04-26T10:40:32.936Z</time></trkpt><trkpt lat="44.45855" lon="9.7841117"><ele>563.6666666666666</ele><time>2026-04-26T10:40:33.935Z</time></trkpt><trkpt lat="44.4584133" lon="9.7839833"><ele>566.0</ele><time>2026-04-26T10:40:34.936Z</time></trkpt><trkpt lat="44.4582733" lon="9.783885"><ele>566.0</ele><time>2026-04-26T10:40:35.936Z</time></trkpt><trkpt lat="44.458115" lon="9.7838583"><ele>566.0</ele><time>2026-04-26T10:40:36.936Z</time></trkpt><trkpt lat="44.4579483" lon="9.7838933"><ele>566.0</ele><time>2026-04-26T10:40:37.936Z</time></trkpt><trkpt lat="44.457785" lon="9.7839317"><ele>565.6666666666666</ele><time>2026-04-26T10:40:38.935Z</time></trkpt><trkpt lat="44.4576267" lon="9.7839333"><ele>565.3333333333334</ele><time>2026-04-26T10:40:39.936Z</time></trkpt><trkpt lat="44.4574767" lon="9.7838817"><ele>565.0</ele><time>2026-04-26T10:40:40.935Z</time></trkpt><trkpt lat="44.4573367" lon="9.7837633"><ele>565.0</ele><time>2026-04-26T10:40:41.936Z</time></trkpt><trkpt lat="44.4572117" lon="9.783595"><ele>565.0</ele><time>2026-04-26T10:40:42.936Z</time></trkpt><trkpt lat="44.4571017" lon="9.7833967"><ele>565.0</ele><time>2026-04-26T10:40:43.936Z</time></trkpt><trkpt lat="44.4569983" lon="9.7831783"><ele>565.0</ele><time>2026-04-26T10:40:44.935Z</time></trkpt><trkpt lat="44.4569017" lon="9.7829583"><ele>565.0</ele><time>2026-04-26T10:40:45.936Z</time></trkpt><trkpt lat="44.4568017" lon="9.782775"><ele>565.0</ele><time>2026-04-26T10:40:46.936Z</time></trkpt><trkpt lat="44.4566867" lon="9.7826217"><ele>568.3333333333334</ele><time>2026-04-26T10:40:47.936Z</time></trkpt><trkpt lat="44.456555" lon="9.7825083"><ele>571.6666666666666</ele><time>2026-04-26T10:40:48.935Z</time></trkpt><trkpt lat="44.456405" lon="9.7824467"><ele>575.0</ele><time>2026-04-26T10:40:49.936Z</time></trkpt><trkpt lat="44.4562517" lon="9.7823767"><ele>575.0</ele><time>2026-04-26T10:40:50.936Z</time></trkpt><trkpt lat="44.4560983" lon="9.7822667"><ele>575.0</ele><time>2026-04-26T10:40:51.935Z</time></trkpt><trkpt lat="44.4559533" lon="9.7821217"><ele>575.0</ele><time>2026-04-26T10:40:52.936Z</time></trkpt><trkpt lat="44.4558133" lon="9.7819683"><ele>582.0</ele><time>2026-04-26T10:40:53.935Z</time></trkpt><trkpt lat="44.455665" lon="9.7818333"><ele>589.0</ele><time>2026-04-26T10:40:54.936Z</time></trkpt><trkpt lat="44.4554983" lon="9.7817367"><ele>596.0</ele><time>2026-04-26T10:40:55.936Z</time></trkpt><trkpt lat="44.45532" lon="9.781675"><ele>596.0</ele><time>2026-04-26T10:40:56.936Z</time></trkpt><trkpt lat="44.4551383" lon="9.7816333"><ele>596.0</ele><time>2026-04-26T10:40:57.936Z</time></trkpt><trkpt lat="44.45496" lon="9.7816017"><ele>596.0</ele><time>2026-04-26T10:40:58.936Z</time></trkpt><trkpt lat="44.4547767" lon="9.7815917"><ele>597.0</ele><time>2026-04-26T10:40:59.935Z</time></trkpt><trkpt lat="44.454595" lon="9.781605"><ele>598.0</ele><time>2026-04-26T10:41:00.936Z</time></trkpt><trkpt lat="44.4544167" lon="9.78163"><ele>599.0</ele><time>2026-04-26T10:41:01.936Z</time></trkpt><trkpt lat="44.454245" lon="9.7816583"><ele>599.0</ele><time>2026-04-26T10:41:02.936Z</time></trkpt><trkpt lat="44.454085" lon="9.7816717"><ele>599.0</ele><time>2026-04-26T10:41:03.936Z</time></trkpt><trkpt lat="44.45394" lon="9.781675"><ele>599.0</ele><time>2026-04-26T10:41:04.936Z</time></trkpt><trkpt lat="44.4538167" lon="9.7816383"><ele>599.0</ele><time>2026-04-26T10:41:05.936Z</time></trkpt><trkpt lat="44.453705" lon="9.7815483"><ele>594.6666666666666</ele><time>2026-04-26T10:41:06.936Z</time></trkpt><trkpt lat="44.4535967" lon="9.781425"><ele>590.3333333333334</ele><time>2026-04-26T10:41:07.936Z</time></trkpt><trkpt lat="44.4534917" lon="9.78128"><ele>586.0</ele><time>2026-04-26T10:41:08.936Z</time></trkpt><trkpt lat="44.453375" lon="9.7811133"><ele>586.6666666666667</ele><time>2026-04-26T10:41:09.936Z</time></trkpt><trkpt lat="44.4532383" lon="9.7809483"><ele>587.3333333333334</ele><time>2026-04-26T10:41:10.936Z</time></trkpt><trkpt lat="44.4530983" lon="9.78079"><ele>588.0</ele><time>2026-04-26T10:41:11.936Z</time></trkpt><trkpt lat="44.45295" lon="9.7806233"><ele>588.0</ele><time>2026-04-26T10:41:12.936Z</time></trkpt><trkpt lat="44.4528017" lon="9.780445"><ele>588.0</ele><time>2026-04-26T10:41:13.936Z</time></trkpt><trkpt lat="44.45266" lon="9.7802783"><ele>588.0</ele><time>2026-04-26T10:41:14.936Z</time></trkpt><trkpt lat="44.4525033" lon="9.7801233"><ele>592.0</ele><time>2026-04-26T10:41:15.936Z</time></trkpt><trkpt lat="44.4523333" lon="9.780025"><ele>596.0</ele><time>2026-04-26T10:41:16.936Z</time></trkpt><trkpt lat="44.4521567" lon="9.7799617"><ele>600.0</ele><time>2026-04-26T10:41:17.935Z</time></trkpt><trkpt lat="44.45197" lon="9.7799117"><ele>601.3333333333334</ele><time>2026-04-26T10:41:18.936Z</time></trkpt><trkpt lat="44.4517867" lon="9.7798983"><ele>602.6666666666667</ele><time>2026-04-26T10:41:19.936Z</time></trkpt><trkpt lat="44.4516183" lon="9.77993"><ele>604.0</ele><time>2026-04-26T10:41:20.936Z</time></trkpt><trkpt lat="44.4514733" lon="9.780005"><ele>604.0</ele><time>2026-04-26T10:41:21.936Z</time></trkpt><trkpt lat="44.4513567" lon="9.780105"><ele>604.0</ele><time>2026-04-26T10:41:22.936Z</time></trkpt><trkpt lat="44.45129" lon="9.7801767"><ele>606.0</ele><time>2026-04-26T10:41:23.936Z</time></trkpt></trkseg></trk></gpx>